<?xml version="1.0" encoding="UTF-8" standalone="no" ?>
<gpx xmlns="http://www.topografix.com/GPX/1/1" xmlns:xsi="http://www.w3.org/2001/XMLSchema-instance" xsi:schemaLocation="http://www.topografix.com/GPX/1/1 http://www.topografix.com/GPX/1/1/gpx.xsd" version="1.1" creator="VisuGPX - https://www.visugpx.com">
  <metadata>
    <name>Gennes 37Km, perso</name>
  </metadata>
  <trk>
    <name><![CDATA[Gennes 37Km, perso_1]]></name>
    <trkseg>
      <trkpt lat="47.32402" lon="-0.22908">
        <ele>64.8</ele>
        <time>2012-11-04T10:32:45Z</time>
      </trkpt>
      <trkpt lat="47.324" lon="-0.22908">
        <ele>64.9</ele>
        <time>2012-11-04T10:32:56Z</time>
      </trkpt>
      <trkpt lat="47.32392" lon="-0.229">
        <ele>65.5</ele>
        <time>2012-11-04T10:33:02Z</time>
      </trkpt>
      <trkpt lat="47.32388" lon="-0.22895">
        <ele>65.8</ele>
        <time>2012-11-04T10:33:06Z</time>
      </trkpt>
      <trkpt lat="47.32386" lon="-0.22894">
        <ele>65.9</ele>
        <time>2012-11-04T10:33:07Z</time>
      </trkpt>
      <trkpt lat="47.32384" lon="-0.22893">
        <ele>65.9</ele>
        <time>2012-11-04T10:33:08Z</time>
      </trkpt>
      <trkpt lat="47.32382" lon="-0.22892">
        <ele>65.9</ele>
        <time>2012-11-04T10:33:09Z</time>
      </trkpt>
      <trkpt lat="47.3238" lon="-0.2289">
        <ele>66</ele>
        <time>2012-11-04T10:33:10Z</time>
      </trkpt>
      <trkpt lat="47.32378" lon="-0.22888">
        <ele>66</ele>
        <time>2012-11-04T10:33:11Z</time>
      </trkpt>
      <trkpt lat="47.32375" lon="-0.22885">
        <ele>66</ele>
        <time>2012-11-04T10:33:12Z</time>
      </trkpt>
      <trkpt lat="47.32361" lon="-0.22876">
        <ele>66</ele>
        <time>2012-11-04T10:33:18Z</time>
      </trkpt>
      <trkpt lat="47.32342" lon="-0.22867">
        <ele>66.1</ele>
        <time>2012-11-04T10:33:24Z</time>
      </trkpt>
      <trkpt lat="47.32317" lon="-0.22861">
        <ele>66</ele>
        <time>2012-11-04T10:33:30Z</time>
      </trkpt>
      <trkpt lat="47.32282" lon="-0.22859">
        <ele>65.9</ele>
        <time>2012-11-04T10:33:38Z</time>
      </trkpt>
      <trkpt lat="47.32261" lon="-0.22853">
        <ele>65.5</ele>
        <time>2012-11-04T10:33:43Z</time>
      </trkpt>
      <trkpt lat="47.32237" lon="-0.22846">
        <ele>64.9</ele>
        <time>2012-11-04T10:33:49Z</time>
      </trkpt>
      <trkpt lat="47.32208" lon="-0.22839">
        <ele>64.8</ele>
        <time>2012-11-04T10:33:56Z</time>
      </trkpt>
      <trkpt lat="47.32204" lon="-0.22839">
        <ele>64.9</ele>
        <time>2012-11-04T10:33:57Z</time>
      </trkpt>
      <trkpt lat="47.32199" lon="-0.22839">
        <ele>65.1</ele>
        <time>2012-11-04T10:33:58Z</time>
      </trkpt>
      <trkpt lat="47.32195" lon="-0.2284">
        <ele>65.2</ele>
        <time>2012-11-04T10:33:59Z</time>
      </trkpt>
      <trkpt lat="47.32191" lon="-0.22841">
        <ele>65.2</ele>
        <time>2012-11-04T10:34:00Z</time>
      </trkpt>
      <trkpt lat="47.32187" lon="-0.22842">
        <ele>65</ele>
        <time>2012-11-04T10:34:01Z</time>
      </trkpt>
      <trkpt lat="47.32178" lon="-0.22845">
        <ele>64.8</ele>
        <time>2012-11-04T10:34:04Z</time>
      </trkpt>
      <trkpt lat="47.32174" lon="-0.22848">
        <ele>64.8</ele>
        <time>2012-11-04T10:34:05Z</time>
      </trkpt>
      <trkpt lat="47.3217" lon="-0.22849">
        <ele>64.7</ele>
        <time>2012-11-04T10:34:06Z</time>
      </trkpt>
      <trkpt lat="47.32167" lon="-0.2285">
        <ele>64.6</ele>
        <time>2012-11-04T10:34:07Z</time>
      </trkpt>
      <trkpt lat="47.32163" lon="-0.22851">
        <ele>64.6</ele>
        <time>2012-11-04T10:34:08Z</time>
      </trkpt>
      <trkpt lat="47.32142" lon="-0.22858">
        <ele>64.1</ele>
        <time>2012-11-04T10:34:13Z</time>
      </trkpt>
      <trkpt lat="47.32138" lon="-0.2286">
        <ele>64</ele>
        <time>2012-11-04T10:34:14Z</time>
      </trkpt>
      <trkpt lat="47.32134" lon="-0.22861">
        <ele>64</ele>
        <time>2012-11-04T10:34:15Z</time>
      </trkpt>
      <trkpt lat="47.32131" lon="-0.22861">
        <ele>64</ele>
        <time>2012-11-04T10:34:16Z</time>
      </trkpt>
      <trkpt lat="47.32127" lon="-0.22862">
        <ele>64</ele>
        <time>2012-11-04T10:34:17Z</time>
      </trkpt>
      <trkpt lat="47.32124" lon="-0.22863">
        <ele>64.1</ele>
        <time>2012-11-04T10:34:18Z</time>
      </trkpt>
      <trkpt lat="47.32121" lon="-0.22862">
        <ele>64</ele>
        <time>2012-11-04T10:34:19Z</time>
      </trkpt>
      <trkpt lat="47.32119" lon="-0.22858">
        <ele>64.1</ele>
        <time>2012-11-04T10:34:20Z</time>
      </trkpt>
      <trkpt lat="47.32118" lon="-0.22854">
        <ele>64.2</ele>
        <time>2012-11-04T10:34:21Z</time>
      </trkpt>
      <trkpt lat="47.32118" lon="-0.22851">
        <ele>64.3</ele>
        <time>2012-11-04T10:34:22Z</time>
      </trkpt>
      <trkpt lat="47.32119" lon="-0.22833">
        <ele>64.7</ele>
        <time>2012-11-04T10:34:26Z</time>
      </trkpt>
      <trkpt lat="47.3212" lon="-0.2283">
        <ele>64.8</ele>
        <time>2012-11-04T10:34:27Z</time>
      </trkpt>
      <trkpt lat="47.32121" lon="-0.22825">
        <ele>65</ele>
        <time>2012-11-04T10:34:28Z</time>
      </trkpt>
      <trkpt lat="47.32122" lon="-0.22819">
        <ele>65.2</ele>
        <time>2012-11-04T10:34:30Z</time>
      </trkpt>
      <trkpt lat="47.32123" lon="-0.22816">
        <ele>65.3</ele>
        <time>2012-11-04T10:34:31Z</time>
      </trkpt>
      <trkpt lat="47.32124" lon="-0.22812">
        <ele>65.4</ele>
        <time>2012-11-04T10:34:32Z</time>
      </trkpt>
      <trkpt lat="47.32124" lon="-0.22808">
        <ele>65.5</ele>
        <time>2012-11-04T10:34:33Z</time>
      </trkpt>
      <trkpt lat="47.32124" lon="-0.22804">
        <ele>65.8</ele>
        <time>2012-11-04T10:34:34Z</time>
      </trkpt>
      <trkpt lat="47.32124" lon="-0.228">
        <ele>66.2</ele>
        <time>2012-11-04T10:34:35Z</time>
      </trkpt>
      <trkpt lat="47.32124" lon="-0.22795">
        <ele>66.7</ele>
        <time>2012-11-04T10:34:36Z</time>
      </trkpt>
      <trkpt lat="47.32123" lon="-0.2279">
        <ele>67.4</ele>
        <time>2012-11-04T10:34:37Z</time>
      </trkpt>
      <trkpt lat="47.32119" lon="-0.2278">
        <ele>68.9</ele>
        <time>2012-11-04T10:34:40Z</time>
      </trkpt>
      <trkpt lat="47.32118" lon="-0.22757">
        <ele>70.9</ele>
        <time>2012-11-04T10:34:46Z</time>
      </trkpt>
      <trkpt lat="47.32129" lon="-0.22726">
        <ele>72.1</ele>
        <time>2012-11-04T10:34:53Z</time>
      </trkpt>
      <trkpt lat="47.32133" lon="-0.22702">
        <ele>72.4</ele>
        <time>2012-11-04T10:34:58Z</time>
      </trkpt>
      <trkpt lat="47.32147" lon="-0.22671">
        <ele>72.3</ele>
        <time>2012-11-04T10:35:05Z</time>
      </trkpt>
      <trkpt lat="47.32161" lon="-0.22653">
        <ele>71.4</ele>
        <time>2012-11-04T10:35:10Z</time>
      </trkpt>
      <trkpt lat="47.3217" lon="-0.22638">
        <ele>70.5</ele>
        <time>2012-11-04T10:35:15Z</time>
      </trkpt>
      <trkpt lat="47.32182" lon="-0.22618">
        <ele>69.2</ele>
        <time>2012-11-04T10:35:21Z</time>
      </trkpt>
      <trkpt lat="47.32192" lon="-0.22594">
        <ele>68.3</ele>
        <time>2012-11-04T10:35:27Z</time>
      </trkpt>
      <trkpt lat="47.322" lon="-0.22566">
        <ele>67.5</ele>
        <time>2012-11-04T10:35:32Z</time>
      </trkpt>
      <trkpt lat="47.32202" lon="-0.22561">
        <ele>67.4</ele>
        <time>2012-11-04T10:35:33Z</time>
      </trkpt>
      <trkpt lat="47.32208" lon="-0.22537">
        <ele>67.7</ele>
        <time>2012-11-04T10:35:39Z</time>
      </trkpt>
      <trkpt lat="47.32208" lon="-0.22532">
        <ele>67.9</ele>
        <time>2012-11-04T10:35:40Z</time>
      </trkpt>
      <trkpt lat="47.32208" lon="-0.22527">
        <ele>68.1</ele>
        <time>2012-11-04T10:35:41Z</time>
      </trkpt>
      <trkpt lat="47.32209" lon="-0.22518">
        <ele>68.3</ele>
        <time>2012-11-04T10:35:43Z</time>
      </trkpt>
      <trkpt lat="47.32209" lon="-0.22513">
        <ele>68.5</ele>
        <time>2012-11-04T10:35:44Z</time>
      </trkpt>
      <trkpt lat="47.3221" lon="-0.22509">
        <ele>68.6</ele>
        <time>2012-11-04T10:35:45Z</time>
      </trkpt>
      <trkpt lat="47.32213" lon="-0.22504">
        <ele>68.5</ele>
        <time>2012-11-04T10:35:46Z</time>
      </trkpt>
      <trkpt lat="47.32216" lon="-0.225">
        <ele>68.4</ele>
        <time>2012-11-04T10:35:47Z</time>
      </trkpt>
      <trkpt lat="47.32219" lon="-0.22496">
        <ele>68.3</ele>
        <time>2012-11-04T10:35:48Z</time>
      </trkpt>
      <trkpt lat="47.32221" lon="-0.22489">
        <ele>68.1</ele>
        <time>2012-11-04T10:35:49Z</time>
      </trkpt>
      <trkpt lat="47.32223" lon="-0.22482">
        <ele>67.9</ele>
        <time>2012-11-04T10:35:50Z</time>
      </trkpt>
      <trkpt lat="47.32224" lon="-0.22475">
        <ele>67.9</ele>
        <time>2012-11-04T10:35:51Z</time>
      </trkpt>
      <trkpt lat="47.32225" lon="-0.22469">
        <ele>67.9</ele>
        <time>2012-11-04T10:35:52Z</time>
      </trkpt>
      <trkpt lat="47.32226" lon="-0.22462">
        <ele>68.1</ele>
        <time>2012-11-04T10:35:53Z</time>
      </trkpt>
      <trkpt lat="47.32228" lon="-0.22456">
        <ele>68.2</ele>
        <time>2012-11-04T10:35:54Z</time>
      </trkpt>
      <trkpt lat="47.32241" lon="-0.22427">
        <ele>68.3</ele>
        <time>2012-11-04T10:35:59Z</time>
      </trkpt>
      <trkpt lat="47.32247" lon="-0.22417">
        <ele>68.2</ele>
        <time>2012-11-04T10:36:01Z</time>
      </trkpt>
      <trkpt lat="47.3226" lon="-0.22398">
        <ele>67.7</ele>
        <time>2012-11-04T10:36:06Z</time>
      </trkpt>
      <trkpt lat="47.32271" lon="-0.22381">
        <ele>66.9</ele>
        <time>2012-11-04T10:36:12Z</time>
      </trkpt>
      <trkpt lat="47.32278" lon="-0.22355">
        <ele>67</ele>
        <time>2012-11-04T10:36:17Z</time>
      </trkpt>
      <trkpt lat="47.32274" lon="-0.22325">
        <ele>67.2</ele>
        <time>2012-11-04T10:36:22Z</time>
      </trkpt>
      <trkpt lat="47.32273" lon="-0.22318">
        <ele>67.2</ele>
        <time>2012-11-04T10:36:23Z</time>
      </trkpt>
      <trkpt lat="47.3227" lon="-0.22311">
        <ele>67.3</ele>
        <time>2012-11-04T10:36:24Z</time>
      </trkpt>
      <trkpt lat="47.32266" lon="-0.22293">
        <ele>67.2</ele>
        <time>2012-11-04T10:36:27Z</time>
      </trkpt>
      <trkpt lat="47.32266" lon="-0.22286">
        <ele>67</ele>
        <time>2012-11-04T10:36:28Z</time>
      </trkpt>
      <trkpt lat="47.32266" lon="-0.22279">
        <ele>66.9</ele>
        <time>2012-11-04T10:36:29Z</time>
      </trkpt>
      <trkpt lat="47.32267" lon="-0.22273">
        <ele>66.9</ele>
        <time>2012-11-04T10:36:30Z</time>
      </trkpt>
      <trkpt lat="47.32267" lon="-0.22266">
        <ele>67</ele>
        <time>2012-11-04T10:36:31Z</time>
      </trkpt>
      <trkpt lat="47.32271" lon="-0.22246">
        <ele>67.2</ele>
        <time>2012-11-04T10:36:34Z</time>
      </trkpt>
      <trkpt lat="47.32278" lon="-0.22213">
        <ele>67.3</ele>
        <time>2012-11-04T10:36:39Z</time>
      </trkpt>
      <trkpt lat="47.32283" lon="-0.22201">
        <ele>67.6</ele>
        <time>2012-11-04T10:36:41Z</time>
      </trkpt>
      <trkpt lat="47.3229" lon="-0.2217">
        <ele>68.4</ele>
        <time>2012-11-04T10:36:46Z</time>
      </trkpt>
      <trkpt lat="47.3229" lon="-0.22164">
        <ele>68.7</ele>
        <time>2012-11-04T10:36:47Z</time>
      </trkpt>
      <trkpt lat="47.32288" lon="-0.2216">
        <ele>68.9</ele>
        <time>2012-11-04T10:36:48Z</time>
      </trkpt>
      <trkpt lat="47.32285" lon="-0.22158">
        <ele>69.1</ele>
        <time>2012-11-04T10:36:49Z</time>
      </trkpt>
      <trkpt lat="47.32281" lon="-0.22155">
        <ele>69.3</ele>
        <time>2012-11-04T10:36:50Z</time>
      </trkpt>
      <trkpt lat="47.32278" lon="-0.22153">
        <ele>69.5</ele>
        <time>2012-11-04T10:36:51Z</time>
      </trkpt>
      <trkpt lat="47.32274" lon="-0.22152">
        <ele>69.6</ele>
        <time>2012-11-04T10:36:52Z</time>
      </trkpt>
      <trkpt lat="47.3227" lon="-0.22149">
        <ele>69.7</ele>
        <time>2012-11-04T10:36:53Z</time>
      </trkpt>
      <trkpt lat="47.32262" lon="-0.22145">
        <ele>69.9</ele>
        <time>2012-11-04T10:36:55Z</time>
      </trkpt>
      <trkpt lat="47.32244" lon="-0.22131">
        <ele>70.9</ele>
        <time>2012-11-04T10:37:00Z</time>
      </trkpt>
      <trkpt lat="47.32241" lon="-0.22128">
        <ele>71.3</ele>
        <time>2012-11-04T10:37:01Z</time>
      </trkpt>
      <trkpt lat="47.32237" lon="-0.22125">
        <ele>71.7</ele>
        <time>2012-11-04T10:37:02Z</time>
      </trkpt>
      <trkpt lat="47.32234" lon="-0.22122">
        <ele>72</ele>
        <time>2012-11-04T10:37:03Z</time>
      </trkpt>
      <trkpt lat="47.3223" lon="-0.22119">
        <ele>72.4</ele>
        <time>2012-11-04T10:37:04Z</time>
      </trkpt>
      <trkpt lat="47.32205" lon="-0.22112">
        <ele>73.6</ele>
        <time>2012-11-04T10:37:10Z</time>
      </trkpt>
      <trkpt lat="47.32179" lon="-0.22109">
        <ele>74.6</ele>
        <time>2012-11-04T10:37:17Z</time>
      </trkpt>
      <trkpt lat="47.3216" lon="-0.22111">
        <ele>75.2</ele>
        <time>2012-11-04T10:37:22Z</time>
      </trkpt>
      <trkpt lat="47.32157" lon="-0.22113">
        <ele>75.3</ele>
        <time>2012-11-04T10:37:23Z</time>
      </trkpt>
      <trkpt lat="47.32154" lon="-0.22113">
        <ele>75.5</ele>
        <time>2012-11-04T10:37:24Z</time>
      </trkpt>
      <trkpt lat="47.32131" lon="-0.22111">
        <ele>76.3</ele>
        <time>2012-11-04T10:37:30Z</time>
      </trkpt>
      <trkpt lat="47.32108" lon="-0.221">
        <ele>77</ele>
        <time>2012-11-04T10:37:36Z</time>
      </trkpt>
      <trkpt lat="47.321" lon="-0.22094">
        <ele>77</ele>
        <time>2012-11-04T10:37:38Z</time>
      </trkpt>
      <trkpt lat="47.32062" lon="-0.22068">
        <ele>77.6</ele>
        <time>2012-11-04T10:37:47Z</time>
      </trkpt>
      <trkpt lat="47.32058" lon="-0.22064">
        <ele>77.7</ele>
        <time>2012-11-04T10:37:48Z</time>
      </trkpt>
      <trkpt lat="47.32055" lon="-0.2206">
        <ele>77.8</ele>
        <time>2012-11-04T10:37:49Z</time>
      </trkpt>
      <trkpt lat="47.32026" lon="-0.22032">
        <ele>78</ele>
        <time>2012-11-04T10:37:57Z</time>
      </trkpt>
      <trkpt lat="47.32022" lon="-0.2203">
        <ele>78</ele>
        <time>2012-11-04T10:37:58Z</time>
      </trkpt>
      <trkpt lat="47.32018" lon="-0.22029">
        <ele>78</ele>
        <time>2012-11-04T10:37:59Z</time>
      </trkpt>
      <trkpt lat="47.32014" lon="-0.22028">
        <ele>78</ele>
        <time>2012-11-04T10:38:00Z</time>
      </trkpt>
      <trkpt lat="47.32009" lon="-0.22028">
        <ele>78</ele>
        <time>2012-11-04T10:38:01Z</time>
      </trkpt>
      <trkpt lat="47.32005" lon="-0.22029">
        <ele>78</ele>
        <time>2012-11-04T10:38:02Z</time>
      </trkpt>
      <trkpt lat="47.32002" lon="-0.2203">
        <ele>78</ele>
        <time>2012-11-04T10:38:03Z</time>
      </trkpt>
      <trkpt lat="47.31999" lon="-0.22031">
        <ele>78</ele>
        <time>2012-11-04T10:38:04Z</time>
      </trkpt>
      <trkpt lat="47.31996" lon="-0.22034">
        <ele>77.9</ele>
        <time>2012-11-04T10:38:05Z</time>
      </trkpt>
      <trkpt lat="47.31993" lon="-0.22037">
        <ele>77.7</ele>
        <time>2012-11-04T10:38:06Z</time>
      </trkpt>
      <trkpt lat="47.31987" lon="-0.22045">
        <ele>77.5</ele>
        <time>2012-11-04T10:38:08Z</time>
      </trkpt>
      <trkpt lat="47.31983" lon="-0.22047">
        <ele>77.4</ele>
        <time>2012-11-04T10:38:09Z</time>
      </trkpt>
      <trkpt lat="47.31963" lon="-0.22058">
        <ele>76.9</ele>
        <time>2012-11-04T10:38:14Z</time>
      </trkpt>
      <trkpt lat="47.3195" lon="-0.22065">
        <ele>76.7</ele>
        <time>2012-11-04T10:38:17Z</time>
      </trkpt>
      <trkpt lat="47.31942" lon="-0.22071">
        <ele>76.4</ele>
        <time>2012-11-04T10:38:19Z</time>
      </trkpt>
      <trkpt lat="47.31921" lon="-0.22084">
        <ele>76</ele>
        <time>2012-11-04T10:38:25Z</time>
      </trkpt>
      <trkpt lat="47.31902" lon="-0.22093">
        <ele>76.3</ele>
        <time>2012-11-04T10:38:31Z</time>
      </trkpt>
      <trkpt lat="47.31887" lon="-0.22104">
        <ele>76.3</ele>
        <time>2012-11-04T10:38:38Z</time>
      </trkpt>
      <trkpt lat="47.31871" lon="-0.22121">
        <ele>76.6</ele>
        <time>2012-11-04T10:38:44Z</time>
      </trkpt>
      <trkpt lat="47.31857" lon="-0.22146">
        <ele>77.1</ele>
        <time>2012-11-04T10:38:50Z</time>
      </trkpt>
      <trkpt lat="47.31841" lon="-0.22186">
        <ele>77.7</ele>
        <time>2012-11-04T10:38:59Z</time>
      </trkpt>
      <trkpt lat="47.31828" lon="-0.22211">
        <ele>78.3</ele>
        <time>2012-11-04T10:39:05Z</time>
      </trkpt>
      <trkpt lat="47.3181" lon="-0.22235">
        <ele>78.8</ele>
        <time>2012-11-04T10:39:12Z</time>
      </trkpt>
      <trkpt lat="47.31801" lon="-0.22251">
        <ele>79.1</ele>
        <time>2012-11-04T10:39:17Z</time>
      </trkpt>
      <trkpt lat="47.31787" lon="-0.22284">
        <ele>77.8</ele>
        <time>2012-11-04T10:39:24Z</time>
      </trkpt>
      <trkpt lat="47.31784" lon="-0.22288">
        <ele>77.6</ele>
        <time>2012-11-04T10:39:25Z</time>
      </trkpt>
      <trkpt lat="47.31783" lon="-0.22291">
        <ele>77.5</ele>
        <time>2012-11-04T10:39:26Z</time>
      </trkpt>
      <trkpt lat="47.31769" lon="-0.22315">
        <ele>77.2</ele>
        <time>2012-11-04T10:39:32Z</time>
      </trkpt>
      <trkpt lat="47.31762" lon="-0.22335">
        <ele>77</ele>
        <time>2012-11-04T10:39:37Z</time>
      </trkpt>
      <trkpt lat="47.31749" lon="-0.22356">
        <ele>77</ele>
        <time>2012-11-04T10:39:42Z</time>
      </trkpt>
      <trkpt lat="47.31744" lon="-0.22363">
        <ele>77.2</ele>
        <time>2012-11-04T10:39:44Z</time>
      </trkpt>
      <trkpt lat="47.31743" lon="-0.22368">
        <ele>77.3</ele>
        <time>2012-11-04T10:39:45Z</time>
      </trkpt>
      <trkpt lat="47.31742" lon="-0.22373">
        <ele>77.3</ele>
        <time>2012-11-04T10:39:46Z</time>
      </trkpt>
      <trkpt lat="47.31742" lon="-0.22378">
        <ele>77.3</ele>
        <time>2012-11-04T10:39:47Z</time>
      </trkpt>
      <trkpt lat="47.31741" lon="-0.22382">
        <ele>77.3</ele>
        <time>2012-11-04T10:39:48Z</time>
      </trkpt>
      <trkpt lat="47.31739" lon="-0.22388">
        <ele>77.4</ele>
        <time>2012-11-04T10:39:49Z</time>
      </trkpt>
      <trkpt lat="47.31737" lon="-0.22393">
        <ele>77.5</ele>
        <time>2012-11-04T10:39:50Z</time>
      </trkpt>
      <trkpt lat="47.31734" lon="-0.22396">
        <ele>77.6</ele>
        <time>2012-11-04T10:39:51Z</time>
      </trkpt>
      <trkpt lat="47.31731" lon="-0.22399">
        <ele>77.7</ele>
        <time>2012-11-04T10:39:52Z</time>
      </trkpt>
      <trkpt lat="47.31712" lon="-0.22421">
        <ele>78</ele>
        <time>2012-11-04T10:39:58Z</time>
      </trkpt>
      <trkpt lat="47.31703" lon="-0.22432">
        <ele>78</ele>
        <time>2012-11-04T10:40:01Z</time>
      </trkpt>
      <trkpt lat="47.31699" lon="-0.22433">
        <ele>78</ele>
        <time>2012-11-04T10:40:02Z</time>
      </trkpt>
      <trkpt lat="47.31686" lon="-0.22428">
        <ele>78.3</ele>
        <time>2012-11-04T10:40:07Z</time>
      </trkpt>
      <trkpt lat="47.31683" lon="-0.22429">
        <ele>78.4</ele>
        <time>2012-11-04T10:40:08Z</time>
      </trkpt>
      <trkpt lat="47.31669" lon="-0.22442">
        <ele>78.9</ele>
        <time>2012-11-04T10:40:14Z</time>
      </trkpt>
      <trkpt lat="47.31647" lon="-0.22459">
        <ele>79</ele>
        <time>2012-11-04T10:40:20Z</time>
      </trkpt>
      <trkpt lat="47.3163" lon="-0.22475">
        <ele>79.3</ele>
        <time>2012-11-04T10:40:25Z</time>
      </trkpt>
      <trkpt lat="47.31622" lon="-0.22481">
        <ele>79.4</ele>
        <time>2012-11-04T10:40:27Z</time>
      </trkpt>
      <trkpt lat="47.31613" lon="-0.2249">
        <ele>79.3</ele>
        <time>2012-11-04T10:40:30Z</time>
      </trkpt>
      <trkpt lat="47.3161" lon="-0.22492">
        <ele>79.3</ele>
        <time>2012-11-04T10:40:31Z</time>
      </trkpt>
      <trkpt lat="47.31607" lon="-0.22494">
        <ele>79.2</ele>
        <time>2012-11-04T10:40:32Z</time>
      </trkpt>
      <trkpt lat="47.31604" lon="-0.22496">
        <ele>79.1</ele>
        <time>2012-11-04T10:40:33Z</time>
      </trkpt>
      <trkpt lat="47.31601" lon="-0.22499">
        <ele>79</ele>
        <time>2012-11-04T10:40:34Z</time>
      </trkpt>
      <trkpt lat="47.31598" lon="-0.22502">
        <ele>78.9</ele>
        <time>2012-11-04T10:40:35Z</time>
      </trkpt>
      <trkpt lat="47.31594" lon="-0.22506">
        <ele>78.8</ele>
        <time>2012-11-04T10:40:36Z</time>
      </trkpt>
      <trkpt lat="47.3159" lon="-0.2251">
        <ele>78.6</ele>
        <time>2012-11-04T10:40:37Z</time>
      </trkpt>
      <trkpt lat="47.31585" lon="-0.22513">
        <ele>78.5</ele>
        <time>2012-11-04T10:40:38Z</time>
      </trkpt>
      <trkpt lat="47.31579" lon="-0.22515">
        <ele>78</ele>
        <time>2012-11-04T10:40:39Z</time>
      </trkpt>
      <trkpt lat="47.31571" lon="-0.22514">
        <ele>77.2</ele>
        <time>2012-11-04T10:40:40Z</time>
      </trkpt>
      <trkpt lat="47.31565" lon="-0.22511">
        <ele>76.6</ele>
        <time>2012-11-04T10:40:41Z</time>
      </trkpt>
      <trkpt lat="47.31558" lon="-0.22506">
        <ele>76</ele>
        <time>2012-11-04T10:40:42Z</time>
      </trkpt>
      <trkpt lat="47.31552" lon="-0.22501">
        <ele>75.7</ele>
        <time>2012-11-04T10:40:43Z</time>
      </trkpt>
      <trkpt lat="47.31548" lon="-0.22494">
        <ele>75.6</ele>
        <time>2012-11-04T10:40:44Z</time>
      </trkpt>
      <trkpt lat="47.31545" lon="-0.22488">
        <ele>75.5</ele>
        <time>2012-11-04T10:40:45Z</time>
      </trkpt>
      <trkpt lat="47.31543" lon="-0.2248">
        <ele>75.5</ele>
        <time>2012-11-04T10:40:46Z</time>
      </trkpt>
      <trkpt lat="47.31541" lon="-0.22474">
        <ele>75.4</ele>
        <time>2012-11-04T10:40:47Z</time>
      </trkpt>
      <trkpt lat="47.31537" lon="-0.22468">
        <ele>75</ele>
        <time>2012-11-04T10:40:48Z</time>
      </trkpt>
      <trkpt lat="47.31534" lon="-0.22462">
        <ele>74.8</ele>
        <time>2012-11-04T10:40:49Z</time>
      </trkpt>
      <trkpt lat="47.31531" lon="-0.22456">
        <ele>74.4</ele>
        <time>2012-11-04T10:40:50Z</time>
      </trkpt>
      <trkpt lat="47.31528" lon="-0.2245">
        <ele>74</ele>
        <time>2012-11-04T10:40:51Z</time>
      </trkpt>
      <trkpt lat="47.3152" lon="-0.22432">
        <ele>74.8</ele>
        <time>2012-11-04T10:40:54Z</time>
      </trkpt>
      <trkpt lat="47.31517" lon="-0.22427">
        <ele>75</ele>
        <time>2012-11-04T10:40:55Z</time>
      </trkpt>
      <trkpt lat="47.31514" lon="-0.22422">
        <ele>75.2</ele>
        <time>2012-11-04T10:40:56Z</time>
      </trkpt>
      <trkpt lat="47.3151" lon="-0.22418">
        <ele>75.3</ele>
        <time>2012-11-04T10:40:57Z</time>
      </trkpt>
      <trkpt lat="47.31506" lon="-0.22415">
        <ele>75.3</ele>
        <time>2012-11-04T10:40:58Z</time>
      </trkpt>
      <trkpt lat="47.31502" lon="-0.22412">
        <ele>75.2</ele>
        <time>2012-11-04T10:40:59Z</time>
      </trkpt>
      <trkpt lat="47.31481" lon="-0.22402">
        <ele>74.8</ele>
        <time>2012-11-04T10:41:05Z</time>
      </trkpt>
      <trkpt lat="47.31467" lon="-0.224">
        <ele>74.6</ele>
        <time>2012-11-04T10:41:09Z</time>
      </trkpt>
      <trkpt lat="47.31448" lon="-0.22394">
        <ele>74.8</ele>
        <time>2012-11-04T10:41:14Z</time>
      </trkpt>
      <trkpt lat="47.31422" lon="-0.22384">
        <ele>75.4</ele>
        <time>2012-11-04T10:41:21Z</time>
      </trkpt>
      <trkpt lat="47.31399" lon="-0.22378">
        <ele>76.2</ele>
        <time>2012-11-04T10:41:27Z</time>
      </trkpt>
      <trkpt lat="47.31396" lon="-0.22377">
        <ele>76.3</ele>
        <time>2012-11-04T10:41:28Z</time>
      </trkpt>
      <trkpt lat="47.31381" lon="-0.22359">
        <ele>77.4</ele>
        <time>2012-11-04T10:41:34Z</time>
      </trkpt>
      <trkpt lat="47.3136" lon="-0.22336">
        <ele>78.9</ele>
        <time>2012-11-04T10:41:41Z</time>
      </trkpt>
      <trkpt lat="47.31343" lon="-0.22319">
        <ele>78.2</ele>
        <time>2012-11-04T10:41:48Z</time>
      </trkpt>
      <trkpt lat="47.31326" lon="-0.22308">
        <ele>78</ele>
        <time>2012-11-04T10:41:53Z</time>
      </trkpt>
      <trkpt lat="47.31323" lon="-0.22306">
        <ele>78</ele>
        <time>2012-11-04T10:41:54Z</time>
      </trkpt>
      <trkpt lat="47.3132" lon="-0.22303">
        <ele>78</ele>
        <time>2012-11-04T10:41:55Z</time>
      </trkpt>
      <trkpt lat="47.31317" lon="-0.223">
        <ele>77.9</ele>
        <time>2012-11-04T10:41:56Z</time>
      </trkpt>
      <trkpt lat="47.31315" lon="-0.22296">
        <ele>77.8</ele>
        <time>2012-11-04T10:41:57Z</time>
      </trkpt>
      <trkpt lat="47.31307" lon="-0.22284">
        <ele>77.3</ele>
        <time>2012-11-04T10:42:00Z</time>
      </trkpt>
      <trkpt lat="47.31301" lon="-0.2228">
        <ele>77.1</ele>
        <time>2012-11-04T10:42:02Z</time>
      </trkpt>
      <trkpt lat="47.31291" lon="-0.2228">
        <ele>77</ele>
        <time>2012-11-04T10:42:05Z</time>
      </trkpt>
      <trkpt lat="47.31262" lon="-0.22285">
        <ele>76.4</ele>
        <time>2012-11-04T10:42:12Z</time>
      </trkpt>
      <trkpt lat="47.31243" lon="-0.22282">
        <ele>76</ele>
        <time>2012-11-04T10:42:17Z</time>
      </trkpt>
      <trkpt lat="47.31242" lon="-0.22277">
        <ele>76</ele>
        <time>2012-11-04T10:42:18Z</time>
      </trkpt>
      <trkpt lat="47.31242" lon="-0.22265">
        <ele>76</ele>
        <time>2012-11-04T10:42:20Z</time>
      </trkpt>
      <trkpt lat="47.31235" lon="-0.22209">
        <ele>76</ele>
        <time>2012-11-04T10:42:29Z</time>
      </trkpt>
      <trkpt lat="47.31221" lon="-0.22206">
        <ele>76</ele>
        <time>2012-11-04T10:42:34Z</time>
      </trkpt>
      <trkpt lat="47.31202" lon="-0.22212">
        <ele>76</ele>
        <time>2012-11-04T10:42:40Z</time>
      </trkpt>
      <trkpt lat="47.3119" lon="-0.22218">
        <ele>76</ele>
        <time>2012-11-04T10:42:43Z</time>
      </trkpt>
      <trkpt lat="47.31177" lon="-0.22213">
        <ele>76</ele>
        <time>2012-11-04T10:42:47Z</time>
      </trkpt>
      <trkpt lat="47.31165" lon="-0.22178">
        <ele>76</ele>
        <time>2012-11-04T10:42:54Z</time>
      </trkpt>
      <trkpt lat="47.31155" lon="-0.22146">
        <ele>76</ele>
        <time>2012-11-04T10:43:00Z</time>
      </trkpt>
      <trkpt lat="47.31154" lon="-0.2214">
        <ele>76</ele>
        <time>2012-11-04T10:43:01Z</time>
      </trkpt>
      <trkpt lat="47.31146" lon="-0.22111">
        <ele>76</ele>
        <time>2012-11-04T10:43:06Z</time>
      </trkpt>
      <trkpt lat="47.31131" lon="-0.2211">
        <ele>76</ele>
        <time>2012-11-04T10:43:11Z</time>
      </trkpt>
      <trkpt lat="47.31115" lon="-0.22122">
        <ele>76</ele>
        <time>2012-11-04T10:43:16Z</time>
      </trkpt>
      <trkpt lat="47.31097" lon="-0.22117">
        <ele>76</ele>
        <time>2012-11-04T10:43:22Z</time>
      </trkpt>
      <trkpt lat="47.31085" lon="-0.22095">
        <ele>76</ele>
        <time>2012-11-04T10:43:27Z</time>
      </trkpt>
      <trkpt lat="47.3107" lon="-0.22069">
        <ele>76</ele>
        <time>2012-11-04T10:43:33Z</time>
      </trkpt>
      <trkpt lat="47.31058" lon="-0.22048">
        <ele>76.3</ele>
        <time>2012-11-04T10:43:38Z</time>
      </trkpt>
      <trkpt lat="47.31044" lon="-0.22023">
        <ele>77</ele>
        <time>2012-11-04T10:43:44Z</time>
      </trkpt>
      <trkpt lat="47.31025" lon="-0.21988">
        <ele>77</ele>
        <time>2012-11-04T10:43:52Z</time>
      </trkpt>
      <trkpt lat="47.31015" lon="-0.21971">
        <ele>77</ele>
        <time>2012-11-04T10:43:57Z</time>
      </trkpt>
      <trkpt lat="47.31003" lon="-0.2195">
        <ele>77</ele>
        <time>2012-11-04T10:44:03Z</time>
      </trkpt>
      <trkpt lat="47.30993" lon="-0.21935">
        <ele>77.5</ele>
        <time>2012-11-04T10:44:08Z</time>
      </trkpt>
      <trkpt lat="47.30988" lon="-0.21933">
        <ele>77.7</ele>
        <time>2012-11-04T10:44:10Z</time>
      </trkpt>
      <trkpt lat="47.30973" lon="-0.21947">
        <ele>77.9</ele>
        <time>2012-11-04T10:44:16Z</time>
      </trkpt>
      <trkpt lat="47.30956" lon="-0.21977">
        <ele>77.6</ele>
        <time>2012-11-04T10:44:23Z</time>
      </trkpt>
      <trkpt lat="47.30944" lon="-0.21996">
        <ele>78</ele>
        <time>2012-11-04T10:44:28Z</time>
      </trkpt>
      <trkpt lat="47.30928" lon="-0.22021">
        <ele>78</ele>
        <time>2012-11-04T10:44:35Z</time>
      </trkpt>
      <trkpt lat="47.30914" lon="-0.22041">
        <ele>78</ele>
        <time>2012-11-04T10:44:41Z</time>
      </trkpt>
      <trkpt lat="47.309" lon="-0.22057">
        <ele>78</ele>
        <time>2012-11-04T10:44:47Z</time>
      </trkpt>
      <trkpt lat="47.30892" lon="-0.22069">
        <ele>77.9</ele>
        <time>2012-11-04T10:44:51Z</time>
      </trkpt>
      <trkpt lat="47.3088" lon="-0.22088">
        <ele>78</ele>
        <time>2012-11-04T10:44:56Z</time>
      </trkpt>
      <trkpt lat="47.30869" lon="-0.2211">
        <ele>78</ele>
        <time>2012-11-04T10:45:02Z</time>
      </trkpt>
      <trkpt lat="47.30858" lon="-0.22131">
        <ele>78</ele>
        <time>2012-11-04T10:45:07Z</time>
      </trkpt>
      <trkpt lat="47.30844" lon="-0.22152">
        <ele>78</ele>
        <time>2012-11-04T10:45:13Z</time>
      </trkpt>
      <trkpt lat="47.3083" lon="-0.2217">
        <ele>78.1</ele>
        <time>2012-11-04T10:45:18Z</time>
      </trkpt>
      <trkpt lat="47.3082" lon="-0.22184">
        <ele>78.5</ele>
        <time>2012-11-04T10:45:22Z</time>
      </trkpt>
      <trkpt lat="47.30803" lon="-0.2221">
        <ele>79</ele>
        <time>2012-11-04T10:45:28Z</time>
      </trkpt>
      <trkpt lat="47.30789" lon="-0.22243">
        <ele>79</ele>
        <time>2012-11-04T10:45:35Z</time>
      </trkpt>
      <trkpt lat="47.30774" lon="-0.2228">
        <ele>79.1</ele>
        <time>2012-11-04T10:45:42Z</time>
      </trkpt>
      <trkpt lat="47.30771" lon="-0.22285">
        <ele>79.2</ele>
        <time>2012-11-04T10:45:43Z</time>
      </trkpt>
      <trkpt lat="47.30757" lon="-0.22312">
        <ele>79.6</ele>
        <time>2012-11-04T10:45:49Z</time>
      </trkpt>
      <trkpt lat="47.30744" lon="-0.22336">
        <ele>79.2</ele>
        <time>2012-11-04T10:45:55Z</time>
      </trkpt>
      <trkpt lat="47.30737" lon="-0.22346">
        <ele>79.5</ele>
        <time>2012-11-04T10:45:57Z</time>
      </trkpt>
      <trkpt lat="47.30734" lon="-0.22351">
        <ele>79.6</ele>
        <time>2012-11-04T10:45:58Z</time>
      </trkpt>
      <trkpt lat="47.30731" lon="-0.22356">
        <ele>79.7</ele>
        <time>2012-11-04T10:45:59Z</time>
      </trkpt>
      <trkpt lat="47.30712" lon="-0.22382">
        <ele>79.5</ele>
        <time>2012-11-04T10:46:06Z</time>
      </trkpt>
      <trkpt lat="47.30704" lon="-0.22395">
        <ele>79.7</ele>
        <time>2012-11-04T10:46:09Z</time>
      </trkpt>
      <trkpt lat="47.30688" lon="-0.22424">
        <ele>80</ele>
        <time>2012-11-04T10:46:15Z</time>
      </trkpt>
      <trkpt lat="47.30685" lon="-0.2243">
        <ele>80</ele>
        <time>2012-11-04T10:46:16Z</time>
      </trkpt>
      <trkpt lat="47.30682" lon="-0.22436">
        <ele>80</ele>
        <time>2012-11-04T10:46:17Z</time>
      </trkpt>
      <trkpt lat="47.3067" lon="-0.22461">
        <ele>80.5</ele>
        <time>2012-11-04T10:46:21Z</time>
      </trkpt>
      <trkpt lat="47.30668" lon="-0.22467">
        <ele>80.8</ele>
        <time>2012-11-04T10:46:22Z</time>
      </trkpt>
      <trkpt lat="47.30652" lon="-0.22497">
        <ele>82.1</ele>
        <time>2012-11-04T10:46:27Z</time>
      </trkpt>
      <trkpt lat="47.30638" lon="-0.22519">
        <ele>83.7</ele>
        <time>2012-11-04T10:46:31Z</time>
      </trkpt>
      <trkpt lat="47.3063" lon="-0.2253">
        <ele>84</ele>
        <time>2012-11-04T10:46:33Z</time>
      </trkpt>
      <trkpt lat="47.30627" lon="-0.22537">
        <ele>84</ele>
        <time>2012-11-04T10:46:34Z</time>
      </trkpt>
      <trkpt lat="47.30623" lon="-0.22543">
        <ele>84</ele>
        <time>2012-11-04T10:46:35Z</time>
      </trkpt>
      <trkpt lat="47.30619" lon="-0.22549">
        <ele>84</ele>
        <time>2012-11-04T10:46:36Z</time>
      </trkpt>
      <trkpt lat="47.30616" lon="-0.22555">
        <ele>84</ele>
        <time>2012-11-04T10:46:37Z</time>
      </trkpt>
      <trkpt lat="47.30613" lon="-0.2256">
        <ele>84.1</ele>
        <time>2012-11-04T10:46:38Z</time>
      </trkpt>
      <trkpt lat="47.30593" lon="-0.22591">
        <ele>84.5</ele>
        <time>2012-11-04T10:46:44Z</time>
      </trkpt>
      <trkpt lat="47.30586" lon="-0.226">
        <ele>84.6</ele>
        <time>2012-11-04T10:46:46Z</time>
      </trkpt>
      <trkpt lat="47.30564" lon="-0.22625">
        <ele>85</ele>
        <time>2012-11-04T10:46:52Z</time>
      </trkpt>
      <trkpt lat="47.30554" lon="-0.22638">
        <ele>85</ele>
        <time>2012-11-04T10:46:55Z</time>
      </trkpt>
      <trkpt lat="47.3055" lon="-0.22643">
        <ele>85</ele>
        <time>2012-11-04T10:46:56Z</time>
      </trkpt>
      <trkpt lat="47.30529" lon="-0.22668">
        <ele>85</ele>
        <time>2012-11-04T10:47:02Z</time>
      </trkpt>
      <trkpt lat="47.30519" lon="-0.2268">
        <ele>85</ele>
        <time>2012-11-04T10:47:05Z</time>
      </trkpt>
      <trkpt lat="47.30508" lon="-0.22692">
        <ele>85</ele>
        <time>2012-11-04T10:47:08Z</time>
      </trkpt>
      <trkpt lat="47.30495" lon="-0.22715">
        <ele>85</ele>
        <time>2012-11-04T10:47:13Z</time>
      </trkpt>
      <trkpt lat="47.3048" lon="-0.22745">
        <ele>85</ele>
        <time>2012-11-04T10:47:19Z</time>
      </trkpt>
      <trkpt lat="47.30476" lon="-0.22756">
        <ele>85</ele>
        <time>2012-11-04T10:47:21Z</time>
      </trkpt>
      <trkpt lat="47.30474" lon="-0.2276">
        <ele>85</ele>
        <time>2012-11-04T10:47:22Z</time>
      </trkpt>
      <trkpt lat="47.30472" lon="-0.22765">
        <ele>85</ele>
        <time>2012-11-04T10:47:23Z</time>
      </trkpt>
      <trkpt lat="47.30462" lon="-0.22783">
        <ele>85</ele>
        <time>2012-11-04T10:47:28Z</time>
      </trkpt>
      <trkpt lat="47.30452" lon="-0.22796">
        <ele>85</ele>
        <time>2012-11-04T10:47:33Z</time>
      </trkpt>
      <trkpt lat="47.3045" lon="-0.22799">
        <ele>85</ele>
        <time>2012-11-04T10:47:34Z</time>
      </trkpt>
      <trkpt lat="47.30448" lon="-0.22802">
        <ele>85</ele>
        <time>2012-11-04T10:47:35Z</time>
      </trkpt>
      <trkpt lat="47.30433" lon="-0.22822">
        <ele>84.2</ele>
        <time>2012-11-04T10:47:41Z</time>
      </trkpt>
      <trkpt lat="47.30421" lon="-0.22843">
        <ele>84</ele>
        <time>2012-11-04T10:47:47Z</time>
      </trkpt>
      <trkpt lat="47.30418" lon="-0.22847">
        <ele>84</ele>
        <time>2012-11-04T10:47:48Z</time>
      </trkpt>
      <trkpt lat="47.30416" lon="-0.22851">
        <ele>84</ele>
        <time>2012-11-04T10:47:49Z</time>
      </trkpt>
      <trkpt lat="47.30414" lon="-0.22856">
        <ele>84</ele>
        <time>2012-11-04T10:47:50Z</time>
      </trkpt>
      <trkpt lat="47.30412" lon="-0.2286">
        <ele>84</ele>
        <time>2012-11-04T10:47:51Z</time>
      </trkpt>
      <trkpt lat="47.30409" lon="-0.22864">
        <ele>84</ele>
        <time>2012-11-04T10:47:52Z</time>
      </trkpt>
      <trkpt lat="47.30406" lon="-0.22867">
        <ele>84</ele>
        <time>2012-11-04T10:47:53Z</time>
      </trkpt>
      <trkpt lat="47.30404" lon="-0.2287">
        <ele>84</ele>
        <time>2012-11-04T10:47:54Z</time>
      </trkpt>
      <trkpt lat="47.30402" lon="-0.22872">
        <ele>84</ele>
        <time>2012-11-04T10:47:55Z</time>
      </trkpt>
      <trkpt lat="47.30399" lon="-0.22875">
        <ele>84</ele>
        <time>2012-11-04T10:47:56Z</time>
      </trkpt>
      <trkpt lat="47.30396" lon="-0.22878">
        <ele>84</ele>
        <time>2012-11-04T10:47:57Z</time>
      </trkpt>
      <trkpt lat="47.30393" lon="-0.22881">
        <ele>84</ele>
        <time>2012-11-04T10:47:58Z</time>
      </trkpt>
      <trkpt lat="47.3039" lon="-0.22884">
        <ele>84</ele>
        <time>2012-11-04T10:47:59Z</time>
      </trkpt>
      <trkpt lat="47.30387" lon="-0.22885">
        <ele>84</ele>
        <time>2012-11-04T10:48:00Z</time>
      </trkpt>
      <trkpt lat="47.30385" lon="-0.22885">
        <ele>84</ele>
        <time>2012-11-04T10:48:01Z</time>
      </trkpt>
      <trkpt lat="47.30383" lon="-0.22885">
        <ele>84</ele>
        <time>2012-11-04T10:48:02Z</time>
      </trkpt>
      <trkpt lat="47.30363" lon="-0.22896">
        <ele>84</ele>
        <time>2012-11-04T10:48:07Z</time>
      </trkpt>
      <trkpt lat="47.30346" lon="-0.22912">
        <ele>84.5</ele>
        <time>2012-11-04T10:48:12Z</time>
      </trkpt>
      <trkpt lat="47.3033" lon="-0.22923">
        <ele>85.1</ele>
        <time>2012-11-04T10:48:17Z</time>
      </trkpt>
      <trkpt lat="47.30313" lon="-0.22929">
        <ele>85.7</ele>
        <time>2012-11-04T10:48:22Z</time>
      </trkpt>
      <trkpt lat="47.30293" lon="-0.22928">
        <ele>86.5</ele>
        <time>2012-11-04T10:48:28Z</time>
      </trkpt>
      <trkpt lat="47.30272" lon="-0.22927">
        <ele>87.1</ele>
        <time>2012-11-04T10:48:34Z</time>
      </trkpt>
      <trkpt lat="47.30267" lon="-0.22928">
        <ele>87.2</ele>
        <time>2012-11-04T10:48:36Z</time>
      </trkpt>
      <trkpt lat="47.30265" lon="-0.22927">
        <ele>87.3</ele>
        <time>2012-11-04T10:48:37Z</time>
      </trkpt>
      <trkpt lat="47.30263" lon="-0.22927">
        <ele>87.3</ele>
        <time>2012-11-04T10:48:38Z</time>
      </trkpt>
      <trkpt lat="47.30261" lon="-0.22928">
        <ele>87.4</ele>
        <time>2012-11-04T10:48:39Z</time>
      </trkpt>
      <trkpt lat="47.30259" lon="-0.22928">
        <ele>87.4</ele>
        <time>2012-11-04T10:48:40Z</time>
      </trkpt>
      <trkpt lat="47.30256" lon="-0.2293">
        <ele>87.4</ele>
        <time>2012-11-04T10:48:41Z</time>
      </trkpt>
      <trkpt lat="47.30254" lon="-0.22931">
        <ele>87.4</ele>
        <time>2012-11-04T10:48:42Z</time>
      </trkpt>
      <trkpt lat="47.30252" lon="-0.22932">
        <ele>87.4</ele>
        <time>2012-11-04T10:48:43Z</time>
      </trkpt>
      <trkpt lat="47.30249" lon="-0.22933">
        <ele>87.4</ele>
        <time>2012-11-04T10:48:44Z</time>
      </trkpt>
      <trkpt lat="47.30231" lon="-0.22944">
        <ele>87.7</ele>
        <time>2012-11-04T10:48:50Z</time>
      </trkpt>
      <trkpt lat="47.30213" lon="-0.22953">
        <ele>88.3</ele>
        <time>2012-11-04T10:48:56Z</time>
      </trkpt>
      <trkpt lat="47.3021" lon="-0.22954">
        <ele>88.4</ele>
        <time>2012-11-04T10:48:57Z</time>
      </trkpt>
      <trkpt lat="47.30208" lon="-0.22955">
        <ele>88.5</ele>
        <time>2012-11-04T10:48:58Z</time>
      </trkpt>
      <trkpt lat="47.30205" lon="-0.22956">
        <ele>88.6</ele>
        <time>2012-11-04T10:48:59Z</time>
      </trkpt>
      <trkpt lat="47.30203" lon="-0.22958">
        <ele>88.7</ele>
        <time>2012-11-04T10:49:00Z</time>
      </trkpt>
      <trkpt lat="47.302" lon="-0.2296">
        <ele>88.8</ele>
        <time>2012-11-04T10:49:01Z</time>
      </trkpt>
      <trkpt lat="47.3019" lon="-0.22966">
        <ele>89.2</ele>
        <time>2012-11-04T10:49:06Z</time>
      </trkpt>
      <trkpt lat="47.3017" lon="-0.22972">
        <ele>89.9</ele>
        <time>2012-11-04T10:49:13Z</time>
      </trkpt>
      <trkpt lat="47.30152" lon="-0.22974">
        <ele>90.5</ele>
        <time>2012-11-04T10:49:20Z</time>
      </trkpt>
      <trkpt lat="47.3015" lon="-0.22974">
        <ele>90.6</ele>
        <time>2012-11-04T10:49:21Z</time>
      </trkpt>
      <trkpt lat="47.30147" lon="-0.22973">
        <ele>90.7</ele>
        <time>2012-11-04T10:49:22Z</time>
      </trkpt>
      <trkpt lat="47.30144" lon="-0.22972">
        <ele>90.8</ele>
        <time>2012-11-04T10:49:23Z</time>
      </trkpt>
      <trkpt lat="47.30141" lon="-0.22972">
        <ele>90.9</ele>
        <time>2012-11-04T10:49:24Z</time>
      </trkpt>
      <trkpt lat="47.30138" lon="-0.22972">
        <ele>91</ele>
        <time>2012-11-04T10:49:25Z</time>
      </trkpt>
      <trkpt lat="47.30135" lon="-0.22971">
        <ele>91.1</ele>
        <time>2012-11-04T10:49:26Z</time>
      </trkpt>
      <trkpt lat="47.30132" lon="-0.2297">
        <ele>91.2</ele>
        <time>2012-11-04T10:49:27Z</time>
      </trkpt>
      <trkpt lat="47.30106" lon="-0.2297">
        <ele>92</ele>
        <time>2012-11-04T10:49:35Z</time>
      </trkpt>
      <trkpt lat="47.30086" lon="-0.22974">
        <ele>92.1</ele>
        <time>2012-11-04T10:49:41Z</time>
      </trkpt>
      <trkpt lat="47.30068" lon="-0.22974">
        <ele>92.6</ele>
        <time>2012-11-04T10:49:47Z</time>
      </trkpt>
      <trkpt lat="47.30061" lon="-0.22976">
        <ele>92.8</ele>
        <time>2012-11-04T10:49:50Z</time>
      </trkpt>
      <trkpt lat="47.3006" lon="-0.22977">
        <ele>92.9</ele>
        <time>2012-11-04T10:49:51Z</time>
      </trkpt>
      <trkpt lat="47.30057" lon="-0.22977">
        <ele>93</ele>
        <time>2012-11-04T10:49:53Z</time>
      </trkpt>
      <trkpt lat="47.3004" lon="-0.22971">
        <ele>92.4</ele>
        <time>2012-11-04T10:50:00Z</time>
      </trkpt>
      <trkpt lat="47.30021" lon="-0.22964">
        <ele>92</ele>
        <time>2012-11-04T10:50:06Z</time>
      </trkpt>
      <trkpt lat="47.30008" lon="-0.22959">
        <ele>92</ele>
        <time>2012-11-04T10:50:11Z</time>
      </trkpt>
      <trkpt lat="47.29986" lon="-0.2295">
        <ele>92</ele>
        <time>2012-11-04T10:50:17Z</time>
      </trkpt>
      <trkpt lat="47.2997" lon="-0.22943">
        <ele>92</ele>
        <time>2012-11-04T10:50:22Z</time>
      </trkpt>
      <trkpt lat="47.29952" lon="-0.22937">
        <ele>92</ele>
        <time>2012-11-04T10:50:27Z</time>
      </trkpt>
      <trkpt lat="47.29917" lon="-0.22929">
        <ele>91</ele>
        <time>2012-11-04T10:50:35Z</time>
      </trkpt>
      <trkpt lat="47.29901" lon="-0.2293">
        <ele>91</ele>
        <time>2012-11-04T10:50:39Z</time>
      </trkpt>
      <trkpt lat="47.29897" lon="-0.22931">
        <ele>91</ele>
        <time>2012-11-04T10:50:40Z</time>
      </trkpt>
      <trkpt lat="47.29894" lon="-0.2293">
        <ele>91</ele>
        <time>2012-11-04T10:50:41Z</time>
      </trkpt>
      <trkpt lat="47.2989" lon="-0.22929">
        <ele>91</ele>
        <time>2012-11-04T10:50:42Z</time>
      </trkpt>
      <trkpt lat="47.29886" lon="-0.22928">
        <ele>90.9</ele>
        <time>2012-11-04T10:50:43Z</time>
      </trkpt>
      <trkpt lat="47.29861" lon="-0.22913">
        <ele>90</ele>
        <time>2012-11-04T10:50:50Z</time>
      </trkpt>
      <trkpt lat="47.29839" lon="-0.22897">
        <ele>90</ele>
        <time>2012-11-04T10:50:56Z</time>
      </trkpt>
      <trkpt lat="47.29835" lon="-0.22894">
        <ele>90</ele>
        <time>2012-11-04T10:50:57Z</time>
      </trkpt>
      <trkpt lat="47.29806" lon="-0.22876">
        <ele>90</ele>
        <time>2012-11-04T10:51:05Z</time>
      </trkpt>
      <trkpt lat="47.29781" lon="-0.22859">
        <ele>89.9</ele>
        <time>2012-11-04T10:51:13Z</time>
      </trkpt>
      <trkpt lat="47.29769" lon="-0.22855">
        <ele>89.8</ele>
        <time>2012-11-04T10:51:17Z</time>
      </trkpt>
      <trkpt lat="47.29766" lon="-0.22857">
        <ele>89.9</ele>
        <time>2012-11-04T10:51:18Z</time>
      </trkpt>
      <trkpt lat="47.29763" lon="-0.22859">
        <ele>89.9</ele>
        <time>2012-11-04T10:51:19Z</time>
      </trkpt>
      <trkpt lat="47.29742" lon="-0.2288">
        <ele>89.9</ele>
        <time>2012-11-04T10:51:26Z</time>
      </trkpt>
      <trkpt lat="47.29716" lon="-0.22907">
        <ele>89.9</ele>
        <time>2012-11-04T10:51:35Z</time>
      </trkpt>
      <trkpt lat="47.29692" lon="-0.22929">
        <ele>90</ele>
        <time>2012-11-04T10:51:43Z</time>
      </trkpt>
      <trkpt lat="47.29671" lon="-0.22933">
        <ele>89.7</ele>
        <time>2012-11-04T10:51:50Z</time>
      </trkpt>
      <trkpt lat="47.29669" lon="-0.22929">
        <ele>89.5</ele>
        <time>2012-11-04T10:51:51Z</time>
      </trkpt>
      <trkpt lat="47.29667" lon="-0.22924">
        <ele>89.3</ele>
        <time>2012-11-04T10:51:52Z</time>
      </trkpt>
      <trkpt lat="47.29653" lon="-0.2289">
        <ele>89</ele>
        <time>2012-11-04T10:51:59Z</time>
      </trkpt>
      <trkpt lat="47.29634" lon="-0.2285">
        <ele>88.8</ele>
        <time>2012-11-04T10:52:06Z</time>
      </trkpt>
      <trkpt lat="47.29626" lon="-0.22834">
        <ele>88.5</ele>
        <time>2012-11-04T10:52:09Z</time>
      </trkpt>
      <trkpt lat="47.29624" lon="-0.22829">
        <ele>88.5</ele>
        <time>2012-11-04T10:52:10Z</time>
      </trkpt>
      <trkpt lat="47.2962" lon="-0.22826">
        <ele>88.3</ele>
        <time>2012-11-04T10:52:11Z</time>
      </trkpt>
      <trkpt lat="47.29606" lon="-0.22823">
        <ele>88</ele>
        <time>2012-11-04T10:52:15Z</time>
      </trkpt>
      <trkpt lat="47.29602" lon="-0.22825">
        <ele>88</ele>
        <time>2012-11-04T10:52:16Z</time>
      </trkpt>
      <trkpt lat="47.29598" lon="-0.22828">
        <ele>88</ele>
        <time>2012-11-04T10:52:17Z</time>
      </trkpt>
      <trkpt lat="47.29588" lon="-0.22836">
        <ele>88</ele>
        <time>2012-11-04T10:52:20Z</time>
      </trkpt>
      <trkpt lat="47.29562" lon="-0.22855">
        <ele>88</ele>
        <time>2012-11-04T10:52:27Z</time>
      </trkpt>
      <trkpt lat="47.29555" lon="-0.22862">
        <ele>88</ele>
        <time>2012-11-04T10:52:29Z</time>
      </trkpt>
      <trkpt lat="47.29528" lon="-0.22891">
        <ele>87.1</ele>
        <time>2012-11-04T10:52:37Z</time>
      </trkpt>
      <trkpt lat="47.29501" lon="-0.22931">
        <ele>87</ele>
        <time>2012-11-04T10:52:46Z</time>
      </trkpt>
      <trkpt lat="47.29485" lon="-0.22963">
        <ele>87</ele>
        <time>2012-11-04T10:52:53Z</time>
      </trkpt>
      <trkpt lat="47.29476" lon="-0.22989">
        <ele>87.5</ele>
        <time>2012-11-04T10:52:59Z</time>
      </trkpt>
      <trkpt lat="47.29461" lon="-0.23022">
        <ele>88</ele>
        <time>2012-11-04T10:53:06Z</time>
      </trkpt>
      <trkpt lat="47.29438" lon="-0.23087">
        <ele>88</ele>
        <time>2012-11-04T10:53:17Z</time>
      </trkpt>
      <trkpt lat="47.2942" lon="-0.23136">
        <ele>88</ele>
        <time>2012-11-04T10:53:25Z</time>
      </trkpt>
      <trkpt lat="47.29396" lon="-0.23184">
        <ele>89</ele>
        <time>2012-11-04T10:53:33Z</time>
      </trkpt>
      <trkpt lat="47.29366" lon="-0.23233">
        <ele>89.3</ele>
        <time>2012-11-04T10:53:42Z</time>
      </trkpt>
      <trkpt lat="47.29356" lon="-0.23249">
        <ele>90</ele>
        <time>2012-11-04T10:53:45Z</time>
      </trkpt>
      <trkpt lat="47.29327" lon="-0.23289">
        <ele>90.2</ele>
        <time>2012-11-04T10:53:53Z</time>
      </trkpt>
      <trkpt lat="47.29303" lon="-0.23315">
        <ele>91</ele>
        <time>2012-11-04T10:53:59Z</time>
      </trkpt>
      <trkpt lat="47.29266" lon="-0.2335">
        <ele>92</ele>
        <time>2012-11-04T10:54:09Z</time>
      </trkpt>
      <trkpt lat="47.29229" lon="-0.23381">
        <ele>92.5</ele>
        <time>2012-11-04T10:54:19Z</time>
      </trkpt>
      <trkpt lat="47.29215" lon="-0.23388">
        <ele>93</ele>
        <time>2012-11-04T10:54:24Z</time>
      </trkpt>
      <trkpt lat="47.29213" lon="-0.23385">
        <ele>92.9</ele>
        <time>2012-11-04T10:54:25Z</time>
      </trkpt>
      <trkpt lat="47.29213" lon="-0.23381">
        <ele>92.8</ele>
        <time>2012-11-04T10:54:26Z</time>
      </trkpt>
      <trkpt lat="47.29214" lon="-0.23376">
        <ele>92.7</ele>
        <time>2012-11-04T10:54:27Z</time>
      </trkpt>
      <trkpt lat="47.29214" lon="-0.23372">
        <ele>92.6</ele>
        <time>2012-11-04T10:54:28Z</time>
      </trkpt>
      <trkpt lat="47.29215" lon="-0.23366">
        <ele>92.4</ele>
        <time>2012-11-04T10:54:29Z</time>
      </trkpt>
      <trkpt lat="47.29216" lon="-0.2336">
        <ele>92.2</ele>
        <time>2012-11-04T10:54:30Z</time>
      </trkpt>
      <trkpt lat="47.29216" lon="-0.23354">
        <ele>92.2</ele>
        <time>2012-11-04T10:54:31Z</time>
      </trkpt>
      <trkpt lat="47.29216" lon="-0.23347">
        <ele>92.1</ele>
        <time>2012-11-04T10:54:32Z</time>
      </trkpt>
      <trkpt lat="47.29215" lon="-0.23332">
        <ele>92</ele>
        <time>2012-11-04T10:54:34Z</time>
      </trkpt>
      <trkpt lat="47.29214" lon="-0.23325">
        <ele>92</ele>
        <time>2012-11-04T10:54:35Z</time>
      </trkpt>
      <trkpt lat="47.29212" lon="-0.23317">
        <ele>92</ele>
        <time>2012-11-04T10:54:36Z</time>
      </trkpt>
      <trkpt lat="47.29188" lon="-0.23245">
        <ele>91.9</ele>
        <time>2012-11-04T10:54:46Z</time>
      </trkpt>
      <trkpt lat="47.29171" lon="-0.23208">
        <ele>91.8</ele>
        <time>2012-11-04T10:54:53Z</time>
      </trkpt>
      <trkpt lat="47.29168" lon="-0.23203">
        <ele>92</ele>
        <time>2012-11-04T10:54:54Z</time>
      </trkpt>
      <trkpt lat="47.29162" lon="-0.23193">
        <ele>92</ele>
        <time>2012-11-04T10:54:56Z</time>
      </trkpt>
      <trkpt lat="47.29156" lon="-0.23184">
        <ele>91.8</ele>
        <time>2012-11-04T10:54:58Z</time>
      </trkpt>
      <trkpt lat="47.29135" lon="-0.2315">
        <ele>92</ele>
        <time>2012-11-04T10:55:06Z</time>
      </trkpt>
      <trkpt lat="47.29131" lon="-0.23149">
        <ele>92</ele>
        <time>2012-11-04T10:55:07Z</time>
      </trkpt>
      <trkpt lat="47.29128" lon="-0.2315">
        <ele>92</ele>
        <time>2012-11-04T10:55:08Z</time>
      </trkpt>
      <trkpt lat="47.29125" lon="-0.23153">
        <ele>92</ele>
        <time>2012-11-04T10:55:09Z</time>
      </trkpt>
      <trkpt lat="47.29122" lon="-0.23156">
        <ele>92</ele>
        <time>2012-11-04T10:55:10Z</time>
      </trkpt>
      <trkpt lat="47.29109" lon="-0.23172">
        <ele>92</ele>
        <time>2012-11-04T10:55:15Z</time>
      </trkpt>
      <trkpt lat="47.29097" lon="-0.23179">
        <ele>92</ele>
        <time>2012-11-04T10:55:19Z</time>
      </trkpt>
      <trkpt lat="47.29093" lon="-0.23177">
        <ele>92</ele>
        <time>2012-11-04T10:55:20Z</time>
      </trkpt>
      <trkpt lat="47.29091" lon="-0.23173">
        <ele>92</ele>
        <time>2012-11-04T10:55:21Z</time>
      </trkpt>
      <trkpt lat="47.29072" lon="-0.23137">
        <ele>91.6</ele>
        <time>2012-11-04T10:55:29Z</time>
      </trkpt>
      <trkpt lat="47.2905" lon="-0.23095">
        <ele>91</ele>
        <time>2012-11-04T10:55:38Z</time>
      </trkpt>
      <trkpt lat="47.29023" lon="-0.23041">
        <ele>90.4</ele>
        <time>2012-11-04T10:55:49Z</time>
      </trkpt>
      <trkpt lat="47.29007" lon="-0.23001">
        <ele>90</ele>
        <time>2012-11-04T10:55:57Z</time>
      </trkpt>
      <trkpt lat="47.28998" lon="-0.22972">
        <ele>90</ele>
        <time>2012-11-04T10:56:03Z</time>
      </trkpt>
      <trkpt lat="47.28987" lon="-0.22929">
        <ele>90</ele>
        <time>2012-11-04T10:56:12Z</time>
      </trkpt>
      <trkpt lat="47.28976" lon="-0.22894">
        <ele>90</ele>
        <time>2012-11-04T10:56:19Z</time>
      </trkpt>
      <trkpt lat="47.28967" lon="-0.22859">
        <ele>89.8</ele>
        <time>2012-11-04T10:56:26Z</time>
      </trkpt>
      <trkpt lat="47.28964" lon="-0.22825">
        <ele>89</ele>
        <time>2012-11-04T10:56:32Z</time>
      </trkpt>
      <trkpt lat="47.28969" lon="-0.22792">
        <ele>89</ele>
        <time>2012-11-04T10:56:38Z</time>
      </trkpt>
      <trkpt lat="47.28976" lon="-0.22747">
        <ele>88</ele>
        <time>2012-11-04T10:56:46Z</time>
      </trkpt>
      <trkpt lat="47.2898" lon="-0.22725">
        <ele>88</ele>
        <time>2012-11-04T10:56:50Z</time>
      </trkpt>
      <trkpt lat="47.2898" lon="-0.22719">
        <ele>88</ele>
        <time>2012-11-04T10:56:51Z</time>
      </trkpt>
      <trkpt lat="47.28981" lon="-0.22713">
        <ele>88</ele>
        <time>2012-11-04T10:56:52Z</time>
      </trkpt>
      <trkpt lat="47.28981" lon="-0.22708">
        <ele>88</ele>
        <time>2012-11-04T10:56:53Z</time>
      </trkpt>
      <trkpt lat="47.28982" lon="-0.22704">
        <ele>88</ele>
        <time>2012-11-04T10:56:54Z</time>
      </trkpt>
      <trkpt lat="47.28983" lon="-0.22699">
        <ele>88</ele>
        <time>2012-11-04T10:56:55Z</time>
      </trkpt>
      <trkpt lat="47.28985" lon="-0.22693">
        <ele>88</ele>
        <time>2012-11-04T10:56:56Z</time>
      </trkpt>
      <trkpt lat="47.2899" lon="-0.2266">
        <ele>88</ele>
        <time>2012-11-04T10:57:02Z</time>
      </trkpt>
      <trkpt lat="47.2899" lon="-0.22654">
        <ele>88</ele>
        <time>2012-11-04T10:57:03Z</time>
      </trkpt>
      <trkpt lat="47.28988" lon="-0.22628">
        <ele>88</ele>
        <time>2012-11-04T10:57:07Z</time>
      </trkpt>
      <trkpt lat="47.28985" lon="-0.22608">
        <ele>87.9</ele>
        <time>2012-11-04T10:57:10Z</time>
      </trkpt>
      <trkpt lat="47.28984" lon="-0.22602">
        <ele>87.8</ele>
        <time>2012-11-04T10:57:11Z</time>
      </trkpt>
      <trkpt lat="47.28981" lon="-0.22589">
        <ele>87.5</ele>
        <time>2012-11-04T10:57:13Z</time>
      </trkpt>
      <trkpt lat="47.2898" lon="-0.22583">
        <ele>87.3</ele>
        <time>2012-11-04T10:57:14Z</time>
      </trkpt>
      <trkpt lat="47.28979" lon="-0.22577">
        <ele>87.2</ele>
        <time>2012-11-04T10:57:15Z</time>
      </trkpt>
      <trkpt lat="47.28978" lon="-0.22571">
        <ele>87.2</ele>
        <time>2012-11-04T10:57:16Z</time>
      </trkpt>
      <trkpt lat="47.28976" lon="-0.22564">
        <ele>87.1</ele>
        <time>2012-11-04T10:57:17Z</time>
      </trkpt>
      <trkpt lat="47.28975" lon="-0.22558">
        <ele>87.1</ele>
        <time>2012-11-04T10:57:18Z</time>
      </trkpt>
      <trkpt lat="47.28973" lon="-0.22552">
        <ele>87</ele>
        <time>2012-11-04T10:57:19Z</time>
      </trkpt>
      <trkpt lat="47.28962" lon="-0.22515">
        <ele>87</ele>
        <time>2012-11-04T10:57:25Z</time>
      </trkpt>
      <trkpt lat="47.28958" lon="-0.22503">
        <ele>87</ele>
        <time>2012-11-04T10:57:27Z</time>
      </trkpt>
      <trkpt lat="47.28956" lon="-0.22497">
        <ele>87</ele>
        <time>2012-11-04T10:57:28Z</time>
      </trkpt>
      <trkpt lat="47.28954" lon="-0.22492">
        <ele>87</ele>
        <time>2012-11-04T10:57:29Z</time>
      </trkpt>
      <trkpt lat="47.2895" lon="-0.22484">
        <ele>87</ele>
        <time>2012-11-04T10:57:31Z</time>
      </trkpt>
      <trkpt lat="47.28944" lon="-0.22459">
        <ele>86.5</ele>
        <time>2012-11-04T10:57:36Z</time>
      </trkpt>
      <trkpt lat="47.28942" lon="-0.22454">
        <ele>86.3</ele>
        <time>2012-11-04T10:57:37Z</time>
      </trkpt>
      <trkpt lat="47.2894" lon="-0.22449">
        <ele>86.1</ele>
        <time>2012-11-04T10:57:38Z</time>
      </trkpt>
      <trkpt lat="47.28938" lon="-0.22444">
        <ele>86</ele>
        <time>2012-11-04T10:57:39Z</time>
      </trkpt>
      <trkpt lat="47.28936" lon="-0.22439">
        <ele>86</ele>
        <time>2012-11-04T10:57:40Z</time>
      </trkpt>
      <trkpt lat="47.28934" lon="-0.22433">
        <ele>86</ele>
        <time>2012-11-04T10:57:41Z</time>
      </trkpt>
      <trkpt lat="47.28923" lon="-0.22402">
        <ele>86</ele>
        <time>2012-11-04T10:57:47Z</time>
      </trkpt>
      <trkpt lat="47.28921" lon="-0.22396">
        <ele>86</ele>
        <time>2012-11-04T10:57:48Z</time>
      </trkpt>
      <trkpt lat="47.28914" lon="-0.22371">
        <ele>86</ele>
        <time>2012-11-04T10:57:52Z</time>
      </trkpt>
      <trkpt lat="47.28912" lon="-0.2234">
        <ele>86</ele>
        <time>2012-11-04T10:57:58Z</time>
      </trkpt>
      <trkpt lat="47.28905" lon="-0.22321">
        <ele>86</ele>
        <time>2012-11-04T10:58:03Z</time>
      </trkpt>
      <trkpt lat="47.28898" lon="-0.22302">
        <ele>85.9</ele>
        <time>2012-11-04T10:58:07Z</time>
      </trkpt>
      <trkpt lat="47.28896" lon="-0.22298">
        <ele>85.8</ele>
        <time>2012-11-04T10:58:08Z</time>
      </trkpt>
      <trkpt lat="47.28883" lon="-0.22271">
        <ele>85</ele>
        <time>2012-11-04T10:58:14Z</time>
      </trkpt>
      <trkpt lat="47.28878" lon="-0.2226">
        <ele>85</ele>
        <time>2012-11-04T10:58:16Z</time>
      </trkpt>
      <trkpt lat="47.28876" lon="-0.22256">
        <ele>85</ele>
        <time>2012-11-04T10:58:17Z</time>
      </trkpt>
      <trkpt lat="47.28873" lon="-0.2225">
        <ele>85</ele>
        <time>2012-11-04T10:58:18Z</time>
      </trkpt>
      <trkpt lat="47.28854" lon="-0.22212">
        <ele>85</ele>
        <time>2012-11-04T10:58:25Z</time>
      </trkpt>
      <trkpt lat="47.28851" lon="-0.22206">
        <ele>85</ele>
        <time>2012-11-04T10:58:26Z</time>
      </trkpt>
      <trkpt lat="47.28848" lon="-0.222">
        <ele>85</ele>
        <time>2012-11-04T10:58:27Z</time>
      </trkpt>
      <trkpt lat="47.28845" lon="-0.22194">
        <ele>85</ele>
        <time>2012-11-04T10:58:28Z</time>
      </trkpt>
      <trkpt lat="47.28842" lon="-0.22188">
        <ele>84.8</ele>
        <time>2012-11-04T10:58:29Z</time>
      </trkpt>
      <trkpt lat="47.28839" lon="-0.22183">
        <ele>84.7</ele>
        <time>2012-11-04T10:58:30Z</time>
      </trkpt>
      <trkpt lat="47.2883" lon="-0.22163">
        <ele>84</ele>
        <time>2012-11-04T10:58:35Z</time>
      </trkpt>
      <trkpt lat="47.28822" lon="-0.2214">
        <ele>84</ele>
        <time>2012-11-04T10:58:40Z</time>
      </trkpt>
      <trkpt lat="47.28815" lon="-0.22113">
        <ele>84</ele>
        <time>2012-11-04T10:58:45Z</time>
      </trkpt>
      <trkpt lat="47.28809" lon="-0.22099">
        <ele>84</ele>
        <time>2012-11-04T10:58:48Z</time>
      </trkpt>
      <trkpt lat="47.28796" lon="-0.22071">
        <ele>84</ele>
        <time>2012-11-04T10:58:54Z</time>
      </trkpt>
      <trkpt lat="47.28785" lon="-0.22048">
        <ele>84</ele>
        <time>2012-11-04T10:58:59Z</time>
      </trkpt>
      <trkpt lat="47.28778" lon="-0.22031">
        <ele>84</ele>
        <time>2012-11-04T10:59:03Z</time>
      </trkpt>
      <trkpt lat="47.28766" lon="-0.22006">
        <ele>84</ele>
        <time>2012-11-04T10:59:09Z</time>
      </trkpt>
      <trkpt lat="47.28765" lon="-0.22001">
        <ele>84</ele>
        <time>2012-11-04T10:59:10Z</time>
      </trkpt>
      <trkpt lat="47.28763" lon="-0.21997">
        <ele>84</ele>
        <time>2012-11-04T10:59:11Z</time>
      </trkpt>
      <trkpt lat="47.28761" lon="-0.21993">
        <ele>84</ele>
        <time>2012-11-04T10:59:12Z</time>
      </trkpt>
      <trkpt lat="47.2875" lon="-0.21972">
        <ele>84</ele>
        <time>2012-11-04T10:59:17Z</time>
      </trkpt>
      <trkpt lat="47.28738" lon="-0.21944">
        <ele>84</ele>
        <time>2012-11-04T10:59:23Z</time>
      </trkpt>
      <trkpt lat="47.28726" lon="-0.21917">
        <ele>83.9</ele>
        <time>2012-11-04T10:59:29Z</time>
      </trkpt>
      <trkpt lat="47.28714" lon="-0.21896">
        <ele>83.5</ele>
        <time>2012-11-04T10:59:35Z</time>
      </trkpt>
      <trkpt lat="47.28705" lon="-0.21877">
        <ele>83.6</ele>
        <time>2012-11-04T10:59:41Z</time>
      </trkpt>
      <trkpt lat="47.28691" lon="-0.21849">
        <ele>84</ele>
        <time>2012-11-04T10:59:48Z</time>
      </trkpt>
      <trkpt lat="47.28685" lon="-0.2184">
        <ele>84</ele>
        <time>2012-11-04T10:59:51Z</time>
      </trkpt>
      <trkpt lat="47.28683" lon="-0.21838">
        <ele>84</ele>
        <time>2012-11-04T10:59:52Z</time>
      </trkpt>
      <trkpt lat="47.28681" lon="-0.21835">
        <ele>84</ele>
        <time>2012-11-04T10:59:53Z</time>
      </trkpt>
      <trkpt lat="47.2868" lon="-0.21828">
        <ele>83.9</ele>
        <time>2012-11-04T10:59:58Z</time>
      </trkpt>
      <trkpt lat="47.28679" lon="-0.21825">
        <ele>83.9</ele>
        <time>2012-11-04T11:01:25Z</time>
      </trkpt>
      <trkpt lat="47.28679" lon="-0.21821">
        <ele>83.8</ele>
        <time>2012-11-04T11:01:26Z</time>
      </trkpt>
      <trkpt lat="47.28678" lon="-0.21816">
        <ele>83.7</ele>
        <time>2012-11-04T11:01:27Z</time>
      </trkpt>
      <trkpt lat="47.28677" lon="-0.2181">
        <ele>83.7</ele>
        <time>2012-11-04T11:01:28Z</time>
      </trkpt>
      <trkpt lat="47.28676" lon="-0.21804">
        <ele>83.7</ele>
        <time>2012-11-04T11:01:29Z</time>
      </trkpt>
      <trkpt lat="47.28673" lon="-0.218">
        <ele>83.8</ele>
        <time>2012-11-04T11:01:30Z</time>
      </trkpt>
      <trkpt lat="47.28671" lon="-0.21795">
        <ele>83.8</ele>
        <time>2012-11-04T11:01:31Z</time>
      </trkpt>
      <trkpt lat="47.28652" lon="-0.21751">
        <ele>84.5</ele>
        <time>2012-11-04T11:01:38Z</time>
      </trkpt>
      <trkpt lat="47.28634" lon="-0.21716">
        <ele>85</ele>
        <time>2012-11-04T11:01:44Z</time>
      </trkpt>
      <trkpt lat="47.28633" lon="-0.21711">
        <ele>85</ele>
        <time>2012-11-04T11:01:45Z</time>
      </trkpt>
      <trkpt lat="47.28631" lon="-0.21705">
        <ele>85</ele>
        <time>2012-11-04T11:01:46Z</time>
      </trkpt>
      <trkpt lat="47.28629" lon="-0.217">
        <ele>85</ele>
        <time>2012-11-04T11:01:47Z</time>
      </trkpt>
      <trkpt lat="47.28628" lon="-0.21694">
        <ele>85</ele>
        <time>2012-11-04T11:01:48Z</time>
      </trkpt>
      <trkpt lat="47.28626" lon="-0.21688">
        <ele>85</ele>
        <time>2012-11-04T11:01:49Z</time>
      </trkpt>
      <trkpt lat="47.28625" lon="-0.21682">
        <ele>85</ele>
        <time>2012-11-04T11:01:50Z</time>
      </trkpt>
      <trkpt lat="47.28623" lon="-0.21676">
        <ele>85</ele>
        <time>2012-11-04T11:01:51Z</time>
      </trkpt>
      <trkpt lat="47.28622" lon="-0.21671">
        <ele>85</ele>
        <time>2012-11-04T11:01:52Z</time>
      </trkpt>
      <trkpt lat="47.28621" lon="-0.21667">
        <ele>85</ele>
        <time>2012-11-04T11:01:53Z</time>
      </trkpt>
      <trkpt lat="47.28621" lon="-0.21662">
        <ele>85</ele>
        <time>2012-11-04T11:01:54Z</time>
      </trkpt>
      <trkpt lat="47.28621" lon="-0.21655">
        <ele>85</ele>
        <time>2012-11-04T11:01:55Z</time>
      </trkpt>
      <trkpt lat="47.28621" lon="-0.21648">
        <ele>85</ele>
        <time>2012-11-04T11:01:56Z</time>
      </trkpt>
      <trkpt lat="47.2862" lon="-0.21627">
        <ele>85</ele>
        <time>2012-11-04T11:01:59Z</time>
      </trkpt>
      <trkpt lat="47.2862" lon="-0.21621">
        <ele>85</ele>
        <time>2012-11-04T11:02:00Z</time>
      </trkpt>
      <trkpt lat="47.28619" lon="-0.21615">
        <ele>85</ele>
        <time>2012-11-04T11:02:01Z</time>
      </trkpt>
      <trkpt lat="47.28617" lon="-0.21611">
        <ele>85</ele>
        <time>2012-11-04T11:02:02Z</time>
      </trkpt>
      <trkpt lat="47.28616" lon="-0.21608">
        <ele>85</ele>
        <time>2012-11-04T11:02:03Z</time>
      </trkpt>
      <trkpt lat="47.28615" lon="-0.21604">
        <ele>85</ele>
        <time>2012-11-04T11:02:04Z</time>
      </trkpt>
      <trkpt lat="47.28614" lon="-0.21599">
        <ele>85</ele>
        <time>2012-11-04T11:02:05Z</time>
      </trkpt>
      <trkpt lat="47.28613" lon="-0.21594">
        <ele>85</ele>
        <time>2012-11-04T11:02:06Z</time>
      </trkpt>
      <trkpt lat="47.28611" lon="-0.21587">
        <ele>85</ele>
        <time>2012-11-04T11:02:08Z</time>
      </trkpt>
      <trkpt lat="47.2861" lon="-0.21584">
        <ele>85</ele>
        <time>2012-11-04T11:02:09Z</time>
      </trkpt>
      <trkpt lat="47.28609" lon="-0.2158">
        <ele>85</ele>
        <time>2012-11-04T11:02:10Z</time>
      </trkpt>
      <trkpt lat="47.28607" lon="-0.21576">
        <ele>85</ele>
        <time>2012-11-04T11:02:11Z</time>
      </trkpt>
      <trkpt lat="47.28605" lon="-0.21572">
        <ele>85</ele>
        <time>2012-11-04T11:02:12Z</time>
      </trkpt>
      <trkpt lat="47.28603" lon="-0.21568">
        <ele>85</ele>
        <time>2012-11-04T11:02:13Z</time>
      </trkpt>
      <trkpt lat="47.28597" lon="-0.2156">
        <ele>85</ele>
        <time>2012-11-04T11:02:16Z</time>
      </trkpt>
      <trkpt lat="47.28577" lon="-0.21544">
        <ele>85</ele>
        <time>2012-11-04T11:02:22Z</time>
      </trkpt>
      <trkpt lat="47.2857" lon="-0.21537">
        <ele>85</ele>
        <time>2012-11-04T11:02:24Z</time>
      </trkpt>
      <trkpt lat="47.28566" lon="-0.21533">
        <ele>85</ele>
        <time>2012-11-04T11:02:25Z</time>
      </trkpt>
      <trkpt lat="47.2855" lon="-0.21524">
        <ele>84.8</ele>
        <time>2012-11-04T11:02:30Z</time>
      </trkpt>
      <trkpt lat="47.28548" lon="-0.21524">
        <ele>84.7</ele>
        <time>2012-11-04T11:02:31Z</time>
      </trkpt>
      <trkpt lat="47.28546" lon="-0.21522">
        <ele>84.7</ele>
        <time>2012-11-04T11:02:32Z</time>
      </trkpt>
      <trkpt lat="47.28543" lon="-0.21521">
        <ele>84.5</ele>
        <time>2012-11-04T11:02:33Z</time>
      </trkpt>
      <trkpt lat="47.28541" lon="-0.2152">
        <ele>84.5</ele>
        <time>2012-11-04T11:02:34Z</time>
      </trkpt>
      <trkpt lat="47.28538" lon="-0.21521">
        <ele>84.4</ele>
        <time>2012-11-04T11:02:35Z</time>
      </trkpt>
      <trkpt lat="47.2852" lon="-0.21518">
        <ele>84</ele>
        <time>2012-11-04T11:02:41Z</time>
      </trkpt>
      <trkpt lat="47.285" lon="-0.21508">
        <ele>84</ele>
        <time>2012-11-04T11:02:47Z</time>
      </trkpt>
      <trkpt lat="47.28494" lon="-0.21504">
        <ele>84</ele>
        <time>2012-11-04T11:02:51Z</time>
      </trkpt>
      <trkpt lat="47.28492" lon="-0.21503">
        <ele>84</ele>
        <time>2012-11-04T11:02:52Z</time>
      </trkpt>
      <trkpt lat="47.28474" lon="-0.21488">
        <ele>84</ele>
        <time>2012-11-04T11:02:58Z</time>
      </trkpt>
      <trkpt lat="47.28454" lon="-0.21467">
        <ele>83.9</ele>
        <time>2012-11-04T11:03:04Z</time>
      </trkpt>
      <trkpt lat="47.28437" lon="-0.21444">
        <ele>83</ele>
        <time>2012-11-04T11:03:09Z</time>
      </trkpt>
      <trkpt lat="47.2841" lon="-0.2142">
        <ele>82.8</ele>
        <time>2012-11-04T11:03:16Z</time>
      </trkpt>
      <trkpt lat="47.28406" lon="-0.21417">
        <ele>82.6</ele>
        <time>2012-11-04T11:03:17Z</time>
      </trkpt>
      <trkpt lat="47.28402" lon="-0.21414">
        <ele>82.4</ele>
        <time>2012-11-04T11:03:18Z</time>
      </trkpt>
      <trkpt lat="47.28375" lon="-0.21385">
        <ele>80.9</ele>
        <time>2012-11-04T11:03:23Z</time>
      </trkpt>
      <trkpt lat="47.2837" lon="-0.2138">
        <ele>80.5</ele>
        <time>2012-11-04T11:03:24Z</time>
      </trkpt>
      <trkpt lat="47.28364" lon="-0.21376">
        <ele>80.2</ele>
        <time>2012-11-04T11:03:25Z</time>
      </trkpt>
      <trkpt lat="47.28359" lon="-0.21371">
        <ele>80</ele>
        <time>2012-11-04T11:03:26Z</time>
      </trkpt>
      <trkpt lat="47.28355" lon="-0.21366">
        <ele>80</ele>
        <time>2012-11-04T11:03:27Z</time>
      </trkpt>
      <trkpt lat="47.2835" lon="-0.21362">
        <ele>80</ele>
        <time>2012-11-04T11:03:28Z</time>
      </trkpt>
      <trkpt lat="47.28344" lon="-0.21354">
        <ele>80</ele>
        <time>2012-11-04T11:03:29Z</time>
      </trkpt>
      <trkpt lat="47.28325" lon="-0.21324">
        <ele>80</ele>
        <time>2012-11-04T11:03:35Z</time>
      </trkpt>
      <trkpt lat="47.28319" lon="-0.21311">
        <ele>80</ele>
        <time>2012-11-04T11:03:39Z</time>
      </trkpt>
      <trkpt lat="47.28318" lon="-0.21309">
        <ele>80</ele>
        <time>2012-11-04T11:03:40Z</time>
      </trkpt>
      <trkpt lat="47.28317" lon="-0.21306">
        <ele>80</ele>
        <time>2012-11-04T11:03:41Z</time>
      </trkpt>
      <trkpt lat="47.28316" lon="-0.21303">
        <ele>79.9</ele>
        <time>2012-11-04T11:03:42Z</time>
      </trkpt>
      <trkpt lat="47.28315" lon="-0.21298">
        <ele>79.8</ele>
        <time>2012-11-04T11:03:43Z</time>
      </trkpt>
      <trkpt lat="47.28314" lon="-0.21294">
        <ele>79.7</ele>
        <time>2012-11-04T11:03:44Z</time>
      </trkpt>
      <trkpt lat="47.28313" lon="-0.21288">
        <ele>79.5</ele>
        <time>2012-11-04T11:03:45Z</time>
      </trkpt>
      <trkpt lat="47.28313" lon="-0.21283">
        <ele>79.4</ele>
        <time>2012-11-04T11:03:46Z</time>
      </trkpt>
      <trkpt lat="47.28304" lon="-0.2126">
        <ele>79.1</ele>
        <time>2012-11-04T11:03:52Z</time>
      </trkpt>
      <trkpt lat="47.28294" lon="-0.21239">
        <ele>79.6</ele>
        <time>2012-11-04T11:03:58Z</time>
      </trkpt>
      <trkpt lat="47.28288" lon="-0.2123">
        <ele>79.9</ele>
        <time>2012-11-04T11:04:01Z</time>
      </trkpt>
      <trkpt lat="47.28287" lon="-0.21226">
        <ele>80</ele>
        <time>2012-11-04T11:04:02Z</time>
      </trkpt>
      <trkpt lat="47.28285" lon="-0.21222">
        <ele>80</ele>
        <time>2012-11-04T11:04:03Z</time>
      </trkpt>
      <trkpt lat="47.28283" lon="-0.21218">
        <ele>80</ele>
        <time>2012-11-04T11:04:04Z</time>
      </trkpt>
      <trkpt lat="47.28282" lon="-0.21215">
        <ele>80</ele>
        <time>2012-11-04T11:04:05Z</time>
      </trkpt>
      <trkpt lat="47.28275" lon="-0.21196">
        <ele>80</ele>
        <time>2012-11-04T11:04:10Z</time>
      </trkpt>
      <trkpt lat="47.28274" lon="-0.21191">
        <ele>80</ele>
        <time>2012-11-04T11:04:11Z</time>
      </trkpt>
      <trkpt lat="47.28273" lon="-0.21187">
        <ele>80</ele>
        <time>2012-11-04T11:04:12Z</time>
      </trkpt>
      <trkpt lat="47.28271" lon="-0.21184">
        <ele>80</ele>
        <time>2012-11-04T11:04:13Z</time>
      </trkpt>
      <trkpt lat="47.28269" lon="-0.2118">
        <ele>80</ele>
        <time>2012-11-04T11:04:14Z</time>
      </trkpt>
      <trkpt lat="47.28255" lon="-0.21159">
        <ele>80</ele>
        <time>2012-11-04T11:04:20Z</time>
      </trkpt>
      <trkpt lat="47.28253" lon="-0.21156">
        <ele>80</ele>
        <time>2012-11-04T11:04:21Z</time>
      </trkpt>
      <trkpt lat="47.28248" lon="-0.21148">
        <ele>80.1</ele>
        <time>2012-11-04T11:04:24Z</time>
      </trkpt>
      <trkpt lat="47.28247" lon="-0.21145">
        <ele>80.1</ele>
        <time>2012-11-04T11:04:25Z</time>
      </trkpt>
      <trkpt lat="47.28246" lon="-0.21143">
        <ele>80.1</ele>
        <time>2012-11-04T11:04:26Z</time>
      </trkpt>
      <trkpt lat="47.28244" lon="-0.2114">
        <ele>80.2</ele>
        <time>2012-11-04T11:04:27Z</time>
      </trkpt>
      <trkpt lat="47.28241" lon="-0.21141">
        <ele>80.3</ele>
        <time>2012-11-04T11:04:33Z</time>
      </trkpt>
      <trkpt lat="47.2824" lon="-0.2114">
        <ele>80.4</ele>
        <time>2012-11-04T11:04:38Z</time>
      </trkpt>
      <trkpt lat="47.28239" lon="-0.2114">
        <ele>80.4</ele>
        <time>2012-11-04T11:04:45Z</time>
      </trkpt>
      <trkpt lat="47.28237" lon="-0.2113">
        <ele>80.5</ele>
        <time>2012-11-04T11:04:54Z</time>
      </trkpt>
      <trkpt lat="47.28232" lon="-0.21122">
        <ele>80.6</ele>
        <time>2012-11-04T11:05:02Z</time>
      </trkpt>
      <trkpt lat="47.28229" lon="-0.21116">
        <ele>80.8</ele>
        <time>2012-11-04T11:05:10Z</time>
      </trkpt>
      <trkpt lat="47.28217" lon="-0.21104">
        <ele>81</ele>
        <time>2012-11-04T11:05:16Z</time>
      </trkpt>
      <trkpt lat="47.28205" lon="-0.21085">
        <ele>81</ele>
        <time>2012-11-04T11:05:22Z</time>
      </trkpt>
      <trkpt lat="47.28196" lon="-0.21065">
        <ele>81</ele>
        <time>2012-11-04T11:05:28Z</time>
      </trkpt>
      <trkpt lat="47.28187" lon="-0.21042">
        <ele>81.3</ele>
        <time>2012-11-04T11:05:34Z</time>
      </trkpt>
      <trkpt lat="47.28182" lon="-0.21024">
        <ele>81.5</ele>
        <time>2012-11-04T11:05:38Z</time>
      </trkpt>
      <trkpt lat="47.28181" lon="-0.21021">
        <ele>81.6</ele>
        <time>2012-11-04T11:05:39Z</time>
      </trkpt>
      <trkpt lat="47.2818" lon="-0.21018">
        <ele>81.7</ele>
        <time>2012-11-04T11:05:40Z</time>
      </trkpt>
      <trkpt lat="47.2818" lon="-0.21016">
        <ele>81.7</ele>
        <time>2012-11-04T11:05:41Z</time>
      </trkpt>
      <trkpt lat="47.28178" lon="-0.21014">
        <ele>81.8</ele>
        <time>2012-11-04T11:05:42Z</time>
      </trkpt>
      <trkpt lat="47.28172" lon="-0.20995">
        <ele>82</ele>
        <time>2012-11-04T11:05:48Z</time>
      </trkpt>
      <trkpt lat="47.2817" lon="-0.20992">
        <ele>82</ele>
        <time>2012-11-04T11:05:49Z</time>
      </trkpt>
      <trkpt lat="47.28169" lon="-0.20989">
        <ele>82</ele>
        <time>2012-11-04T11:05:50Z</time>
      </trkpt>
      <trkpt lat="47.28166" lon="-0.20966">
        <ele>82</ele>
        <time>2012-11-04T11:05:58Z</time>
      </trkpt>
      <trkpt lat="47.28163" lon="-0.20959">
        <ele>82.1</ele>
        <time>2012-11-04T11:06:01Z</time>
      </trkpt>
      <trkpt lat="47.28162" lon="-0.20955">
        <ele>82.2</ele>
        <time>2012-11-04T11:06:02Z</time>
      </trkpt>
      <trkpt lat="47.28162" lon="-0.20952">
        <ele>82.2</ele>
        <time>2012-11-04T11:06:03Z</time>
      </trkpt>
      <trkpt lat="47.28161" lon="-0.20948">
        <ele>82.2</ele>
        <time>2012-11-04T11:06:04Z</time>
      </trkpt>
      <trkpt lat="47.2816" lon="-0.20945">
        <ele>82.2</ele>
        <time>2012-11-04T11:06:05Z</time>
      </trkpt>
      <trkpt lat="47.28158" lon="-0.20941">
        <ele>82.3</ele>
        <time>2012-11-04T11:06:06Z</time>
      </trkpt>
      <trkpt lat="47.28158" lon="-0.20939">
        <ele>82.3</ele>
        <time>2012-11-04T11:06:07Z</time>
      </trkpt>
      <trkpt lat="47.28157" lon="-0.20936">
        <ele>82.3</ele>
        <time>2012-11-04T11:06:08Z</time>
      </trkpt>
      <trkpt lat="47.28156" lon="-0.20934">
        <ele>82.4</ele>
        <time>2012-11-04T11:06:09Z</time>
      </trkpt>
      <trkpt lat="47.28155" lon="-0.20932">
        <ele>82.4</ele>
        <time>2012-11-04T11:06:10Z</time>
      </trkpt>
      <trkpt lat="47.28154" lon="-0.20929">
        <ele>82.5</ele>
        <time>2012-11-04T11:06:11Z</time>
      </trkpt>
      <trkpt lat="47.28154" lon="-0.20927">
        <ele>82.5</ele>
        <time>2012-11-04T11:06:12Z</time>
      </trkpt>
      <trkpt lat="47.28152" lon="-0.20909">
        <ele>82.7</ele>
        <time>2012-11-04T11:06:18Z</time>
      </trkpt>
      <trkpt lat="47.28149" lon="-0.20902">
        <ele>82.8</ele>
        <time>2012-11-04T11:06:22Z</time>
      </trkpt>
      <trkpt lat="47.28144" lon="-0.20887">
        <ele>83</ele>
        <time>2012-11-04T11:06:27Z</time>
      </trkpt>
      <trkpt lat="47.28142" lon="-0.20885">
        <ele>83</ele>
        <time>2012-11-04T11:06:28Z</time>
      </trkpt>
      <trkpt lat="47.28141" lon="-0.20882">
        <ele>83</ele>
        <time>2012-11-04T11:06:29Z</time>
      </trkpt>
      <trkpt lat="47.28139" lon="-0.20879">
        <ele>83</ele>
        <time>2012-11-04T11:06:30Z</time>
      </trkpt>
      <trkpt lat="47.28137" lon="-0.20878">
        <ele>83</ele>
        <time>2012-11-04T11:06:31Z</time>
      </trkpt>
      <trkpt lat="47.28136" lon="-0.20876">
        <ele>83</ele>
        <time>2012-11-04T11:06:32Z</time>
      </trkpt>
      <trkpt lat="47.28134" lon="-0.20873">
        <ele>83</ele>
        <time>2012-11-04T11:06:33Z</time>
      </trkpt>
      <trkpt lat="47.28132" lon="-0.2087">
        <ele>83</ele>
        <time>2012-11-04T11:06:34Z</time>
      </trkpt>
      <trkpt lat="47.2813" lon="-0.20867">
        <ele>83</ele>
        <time>2012-11-04T11:06:35Z</time>
      </trkpt>
      <trkpt lat="47.28129" lon="-0.20863">
        <ele>83</ele>
        <time>2012-11-04T11:06:36Z</time>
      </trkpt>
      <trkpt lat="47.28114" lon="-0.20837">
        <ele>83</ele>
        <time>2012-11-04T11:06:42Z</time>
      </trkpt>
      <trkpt lat="47.28108" lon="-0.2083">
        <ele>83.1</ele>
        <time>2012-11-04T11:06:44Z</time>
      </trkpt>
      <trkpt lat="47.28093" lon="-0.2081">
        <ele>83.7</ele>
        <time>2012-11-04T11:06:50Z</time>
      </trkpt>
      <trkpt lat="47.28092" lon="-0.20809">
        <ele>83.7</ele>
        <time>2012-11-04T11:06:51Z</time>
      </trkpt>
      <trkpt lat="47.2809" lon="-0.20808">
        <ele>83.8</ele>
        <time>2012-11-04T11:06:52Z</time>
      </trkpt>
      <trkpt lat="47.28088" lon="-0.20805">
        <ele>83.8</ele>
        <time>2012-11-04T11:06:53Z</time>
      </trkpt>
      <trkpt lat="47.28086" lon="-0.20801">
        <ele>83.9</ele>
        <time>2012-11-04T11:06:54Z</time>
      </trkpt>
      <trkpt lat="47.28083" lon="-0.20795">
        <ele>84</ele>
        <time>2012-11-04T11:06:55Z</time>
      </trkpt>
      <trkpt lat="47.28068" lon="-0.20767">
        <ele>84</ele>
        <time>2012-11-04T11:07:01Z</time>
      </trkpt>
      <trkpt lat="47.28063" lon="-0.20746">
        <ele>84</ele>
        <time>2012-11-04T11:07:05Z</time>
      </trkpt>
      <trkpt lat="47.28061" lon="-0.20742">
        <ele>84</ele>
        <time>2012-11-04T11:07:06Z</time>
      </trkpt>
      <trkpt lat="47.28061" lon="-0.20739">
        <ele>84</ele>
        <time>2012-11-04T11:07:07Z</time>
      </trkpt>
      <trkpt lat="47.28062" lon="-0.20735">
        <ele>84</ele>
        <time>2012-11-04T11:07:08Z</time>
      </trkpt>
      <trkpt lat="47.28062" lon="-0.20731">
        <ele>84</ele>
        <time>2012-11-04T11:07:09Z</time>
      </trkpt>
      <trkpt lat="47.28063" lon="-0.20728">
        <ele>84</ele>
        <time>2012-11-04T11:07:10Z</time>
      </trkpt>
      <trkpt lat="47.28064" lon="-0.20725">
        <ele>84</ele>
        <time>2012-11-04T11:07:11Z</time>
      </trkpt>
      <trkpt lat="47.28065" lon="-0.20723">
        <ele>84</ele>
        <time>2012-11-04T11:07:12Z</time>
      </trkpt>
      <trkpt lat="47.28067" lon="-0.20722">
        <ele>84</ele>
        <time>2012-11-04T11:07:13Z</time>
      </trkpt>
      <trkpt lat="47.28069" lon="-0.20723">
        <ele>84</ele>
        <time>2012-11-04T11:07:14Z</time>
      </trkpt>
      <trkpt lat="47.2807" lon="-0.20726">
        <ele>84</ele>
        <time>2012-11-04T11:07:15Z</time>
      </trkpt>
      <trkpt lat="47.28071" lon="-0.20727">
        <ele>84</ele>
        <time>2012-11-04T11:07:16Z</time>
      </trkpt>
      <trkpt lat="47.2807" lon="-0.20726">
        <ele>84</ele>
        <time>2012-11-04T11:07:18Z</time>
      </trkpt>
      <trkpt lat="47.28071" lon="-0.20728">
        <ele>84</ele>
        <time>2012-11-04T11:07:19Z</time>
      </trkpt>
      <trkpt lat="47.28072" lon="-0.20731">
        <ele>84</ele>
        <time>2012-11-04T11:07:20Z</time>
      </trkpt>
      <trkpt lat="47.28074" lon="-0.20735">
        <ele>84</ele>
        <time>2012-11-04T11:07:22Z</time>
      </trkpt>
      <trkpt lat="47.28075" lon="-0.20735">
        <ele>84</ele>
        <time>2012-11-04T11:07:23Z</time>
      </trkpt>
      <trkpt lat="47.28077" lon="-0.20734">
        <ele>84</ele>
        <time>2012-11-04T11:07:24Z</time>
      </trkpt>
      <trkpt lat="47.28078" lon="-0.20732">
        <ele>84</ele>
        <time>2012-11-04T11:07:25Z</time>
      </trkpt>
      <trkpt lat="47.28081" lon="-0.20731">
        <ele>84</ele>
        <time>2012-11-04T11:07:26Z</time>
      </trkpt>
      <trkpt lat="47.28085" lon="-0.20729">
        <ele>84</ele>
        <time>2012-11-04T11:07:27Z</time>
      </trkpt>
      <trkpt lat="47.28086" lon="-0.20726">
        <ele>84</ele>
        <time>2012-11-04T11:07:28Z</time>
      </trkpt>
      <trkpt lat="47.2809" lon="-0.20723">
        <ele>84</ele>
        <time>2012-11-04T11:07:29Z</time>
      </trkpt>
      <trkpt lat="47.28093" lon="-0.2072">
        <ele>84</ele>
        <time>2012-11-04T11:07:30Z</time>
      </trkpt>
      <trkpt lat="47.28095" lon="-0.20716">
        <ele>84</ele>
        <time>2012-11-04T11:07:31Z</time>
      </trkpt>
      <trkpt lat="47.28098" lon="-0.20713">
        <ele>84</ele>
        <time>2012-11-04T11:07:32Z</time>
      </trkpt>
      <trkpt lat="47.281" lon="-0.2071">
        <ele>84</ele>
        <time>2012-11-04T11:07:33Z</time>
      </trkpt>
      <trkpt lat="47.28117" lon="-0.20682">
        <ele>83.8</ele>
        <time>2012-11-04T11:07:40Z</time>
      </trkpt>
      <trkpt lat="47.28128" lon="-0.20662">
        <ele>83.5</ele>
        <time>2012-11-04T11:07:46Z</time>
      </trkpt>
      <trkpt lat="47.28131" lon="-0.20655">
        <ele>83.6</ele>
        <time>2012-11-04T11:07:48Z</time>
      </trkpt>
      <trkpt lat="47.28133" lon="-0.20653">
        <ele>83.6</ele>
        <time>2012-11-04T11:07:49Z</time>
      </trkpt>
      <trkpt lat="47.2814" lon="-0.20645">
        <ele>83.7</ele>
        <time>2012-11-04T11:07:52Z</time>
      </trkpt>
      <trkpt lat="47.28141" lon="-0.20641">
        <ele>83.9</ele>
        <time>2012-11-04T11:07:53Z</time>
      </trkpt>
      <trkpt lat="47.28153" lon="-0.20617">
        <ele>83.5</ele>
        <time>2012-11-04T11:07:59Z</time>
      </trkpt>
      <trkpt lat="47.28167" lon="-0.20593">
        <ele>83.6</ele>
        <time>2012-11-04T11:08:06Z</time>
      </trkpt>
      <trkpt lat="47.28176" lon="-0.20579">
        <ele>83.7</ele>
        <time>2012-11-04T11:08:11Z</time>
      </trkpt>
      <trkpt lat="47.28177" lon="-0.20576">
        <ele>83.6</ele>
        <time>2012-11-04T11:08:12Z</time>
      </trkpt>
      <trkpt lat="47.28178" lon="-0.20573">
        <ele>83.6</ele>
        <time>2012-11-04T11:08:13Z</time>
      </trkpt>
      <trkpt lat="47.28182" lon="-0.20566">
        <ele>83.4</ele>
        <time>2012-11-04T11:08:16Z</time>
      </trkpt>
      <trkpt lat="47.28183" lon="-0.20563">
        <ele>83.4</ele>
        <time>2012-11-04T11:08:17Z</time>
      </trkpt>
      <trkpt lat="47.28185" lon="-0.2056">
        <ele>83.3</ele>
        <time>2012-11-04T11:08:18Z</time>
      </trkpt>
      <trkpt lat="47.2819" lon="-0.20551">
        <ele>83.2</ele>
        <time>2012-11-04T11:08:22Z</time>
      </trkpt>
      <trkpt lat="47.28191" lon="-0.20549">
        <ele>83.1</ele>
        <time>2012-11-04T11:08:23Z</time>
      </trkpt>
      <trkpt lat="47.28191" lon="-0.20547">
        <ele>83.1</ele>
        <time>2012-11-04T11:08:24Z</time>
      </trkpt>
      <trkpt lat="47.28191" lon="-0.20544">
        <ele>83.1</ele>
        <time>2012-11-04T11:08:25Z</time>
      </trkpt>
      <trkpt lat="47.2819" lon="-0.20542">
        <ele>83.2</ele>
        <time>2012-11-04T11:08:26Z</time>
      </trkpt>
      <trkpt lat="47.2819" lon="-0.2054">
        <ele>83.2</ele>
        <time>2012-11-04T11:08:27Z</time>
      </trkpt>
      <trkpt lat="47.28189" lon="-0.20538">
        <ele>83.2</ele>
        <time>2012-11-04T11:08:28Z</time>
      </trkpt>
      <trkpt lat="47.28188" lon="-0.20536">
        <ele>83.2</ele>
        <time>2012-11-04T11:08:36Z</time>
      </trkpt>
      <trkpt lat="47.28183" lon="-0.2053">
        <ele>83.4</ele>
        <time>2012-11-04T11:08:56Z</time>
      </trkpt>
      <trkpt lat="47.28177" lon="-0.20515">
        <ele>83.8</ele>
        <time>2012-11-04T11:09:01Z</time>
      </trkpt>
      <trkpt lat="47.28174" lon="-0.20512">
        <ele>83.9</ele>
        <time>2012-11-04T11:09:02Z</time>
      </trkpt>
      <trkpt lat="47.28173" lon="-0.2051">
        <ele>83.9</ele>
        <time>2012-11-04T11:09:03Z</time>
      </trkpt>
      <trkpt lat="47.28169" lon="-0.20505">
        <ele>84</ele>
        <time>2012-11-04T11:09:05Z</time>
      </trkpt>
      <trkpt lat="47.28165" lon="-0.20503">
        <ele>84.1</ele>
        <time>2012-11-04T11:09:07Z</time>
      </trkpt>
      <trkpt lat="47.28147" lon="-0.20498">
        <ele>84.7</ele>
        <time>2012-11-04T11:09:14Z</time>
      </trkpt>
      <trkpt lat="47.28128" lon="-0.20488">
        <ele>85.4</ele>
        <time>2012-11-04T11:09:21Z</time>
      </trkpt>
      <trkpt lat="47.28109" lon="-0.20478">
        <ele>86</ele>
        <time>2012-11-04T11:09:28Z</time>
      </trkpt>
      <trkpt lat="47.28093" lon="-0.20468">
        <ele>86</ele>
        <time>2012-11-04T11:09:36Z</time>
      </trkpt>
      <trkpt lat="47.2809" lon="-0.20466">
        <ele>86</ele>
        <time>2012-11-04T11:09:38Z</time>
      </trkpt>
      <trkpt lat="47.28089" lon="-0.20465">
        <ele>86</ele>
        <time>2012-11-04T11:09:39Z</time>
      </trkpt>
      <trkpt lat="47.28088" lon="-0.20464">
        <ele>86</ele>
        <time>2012-11-04T11:09:40Z</time>
      </trkpt>
      <trkpt lat="47.28087" lon="-0.20463">
        <ele>86</ele>
        <time>2012-11-04T11:09:41Z</time>
      </trkpt>
      <trkpt lat="47.28086" lon="-0.20462">
        <ele>86</ele>
        <time>2012-11-04T11:09:42Z</time>
      </trkpt>
      <trkpt lat="47.28075" lon="-0.20454">
        <ele>86.2</ele>
        <time>2012-11-04T11:09:50Z</time>
      </trkpt>
      <trkpt lat="47.2807" lon="-0.20443">
        <ele>86.5</ele>
        <time>2012-11-04T11:09:56Z</time>
      </trkpt>
      <trkpt lat="47.28062" lon="-0.20432">
        <ele>86.8</ele>
        <time>2012-11-04T11:10:02Z</time>
      </trkpt>
      <trkpt lat="47.28059" lon="-0.20428">
        <ele>86.9</ele>
        <time>2012-11-04T11:10:05Z</time>
      </trkpt>
      <trkpt lat="47.28058" lon="-0.20427">
        <ele>86.9</ele>
        <time>2012-11-04T11:10:06Z</time>
      </trkpt>
      <trkpt lat="47.28057" lon="-0.20425">
        <ele>86.9</ele>
        <time>2012-11-04T11:10:07Z</time>
      </trkpt>
      <trkpt lat="47.28056" lon="-0.20423">
        <ele>87</ele>
        <time>2012-11-04T11:10:08Z</time>
      </trkpt>
      <trkpt lat="47.28055" lon="-0.2042">
        <ele>87</ele>
        <time>2012-11-04T11:10:09Z</time>
      </trkpt>
      <trkpt lat="47.28045" lon="-0.20405">
        <ele>87</ele>
        <time>2012-11-04T11:10:15Z</time>
      </trkpt>
      <trkpt lat="47.28032" lon="-0.2039">
        <ele>87</ele>
        <time>2012-11-04T11:10:22Z</time>
      </trkpt>
      <trkpt lat="47.28016" lon="-0.20376">
        <ele>87.4</ele>
        <time>2012-11-04T11:10:30Z</time>
      </trkpt>
      <trkpt lat="47.28004" lon="-0.20378">
        <ele>87.9</ele>
        <time>2012-11-04T11:10:36Z</time>
      </trkpt>
      <trkpt lat="47.28003" lon="-0.2038">
        <ele>87.9</ele>
        <time>2012-11-04T11:10:37Z</time>
      </trkpt>
      <trkpt lat="47.28001" lon="-0.20382">
        <ele>88</ele>
        <time>2012-11-04T11:10:38Z</time>
      </trkpt>
      <trkpt lat="47.27987" lon="-0.20395">
        <ele>88</ele>
        <time>2012-11-04T11:10:45Z</time>
      </trkpt>
      <trkpt lat="47.27982" lon="-0.20402">
        <ele>88</ele>
        <time>2012-11-04T11:10:51Z</time>
      </trkpt>
      <trkpt lat="47.27982" lon="-0.20405">
        <ele>88</ele>
        <time>2012-11-04T11:11:02Z</time>
      </trkpt>
      <trkpt lat="47.27981" lon="-0.20409">
        <ele>88</ele>
        <time>2012-11-04T11:11:08Z</time>
      </trkpt>
      <trkpt lat="47.27978" lon="-0.20412">
        <ele>88</ele>
        <time>2012-11-04T11:11:11Z</time>
      </trkpt>
      <trkpt lat="47.27974" lon="-0.20411">
        <ele>88</ele>
        <time>2012-11-04T11:11:16Z</time>
      </trkpt>
      <trkpt lat="47.27971" lon="-0.20408">
        <ele>88</ele>
        <time>2012-11-04T11:11:23Z</time>
      </trkpt>
      <trkpt lat="47.27965" lon="-0.20411">
        <ele>88</ele>
        <time>2012-11-04T11:11:41Z</time>
      </trkpt>
      <trkpt lat="47.2795" lon="-0.2041">
        <ele>88</ele>
        <time>2012-11-04T11:11:48Z</time>
      </trkpt>
      <trkpt lat="47.27934" lon="-0.20402">
        <ele>88.4</ele>
        <time>2012-11-04T11:11:54Z</time>
      </trkpt>
      <trkpt lat="47.27921" lon="-0.20385">
        <ele>88.8</ele>
        <time>2012-11-04T11:12:00Z</time>
      </trkpt>
      <trkpt lat="47.27908" lon="-0.2037">
        <ele>89</ele>
        <time>2012-11-04T11:12:05Z</time>
      </trkpt>
      <trkpt lat="47.27894" lon="-0.20364">
        <ele>89</ele>
        <time>2012-11-04T11:12:10Z</time>
      </trkpt>
      <trkpt lat="47.27876" lon="-0.20355">
        <ele>89.5</ele>
        <time>2012-11-04T11:12:16Z</time>
      </trkpt>
      <trkpt lat="47.27864" lon="-0.20348">
        <ele>89.9</ele>
        <time>2012-11-04T11:12:21Z</time>
      </trkpt>
      <trkpt lat="47.27846" lon="-0.20335">
        <ele>90</ele>
        <time>2012-11-04T11:12:28Z</time>
      </trkpt>
      <trkpt lat="47.27829" lon="-0.20324">
        <ele>90.2</ele>
        <time>2012-11-04T11:12:35Z</time>
      </trkpt>
      <trkpt lat="47.27809" lon="-0.20311">
        <ele>90.9</ele>
        <time>2012-11-04T11:12:44Z</time>
      </trkpt>
      <trkpt lat="47.2779" lon="-0.20294">
        <ele>90.8</ele>
        <time>2012-11-04T11:12:52Z</time>
      </trkpt>
      <trkpt lat="47.27776" lon="-0.20285">
        <ele>91</ele>
        <time>2012-11-04T11:12:58Z</time>
      </trkpt>
      <trkpt lat="47.27773" lon="-0.20283">
        <ele>91</ele>
        <time>2012-11-04T11:12:59Z</time>
      </trkpt>
      <trkpt lat="47.27771" lon="-0.20281">
        <ele>91</ele>
        <time>2012-11-04T11:13:00Z</time>
      </trkpt>
      <trkpt lat="47.2775" lon="-0.20267">
        <ele>91</ele>
        <time>2012-11-04T11:13:08Z</time>
      </trkpt>
      <trkpt lat="47.27733" lon="-0.20254">
        <ele>91</ele>
        <time>2012-11-04T11:13:15Z</time>
      </trkpt>
      <trkpt lat="47.27717" lon="-0.2024">
        <ele>90.6</ele>
        <time>2012-11-04T11:13:22Z</time>
      </trkpt>
      <trkpt lat="47.27704" lon="-0.20231">
        <ele>90.3</ele>
        <time>2012-11-04T11:13:28Z</time>
      </trkpt>
      <trkpt lat="47.27703" lon="-0.20228">
        <ele>90.2</ele>
        <time>2012-11-04T11:13:29Z</time>
      </trkpt>
      <trkpt lat="47.27702" lon="-0.20225">
        <ele>90.1</ele>
        <time>2012-11-04T11:13:30Z</time>
      </trkpt>
      <trkpt lat="47.27688" lon="-0.20204">
        <ele>90</ele>
        <time>2012-11-04T11:13:37Z</time>
      </trkpt>
      <trkpt lat="47.27671" lon="-0.20196">
        <ele>90</ele>
        <time>2012-11-04T11:13:43Z</time>
      </trkpt>
      <trkpt lat="47.27654" lon="-0.20179">
        <ele>90.2</ele>
        <time>2012-11-04T11:13:50Z</time>
      </trkpt>
      <trkpt lat="47.27634" lon="-0.2016">
        <ele>90.1</ele>
        <time>2012-11-04T11:13:58Z</time>
      </trkpt>
      <trkpt lat="47.27617" lon="-0.20149">
        <ele>90.3</ele>
        <time>2012-11-04T11:14:05Z</time>
      </trkpt>
      <trkpt lat="47.27603" lon="-0.20139">
        <ele>90</ele>
        <time>2012-11-04T11:14:11Z</time>
      </trkpt>
      <trkpt lat="47.27584" lon="-0.20124">
        <ele>90</ele>
        <time>2012-11-04T11:14:19Z</time>
      </trkpt>
      <trkpt lat="47.27564" lon="-0.20112">
        <ele>90</ele>
        <time>2012-11-04T11:14:27Z</time>
      </trkpt>
      <trkpt lat="47.27553" lon="-0.20104">
        <ele>90</ele>
        <time>2012-11-04T11:14:32Z</time>
      </trkpt>
      <trkpt lat="47.27528" lon="-0.20091">
        <ele>90</ele>
        <time>2012-11-04T11:14:41Z</time>
      </trkpt>
      <trkpt lat="47.27507" lon="-0.2008">
        <ele>89.3</ele>
        <time>2012-11-04T11:14:48Z</time>
      </trkpt>
      <trkpt lat="47.27482" lon="-0.20074">
        <ele>89.1</ele>
        <time>2012-11-04T11:14:56Z</time>
      </trkpt>
      <trkpt lat="47.27462" lon="-0.20071">
        <ele>89</ele>
        <time>2012-11-04T11:15:03Z</time>
      </trkpt>
      <trkpt lat="47.27442" lon="-0.20066">
        <ele>88.9</ele>
        <time>2012-11-04T11:15:10Z</time>
      </trkpt>
      <trkpt lat="47.27422" lon="-0.20054">
        <ele>88.2</ele>
        <time>2012-11-04T11:15:18Z</time>
      </trkpt>
      <trkpt lat="47.274" lon="-0.20039">
        <ele>87.8</ele>
        <time>2012-11-04T11:15:26Z</time>
      </trkpt>
      <trkpt lat="47.27382" lon="-0.20022">
        <ele>87.8</ele>
        <time>2012-11-04T11:15:33Z</time>
      </trkpt>
      <trkpt lat="47.27362" lon="-0.19993">
        <ele>87</ele>
        <time>2012-11-04T11:15:40Z</time>
      </trkpt>
      <trkpt lat="47.27354" lon="-0.1998">
        <ele>87.2</ele>
        <time>2012-11-04T11:15:43Z</time>
      </trkpt>
      <trkpt lat="47.27351" lon="-0.19976">
        <ele>87.3</ele>
        <time>2012-11-04T11:15:44Z</time>
      </trkpt>
      <trkpt lat="47.27348" lon="-0.19974">
        <ele>87.4</ele>
        <time>2012-11-04T11:15:45Z</time>
      </trkpt>
      <trkpt lat="47.2733" lon="-0.19967">
        <ele>87.9</ele>
        <time>2012-11-04T11:15:51Z</time>
      </trkpt>
      <trkpt lat="47.27308" lon="-0.1997">
        <ele>87.2</ele>
        <time>2012-11-04T11:15:57Z</time>
      </trkpt>
      <trkpt lat="47.27259" lon="-0.19974">
        <ele>87</ele>
        <time>2012-11-04T11:16:07Z</time>
      </trkpt>
      <trkpt lat="47.27238" lon="-0.19978">
        <ele>86.8</ele>
        <time>2012-11-04T11:16:11Z</time>
      </trkpt>
      <trkpt lat="47.27233" lon="-0.1998">
        <ele>86.7</ele>
        <time>2012-11-04T11:16:12Z</time>
      </trkpt>
      <trkpt lat="47.27222" lon="-0.19985">
        <ele>86.5</ele>
        <time>2012-11-04T11:16:14Z</time>
      </trkpt>
      <trkpt lat="47.27173" lon="-0.20021">
        <ele>86.2</ele>
        <time>2012-11-04T11:16:24Z</time>
      </trkpt>
      <trkpt lat="47.27133" lon="-0.2005">
        <ele>85.2</ele>
        <time>2012-11-04T11:16:32Z</time>
      </trkpt>
      <trkpt lat="47.27107" lon="-0.20068">
        <ele>85</ele>
        <time>2012-11-04T11:16:38Z</time>
      </trkpt>
      <trkpt lat="47.27103" lon="-0.20069">
        <ele>85</ele>
        <time>2012-11-04T11:16:39Z</time>
      </trkpt>
      <trkpt lat="47.27091" lon="-0.20071">
        <ele>85</ele>
        <time>2012-11-04T11:16:42Z</time>
      </trkpt>
      <trkpt lat="47.27087" lon="-0.2007">
        <ele>85</ele>
        <time>2012-11-04T11:16:43Z</time>
      </trkpt>
      <trkpt lat="47.27075" lon="-0.20063">
        <ele>85</ele>
        <time>2012-11-04T11:16:46Z</time>
      </trkpt>
      <trkpt lat="47.27042" lon="-0.20043">
        <ele>85.5</ele>
        <time>2012-11-04T11:16:54Z</time>
      </trkpt>
      <trkpt lat="47.27038" lon="-0.20041">
        <ele>85.5</ele>
        <time>2012-11-04T11:16:55Z</time>
      </trkpt>
      <trkpt lat="47.27033" lon="-0.20039">
        <ele>85.6</ele>
        <time>2012-11-04T11:16:56Z</time>
      </trkpt>
      <trkpt lat="47.27029" lon="-0.20039">
        <ele>85.6</ele>
        <time>2012-11-04T11:16:57Z</time>
      </trkpt>
      <trkpt lat="47.27025" lon="-0.20039">
        <ele>85.5</ele>
        <time>2012-11-04T11:16:58Z</time>
      </trkpt>
      <trkpt lat="47.27021" lon="-0.20037">
        <ele>85.5</ele>
        <time>2012-11-04T11:16:59Z</time>
      </trkpt>
      <trkpt lat="47.27018" lon="-0.20033">
        <ele>85.5</ele>
        <time>2012-11-04T11:17:00Z</time>
      </trkpt>
      <trkpt lat="47.27015" lon="-0.20028">
        <ele>85.5</ele>
        <time>2012-11-04T11:17:01Z</time>
      </trkpt>
      <trkpt lat="47.27014" lon="-0.20022">
        <ele>85.6</ele>
        <time>2012-11-04T11:17:02Z</time>
      </trkpt>
      <trkpt lat="47.27012" lon="-0.20015">
        <ele>85.7</ele>
        <time>2012-11-04T11:17:03Z</time>
      </trkpt>
      <trkpt lat="47.26997" lon="-0.19961">
        <ele>85.9</ele>
        <time>2012-11-04T11:17:11Z</time>
      </trkpt>
      <trkpt lat="47.26982" lon="-0.19905">
        <ele>85.5</ele>
        <time>2012-11-04T11:17:19Z</time>
      </trkpt>
      <trkpt lat="47.26966" lon="-0.19843">
        <ele>85.8</ele>
        <time>2012-11-04T11:17:28Z</time>
      </trkpt>
      <trkpt lat="47.26956" lon="-0.1981">
        <ele>85.4</ele>
        <time>2012-11-04T11:17:34Z</time>
        <extensions>
          <visugpx:TrkExtension xmlns:visugpx="https://www.visugpx.com/editgpx/">
            <visugpx:node>2</visugpx:node>
            </visugpx:TrkExtension>
        </extensions>
      </trkpt>
      <trkpt lat="47.26948" lon="-0.19783">
        <ele>85.1</ele>
        <extensions>
          <visugpx:TrkExtension xmlns:visugpx="https://www.visugpx.com/editgpx/">
            <visugpx:node>3</visugpx:node>
            </visugpx:TrkExtension>
        </extensions>
      </trkpt>
      <trkpt lat="47.2677" lon="-0.19844">
        <ele>78.4</ele>
        <time>2012-11-04T07:48:34Z</time>
        <extensions>
          <visugpx:TrkExtension xmlns:visugpx="https://www.visugpx.com/editgpx/">
            <visugpx:node>2</visugpx:node>
            </visugpx:TrkExtension>
        </extensions>
      </trkpt>
      <trkpt lat="47.26752" lon="-0.19844">
        <ele>78</ele>
        <time>2012-11-04T07:48:37Z</time>
      </trkpt>
      <trkpt lat="47.26747" lon="-0.19841">
        <ele>78</ele>
        <time>2012-11-04T07:48:38Z</time>
      </trkpt>
      <trkpt lat="47.26744" lon="-0.19835">
        <ele>78</ele>
        <time>2012-11-04T07:48:39Z</time>
      </trkpt>
      <trkpt lat="47.26743" lon="-0.19829">
        <ele>78</ele>
        <time>2012-11-04T07:48:40Z</time>
      </trkpt>
      <trkpt lat="47.26742" lon="-0.19823">
        <ele>78</ele>
        <time>2012-11-04T07:48:41Z</time>
      </trkpt>
      <trkpt lat="47.26742" lon="-0.19817">
        <ele>78</ele>
        <time>2012-11-04T07:48:42Z</time>
      </trkpt>
      <trkpt lat="47.26739" lon="-0.19784">
        <ele>78</ele>
        <time>2012-11-04T07:48:48Z</time>
      </trkpt>
      <trkpt lat="47.26739" lon="-0.19779">
        <ele>78</ele>
        <time>2012-11-04T07:48:49Z</time>
      </trkpt>
      <trkpt lat="47.26737" lon="-0.19757">
        <ele>78</ele>
        <time>2012-11-04T07:48:52Z</time>
      </trkpt>
      <trkpt lat="47.26733" lon="-0.19695">
        <ele>77.4</ele>
        <time>2012-11-04T07:49:01Z</time>
      </trkpt>
      <trkpt lat="47.26727" lon="-0.19612">
        <ele>77</ele>
        <time>2012-11-04T07:49:12Z</time>
      </trkpt>
      <trkpt lat="47.26725" lon="-0.1958">
        <ele>77</ele>
        <time>2012-11-04T07:49:16Z</time>
      </trkpt>
      <trkpt lat="47.26723" lon="-0.19564">
        <ele>77</ele>
        <time>2012-11-04T07:49:18Z</time>
      </trkpt>
      <trkpt lat="47.26717" lon="-0.19468">
        <ele>76.2</ele>
        <time>2012-11-04T07:49:30Z</time>
      </trkpt>
      <trkpt lat="47.26711" lon="-0.19379">
        <ele>76</ele>
        <time>2012-11-04T07:49:41Z</time>
      </trkpt>
      <trkpt lat="47.26704" lon="-0.19293">
        <ele>76</ele>
        <time>2012-11-04T07:49:52Z</time>
      </trkpt>
      <trkpt lat="47.26692" lon="-0.19213">
        <ele>76</ele>
        <time>2012-11-04T07:50:03Z</time>
      </trkpt>
      <trkpt lat="47.26687" lon="-0.19155">
        <ele>75.7</ele>
        <time>2012-11-04T07:50:11Z</time>
      </trkpt>
      <trkpt lat="47.26678" lon="-0.19075">
        <ele>75.7</ele>
        <time>2012-11-04T07:50:22Z</time>
      </trkpt>
      <trkpt lat="47.26667" lon="-0.19002">
        <ele>76</ele>
        <time>2012-11-04T07:50:32Z</time>
      </trkpt>
      <trkpt lat="47.26666" lon="-0.18995">
        <ele>75.8</ele>
        <time>2012-11-04T07:50:33Z</time>
      </trkpt>
      <trkpt lat="47.26667" lon="-0.18988">
        <ele>75.6</ele>
        <time>2012-11-04T07:50:34Z</time>
      </trkpt>
      <trkpt lat="47.26678" lon="-0.189">
        <ele>75.2</ele>
        <time>2012-11-04T07:50:45Z</time>
      </trkpt>
      <trkpt lat="47.26683" lon="-0.18837">
        <ele>74.6</ele>
        <time>2012-11-04T07:50:53Z</time>
      </trkpt>
      <trkpt lat="47.26682" lon="-0.18755">
        <ele>74.9</ele>
        <time>2012-11-04T07:51:04Z</time>
      </trkpt>
      <trkpt lat="47.2668" lon="-0.18748">
        <ele>75</ele>
        <time>2012-11-04T07:51:05Z</time>
      </trkpt>
      <trkpt lat="47.26678" lon="-0.18744">
        <ele>75</ele>
        <time>2012-11-04T07:51:06Z</time>
      </trkpt>
      <trkpt lat="47.26674" lon="-0.18742">
        <ele>75</ele>
        <time>2012-11-04T07:51:07Z</time>
      </trkpt>
      <trkpt lat="47.2667" lon="-0.18742">
        <ele>75</ele>
        <time>2012-11-04T07:51:08Z</time>
      </trkpt>
      <trkpt lat="47.26665" lon="-0.18741">
        <ele>75.1</ele>
        <time>2012-11-04T07:51:09Z</time>
      </trkpt>
      <trkpt lat="47.26635" lon="-0.18743">
        <ele>76.1</ele>
        <time>2012-11-04T07:51:16Z</time>
      </trkpt>
      <trkpt lat="47.2659" lon="-0.18751">
        <ele>77.8</ele>
        <time>2012-11-04T07:51:26Z</time>
      </trkpt>
      <trkpt lat="47.26556" lon="-0.18759">
        <ele>79</ele>
        <time>2012-11-04T07:51:34Z</time>
      </trkpt>
      <trkpt lat="47.26552" lon="-0.18761">
        <ele>79.1</ele>
        <time>2012-11-04T07:51:35Z</time>
      </trkpt>
      <trkpt lat="47.26536" lon="-0.18766">
        <ele>79.4</ele>
        <time>2012-11-04T07:51:39Z</time>
      </trkpt>
      <trkpt lat="47.26531" lon="-0.18766">
        <ele>79.5</ele>
        <time>2012-11-04T07:51:40Z</time>
      </trkpt>
      <trkpt lat="47.26522" lon="-0.18764">
        <ele>79.6</ele>
        <time>2012-11-04T07:51:42Z</time>
      </trkpt>
      <trkpt lat="47.26503" lon="-0.18756">
        <ele>79.9</ele>
        <time>2012-11-04T07:51:46Z</time>
      </trkpt>
      <trkpt lat="47.26448" lon="-0.18731">
        <ele>79.3</ele>
        <time>2012-11-04T07:51:57Z</time>
      </trkpt>
      <trkpt lat="47.26443" lon="-0.18728">
        <ele>79.2</ele>
        <time>2012-11-04T07:51:58Z</time>
      </trkpt>
      <trkpt lat="47.26387" lon="-0.187">
        <ele>79</ele>
        <time>2012-11-04T07:52:09Z</time>
      </trkpt>
      <trkpt lat="47.26337" lon="-0.18675">
        <ele>78.9</ele>
        <time>2012-11-04T07:52:19Z</time>
      </trkpt>
      <trkpt lat="47.26299" lon="-0.18645">
        <ele>79</ele>
        <time>2012-11-04T07:52:27Z</time>
      </trkpt>
      <trkpt lat="47.26295" lon="-0.18641">
        <ele>79</ele>
        <time>2012-11-04T07:52:28Z</time>
      </trkpt>
      <trkpt lat="47.2625" lon="-0.186">
        <ele>79</ele>
        <time>2012-11-04T07:52:38Z</time>
      </trkpt>
      <trkpt lat="47.26245" lon="-0.18596">
        <ele>79.2</ele>
        <time>2012-11-04T07:52:39Z</time>
      </trkpt>
      <trkpt lat="47.26241" lon="-0.18592">
        <ele>79.3</ele>
        <time>2012-11-04T07:52:40Z</time>
      </trkpt>
      <trkpt lat="47.26232" lon="-0.18585">
        <ele>79.6</ele>
        <time>2012-11-04T07:52:42Z</time>
      </trkpt>
      <trkpt lat="47.262" lon="-0.1855">
        <ele>79</ele>
        <time>2012-11-04T07:52:50Z</time>
      </trkpt>
      <trkpt lat="47.26196" lon="-0.18545">
        <ele>79</ele>
        <time>2012-11-04T07:52:51Z</time>
      </trkpt>
      <trkpt lat="47.26193" lon="-0.18541">
        <ele>79</ele>
        <time>2012-11-04T07:52:52Z</time>
      </trkpt>
      <trkpt lat="47.26189" lon="-0.18537">
        <ele>78.9</ele>
        <time>2012-11-04T07:52:53Z</time>
      </trkpt>
      <trkpt lat="47.26185" lon="-0.18533">
        <ele>78.7</ele>
        <time>2012-11-04T07:52:54Z</time>
      </trkpt>
      <trkpt lat="47.26181" lon="-0.18529">
        <ele>78.5</ele>
        <time>2012-11-04T07:52:55Z</time>
      </trkpt>
      <trkpt lat="47.26178" lon="-0.18525">
        <ele>78.3</ele>
        <time>2012-11-04T07:52:56Z</time>
      </trkpt>
      <trkpt lat="47.26174" lon="-0.18521">
        <ele>78</ele>
        <time>2012-11-04T07:52:57Z</time>
      </trkpt>
      <trkpt lat="47.26167" lon="-0.18514">
        <ele>77.5</ele>
        <time>2012-11-04T07:52:59Z</time>
      </trkpt>
      <trkpt lat="47.26163" lon="-0.18512">
        <ele>77.2</ele>
        <time>2012-11-04T07:53:00Z</time>
      </trkpt>
      <trkpt lat="47.26159" lon="-0.18509">
        <ele>76.8</ele>
        <time>2012-11-04T07:53:01Z</time>
      </trkpt>
      <trkpt lat="47.26151" lon="-0.18505">
        <ele>76.1</ele>
        <time>2012-11-04T07:53:03Z</time>
      </trkpt>
      <trkpt lat="47.26146" lon="-0.18504">
        <ele>75.7</ele>
        <time>2012-11-04T07:53:04Z</time>
      </trkpt>
      <trkpt lat="47.26137" lon="-0.185">
        <ele>74.9</ele>
        <time>2012-11-04T07:53:06Z</time>
      </trkpt>
      <trkpt lat="47.26123" lon="-0.18493">
        <ele>74.4</ele>
        <time>2012-11-04T07:53:09Z</time>
      </trkpt>
      <trkpt lat="47.26073" lon="-0.18478">
        <ele>72.7</ele>
        <time>2012-11-04T07:53:19Z</time>
      </trkpt>
      <trkpt lat="47.2603" lon="-0.18468">
        <ele>71.1</ele>
        <time>2012-11-04T07:53:27Z</time>
      </trkpt>
      <trkpt lat="47.26006" lon="-0.18472">
        <ele>71</ele>
        <time>2012-11-04T07:53:32Z</time>
      </trkpt>
      <trkpt lat="47.25994" lon="-0.18476">
        <ele>71</ele>
        <time>2012-11-04T07:53:35Z</time>
      </trkpt>
      <trkpt lat="47.25965" lon="-0.18481">
        <ele>71</ele>
        <time>2012-11-04T07:53:42Z</time>
      </trkpt>
      <trkpt lat="47.25939" lon="-0.18491">
        <ele>71.2</ele>
        <time>2012-11-04T07:53:48Z</time>
      </trkpt>
      <trkpt lat="47.25926" lon="-0.18493">
        <ele>71.7</ele>
        <time>2012-11-04T07:53:51Z</time>
      </trkpt>
      <trkpt lat="47.25922" lon="-0.18492">
        <ele>71.8</ele>
        <time>2012-11-04T07:53:52Z</time>
      </trkpt>
      <trkpt lat="47.25918" lon="-0.18488">
        <ele>72</ele>
        <time>2012-11-04T07:53:53Z</time>
      </trkpt>
      <trkpt lat="47.25916" lon="-0.18483">
        <ele>72</ele>
        <time>2012-11-04T07:53:54Z</time>
      </trkpt>
      <trkpt lat="47.25914" lon="-0.18479">
        <ele>72</ele>
        <time>2012-11-04T07:53:55Z</time>
      </trkpt>
      <trkpt lat="47.25911" lon="-0.18469">
        <ele>71.9</ele>
        <time>2012-11-04T07:53:57Z</time>
      </trkpt>
      <trkpt lat="47.25894" lon="-0.18419">
        <ele>71.8</ele>
        <time>2012-11-04T07:54:05Z</time>
      </trkpt>
      <trkpt lat="47.25874" lon="-0.18361">
        <ele>71</ele>
        <time>2012-11-04T07:54:14Z</time>
      </trkpt>
      <trkpt lat="47.25868" lon="-0.18342">
        <ele>71</ele>
        <time>2012-11-04T07:54:17Z</time>
      </trkpt>
      <trkpt lat="47.25856" lon="-0.18305">
        <ele>71</ele>
        <time>2012-11-04T07:54:23Z</time>
      </trkpt>
      <trkpt lat="47.25853" lon="-0.18301">
        <ele>71</ele>
        <time>2012-11-04T07:54:24Z</time>
      </trkpt>
      <trkpt lat="47.25849" lon="-0.18299">
        <ele>71</ele>
        <time>2012-11-04T07:54:25Z</time>
      </trkpt>
      <trkpt lat="47.25845" lon="-0.18299">
        <ele>71</ele>
        <time>2012-11-04T07:54:26Z</time>
      </trkpt>
      <trkpt lat="47.25841" lon="-0.18301">
        <ele>71</ele>
        <time>2012-11-04T07:54:27Z</time>
      </trkpt>
      <trkpt lat="47.25838" lon="-0.18303">
        <ele>71</ele>
        <time>2012-11-04T07:54:28Z</time>
      </trkpt>
      <trkpt lat="47.25834" lon="-0.18305">
        <ele>71</ele>
        <time>2012-11-04T07:54:29Z</time>
      </trkpt>
      <trkpt lat="47.2583" lon="-0.18308">
        <ele>71.1</ele>
        <time>2012-11-04T07:54:30Z</time>
      </trkpt>
      <trkpt lat="47.25814" lon="-0.18315">
        <ele>71.5</ele>
        <time>2012-11-04T07:54:34Z</time>
      </trkpt>
      <trkpt lat="47.25797" lon="-0.18322">
        <ele>71.6</ele>
        <time>2012-11-04T07:54:38Z</time>
      </trkpt>
      <trkpt lat="47.25786" lon="-0.18328">
        <ele>71.8</ele>
        <time>2012-11-04T07:54:41Z</time>
      </trkpt>
      <trkpt lat="47.25761" lon="-0.1834">
        <ele>72.6</ele>
        <time>2012-11-04T07:54:48Z</time>
      </trkpt>
      <trkpt lat="47.25734" lon="-0.18355">
        <ele>73.1</ele>
        <time>2012-11-04T07:54:55Z</time>
      </trkpt>
      <trkpt lat="47.25716" lon="-0.18364">
        <ele>73.4</ele>
        <time>2012-11-04T07:55:00Z</time>
      </trkpt>
      <trkpt lat="47.2569" lon="-0.18379">
        <ele>74.5</ele>
        <time>2012-11-04T07:55:07Z</time>
      </trkpt>
      <trkpt lat="47.25664" lon="-0.18394">
        <ele>75.2</ele>
        <time>2012-11-04T07:55:14Z</time>
      </trkpt>
      <trkpt lat="47.2564" lon="-0.18406">
        <ele>76.3</ele>
        <time>2012-11-04T07:55:21Z</time>
      </trkpt>
      <trkpt lat="47.25615" lon="-0.18419">
        <ele>77.6</ele>
        <time>2012-11-04T07:55:28Z</time>
      </trkpt>
      <trkpt lat="47.25598" lon="-0.18444">
        <ele>78</ele>
        <time>2012-11-04T07:55:34Z</time>
        <extensions>
          <visugpx:TrkExtension xmlns:visugpx="https://www.visugpx.com/editgpx/">
            <visugpx:node>1</visugpx:node>
            </visugpx:TrkExtension>
        </extensions>
      </trkpt>
      <trkpt lat="47.2561" lon="-0.18416">
        <ele>78.1</ele>
      </trkpt>
      <trkpt lat="47.25613" lon="-0.18381">
        <ele>80.1</ele>
      </trkpt>
      <trkpt lat="47.25626" lon="-0.18358">
        <ele>80</ele>
      </trkpt>
      <trkpt lat="47.25663" lon="-0.18259">
        <ele>78.3</ele>
      </trkpt>
      <trkpt lat="47.2567" lon="-0.18221">
        <ele>76.7</ele>
      </trkpt>
      <trkpt lat="47.25672" lon="-0.18177">
        <ele>74.5</ele>
      </trkpt>
      <trkpt lat="47.25667" lon="-0.18084">
        <ele>71</ele>
      </trkpt>
      <trkpt lat="47.25667" lon="-0.18018">
        <ele>69.6</ele>
      </trkpt>
      <trkpt lat="47.25674" lon="-0.17971">
        <ele>69</ele>
      </trkpt>
      <trkpt lat="47.25694" lon="-0.17884">
        <ele>68</ele>
      </trkpt>
      <trkpt lat="47.25713" lon="-0.1781">
        <ele>68</ele>
      </trkpt>
      <trkpt lat="47.25719" lon="-0.17782">
        <ele>68</ele>
      </trkpt>
      <trkpt lat="47.25726" lon="-0.17739">
        <ele>68</ele>
      </trkpt>
      <trkpt lat="47.25729" lon="-0.17702">
        <ele>68</ele>
      </trkpt>
      <trkpt lat="47.25723" lon="-0.17583">
        <ele>67</ele>
        <extensions>
          <visugpx:TrkExtension xmlns:visugpx="https://www.visugpx.com/editgpx/">
            <visugpx:node>3</visugpx:node>
            </visugpx:TrkExtension>
        </extensions>
      </trkpt>
      <trkpt lat="47.25721" lon="-0.17529">
        <ele>66</ele>
      </trkpt>
      <trkpt lat="47.25713" lon="-0.17458">
        <ele>67</ele>
      </trkpt>
      <trkpt lat="47.25708" lon="-0.17431">
        <ele>67.5</ele>
      </trkpt>
      <trkpt lat="47.25699" lon="-0.17413">
        <ele>68</ele>
      </trkpt>
      <trkpt lat="47.25664" lon="-0.17381">
        <ele>68</ele>
      </trkpt>
      <trkpt lat="47.25628" lon="-0.17338">
        <ele>68</ele>
      </trkpt>
      <trkpt lat="47.2559" lon="-0.17271">
        <ele>68</ele>
      </trkpt>
      <trkpt lat="47.25557" lon="-0.17205">
        <ele>68</ele>
      </trkpt>
      <trkpt lat="47.25528" lon="-0.17133">
        <ele>67.8</ele>
      </trkpt>
      <trkpt lat="47.25511" lon="-0.17063">
        <ele>67</ele>
      </trkpt>
      <trkpt lat="47.25495" lon="-0.16966">
        <ele>67.2</ele>
      </trkpt>
      <trkpt lat="47.25488" lon="-0.16926">
        <ele>67.8</ele>
      </trkpt>
      <trkpt lat="47.25486" lon="-0.16921">
        <ele>67.9</ele>
        <extensions>
          <visugpx:TrkExtension xmlns:visugpx="https://www.visugpx.com/editgpx/">
            <visugpx:node>4</visugpx:node>
            </visugpx:TrkExtension>
        </extensions>
      </trkpt>
      <trkpt lat="47.25483" lon="-0.16911">
        <ele>68.1</ele>
      </trkpt>
      <trkpt lat="47.25463" lon="-0.16883">
        <ele>69</ele>
      </trkpt>
      <trkpt lat="47.25437" lon="-0.16855">
        <ele>69.2</ele>
      </trkpt>
      <trkpt lat="47.25443" lon="-0.16837">
        <ele>69.9</ele>
      </trkpt>
      <trkpt lat="47.25475" lon="-0.1673">
        <ele>71.7</ele>
      </trkpt>
      <trkpt lat="47.25496" lon="-0.1662">
        <ele>73.1</ele>
      </trkpt>
      <trkpt lat="47.25502" lon="-0.16527">
        <ele>72.9</ele>
      </trkpt>
      <trkpt lat="47.25495" lon="-0.16379">
        <ele>73</ele>
      </trkpt>
      <trkpt lat="47.255" lon="-0.16216">
        <ele>73</ele>
      </trkpt>
      <trkpt lat="47.25522" lon="-0.16052">
        <ele>68.9</ele>
      </trkpt>
      <trkpt lat="47.25524" lon="-0.16029">
        <ele>68</ele>
      </trkpt>
      <trkpt lat="47.25534" lon="-0.1596">
        <ele>67.8</ele>
        <extensions>
          <visugpx:TrkExtension xmlns:visugpx="https://www.visugpx.com/editgpx/">
            <visugpx:node>5</visugpx:node>
            </visugpx:TrkExtension>
        </extensions>
      </trkpt>
      <trkpt lat="47.25566" lon="-0.15724">
        <ele>65.7</ele>
      </trkpt>
      <trkpt lat="47.2558" lon="-0.15651">
        <ele>63.6</ele>
      </trkpt>
      <trkpt lat="47.25574" lon="-0.15627">
        <ele>63.2</ele>
      </trkpt>
      <trkpt lat="47.2555" lon="-0.15504">
        <ele>62.2</ele>
      </trkpt>
      <trkpt lat="47.25545" lon="-0.15485">
        <ele>61.8</ele>
      </trkpt>
      <trkpt lat="47.25591" lon="-0.15451">
        <ele>60.6</ele>
      </trkpt>
      <trkpt lat="47.25639" lon="-0.15371">
        <ele>60.4</ele>
        <extensions>
          <visugpx:TrkExtension xmlns:visugpx="https://www.visugpx.com/editgpx/">
            <visugpx:node>6</visugpx:node>
            </visugpx:TrkExtension>
        </extensions>
      </trkpt>
      <trkpt lat="47.25674" lon="-0.15345">
        <ele>62</ele>
      </trkpt>
      <trkpt lat="47.25691" lon="-0.15358">
        <ele>62</ele>
        <time>2012-11-04T08:39:15Z</time>
      </trkpt>
      <trkpt lat="47.25715" lon="-0.15368">
        <ele>61.9</ele>
        <time>2012-11-04T08:39:21Z</time>
      </trkpt>
      <trkpt lat="47.25739" lon="-0.15371">
        <ele>62</ele>
        <time>2012-11-04T08:39:27Z</time>
      </trkpt>
      <trkpt lat="47.2577" lon="-0.15371">
        <ele>61.7</ele>
        <time>2012-11-04T08:39:34Z</time>
      </trkpt>
      <trkpt lat="47.25781" lon="-0.15369">
        <ele>61.7</ele>
        <time>2012-11-04T08:39:36Z</time>
      </trkpt>
      <trkpt lat="47.25786" lon="-0.15366">
        <ele>61.8</ele>
        <time>2012-11-04T08:39:37Z</time>
      </trkpt>
      <trkpt lat="47.258" lon="-0.15356">
        <ele>62.4</ele>
        <time>2012-11-04T08:39:40Z</time>
      </trkpt>
      <trkpt lat="47.25804" lon="-0.15353">
        <ele>62.6</ele>
        <time>2012-11-04T08:39:41Z</time>
      </trkpt>
      <trkpt lat="47.25824" lon="-0.15342">
        <ele>62.7</ele>
        <time>2012-11-04T08:39:45Z</time>
      </trkpt>
      <trkpt lat="47.25829" lon="-0.1534">
        <ele>62.7</ele>
        <time>2012-11-04T08:39:46Z</time>
      </trkpt>
      <trkpt lat="47.25834" lon="-0.15338">
        <ele>62.6</ele>
        <time>2012-11-04T08:39:47Z</time>
      </trkpt>
      <trkpt lat="47.25844" lon="-0.15336">
        <ele>62.5</ele>
        <time>2012-11-04T08:39:49Z</time>
      </trkpt>
      <trkpt lat="47.2586" lon="-0.15335">
        <ele>62</ele>
        <time>2012-11-04T08:39:52Z</time>
      </trkpt>
      <trkpt lat="47.25865" lon="-0.15335">
        <ele>61.8</ele>
        <time>2012-11-04T08:39:53Z</time>
      </trkpt>
      <trkpt lat="47.2587" lon="-0.15334">
        <ele>61.7</ele>
        <time>2012-11-04T08:39:54Z</time>
      </trkpt>
      <trkpt lat="47.25875" lon="-0.15333">
        <ele>61.5</ele>
        <time>2012-11-04T08:39:55Z</time>
      </trkpt>
      <trkpt lat="47.2588" lon="-0.15333">
        <ele>61.4</ele>
        <time>2012-11-04T08:39:56Z</time>
      </trkpt>
      <trkpt lat="47.25906" lon="-0.15325">
        <ele>62</ele>
        <time>2012-11-04T08:40:02Z</time>
      </trkpt>
      <trkpt lat="47.25915" lon="-0.15321">
        <ele>62.4</ele>
        <time>2012-11-04T08:40:04Z</time>
      </trkpt>
      <trkpt lat="47.2592" lon="-0.15318">
        <ele>62.6</ele>
        <time>2012-11-04T08:40:05Z</time>
      </trkpt>
      <trkpt lat="47.25924" lon="-0.15315">
        <ele>62.8</ele>
        <time>2012-11-04T08:40:06Z</time>
      </trkpt>
      <trkpt lat="47.25928" lon="-0.15312">
        <ele>63</ele>
        <time>2012-11-04T08:40:07Z</time>
      </trkpt>
      <trkpt lat="47.25932" lon="-0.1531">
        <ele>63.1</ele>
        <time>2012-11-04T08:40:08Z</time>
      </trkpt>
      <trkpt lat="47.25941" lon="-0.15305">
        <ele>63.2</ele>
        <time>2012-11-04T08:40:10Z</time>
      </trkpt>
      <trkpt lat="47.25963" lon="-0.15286">
        <ele>64.6</ele>
        <time>2012-11-04T08:40:16Z</time>
      </trkpt>
      <trkpt lat="47.25981" lon="-0.15266">
        <ele>64.8</ele>
        <time>2012-11-04T08:40:22Z</time>
      </trkpt>
      <trkpt lat="47.25991" lon="-0.15252">
        <ele>65</ele>
        <time>2012-11-04T08:40:26Z</time>
      </trkpt>
      <trkpt lat="47.25994" lon="-0.15248">
        <ele>65</ele>
        <time>2012-11-04T08:40:27Z</time>
      </trkpt>
      <trkpt lat="47.25997" lon="-0.15245">
        <ele>65</ele>
        <time>2012-11-04T08:40:28Z</time>
      </trkpt>
      <trkpt lat="47.26" lon="-0.15242">
        <ele>65</ele>
        <time>2012-11-04T08:40:29Z</time>
      </trkpt>
      <trkpt lat="47.26004" lon="-0.15239">
        <ele>64.9</ele>
        <time>2012-11-04T08:40:30Z</time>
      </trkpt>
      <trkpt lat="47.26007" lon="-0.15235">
        <ele>64.9</ele>
        <time>2012-11-04T08:40:31Z</time>
      </trkpt>
      <trkpt lat="47.26011" lon="-0.15231">
        <ele>64.9</ele>
        <time>2012-11-04T08:40:32Z</time>
      </trkpt>
      <trkpt lat="47.26015" lon="-0.15227">
        <ele>64.9</ele>
        <time>2012-11-04T08:40:33Z</time>
      </trkpt>
      <trkpt lat="47.26019" lon="-0.15223">
        <ele>65</ele>
        <time>2012-11-04T08:40:34Z</time>
      </trkpt>
      <trkpt lat="47.26022" lon="-0.15219">
        <ele>65</ele>
        <time>2012-11-04T08:40:35Z</time>
      </trkpt>
      <trkpt lat="47.26044" lon="-0.1519">
        <ele>64.5</ele>
        <time>2012-11-04T08:40:41Z</time>
      </trkpt>
      <trkpt lat="47.26056" lon="-0.15171">
        <ele>64.8</ele>
        <time>2012-11-04T08:40:45Z</time>
      </trkpt>
      <trkpt lat="47.26075" lon="-0.15151">
        <ele>64.3</ele>
        <time>2012-11-04T08:40:50Z</time>
      </trkpt>
      <trkpt lat="47.26084" lon="-0.15139">
        <ele>64</ele>
        <time>2012-11-04T08:40:53Z</time>
      </trkpt>
      <trkpt lat="47.26108" lon="-0.15116">
        <ele>64</ele>
        <time>2012-11-04T08:40:59Z</time>
      </trkpt>
      <trkpt lat="47.26124" lon="-0.15093">
        <ele>64</ele>
        <time>2012-11-04T08:41:04Z</time>
      </trkpt>
      <trkpt lat="47.26152" lon="-0.15075">
        <ele>64.6</ele>
        <time>2012-11-04T08:41:11Z</time>
      </trkpt>
      <trkpt lat="47.26174" lon="-0.15059">
        <ele>65</ele>
        <time>2012-11-04T08:41:17Z</time>
      </trkpt>
      <trkpt lat="47.26194" lon="-0.15046">
        <ele>65.3</ele>
        <time>2012-11-04T08:41:24Z</time>
      </trkpt>
      <trkpt lat="47.26205" lon="-0.1504">
        <ele>65.9</ele>
        <time>2012-11-04T08:41:30Z</time>
      </trkpt>
      <trkpt lat="47.26206" lon="-0.15039">
        <ele>66</ele>
        <time>2012-11-04T08:41:31Z</time>
      </trkpt>
      <trkpt lat="47.2621" lon="-0.15037">
        <ele>66.2</ele>
        <time>2012-11-04T08:41:34Z</time>
      </trkpt>
      <trkpt lat="47.26212" lon="-0.15037">
        <ele>66.3</ele>
        <time>2012-11-04T08:41:35Z</time>
      </trkpt>
      <trkpt lat="47.26224" lon="-0.15022">
        <ele>67.3</ele>
        <time>2012-11-04T08:41:41Z</time>
      </trkpt>
      <trkpt lat="47.26233" lon="-0.1501">
        <ele>68.4</ele>
        <time>2012-11-04T08:41:46Z</time>
      </trkpt>
      <trkpt lat="47.26241" lon="-0.14992">
        <ele>69.6</ele>
        <time>2012-11-04T08:41:52Z</time>
      </trkpt>
      <trkpt lat="47.26256" lon="-0.14979">
        <ele>71.2</ele>
        <time>2012-11-04T08:41:59Z</time>
      </trkpt>
      <trkpt lat="47.26259" lon="-0.14977">
        <ele>71.5</ele>
        <time>2012-11-04T08:42:00Z</time>
      </trkpt>
      <trkpt lat="47.26262" lon="-0.14974">
        <ele>71.8</ele>
        <time>2012-11-04T08:42:01Z</time>
      </trkpt>
      <trkpt lat="47.26286" lon="-0.14951">
        <ele>75.2</ele>
        <time>2012-11-04T08:42:09Z</time>
      </trkpt>
      <trkpt lat="47.26299" lon="-0.14936">
        <ele>76.8</ele>
        <time>2012-11-04T08:42:15Z</time>
      </trkpt>
      <trkpt lat="47.26311" lon="-0.14923">
        <ele>78.2</ele>
        <time>2012-11-04T08:42:21Z</time>
      </trkpt>
      <trkpt lat="47.26325" lon="-0.14913">
        <ele>79.5</ele>
        <time>2012-11-04T08:42:28Z</time>
      </trkpt>
      <trkpt lat="47.26327" lon="-0.14911">
        <ele>79.7</ele>
        <time>2012-11-04T08:42:29Z</time>
      </trkpt>
      <trkpt lat="47.26328" lon="-0.14909">
        <ele>79.9</ele>
        <time>2012-11-04T08:42:30Z</time>
      </trkpt>
      <trkpt lat="47.2633" lon="-0.14907">
        <ele>80.1</ele>
        <time>2012-11-04T08:42:31Z</time>
      </trkpt>
      <trkpt lat="47.26331" lon="-0.14906">
        <ele>80.2</ele>
        <time>2012-11-04T08:42:32Z</time>
      </trkpt>
      <trkpt lat="47.26333" lon="-0.14904">
        <ele>80.4</ele>
        <time>2012-11-04T08:42:33Z</time>
      </trkpt>
      <trkpt lat="47.26341" lon="-0.14891">
        <ele>81.2</ele>
        <time>2012-11-04T08:42:39Z</time>
      </trkpt>
      <trkpt lat="47.26344" lon="-0.14886">
        <ele>81.4</ele>
        <time>2012-11-04T08:42:41Z</time>
      </trkpt>
      <trkpt lat="47.26345" lon="-0.14884">
        <ele>81.4</ele>
        <time>2012-11-04T08:42:42Z</time>
      </trkpt>
      <trkpt lat="47.26357" lon="-0.14869">
        <ele>81.9</ele>
        <time>2012-11-04T08:42:49Z</time>
      </trkpt>
      <trkpt lat="47.26369" lon="-0.14854">
        <ele>82.5</ele>
        <time>2012-11-04T08:42:56Z</time>
      </trkpt>
      <trkpt lat="47.2638" lon="-0.14841">
        <ele>82.9</ele>
        <time>2012-11-04T08:43:02Z</time>
      </trkpt>
      <trkpt lat="47.26383" lon="-0.14837">
        <ele>83</ele>
        <time>2012-11-04T08:43:04Z</time>
      </trkpt>
      <trkpt lat="47.26392" lon="-0.14826">
        <ele>83.3</ele>
        <time>2012-11-04T08:43:11Z</time>
      </trkpt>
      <trkpt lat="47.26394" lon="-0.14823">
        <ele>83.5</ele>
        <time>2012-11-04T08:43:14Z</time>
      </trkpt>
      <trkpt lat="47.26396" lon="-0.14823">
        <ele>83.5</ele>
        <time>2012-11-04T08:43:15Z</time>
      </trkpt>
      <trkpt lat="47.26398" lon="-0.14822">
        <ele>83.6</ele>
        <time>2012-11-04T08:43:16Z</time>
      </trkpt>
      <trkpt lat="47.26399" lon="-0.14821">
        <ele>83.6</ele>
        <time>2012-11-04T08:43:17Z</time>
      </trkpt>
      <trkpt lat="47.26401" lon="-0.14819">
        <ele>83.7</ele>
        <time>2012-11-04T08:43:18Z</time>
      </trkpt>
      <trkpt lat="47.26402" lon="-0.14817">
        <ele>83.8</ele>
        <time>2012-11-04T08:43:19Z</time>
      </trkpt>
      <trkpt lat="47.26404" lon="-0.14814">
        <ele>83.9</ele>
        <time>2012-11-04T08:43:20Z</time>
      </trkpt>
      <trkpt lat="47.26405" lon="-0.14811">
        <ele>83.9</ele>
        <time>2012-11-04T08:43:21Z</time>
      </trkpt>
      <trkpt lat="47.26407" lon="-0.14808">
        <ele>84</ele>
        <time>2012-11-04T08:43:22Z</time>
      </trkpt>
      <trkpt lat="47.26408" lon="-0.14805">
        <ele>84</ele>
        <time>2012-11-04T08:43:23Z</time>
      </trkpt>
      <trkpt lat="47.26408" lon="-0.14803">
        <ele>84.1</ele>
        <time>2012-11-04T08:43:24Z</time>
      </trkpt>
      <trkpt lat="47.26408" lon="-0.14801">
        <ele>84.1</ele>
        <time>2012-11-04T08:43:25Z</time>
      </trkpt>
      <trkpt lat="47.26408" lon="-0.14799">
        <ele>84.2</ele>
        <time>2012-11-04T08:43:26Z</time>
      </trkpt>
      <trkpt lat="47.2641" lon="-0.14796">
        <ele>84.3</ele>
        <time>2012-11-04T08:43:27Z</time>
      </trkpt>
      <trkpt lat="47.26414" lon="-0.14788">
        <ele>84.6</ele>
        <time>2012-11-04T08:43:30Z</time>
      </trkpt>
      <trkpt lat="47.26416" lon="-0.14787">
        <ele>84.7</ele>
        <time>2012-11-04T08:43:31Z</time>
      </trkpt>
      <trkpt lat="47.26418" lon="-0.14786">
        <ele>84.7</ele>
        <time>2012-11-04T08:43:32Z</time>
      </trkpt>
      <trkpt lat="47.2642" lon="-0.14783">
        <ele>84.8</ele>
        <time>2012-11-04T08:43:33Z</time>
      </trkpt>
      <trkpt lat="47.26421" lon="-0.14782">
        <ele>84.9</ele>
        <time>2012-11-04T08:43:34Z</time>
      </trkpt>
      <trkpt lat="47.26424" lon="-0.14779">
        <ele>85</ele>
        <time>2012-11-04T08:43:36Z</time>
      </trkpt>
      <trkpt lat="47.26426" lon="-0.14777">
        <ele>85</ele>
        <time>2012-11-04T08:43:37Z</time>
      </trkpt>
      <trkpt lat="47.26428" lon="-0.14773">
        <ele>85.2</ele>
        <time>2012-11-04T08:43:41Z</time>
      </trkpt>
      <trkpt lat="47.26444" lon="-0.14756">
        <ele>85.8</ele>
        <time>2012-11-04T08:43:47Z</time>
      </trkpt>
      <trkpt lat="47.26449" lon="-0.14753">
        <ele>85.9</ele>
        <time>2012-11-04T08:43:50Z</time>
      </trkpt>
      <trkpt lat="47.26451" lon="-0.14754">
        <ele>85.9</ele>
        <time>2012-11-04T08:43:51Z</time>
      </trkpt>
      <trkpt lat="47.26452" lon="-0.14756">
        <ele>85.8</ele>
        <time>2012-11-04T08:43:52Z</time>
      </trkpt>
      <trkpt lat="47.26454" lon="-0.14756">
        <ele>85.9</ele>
        <time>2012-11-04T08:43:53Z</time>
      </trkpt>
      <trkpt lat="47.26457" lon="-0.14754">
        <ele>85.9</ele>
        <time>2012-11-04T08:43:54Z</time>
      </trkpt>
      <trkpt lat="47.26459" lon="-0.14752">
        <ele>86</ele>
        <time>2012-11-04T08:43:55Z</time>
      </trkpt>
      <trkpt lat="47.26461" lon="-0.14752">
        <ele>86</ele>
        <time>2012-11-04T08:43:56Z</time>
      </trkpt>
      <trkpt lat="47.26464" lon="-0.14752">
        <ele>86</ele>
        <time>2012-11-04T08:43:57Z</time>
      </trkpt>
      <trkpt lat="47.26467" lon="-0.1475">
        <ele>86</ele>
        <time>2012-11-04T08:43:58Z</time>
      </trkpt>
      <trkpt lat="47.26469" lon="-0.14747">
        <ele>86</ele>
        <time>2012-11-04T08:43:59Z</time>
      </trkpt>
      <trkpt lat="47.26471" lon="-0.14744">
        <ele>86</ele>
        <time>2012-11-04T08:44:00Z</time>
      </trkpt>
      <trkpt lat="47.26478" lon="-0.14727">
        <ele>86</ele>
        <time>2012-11-04T08:44:05Z</time>
      </trkpt>
      <trkpt lat="47.26484" lon="-0.14717">
        <ele>86</ele>
        <time>2012-11-04T08:44:09Z</time>
      </trkpt>
      <trkpt lat="47.26484" lon="-0.14713">
        <ele>86</ele>
        <time>2012-11-04T08:44:10Z</time>
      </trkpt>
      <trkpt lat="47.26484" lon="-0.1471">
        <ele>86</ele>
        <time>2012-11-04T08:44:11Z</time>
      </trkpt>
      <trkpt lat="47.26483" lon="-0.14707">
        <ele>86</ele>
        <time>2012-11-04T08:44:12Z</time>
      </trkpt>
      <trkpt lat="47.2648" lon="-0.14706">
        <ele>86</ele>
        <time>2012-11-04T08:44:13Z</time>
      </trkpt>
      <trkpt lat="47.26478" lon="-0.14707">
        <ele>86</ele>
        <time>2012-11-04T08:44:14Z</time>
      </trkpt>
      <trkpt lat="47.26466" lon="-0.14707">
        <ele>86</ele>
        <time>2012-11-04T08:44:21Z</time>
      </trkpt>
      <trkpt lat="47.26452" lon="-0.14714">
        <ele>86</ele>
        <time>2012-11-04T08:44:29Z</time>
      </trkpt>
      <trkpt lat="47.2644" lon="-0.14718">
        <ele>86</ele>
        <time>2012-11-04T08:44:35Z</time>
      </trkpt>
      <trkpt lat="47.26421" lon="-0.14727">
        <ele>86</ele>
        <time>2012-11-04T08:44:42Z</time>
      </trkpt>
      <trkpt lat="47.26397" lon="-0.14738">
        <ele>85.6</ele>
        <time>2012-11-04T08:44:49Z</time>
      </trkpt>
      <trkpt lat="47.26381" lon="-0.14742">
        <ele>85</ele>
        <time>2012-11-04T08:44:54Z</time>
      </trkpt>
      <trkpt lat="47.26378" lon="-0.1474">
        <ele>85</ele>
        <time>2012-11-04T08:44:55Z</time>
      </trkpt>
      <trkpt lat="47.26376" lon="-0.14737">
        <ele>85</ele>
        <time>2012-11-04T08:44:56Z</time>
      </trkpt>
      <trkpt lat="47.26375" lon="-0.14733">
        <ele>85.1</ele>
        <time>2012-11-04T08:44:57Z</time>
      </trkpt>
      <trkpt lat="47.26374" lon="-0.14729">
        <ele>85.2</ele>
        <time>2012-11-04T08:44:58Z</time>
      </trkpt>
      <trkpt lat="47.26373" lon="-0.14726">
        <ele>85.3</ele>
        <time>2012-11-04T08:44:59Z</time>
      </trkpt>
      <trkpt lat="47.26371" lon="-0.14722">
        <ele>85.4</ele>
        <time>2012-11-04T08:45:00Z</time>
      </trkpt>
      <trkpt lat="47.26363" lon="-0.14698">
        <ele>85.1</ele>
        <time>2012-11-04T08:45:06Z</time>
      </trkpt>
      <trkpt lat="47.26356" lon="-0.14683">
        <ele>84.9</ele>
        <time>2012-11-04T08:45:10Z</time>
      </trkpt>
      <trkpt lat="47.26353" lon="-0.14682">
        <ele>84.8</ele>
        <time>2012-11-04T08:45:11Z</time>
      </trkpt>
      <trkpt lat="47.26335" lon="-0.14691">
        <ele>84.2</ele>
        <time>2012-11-04T08:45:17Z</time>
      </trkpt>
      <trkpt lat="47.26314" lon="-0.14705">
        <ele>82.9</ele>
        <time>2012-11-04T08:45:24Z</time>
      </trkpt>
      <trkpt lat="47.26297" lon="-0.14717">
        <ele>81.6</ele>
        <time>2012-11-04T08:45:28Z</time>
      </trkpt>
      <trkpt lat="47.26285" lon="-0.14726">
        <ele>80.5</ele>
        <time>2012-11-04T08:45:32Z</time>
      </trkpt>
      <trkpt lat="47.26283" lon="-0.14726">
        <ele>80.4</ele>
        <time>2012-11-04T08:45:33Z</time>
      </trkpt>
      <trkpt lat="47.2628" lon="-0.14726">
        <ele>80.1</ele>
        <time>2012-11-04T08:45:34Z</time>
      </trkpt>
      <trkpt lat="47.26278" lon="-0.14724">
        <ele>80</ele>
        <time>2012-11-04T08:45:35Z</time>
      </trkpt>
      <trkpt lat="47.26276" lon="-0.14721">
        <ele>80</ele>
        <time>2012-11-04T08:45:36Z</time>
      </trkpt>
      <trkpt lat="47.26275" lon="-0.14719">
        <ele>80</ele>
        <time>2012-11-04T08:45:37Z</time>
      </trkpt>
      <trkpt lat="47.26273" lon="-0.14716">
        <ele>80.1</ele>
        <time>2012-11-04T08:45:38Z</time>
      </trkpt>
      <trkpt lat="47.26268" lon="-0.14699">
        <ele>80.5</ele>
        <time>2012-11-04T08:45:43Z</time>
      </trkpt>
      <trkpt lat="47.26266" lon="-0.1469">
        <ele>80.7</ele>
        <time>2012-11-04T08:45:46Z</time>
      </trkpt>
      <trkpt lat="47.26265" lon="-0.14687">
        <ele>80.8</ele>
        <time>2012-11-04T08:45:47Z</time>
      </trkpt>
      <trkpt lat="47.26264" lon="-0.14683">
        <ele>80.9</ele>
        <time>2012-11-04T08:45:48Z</time>
      </trkpt>
      <trkpt lat="47.26263" lon="-0.1468">
        <ele>81</ele>
        <time>2012-11-04T08:45:49Z</time>
      </trkpt>
      <trkpt lat="47.26262" lon="-0.14675">
        <ele>81.1</ele>
        <time>2012-11-04T08:45:50Z</time>
      </trkpt>
      <trkpt lat="47.26261" lon="-0.14671">
        <ele>81.2</ele>
        <time>2012-11-04T08:45:51Z</time>
      </trkpt>
      <trkpt lat="47.2626" lon="-0.14667">
        <ele>81.3</ele>
        <time>2012-11-04T08:45:52Z</time>
      </trkpt>
      <trkpt lat="47.26257" lon="-0.1466">
        <ele>81.5</ele>
        <time>2012-11-04T08:45:54Z</time>
      </trkpt>
      <trkpt lat="47.26255" lon="-0.14657">
        <ele>81.5</ele>
        <time>2012-11-04T08:45:55Z</time>
      </trkpt>
      <trkpt lat="47.26254" lon="-0.14653">
        <ele>81.6</ele>
        <time>2012-11-04T08:45:56Z</time>
      </trkpt>
      <trkpt lat="47.26254" lon="-0.14649">
        <ele>81.8</ele>
        <time>2012-11-04T08:45:57Z</time>
      </trkpt>
      <trkpt lat="47.26255" lon="-0.14647">
        <ele>81.9</ele>
        <time>2012-11-04T08:45:58Z</time>
      </trkpt>
      <trkpt lat="47.26256" lon="-0.14645">
        <ele>82</ele>
        <time>2012-11-04T08:45:59Z</time>
      </trkpt>
      <trkpt lat="47.26258" lon="-0.14645">
        <ele>82.1</ele>
        <time>2012-11-04T08:46:00Z</time>
      </trkpt>
      <trkpt lat="47.2626" lon="-0.14643">
        <ele>82.2</ele>
        <time>2012-11-04T08:46:01Z</time>
      </trkpt>
      <trkpt lat="47.26261" lon="-0.14642">
        <ele>82.3</ele>
        <time>2012-11-04T08:46:02Z</time>
      </trkpt>
      <trkpt lat="47.26263" lon="-0.1464">
        <ele>82.4</ele>
        <time>2012-11-04T08:46:03Z</time>
      </trkpt>
      <trkpt lat="47.26265" lon="-0.14638">
        <ele>82.6</ele>
        <time>2012-11-04T08:46:04Z</time>
      </trkpt>
      <trkpt lat="47.26268" lon="-0.14635">
        <ele>82.8</ele>
        <time>2012-11-04T08:46:05Z</time>
      </trkpt>
      <trkpt lat="47.2628" lon="-0.14622">
        <ele>83.6</ele>
        <time>2012-11-04T08:46:11Z</time>
      </trkpt>
      <trkpt lat="47.26289" lon="-0.14615">
        <ele>83.9</ele>
        <time>2012-11-04T08:46:15Z</time>
      </trkpt>
      <trkpt lat="47.26301" lon="-0.14608">
        <ele>84.1</ele>
        <time>2012-11-04T08:46:21Z</time>
      </trkpt>
      <trkpt lat="47.26303" lon="-0.14606">
        <ele>84.2</ele>
        <time>2012-11-04T08:46:22Z</time>
      </trkpt>
      <trkpt lat="47.26313" lon="-0.146">
        <ele>84.6</ele>
        <time>2012-11-04T08:46:27Z</time>
      </trkpt>
      <trkpt lat="47.26329" lon="-0.14586">
        <ele>85</ele>
        <time>2012-11-04T08:46:32Z</time>
      </trkpt>
      <trkpt lat="47.2635" lon="-0.14575">
        <ele>85.6</ele>
        <time>2012-11-04T08:46:38Z</time>
      </trkpt>
      <trkpt lat="47.26372" lon="-0.1456">
        <ele>86</ele>
        <time>2012-11-04T08:46:44Z</time>
      </trkpt>
      <trkpt lat="47.2639" lon="-0.14546">
        <ele>86</ele>
        <time>2012-11-04T08:46:49Z</time>
      </trkpt>
      <trkpt lat="47.26401" lon="-0.14533">
        <ele>85.9</ele>
        <time>2012-11-04T08:46:53Z</time>
      </trkpt>
      <trkpt lat="47.26402" lon="-0.14529">
        <ele>86</ele>
        <time>2012-11-04T08:46:54Z</time>
      </trkpt>
      <trkpt lat="47.26401" lon="-0.14524">
        <ele>86</ele>
        <time>2012-11-04T08:46:55Z</time>
      </trkpt>
      <trkpt lat="47.264" lon="-0.1452">
        <ele>86</ele>
        <time>2012-11-04T08:46:56Z</time>
      </trkpt>
      <trkpt lat="47.26398" lon="-0.14514">
        <ele>86</ele>
        <time>2012-11-04T08:46:57Z</time>
      </trkpt>
      <trkpt lat="47.26396" lon="-0.14509">
        <ele>86</ele>
        <time>2012-11-04T08:46:58Z</time>
      </trkpt>
      <trkpt lat="47.26395" lon="-0.14503">
        <ele>86</ele>
        <time>2012-11-04T08:46:59Z</time>
      </trkpt>
      <trkpt lat="47.26393" lon="-0.14498">
        <ele>86</ele>
        <time>2012-11-04T08:47:00Z</time>
      </trkpt>
      <trkpt lat="47.26392" lon="-0.14493">
        <ele>86</ele>
        <time>2012-11-04T08:47:01Z</time>
      </trkpt>
      <trkpt lat="47.26391" lon="-0.14463">
        <ele>86</ele>
        <time>2012-11-04T08:47:06Z</time>
      </trkpt>
      <trkpt lat="47.26404" lon="-0.14443">
        <ele>86</ele>
        <time>2012-11-04T08:47:11Z</time>
      </trkpt>
      <trkpt lat="47.26429" lon="-0.14414">
        <ele>86</ele>
        <time>2012-11-04T08:47:18Z</time>
      </trkpt>
      <trkpt lat="47.26433" lon="-0.1441">
        <ele>86</ele>
        <time>2012-11-04T08:47:19Z</time>
      </trkpt>
      <trkpt lat="47.26452" lon="-0.14399">
        <ele>86</ele>
        <time>2012-11-04T08:47:24Z</time>
      </trkpt>
      <trkpt lat="47.2647" lon="-0.14383">
        <ele>86</ele>
        <time>2012-11-04T08:47:30Z</time>
      </trkpt>
      <trkpt lat="47.26478" lon="-0.14366">
        <ele>86</ele>
        <time>2012-11-04T08:47:34Z</time>
      </trkpt>
      <trkpt lat="47.26484" lon="-0.1435">
        <ele>86</ele>
        <time>2012-11-04T08:47:37Z</time>
      </trkpt>
      <trkpt lat="47.26487" lon="-0.14347">
        <ele>86</ele>
        <time>2012-11-04T08:47:38Z</time>
      </trkpt>
      <trkpt lat="47.26491" lon="-0.14346">
        <ele>86</ele>
        <time>2012-11-04T08:47:39Z</time>
      </trkpt>
      <trkpt lat="47.26494" lon="-0.14345">
        <ele>86</ele>
        <time>2012-11-04T08:47:40Z</time>
      </trkpt>
      <trkpt lat="47.26497" lon="-0.14344">
        <ele>86</ele>
        <time>2012-11-04T08:47:41Z</time>
      </trkpt>
      <trkpt lat="47.265" lon="-0.14342">
        <ele>86</ele>
        <time>2012-11-04T08:47:42Z</time>
      </trkpt>
      <trkpt lat="47.26503" lon="-0.1434">
        <ele>85.9</ele>
        <time>2012-11-04T08:47:43Z</time>
      </trkpt>
      <trkpt lat="47.26519" lon="-0.14327">
        <ele>85.1</ele>
        <time>2012-11-04T08:47:48Z</time>
      </trkpt>
      <trkpt lat="47.26523" lon="-0.14323">
        <ele>84.8</ele>
        <time>2012-11-04T08:47:49Z</time>
      </trkpt>
      <trkpt lat="47.26526" lon="-0.14319">
        <ele>84.5</ele>
        <time>2012-11-04T08:47:50Z</time>
      </trkpt>
      <trkpt lat="47.26528" lon="-0.14315">
        <ele>84.3</ele>
        <time>2012-11-04T08:47:51Z</time>
      </trkpt>
      <trkpt lat="47.26528" lon="-0.1431">
        <ele>84.2</ele>
        <time>2012-11-04T08:47:52Z</time>
      </trkpt>
      <trkpt lat="47.26528" lon="-0.14305">
        <ele>84</ele>
        <time>2012-11-04T08:47:53Z</time>
      </trkpt>
      <trkpt lat="47.26528" lon="-0.14291">
        <ele>84</ele>
        <time>2012-11-04T08:47:56Z</time>
      </trkpt>
      <trkpt lat="47.2653" lon="-0.14287">
        <ele>84</ele>
        <time>2012-11-04T08:47:57Z</time>
      </trkpt>
      <trkpt lat="47.26532" lon="-0.14283">
        <ele>84</ele>
        <time>2012-11-04T08:47:58Z</time>
      </trkpt>
      <trkpt lat="47.26549" lon="-0.14273">
        <ele>84</ele>
        <time>2012-11-04T08:48:03Z</time>
      </trkpt>
      <trkpt lat="47.26554" lon="-0.14272">
        <ele>84</ele>
        <time>2012-11-04T08:48:04Z</time>
      </trkpt>
      <trkpt lat="47.26559" lon="-0.14271">
        <ele>83.9</ele>
        <time>2012-11-04T08:48:05Z</time>
      </trkpt>
      <trkpt lat="47.26563" lon="-0.14269">
        <ele>83.7</ele>
        <time>2012-11-04T08:48:06Z</time>
      </trkpt>
      <trkpt lat="47.26579" lon="-0.14263">
        <ele>83.2</ele>
        <time>2012-11-04T08:48:09Z</time>
      </trkpt>
      <trkpt lat="47.2659" lon="-0.1426">
        <ele>82.8</ele>
        <time>2012-11-04T08:48:11Z</time>
      </trkpt>
      <trkpt lat="47.26604" lon="-0.14255">
        <ele>82.3</ele>
        <time>2012-11-04T08:48:14Z</time>
      </trkpt>
      <trkpt lat="47.26608" lon="-0.14254">
        <ele>82.1</ele>
        <time>2012-11-04T08:48:15Z</time>
      </trkpt>
      <trkpt lat="47.26611" lon="-0.14252">
        <ele>82</ele>
        <time>2012-11-04T08:48:16Z</time>
      </trkpt>
      <trkpt lat="47.26616" lon="-0.1425">
        <ele>81.8</ele>
        <time>2012-11-04T08:48:17Z</time>
      </trkpt>
      <trkpt lat="47.26621" lon="-0.14248">
        <ele>81.6</ele>
        <time>2012-11-04T08:48:18Z</time>
      </trkpt>
      <trkpt lat="47.26625" lon="-0.14246">
        <ele>81.4</ele>
        <time>2012-11-04T08:48:19Z</time>
      </trkpt>
      <trkpt lat="47.26629" lon="-0.14245">
        <ele>81.3</ele>
        <time>2012-11-04T08:48:20Z</time>
      </trkpt>
      <trkpt lat="47.26633" lon="-0.14246">
        <ele>81.2</ele>
        <time>2012-11-04T08:48:21Z</time>
      </trkpt>
      <trkpt lat="47.26638" lon="-0.14248">
        <ele>81</ele>
        <time>2012-11-04T08:48:22Z</time>
      </trkpt>
      <trkpt lat="47.26642" lon="-0.14252">
        <ele>81</ele>
        <time>2012-11-04T08:48:23Z</time>
      </trkpt>
      <trkpt lat="47.26647" lon="-0.14256">
        <ele>80.9</ele>
        <time>2012-11-04T08:48:24Z</time>
      </trkpt>
      <trkpt lat="47.26672" lon="-0.14286">
        <ele>80.8</ele>
        <time>2012-11-04T08:48:30Z</time>
      </trkpt>
      <trkpt lat="47.2668" lon="-0.14296">
        <ele>80.5</ele>
        <time>2012-11-04T08:48:32Z</time>
      </trkpt>
      <trkpt lat="47.26684" lon="-0.143">
        <ele>80.4</ele>
        <time>2012-11-04T08:48:33Z</time>
      </trkpt>
      <trkpt lat="47.26716" lon="-0.1434">
        <ele>79.2</ele>
        <time>2012-11-04T08:48:41Z</time>
      </trkpt>
      <trkpt lat="47.26719" lon="-0.1434">
        <ele>79.1</ele>
        <time>2012-11-04T08:48:42Z</time>
      </trkpt>
      <trkpt lat="47.26721" lon="-0.14338">
        <ele>79</ele>
        <time>2012-11-04T08:48:43Z</time>
      </trkpt>
      <trkpt lat="47.26724" lon="-0.14336">
        <ele>78.9</ele>
        <time>2012-11-04T08:48:44Z</time>
      </trkpt>
      <trkpt lat="47.26726" lon="-0.14332">
        <ele>78.9</ele>
        <time>2012-11-04T08:48:45Z</time>
      </trkpt>
      <trkpt lat="47.26728" lon="-0.14329">
        <ele>78.8</ele>
        <time>2012-11-04T08:48:46Z</time>
      </trkpt>
      <trkpt lat="47.26738" lon="-0.1431">
        <ele>78.4</ele>
        <time>2012-11-04T08:48:51Z</time>
      </trkpt>
      <trkpt lat="47.26747" lon="-0.1429">
        <ele>78.1</ele>
        <time>2012-11-04T08:48:56Z</time>
      </trkpt>
      <trkpt lat="47.26756" lon="-0.14272">
        <ele>77.8</ele>
        <time>2012-11-04T08:49:02Z</time>
      </trkpt>
      <trkpt lat="47.26766" lon="-0.14257">
        <ele>77.4</ele>
        <time>2012-11-04T08:49:08Z</time>
      </trkpt>
      <trkpt lat="47.26771" lon="-0.14249">
        <ele>77.2</ele>
        <time>2012-11-04T08:49:12Z</time>
      </trkpt>
      <trkpt lat="47.26772" lon="-0.14245">
        <ele>77.2</ele>
        <time>2012-11-04T08:49:13Z</time>
      </trkpt>
      <trkpt lat="47.26773" lon="-0.14242">
        <ele>77.2</ele>
        <time>2012-11-04T08:49:14Z</time>
      </trkpt>
      <trkpt lat="47.26775" lon="-0.1424">
        <ele>77.1</ele>
        <time>2012-11-04T08:49:15Z</time>
      </trkpt>
      <trkpt lat="47.26776" lon="-0.14237">
        <ele>77.1</ele>
        <time>2012-11-04T08:49:16Z</time>
      </trkpt>
      <trkpt lat="47.26778" lon="-0.14233">
        <ele>77</ele>
        <time>2012-11-04T08:49:17Z</time>
      </trkpt>
      <trkpt lat="47.26779" lon="-0.14229">
        <ele>77</ele>
        <time>2012-11-04T08:49:18Z</time>
      </trkpt>
      <trkpt lat="47.2678" lon="-0.14226">
        <ele>76.9</ele>
        <time>2012-11-04T08:49:19Z</time>
      </trkpt>
      <trkpt lat="47.26782" lon="-0.14223">
        <ele>76.8</ele>
        <time>2012-11-04T08:49:20Z</time>
      </trkpt>
      <trkpt lat="47.26783" lon="-0.14221">
        <ele>76.8</ele>
        <time>2012-11-04T08:49:21Z</time>
      </trkpt>
      <trkpt lat="47.26786" lon="-0.1421">
        <ele>76.7</ele>
        <time>2012-11-04T08:49:25Z</time>
      </trkpt>
      <trkpt lat="47.26787" lon="-0.14208">
        <ele>76.7</ele>
        <time>2012-11-04T08:49:26Z</time>
      </trkpt>
      <trkpt lat="47.2679" lon="-0.14199">
        <ele>76.6</ele>
        <time>2012-11-04T08:49:30Z</time>
      </trkpt>
      <trkpt lat="47.2679" lon="-0.14196">
        <ele>76.6</ele>
        <time>2012-11-04T08:49:31Z</time>
      </trkpt>
      <trkpt lat="47.26791" lon="-0.14194">
        <ele>76.5</ele>
        <time>2012-11-04T08:49:32Z</time>
      </trkpt>
      <trkpt lat="47.26792" lon="-0.14192">
        <ele>76.5</ele>
        <time>2012-11-04T08:49:33Z</time>
      </trkpt>
      <trkpt lat="47.26792" lon="-0.1419">
        <ele>76.5</ele>
        <time>2012-11-04T08:49:34Z</time>
      </trkpt>
      <trkpt lat="47.26792" lon="-0.14187">
        <ele>76.5</ele>
        <time>2012-11-04T08:49:35Z</time>
      </trkpt>
      <trkpt lat="47.26793" lon="-0.14163">
        <ele>76.5</ele>
        <time>2012-11-04T08:49:41Z</time>
      </trkpt>
      <trkpt lat="47.26793" lon="-0.14161">
        <ele>76.5</ele>
        <time>2012-11-04T08:49:42Z</time>
      </trkpt>
      <trkpt lat="47.26795" lon="-0.14153">
        <ele>76.4</ele>
        <time>2012-11-04T08:49:47Z</time>
      </trkpt>
      <trkpt lat="47.26796" lon="-0.14146">
        <ele>76.3</ele>
        <time>2012-11-04T08:49:49Z</time>
      </trkpt>
      <trkpt lat="47.26797" lon="-0.14119">
        <ele>76.3</ele>
        <time>2012-11-04T08:49:57Z</time>
      </trkpt>
      <trkpt lat="47.26797" lon="-0.14096">
        <ele>76.3</ele>
        <time>2012-11-04T08:50:03Z</time>
      </trkpt>
      <trkpt lat="47.268" lon="-0.14075">
        <ele>76.2</ele>
        <time>2012-11-04T08:50:09Z</time>
      </trkpt>
      <trkpt lat="47.268" lon="-0.14071">
        <ele>76.2</ele>
        <time>2012-11-04T08:50:10Z</time>
      </trkpt>
      <trkpt lat="47.268" lon="-0.14067">
        <ele>76.2</ele>
        <time>2012-11-04T08:50:11Z</time>
      </trkpt>
      <trkpt lat="47.268" lon="-0.14046">
        <ele>76.2</ele>
        <time>2012-11-04T08:50:16Z</time>
      </trkpt>
      <trkpt lat="47.26802" lon="-0.14034">
        <ele>76.1</ele>
        <time>2012-11-04T08:50:18Z</time>
      </trkpt>
      <trkpt lat="47.26803" lon="-0.14028">
        <ele>76.1</ele>
        <time>2012-11-04T08:50:19Z</time>
      </trkpt>
      <trkpt lat="47.26802" lon="-0.14022">
        <ele>76.1</ele>
        <time>2012-11-04T08:50:20Z</time>
      </trkpt>
      <trkpt lat="47.26803" lon="-0.14014">
        <ele>76</ele>
        <time>2012-11-04T08:50:21Z</time>
      </trkpt>
      <trkpt lat="47.26803" lon="-0.14006">
        <ele>76</ele>
        <time>2012-11-04T08:50:22Z</time>
      </trkpt>
      <trkpt lat="47.26802" lon="-0.13996">
        <ele>75.9</ele>
        <time>2012-11-04T08:50:23Z</time>
      </trkpt>
      <trkpt lat="47.26801" lon="-0.13987">
        <ele>75.6</ele>
        <time>2012-11-04T08:50:24Z</time>
      </trkpt>
      <trkpt lat="47.26801" lon="-0.13979">
        <ele>75.4</ele>
        <time>2012-11-04T08:50:25Z</time>
      </trkpt>
      <trkpt lat="47.26802" lon="-0.13974">
        <ele>75.2</ele>
        <time>2012-11-04T08:50:26Z</time>
      </trkpt>
      <trkpt lat="47.26804" lon="-0.13966">
        <ele>74.8</ele>
        <time>2012-11-04T08:50:28Z</time>
      </trkpt>
      <trkpt lat="47.26805" lon="-0.13959">
        <ele>74.5</ele>
        <time>2012-11-04T08:50:30Z</time>
      </trkpt>
      <trkpt lat="47.26806" lon="-0.13955">
        <ele>74.4</ele>
        <time>2012-11-04T08:50:31Z</time>
      </trkpt>
      <trkpt lat="47.26808" lon="-0.13951">
        <ele>74.1</ele>
        <time>2012-11-04T08:50:32Z</time>
      </trkpt>
      <trkpt lat="47.26808" lon="-0.13946">
        <ele>74</ele>
        <time>2012-11-04T08:50:33Z</time>
      </trkpt>
      <trkpt lat="47.26809" lon="-0.1394">
        <ele>73.9</ele>
        <time>2012-11-04T08:50:34Z</time>
      </trkpt>
      <trkpt lat="47.26811" lon="-0.13934">
        <ele>73.7</ele>
        <time>2012-11-04T08:50:35Z</time>
      </trkpt>
      <trkpt lat="47.26812" lon="-0.13927">
        <ele>73.6</ele>
        <time>2012-11-04T08:50:36Z</time>
      </trkpt>
      <trkpt lat="47.26813" lon="-0.13916">
        <ele>73.4</ele>
        <time>2012-11-04T08:50:38Z</time>
      </trkpt>
      <trkpt lat="47.26812" lon="-0.13913">
        <ele>73.4</ele>
        <time>2012-11-04T08:50:39Z</time>
      </trkpt>
      <trkpt lat="47.26811" lon="-0.1391">
        <ele>73.4</ele>
        <time>2012-11-04T08:50:40Z</time>
      </trkpt>
      <trkpt lat="47.26809" lon="-0.13907">
        <ele>73.4</ele>
        <time>2012-11-04T08:50:41Z</time>
      </trkpt>
      <trkpt lat="47.26807" lon="-0.13903">
        <ele>73.4</ele>
        <time>2012-11-04T08:50:42Z</time>
      </trkpt>
      <trkpt lat="47.26805" lon="-0.139">
        <ele>73.4</ele>
        <time>2012-11-04T08:50:43Z</time>
      </trkpt>
      <trkpt lat="47.26795" lon="-0.1389">
        <ele>73.4</ele>
        <time>2012-11-04T08:50:47Z</time>
      </trkpt>
      <trkpt lat="47.26793" lon="-0.13889">
        <ele>73.5</ele>
        <time>2012-11-04T08:50:48Z</time>
      </trkpt>
      <trkpt lat="47.26791" lon="-0.13887">
        <ele>73.5</ele>
        <time>2012-11-04T08:50:49Z</time>
      </trkpt>
      <trkpt lat="47.26789" lon="-0.13886">
        <ele>73.6</ele>
        <time>2012-11-04T08:50:50Z</time>
      </trkpt>
      <trkpt lat="47.26786" lon="-0.13885">
        <ele>73.7</ele>
        <time>2012-11-04T08:50:51Z</time>
      </trkpt>
      <trkpt lat="47.26784" lon="-0.13883">
        <ele>73.7</ele>
        <time>2012-11-04T08:50:52Z</time>
      </trkpt>
      <trkpt lat="47.26782" lon="-0.13881">
        <ele>73.8</ele>
        <time>2012-11-04T08:50:53Z</time>
      </trkpt>
      <trkpt lat="47.26781" lon="-0.13878">
        <ele>73.8</ele>
        <time>2012-11-04T08:50:54Z</time>
      </trkpt>
      <trkpt lat="47.26779" lon="-0.13874">
        <ele>73.9</ele>
        <time>2012-11-04T08:50:55Z</time>
      </trkpt>
      <trkpt lat="47.26762" lon="-0.13845">
        <ele>74</ele>
        <time>2012-11-04T08:51:02Z</time>
      </trkpt>
      <trkpt lat="47.26743" lon="-0.13822">
        <ele>74.4</ele>
        <time>2012-11-04T08:51:08Z</time>
      </trkpt>
      <trkpt lat="47.26728" lon="-0.13808">
        <ele>74.9</ele>
        <time>2012-11-04T08:51:13Z</time>
      </trkpt>
      <trkpt lat="47.26712" lon="-0.13798">
        <ele>75.4</ele>
        <time>2012-11-04T08:51:18Z</time>
      </trkpt>
      <trkpt lat="47.26707" lon="-0.13794">
        <ele>75.5</ele>
        <time>2012-11-04T08:51:19Z</time>
      </trkpt>
      <trkpt lat="47.26697" lon="-0.13783">
        <ele>75.9</ele>
        <time>2012-11-04T08:51:21Z</time>
      </trkpt>
      <trkpt lat="47.26692" lon="-0.13778">
        <ele>76</ele>
        <time>2012-11-04T08:51:22Z</time>
      </trkpt>
      <trkpt lat="47.26688" lon="-0.13772">
        <ele>75.8</ele>
        <time>2012-11-04T08:51:23Z</time>
      </trkpt>
      <trkpt lat="47.26685" lon="-0.13764">
        <ele>75.7</ele>
        <time>2012-11-04T08:51:24Z</time>
      </trkpt>
      <trkpt lat="47.26682" lon="-0.13756">
        <ele>75.6</ele>
        <time>2012-11-04T08:51:25Z</time>
      </trkpt>
      <trkpt lat="47.26679" lon="-0.13747">
        <ele>75.5</ele>
        <time>2012-11-04T08:51:26Z</time>
      </trkpt>
      <trkpt lat="47.26677" lon="-0.13738">
        <ele>75.4</ele>
        <time>2012-11-04T08:51:27Z</time>
      </trkpt>
      <trkpt lat="47.26675" lon="-0.13729">
        <ele>75.2</ele>
        <time>2012-11-04T08:51:28Z</time>
      </trkpt>
      <trkpt lat="47.26673" lon="-0.13721">
        <ele>75</ele>
        <time>2012-11-04T08:51:29Z</time>
      </trkpt>
      <trkpt lat="47.26665" lon="-0.13692">
        <ele>74.9</ele>
        <time>2012-11-04T08:51:32Z</time>
      </trkpt>
      <trkpt lat="47.26663" lon="-0.1368">
        <ele>74.5</ele>
        <time>2012-11-04T08:51:33Z</time>
      </trkpt>
      <trkpt lat="47.26656" lon="-0.13637">
        <ele>74.3</ele>
        <time>2012-11-04T08:51:37Z</time>
      </trkpt>
      <trkpt lat="47.26654" lon="-0.13628">
        <ele>74.1</ele>
        <time>2012-11-04T08:51:38Z</time>
      </trkpt>
      <trkpt lat="47.26644" lon="-0.13587">
        <ele>73.8</ele>
        <time>2012-11-04T08:51:43Z</time>
      </trkpt>
      <trkpt lat="47.26641" lon="-0.13573">
        <ele>73.9</ele>
        <time>2012-11-04T08:51:45Z</time>
      </trkpt>
      <trkpt lat="47.2664" lon="-0.13564">
        <ele>73.9</ele>
        <time>2012-11-04T08:51:46Z</time>
      </trkpt>
      <trkpt lat="47.26639" lon="-0.13549">
        <ele>73.8</ele>
        <time>2012-11-04T08:51:48Z</time>
      </trkpt>
      <trkpt lat="47.26639" lon="-0.13541">
        <ele>73.5</ele>
        <time>2012-11-04T08:51:49Z</time>
      </trkpt>
      <trkpt lat="47.2664" lon="-0.13532">
        <ele>73.1</ele>
        <time>2012-11-04T08:51:50Z</time>
      </trkpt>
      <trkpt lat="47.26639" lon="-0.13507">
        <ele>73</ele>
        <time>2012-11-04T08:51:53Z</time>
      </trkpt>
      <trkpt lat="47.26639" lon="-0.13497">
        <ele>73</ele>
        <time>2012-11-04T08:51:54Z</time>
      </trkpt>
      <trkpt lat="47.26641" lon="-0.1347">
        <ele>72.9</ele>
        <time>2012-11-04T08:51:58Z</time>
      </trkpt>
      <trkpt lat="47.26649" lon="-0.13448">
        <ele>72.6</ele>
        <time>2012-11-04T08:52:03Z</time>
      </trkpt>
      <trkpt lat="47.26652" lon="-0.1344">
        <ele>72.5</ele>
        <time>2012-11-04T08:52:05Z</time>
      </trkpt>
      <trkpt lat="47.26652" lon="-0.13436">
        <ele>72.5</ele>
        <time>2012-11-04T08:52:06Z</time>
      </trkpt>
      <trkpt lat="47.26652" lon="-0.13432">
        <ele>72.5</ele>
        <time>2012-11-04T08:52:07Z</time>
      </trkpt>
      <trkpt lat="47.26651" lon="-0.13429">
        <ele>72.6</ele>
        <time>2012-11-04T08:52:08Z</time>
      </trkpt>
      <trkpt lat="47.2665" lon="-0.13426">
        <ele>72.6</ele>
        <time>2012-11-04T08:52:09Z</time>
      </trkpt>
      <trkpt lat="47.26649" lon="-0.13422">
        <ele>72.6</ele>
        <time>2012-11-04T08:52:10Z</time>
      </trkpt>
      <trkpt lat="47.26648" lon="-0.13416">
        <ele>72.7</ele>
        <time>2012-11-04T08:52:11Z</time>
      </trkpt>
      <trkpt lat="47.26648" lon="-0.1341">
        <ele>72.7</ele>
        <time>2012-11-04T08:52:12Z</time>
      </trkpt>
      <trkpt lat="47.2665" lon="-0.13404">
        <ele>72.6</ele>
        <time>2012-11-04T08:52:13Z</time>
      </trkpt>
      <trkpt lat="47.26653" lon="-0.13398">
        <ele>72.5</ele>
        <time>2012-11-04T08:52:14Z</time>
      </trkpt>
      <trkpt lat="47.26655" lon="-0.13394">
        <ele>72.4</ele>
        <time>2012-11-04T08:52:15Z</time>
      </trkpt>
      <trkpt lat="47.26656" lon="-0.13389">
        <ele>72.4</ele>
        <time>2012-11-04T08:52:16Z</time>
      </trkpt>
      <trkpt lat="47.26657" lon="-0.13383">
        <ele>72.3</ele>
        <time>2012-11-04T08:52:17Z</time>
      </trkpt>
      <trkpt lat="47.26657" lon="-0.13379">
        <ele>72.2</ele>
        <time>2012-11-04T08:52:18Z</time>
      </trkpt>
      <trkpt lat="47.26656" lon="-0.13375">
        <ele>72.2</ele>
        <time>2012-11-04T08:52:19Z</time>
      </trkpt>
      <trkpt lat="47.26656" lon="-0.13371">
        <ele>72.1</ele>
        <time>2012-11-04T08:52:20Z</time>
      </trkpt>
      <trkpt lat="47.26656" lon="-0.13366">
        <ele>72.1</ele>
        <time>2012-11-04T08:52:21Z</time>
      </trkpt>
      <trkpt lat="47.26656" lon="-0.1336">
        <ele>72</ele>
        <time>2012-11-04T08:52:22Z</time>
      </trkpt>
      <trkpt lat="47.26656" lon="-0.13353">
        <ele>72</ele>
        <time>2012-11-04T08:52:23Z</time>
      </trkpt>
      <trkpt lat="47.26656" lon="-0.13347">
        <ele>72</ele>
        <time>2012-11-04T08:52:24Z</time>
      </trkpt>
      <trkpt lat="47.26656" lon="-0.13343">
        <ele>72</ele>
        <time>2012-11-04T08:52:25Z</time>
      </trkpt>
      <trkpt lat="47.26657" lon="-0.13337">
        <ele>72</ele>
        <time>2012-11-04T08:52:27Z</time>
      </trkpt>
      <trkpt lat="47.26659" lon="-0.13332">
        <ele>72</ele>
        <time>2012-11-04T08:52:28Z</time>
      </trkpt>
      <trkpt lat="47.26662" lon="-0.13327">
        <ele>72</ele>
        <time>2012-11-04T08:52:29Z</time>
      </trkpt>
      <trkpt lat="47.26665" lon="-0.13323">
        <ele>72</ele>
        <time>2012-11-04T08:52:30Z</time>
      </trkpt>
      <trkpt lat="47.26669" lon="-0.1332">
        <ele>71.9</ele>
        <time>2012-11-04T08:52:31Z</time>
      </trkpt>
      <trkpt lat="47.26687" lon="-0.13308">
        <ele>71.3</ele>
        <time>2012-11-04T08:52:35Z</time>
      </trkpt>
      <trkpt lat="47.26704" lon="-0.1328">
        <ele>70.3</ele>
        <time>2012-11-04T08:52:42Z</time>
      </trkpt>
      <trkpt lat="47.26706" lon="-0.13277">
        <ele>70.2</ele>
        <time>2012-11-04T08:52:43Z</time>
      </trkpt>
      <trkpt lat="47.26709" lon="-0.1326">
        <ele>70</ele>
        <time>2012-11-04T08:52:48Z</time>
      </trkpt>
      <trkpt lat="47.2671" lon="-0.13254">
        <ele>69.9</ele>
        <time>2012-11-04T08:52:50Z</time>
      </trkpt>
      <trkpt lat="47.26714" lon="-0.1323">
        <ele>69.4</ele>
        <time>2012-11-04T08:52:55Z</time>
      </trkpt>
      <trkpt lat="47.26713" lon="-0.13208">
        <ele>69</ele>
        <time>2012-11-04T08:52:59Z</time>
      </trkpt>
      <trkpt lat="47.26714" lon="-0.13204">
        <ele>68.8</ele>
        <time>2012-11-04T08:53:00Z</time>
      </trkpt>
      <trkpt lat="47.26716" lon="-0.13187">
        <ele>68.2</ele>
        <time>2012-11-04T08:53:04Z</time>
      </trkpt>
      <trkpt lat="47.26713" lon="-0.1317">
        <ele>67.8</ele>
        <time>2012-11-04T08:53:09Z</time>
      </trkpt>
      <trkpt lat="47.26709" lon="-0.13146">
        <ele>67.6</ele>
        <time>2012-11-04T08:53:15Z</time>
      </trkpt>
      <trkpt lat="47.26701" lon="-0.13124">
        <ele>67.8</ele>
        <time>2012-11-04T08:53:22Z</time>
      </trkpt>
      <trkpt lat="47.26699" lon="-0.131">
        <ele>67.1</ele>
        <time>2012-11-04T08:53:28Z</time>
      </trkpt>
      <trkpt lat="47.26699" lon="-0.13087">
        <ele>66.6</ele>
        <time>2012-11-04T08:53:31Z</time>
      </trkpt>
      <trkpt lat="47.26696" lon="-0.13078">
        <ele>66.5</ele>
        <time>2012-11-04T08:53:33Z</time>
      </trkpt>
      <trkpt lat="47.26696" lon="-0.13065">
        <ele>65.5</ele>
        <time>2012-11-04T08:53:35Z</time>
      </trkpt>
      <trkpt lat="47.26694" lon="-0.1306">
        <ele>65.3</ele>
        <time>2012-11-04T08:53:36Z</time>
      </trkpt>
      <trkpt lat="47.26693" lon="-0.13054">
        <ele>65</ele>
        <time>2012-11-04T08:53:38Z</time>
      </trkpt>
      <trkpt lat="47.2668" lon="-0.13022">
        <ele>64.2</ele>
        <time>2012-11-04T08:53:44Z</time>
      </trkpt>
      <trkpt lat="47.26668" lon="-0.13001">
        <ele>63.9</ele>
        <time>2012-11-04T08:53:49Z</time>
      </trkpt>
      <trkpt lat="47.26663" lon="-0.12989">
        <ele>63.8</ele>
        <time>2012-11-04T08:53:54Z</time>
      </trkpt>
      <trkpt lat="47.26662" lon="-0.12988">
        <ele>63.8</ele>
        <time>2012-11-04T08:54:00Z</time>
      </trkpt>
      <trkpt lat="47.26653" lon="-0.12986">
        <ele>64.2</ele>
        <time>2012-11-04T08:54:06Z</time>
      </trkpt>
      <trkpt lat="47.26645" lon="-0.12986">
        <ele>64.7</ele>
        <time>2012-11-04T08:54:09Z</time>
      </trkpt>
      <trkpt lat="47.26638" lon="-0.12985">
        <ele>65</ele>
        <time>2012-11-04T08:54:12Z</time>
      </trkpt>
      <trkpt lat="47.26629" lon="-0.12977">
        <ele>65</ele>
        <time>2012-11-04T08:54:17Z</time>
      </trkpt>
      <trkpt lat="47.26618" lon="-0.12964">
        <ele>65.5</ele>
        <time>2012-11-04T08:54:23Z</time>
      </trkpt>
      <trkpt lat="47.26617" lon="-0.12962">
        <ele>65.6</ele>
        <time>2012-11-04T08:54:25Z</time>
      </trkpt>
      <trkpt lat="47.26619" lon="-0.12949">
        <ele>65.4</ele>
        <time>2012-11-04T08:54:31Z</time>
      </trkpt>
      <trkpt lat="47.26619" lon="-0.12944">
        <ele>65.4</ele>
        <time>2012-11-04T08:54:33Z</time>
      </trkpt>
      <trkpt lat="47.26611" lon="-0.12927">
        <ele>66</ele>
        <time>2012-11-04T08:54:38Z</time>
      </trkpt>
      <trkpt lat="47.26605" lon="-0.12909">
        <ele>66.4</ele>
        <time>2012-11-04T08:54:45Z</time>
      </trkpt>
      <trkpt lat="47.26601" lon="-0.12893">
        <ele>66.6</ele>
        <time>2012-11-04T08:54:51Z</time>
      </trkpt>
      <trkpt lat="47.26607" lon="-0.12883">
        <ele>65.8</ele>
        <time>2012-11-04T08:54:56Z</time>
      </trkpt>
      <trkpt lat="47.26612" lon="-0.12882">
        <ele>65.2</ele>
        <time>2012-11-04T08:54:59Z</time>
      </trkpt>
      <trkpt lat="47.26625" lon="-0.12878">
        <ele>64.2</ele>
        <time>2012-11-04T08:55:05Z</time>
      </trkpt>
      <trkpt lat="47.26626" lon="-0.12877">
        <ele>64.1</ele>
        <time>2012-11-04T08:55:06Z</time>
      </trkpt>
      <trkpt lat="47.26634" lon="-0.12855">
        <ele>63.5</ele>
        <time>2012-11-04T08:55:11Z</time>
      </trkpt>
      <trkpt lat="47.26637" lon="-0.1285">
        <ele>63.2</ele>
        <time>2012-11-04T08:55:13Z</time>
      </trkpt>
      <trkpt lat="47.2664" lon="-0.12841">
        <ele>62.9</ele>
        <time>2012-11-04T08:55:17Z</time>
      </trkpt>
      <trkpt lat="47.26643" lon="-0.12831">
        <ele>62.7</ele>
        <time>2012-11-04T08:55:21Z</time>
      </trkpt>
      <trkpt lat="47.26649" lon="-0.12815">
        <ele>62.3</ele>
        <time>2012-11-04T08:55:26Z</time>
      </trkpt>
      <trkpt lat="47.26651" lon="-0.12808">
        <ele>62.1</ele>
        <time>2012-11-04T08:55:28Z</time>
      </trkpt>
      <trkpt lat="47.26656" lon="-0.12789">
        <ele>61.8</ele>
        <time>2012-11-04T08:55:35Z</time>
      </trkpt>
      <trkpt lat="47.26657" lon="-0.12787">
        <ele>61.7</ele>
        <time>2012-11-04T08:55:36Z</time>
      </trkpt>
      <trkpt lat="47.26666" lon="-0.12776">
        <ele>61</ele>
        <time>2012-11-04T08:55:41Z</time>
      </trkpt>
      <trkpt lat="47.26669" lon="-0.12775">
        <ele>60.8</ele>
        <time>2012-11-04T08:55:43Z</time>
      </trkpt>
      <trkpt lat="47.26684" lon="-0.12779">
        <ele>59.8</ele>
        <time>2012-11-04T08:55:49Z</time>
      </trkpt>
      <trkpt lat="47.26686" lon="-0.1278">
        <ele>59.6</ele>
        <time>2012-11-04T08:55:50Z</time>
      </trkpt>
      <trkpt lat="47.26699" lon="-0.12795">
        <ele>58.7</ele>
        <time>2012-11-04T08:55:56Z</time>
      </trkpt>
      <trkpt lat="47.26707" lon="-0.12795">
        <ele>58.1</ele>
        <time>2012-11-04T08:56:01Z</time>
      </trkpt>
      <trkpt lat="47.2671" lon="-0.12792">
        <ele>57.9</ele>
        <time>2012-11-04T08:56:03Z</time>
      </trkpt>
      <trkpt lat="47.26721" lon="-0.12801">
        <ele>57.1</ele>
        <time>2012-11-04T08:56:09Z</time>
      </trkpt>
      <trkpt lat="47.26718" lon="-0.1281">
        <ele>57.3</ele>
        <time>2012-11-04T08:56:15Z</time>
      </trkpt>
      <trkpt lat="47.26712" lon="-0.12826">
        <ele>57.7</ele>
        <time>2012-11-04T08:56:21Z</time>
      </trkpt>
      <trkpt lat="47.26711" lon="-0.1283">
        <ele>57.8</ele>
        <time>2012-11-04T08:56:22Z</time>
      </trkpt>
      <trkpt lat="47.26706" lon="-0.12845">
        <ele>58.2</ele>
        <time>2012-11-04T08:56:27Z</time>
      </trkpt>
      <trkpt lat="47.26707" lon="-0.12857">
        <ele>58.1</ele>
        <time>2012-11-04T08:56:32Z</time>
      </trkpt>
      <trkpt lat="47.26714" lon="-0.1287">
        <ele>57.6</ele>
        <time>2012-11-04T08:56:39Z</time>
      </trkpt>
      <trkpt lat="47.26726" lon="-0.12877">
        <ele>56.8</ele>
        <time>2012-11-04T08:56:44Z</time>
      </trkpt>
      <trkpt lat="47.26731" lon="-0.12882">
        <ele>56.6</ele>
        <time>2012-11-04T08:56:49Z</time>
      </trkpt>
      <trkpt lat="47.2675" lon="-0.12899">
        <ele>56</ele>
        <time>2012-11-04T08:56:55Z</time>
      </trkpt>
      <trkpt lat="47.26772" lon="-0.12921">
        <ele>56.1</ele>
        <time>2012-11-04T08:57:01Z</time>
      </trkpt>
      <trkpt lat="47.26784" lon="-0.12937">
        <ele>55.6</ele>
        <time>2012-11-04T08:57:06Z</time>
      </trkpt>
      <trkpt lat="47.26793" lon="-0.12932">
        <ele>54.9</ele>
        <time>2012-11-04T08:57:11Z</time>
      </trkpt>
      <trkpt lat="47.26794" lon="-0.12931">
        <ele>54.8</ele>
        <time>2012-11-04T08:57:12Z</time>
      </trkpt>
      <trkpt lat="47.26811" lon="-0.12923">
        <ele>53.7</ele>
        <time>2012-11-04T08:57:18Z</time>
      </trkpt>
      <trkpt lat="47.26828" lon="-0.12906">
        <ele>52.3</ele>
        <time>2012-11-04T08:57:23Z</time>
      </trkpt>
      <trkpt lat="47.26838" lon="-0.12895">
        <ele>51.9</ele>
        <time>2012-11-04T08:57:27Z</time>
      </trkpt>
      <trkpt lat="47.26843" lon="-0.12895">
        <ele>51.7</ele>
        <time>2012-11-04T08:57:28Z</time>
      </trkpt>
      <trkpt lat="47.26852" lon="-0.12902">
        <ele>51.6</ele>
        <time>2012-11-04T08:57:31Z</time>
      </trkpt>
      <trkpt lat="47.2687" lon="-0.12915">
        <ele>51.9</ele>
        <time>2012-11-04T08:57:37Z</time>
      </trkpt>
      <trkpt lat="47.26877" lon="-0.12926">
        <ele>52.1</ele>
        <time>2012-11-04T08:57:40Z</time>
      </trkpt>
      <trkpt lat="47.26897" lon="-0.1293">
        <ele>51.8</ele>
        <time>2012-11-04T08:57:49Z</time>
      </trkpt>
      <trkpt lat="47.26909" lon="-0.12938">
        <ele>51.8</ele>
        <time>2012-11-04T08:57:53Z</time>
      </trkpt>
      <trkpt lat="47.26917" lon="-0.12952">
        <ele>52.3</ele>
        <time>2012-11-04T08:57:57Z</time>
      </trkpt>
      <trkpt lat="47.26911" lon="-0.12971">
        <ele>53</ele>
        <time>2012-11-04T08:58:03Z</time>
      </trkpt>
      <trkpt lat="47.26909" lon="-0.12986">
        <ele>53.1</ele>
        <time>2012-11-04T08:58:06Z</time>
      </trkpt>
      <trkpt lat="47.26917" lon="-0.13016">
        <ele>53.6</ele>
        <time>2012-11-04T08:58:13Z</time>
      </trkpt>
      <trkpt lat="47.26916" lon="-0.13038">
        <ele>54</ele>
        <time>2012-11-04T08:58:17Z</time>
      </trkpt>
      <trkpt lat="47.26901" lon="-0.13073">
        <ele>54.9</ele>
        <time>2012-11-04T08:58:23Z</time>
      </trkpt>
      <trkpt lat="47.2689" lon="-0.13098">
        <ele>55.9</ele>
        <time>2012-11-04T08:58:29Z</time>
      </trkpt>
      <trkpt lat="47.26882" lon="-0.13117">
        <ele>56.2</ele>
        <time>2012-11-04T08:58:33Z</time>
      </trkpt>
      <trkpt lat="47.2688" lon="-0.13135">
        <ele>56.3</ele>
        <time>2012-11-04T08:58:39Z</time>
      </trkpt>
      <trkpt lat="47.2689" lon="-0.13164">
        <ele>56</ele>
        <time>2012-11-04T08:58:46Z</time>
      </trkpt>
      <trkpt lat="47.26897" lon="-0.13175">
        <ele>55.7</ele>
        <time>2012-11-04T08:58:49Z</time>
      </trkpt>
      <trkpt lat="47.26917" lon="-0.13184">
        <ele>55</ele>
        <time>2012-11-04T08:58:55Z</time>
      </trkpt>
      <trkpt lat="47.2692" lon="-0.13187">
        <ele>54.9</ele>
        <time>2012-11-04T08:58:56Z</time>
      </trkpt>
      <trkpt lat="47.26927" lon="-0.13205">
        <ele>54.6</ele>
        <time>2012-11-04T08:59:01Z</time>
      </trkpt>
      <trkpt lat="47.26923" lon="-0.13214">
        <ele>54.8</ele>
        <time>2012-11-04T08:59:06Z</time>
      </trkpt>
      <trkpt lat="47.26921" lon="-0.13216">
        <ele>54.8</ele>
        <time>2012-11-04T08:59:07Z</time>
      </trkpt>
      <trkpt lat="47.26917" lon="-0.13217">
        <ele>55</ele>
        <time>2012-11-04T08:59:11Z</time>
      </trkpt>
      <trkpt lat="47.26916" lon="-0.13219">
        <ele>55</ele>
        <time>2012-11-04T08:59:12Z</time>
      </trkpt>
      <trkpt lat="47.26914" lon="-0.1323">
        <ele>55.1</ele>
        <time>2012-11-04T08:59:16Z</time>
      </trkpt>
      <trkpt lat="47.2691" lon="-0.13239">
        <ele>55.2</ele>
        <time>2012-11-04T08:59:20Z</time>
      </trkpt>
      <trkpt lat="47.26919" lon="-0.13254">
        <ele>54.9</ele>
        <time>2012-11-04T08:59:26Z</time>
      </trkpt>
      <trkpt lat="47.26928" lon="-0.13275">
        <ele>54.6</ele>
        <time>2012-11-04T08:59:33Z</time>
      </trkpt>
      <trkpt lat="47.26928" lon="-0.13277">
        <ele>54.6</ele>
        <time>2012-11-04T08:59:34Z</time>
      </trkpt>
      <trkpt lat="47.26933" lon="-0.13293">
        <ele>54.4</ele>
        <time>2012-11-04T08:59:41Z</time>
      </trkpt>
      <trkpt lat="47.26935" lon="-0.13297">
        <ele>54.3</ele>
        <time>2012-11-04T08:59:44Z</time>
      </trkpt>
      <trkpt lat="47.26934" lon="-0.13306">
        <ele>54.4</ele>
        <time>2012-11-04T08:59:47Z</time>
      </trkpt>
      <trkpt lat="47.26934" lon="-0.13319">
        <ele>54.6</ele>
        <time>2012-11-04T08:59:53Z</time>
      </trkpt>
      <trkpt lat="47.26927" lon="-0.13328">
        <ele>55.1</ele>
        <time>2012-11-04T08:59:58Z</time>
      </trkpt>
      <trkpt lat="47.2691" lon="-0.13346">
        <ele>56.3</ele>
        <time>2012-11-04T09:00:05Z</time>
      </trkpt>
      <trkpt lat="47.26898" lon="-0.13362">
        <ele>57.3</ele>
        <time>2012-11-04T09:00:12Z</time>
      </trkpt>
      <trkpt lat="47.26888" lon="-0.1337">
        <ele>58.1</ele>
        <time>2012-11-04T09:00:18Z</time>
      </trkpt>
      <trkpt lat="47.26886" lon="-0.13381">
        <ele>58.3</ele>
        <time>2012-11-04T09:00:24Z</time>
      </trkpt>
      <trkpt lat="47.26884" lon="-0.13395">
        <ele>58.5</ele>
        <time>2012-11-04T09:00:29Z</time>
      </trkpt>
      <trkpt lat="47.26883" lon="-0.13396">
        <ele>58.6</ele>
        <time>2012-11-04T09:00:30Z</time>
      </trkpt>
      <trkpt lat="47.26878" lon="-0.13401">
        <ele>59.2</ele>
        <time>2012-11-04T09:00:36Z</time>
      </trkpt>
      <trkpt lat="47.26876" lon="-0.13405">
        <ele>59.4</ele>
        <time>2012-11-04T09:00:40Z</time>
      </trkpt>
      <trkpt lat="47.26868" lon="-0.13412">
        <ele>60.3</ele>
        <time>2012-11-04T09:00:45Z</time>
      </trkpt>
      <trkpt lat="47.26853" lon="-0.13423">
        <ele>62</ele>
        <time>2012-11-04T09:00:53Z</time>
      </trkpt>
      <trkpt lat="47.26838" lon="-0.13427">
        <ele>63.6</ele>
        <time>2012-11-04T09:01:01Z</time>
      </trkpt>
      <trkpt lat="47.26834" lon="-0.13427">
        <ele>63.9</ele>
        <time>2012-11-04T09:01:07Z</time>
      </trkpt>
      <trkpt lat="47.26826" lon="-0.13429">
        <ele>64.5</ele>
        <time>2012-11-04T09:01:14Z</time>
      </trkpt>
      <trkpt lat="47.26823" lon="-0.13429">
        <ele>64.7</ele>
        <time>2012-11-04T09:01:23Z</time>
      </trkpt>
      <trkpt lat="47.26816" lon="-0.13429">
        <ele>65.2</ele>
        <time>2012-11-04T09:01:27Z</time>
      </trkpt>
      <trkpt lat="47.26812" lon="-0.13429">
        <ele>65.5</ele>
        <time>2012-11-04T09:01:29Z</time>
      </trkpt>
      <trkpt lat="47.268" lon="-0.13433">
        <ele>66.4</ele>
        <time>2012-11-04T09:01:35Z</time>
      </trkpt>
      <trkpt lat="47.26786" lon="-0.13436">
        <ele>67.4</ele>
        <time>2012-11-04T09:01:41Z</time>
      </trkpt>
      <trkpt lat="47.26774" lon="-0.13435">
        <ele>68.1</ele>
        <time>2012-11-04T09:01:47Z</time>
      </trkpt>
      <trkpt lat="47.2677" lon="-0.13433">
        <ele>68.3</ele>
        <time>2012-11-04T09:01:49Z</time>
      </trkpt>
      <trkpt lat="47.26761" lon="-0.13427">
        <ele>68.6</ele>
        <time>2012-11-04T09:01:55Z</time>
      </trkpt>
      <trkpt lat="47.26754" lon="-0.13425">
        <ele>68.9</ele>
        <time>2012-11-04T09:01:58Z</time>
      </trkpt>
      <trkpt lat="47.26748" lon="-0.13437">
        <ele>69.1</ele>
        <time>2012-11-04T09:02:04Z</time>
      </trkpt>
      <trkpt lat="47.26749" lon="-0.13444">
        <ele>69</ele>
        <time>2012-11-04T09:02:06Z</time>
      </trkpt>
      <trkpt lat="47.26756" lon="-0.13471">
        <ele>68.8</ele>
        <time>2012-11-04T09:02:13Z</time>
      </trkpt>
      <trkpt lat="47.26763" lon="-0.13494">
        <ele>68.5</ele>
        <time>2012-11-04T09:02:18Z</time>
      </trkpt>
      <trkpt lat="47.26768" lon="-0.13514">
        <ele>68.4</ele>
        <time>2012-11-04T09:02:22Z</time>
      </trkpt>
      <trkpt lat="47.26771" lon="-0.13519">
        <ele>68.2</ele>
        <time>2012-11-04T09:02:23Z</time>
      </trkpt>
      <trkpt lat="47.26773" lon="-0.13522">
        <ele>68.2</ele>
        <time>2012-11-04T09:02:24Z</time>
      </trkpt>
      <trkpt lat="47.26776" lon="-0.13523">
        <ele>68.1</ele>
        <time>2012-11-04T09:02:25Z</time>
      </trkpt>
      <trkpt lat="47.26779" lon="-0.13524">
        <ele>67.9</ele>
        <time>2012-11-04T09:02:26Z</time>
      </trkpt>
      <trkpt lat="47.26781" lon="-0.13525">
        <ele>67.8</ele>
        <time>2012-11-04T09:02:27Z</time>
      </trkpt>
      <trkpt lat="47.26783" lon="-0.13525">
        <ele>67.6</ele>
        <time>2012-11-04T09:02:28Z</time>
      </trkpt>
      <trkpt lat="47.26785" lon="-0.13526">
        <ele>67.5</ele>
        <time>2012-11-04T09:02:29Z</time>
      </trkpt>
      <trkpt lat="47.26786" lon="-0.13527">
        <ele>67.4</ele>
        <time>2012-11-04T09:02:30Z</time>
      </trkpt>
      <trkpt lat="47.26787" lon="-0.13528">
        <ele>67.3</ele>
        <time>2012-11-04T09:02:31Z</time>
      </trkpt>
      <trkpt lat="47.26789" lon="-0.13529">
        <ele>67.2</ele>
        <time>2012-11-04T09:02:32Z</time>
      </trkpt>
      <trkpt lat="47.26792" lon="-0.1353">
        <ele>67</ele>
        <time>2012-11-04T09:02:33Z</time>
      </trkpt>
      <trkpt lat="47.26795" lon="-0.13532">
        <ele>66.8</ele>
        <time>2012-11-04T09:02:34Z</time>
      </trkpt>
      <trkpt lat="47.26798" lon="-0.13533">
        <ele>66.5</ele>
        <time>2012-11-04T09:02:35Z</time>
      </trkpt>
      <trkpt lat="47.26803" lon="-0.13535">
        <ele>66.2</ele>
        <time>2012-11-04T09:02:36Z</time>
      </trkpt>
      <trkpt lat="47.26809" lon="-0.13539">
        <ele>65.8</ele>
        <time>2012-11-04T09:02:37Z</time>
      </trkpt>
      <trkpt lat="47.26815" lon="-0.13543">
        <ele>65.3</ele>
        <time>2012-11-04T09:02:38Z</time>
      </trkpt>
      <trkpt lat="47.26841" lon="-0.13571">
        <ele>64.1</ele>
        <time>2012-11-04T09:02:43Z</time>
      </trkpt>
      <trkpt lat="47.26845" lon="-0.13574">
        <ele>64</ele>
        <time>2012-11-04T09:02:44Z</time>
      </trkpt>
      <trkpt lat="47.26848" lon="-0.13578">
        <ele>63.9</ele>
        <time>2012-11-04T09:02:45Z</time>
      </trkpt>
      <trkpt lat="47.2685" lon="-0.13583">
        <ele>63.8</ele>
        <time>2012-11-04T09:02:46Z</time>
      </trkpt>
      <trkpt lat="47.26853" lon="-0.13587">
        <ele>63.7</ele>
        <time>2012-11-04T09:02:47Z</time>
      </trkpt>
      <trkpt lat="47.26857" lon="-0.13591">
        <ele>63.5</ele>
        <time>2012-11-04T09:02:48Z</time>
      </trkpt>
      <trkpt lat="47.2686" lon="-0.13594">
        <ele>63.4</ele>
        <time>2012-11-04T09:02:49Z</time>
      </trkpt>
      <trkpt lat="47.26864" lon="-0.13598">
        <ele>63.3</ele>
        <time>2012-11-04T09:02:50Z</time>
      </trkpt>
      <trkpt lat="47.26868" lon="-0.13602">
        <ele>63.2</ele>
        <time>2012-11-04T09:02:51Z</time>
      </trkpt>
      <trkpt lat="47.2687" lon="-0.13606">
        <ele>63.2</ele>
        <time>2012-11-04T09:02:52Z</time>
      </trkpt>
      <trkpt lat="47.26872" lon="-0.1361">
        <ele>63.2</ele>
        <time>2012-11-04T09:02:53Z</time>
      </trkpt>
      <trkpt lat="47.26874" lon="-0.13614">
        <ele>63.2</ele>
        <time>2012-11-04T09:02:54Z</time>
      </trkpt>
      <trkpt lat="47.26876" lon="-0.13617">
        <ele>63.1</ele>
        <time>2012-11-04T09:02:55Z</time>
      </trkpt>
      <trkpt lat="47.26877" lon="-0.13619">
        <ele>63.1</ele>
        <time>2012-11-04T09:02:56Z</time>
      </trkpt>
      <trkpt lat="47.26879" lon="-0.13621">
        <ele>63.1</ele>
        <time>2012-11-04T09:02:57Z</time>
      </trkpt>
      <trkpt lat="47.2688" lon="-0.13622">
        <ele>63</ele>
        <time>2012-11-04T09:02:58Z</time>
      </trkpt>
      <trkpt lat="47.26881" lon="-0.13623">
        <ele>63</ele>
        <time>2012-11-04T09:02:59Z</time>
      </trkpt>
      <trkpt lat="47.26886" lon="-0.13628">
        <ele>62.8</ele>
        <time>2012-11-04T09:03:03Z</time>
      </trkpt>
      <trkpt lat="47.2689" lon="-0.13632">
        <ele>62.7</ele>
        <time>2012-11-04T09:03:05Z</time>
      </trkpt>
      <trkpt lat="47.269" lon="-0.13639">
        <ele>62.2</ele>
        <time>2012-11-04T09:03:09Z</time>
      </trkpt>
      <trkpt lat="47.26911" lon="-0.13645">
        <ele>61.6</ele>
        <time>2012-11-04T09:03:14Z</time>
      </trkpt>
      <trkpt lat="47.2693" lon="-0.13665">
        <ele>61</ele>
        <time>2012-11-04T09:03:20Z</time>
      </trkpt>
      <trkpt lat="47.26942" lon="-0.13677">
        <ele>60.5</ele>
        <time>2012-11-04T09:03:24Z</time>
      </trkpt>
      <trkpt lat="47.26949" lon="-0.1369">
        <ele>60.5</ele>
        <time>2012-11-04T09:03:29Z</time>
      </trkpt>
      <trkpt lat="47.26964" lon="-0.13712">
        <ele>59.6</ele>
        <time>2012-11-04T09:03:36Z</time>
      </trkpt>
      <trkpt lat="47.26969" lon="-0.13727">
        <ele>59.4</ele>
        <time>2012-11-04T09:03:40Z</time>
      </trkpt>
      <trkpt lat="47.26973" lon="-0.13736">
        <ele>59.5</ele>
        <time>2012-11-04T09:03:42Z</time>
      </trkpt>
      <trkpt lat="47.26974" lon="-0.1374">
        <ele>59.5</ele>
        <time>2012-11-04T09:03:43Z</time>
      </trkpt>
      <trkpt lat="47.26976" lon="-0.13762">
        <ele>59.8</ele>
        <time>2012-11-04T09:03:48Z</time>
      </trkpt>
      <trkpt lat="47.26979" lon="-0.13785">
        <ele>60</ele>
        <time>2012-11-04T09:03:52Z</time>
      </trkpt>
      <trkpt lat="47.2699" lon="-0.13828">
        <ele>60.2</ele>
        <time>2012-11-04T09:04:00Z</time>
      </trkpt>
      <trkpt lat="47.26993" lon="-0.13856">
        <ele>60.5</ele>
        <time>2012-11-04T09:04:05Z</time>
      </trkpt>
      <trkpt lat="47.26995" lon="-0.13892">
        <ele>60.5</ele>
        <time>2012-11-04T09:04:12Z</time>
      </trkpt>
      <trkpt lat="47.26993" lon="-0.13914">
        <ele>61.2</ele>
        <time>2012-11-04T09:04:16Z</time>
      </trkpt>
      <trkpt lat="47.26995" lon="-0.13925">
        <ele>61.2</ele>
        <time>2012-11-04T09:04:18Z</time>
      </trkpt>
      <trkpt lat="47.26993" lon="-0.13956">
        <ele>61.8</ele>
        <time>2012-11-04T09:04:23Z</time>
      </trkpt>
      <trkpt lat="47.26994" lon="-0.13989">
        <ele>62.2</ele>
        <time>2012-11-04T09:04:29Z</time>
      </trkpt>
      <trkpt lat="47.26994" lon="-0.13999">
        <ele>62.2</ele>
        <time>2012-11-04T09:04:31Z</time>
      </trkpt>
      <trkpt lat="47.26991" lon="-0.14031">
        <ele>63.4</ele>
        <time>2012-11-04T09:04:36Z</time>
      </trkpt>
      <trkpt lat="47.2699" lon="-0.14071">
        <ele>64.2</ele>
        <time>2012-11-04T09:04:42Z</time>
      </trkpt>
      <trkpt lat="47.26991" lon="-0.14078">
        <ele>64.3</ele>
        <time>2012-11-04T09:04:43Z</time>
      </trkpt>
      <trkpt lat="47.26987" lon="-0.14119">
        <ele>65.1</ele>
        <time>2012-11-04T09:04:49Z</time>
      </trkpt>
      <trkpt lat="47.26984" lon="-0.1415">
        <ele>65.7</ele>
        <time>2012-11-04T09:04:54Z</time>
      </trkpt>
      <trkpt lat="47.26983" lon="-0.14188">
        <ele>66.8</ele>
        <time>2012-11-04T09:05:00Z</time>
      </trkpt>
      <trkpt lat="47.26981" lon="-0.14211">
        <ele>67.2</ele>
        <time>2012-11-04T09:05:05Z</time>
      </trkpt>
      <trkpt lat="47.26977" lon="-0.14255">
        <ele>68</ele>
        <time>2012-11-04T09:05:13Z</time>
      </trkpt>
      <trkpt lat="47.26969" lon="-0.14287">
        <ele>68</ele>
        <time>2012-11-04T09:05:19Z</time>
      </trkpt>
      <trkpt lat="47.26962" lon="-0.14307">
        <ele>68</ele>
        <time>2012-11-04T09:05:23Z</time>
      </trkpt>
      <trkpt lat="47.26961" lon="-0.14313">
        <ele>68</ele>
        <time>2012-11-04T09:05:24Z</time>
      </trkpt>
      <trkpt lat="47.2696" lon="-0.14319">
        <ele>68</ele>
        <time>2012-11-04T09:05:25Z</time>
      </trkpt>
      <trkpt lat="47.26957" lon="-0.14324">
        <ele>68</ele>
        <time>2012-11-04T09:05:26Z</time>
      </trkpt>
      <trkpt lat="47.26956" lon="-0.14329">
        <ele>68</ele>
        <time>2012-11-04T09:05:27Z</time>
      </trkpt>
      <trkpt lat="47.26954" lon="-0.14333">
        <ele>68</ele>
        <time>2012-11-04T09:05:28Z</time>
      </trkpt>
      <trkpt lat="47.26952" lon="-0.14337">
        <ele>68</ele>
        <time>2012-11-04T09:05:29Z</time>
      </trkpt>
      <trkpt lat="47.26949" lon="-0.14341">
        <ele>68</ele>
        <time>2012-11-04T09:05:30Z</time>
      </trkpt>
      <trkpt lat="47.26935" lon="-0.14368">
        <ele>68.3</ele>
        <time>2012-11-04T09:05:36Z</time>
      </trkpt>
      <trkpt lat="47.2692" lon="-0.14391">
        <ele>68.9</ele>
        <time>2012-11-04T09:05:42Z</time>
      </trkpt>
      <trkpt lat="47.26917" lon="-0.14396">
        <ele>69</ele>
        <time>2012-11-04T09:05:43Z</time>
      </trkpt>
      <trkpt lat="47.26914" lon="-0.144">
        <ele>69.1</ele>
        <time>2012-11-04T09:05:44Z</time>
      </trkpt>
      <trkpt lat="47.26912" lon="-0.14405">
        <ele>69.2</ele>
        <time>2012-11-04T09:05:45Z</time>
      </trkpt>
      <trkpt lat="47.26909" lon="-0.14409">
        <ele>69.3</ele>
        <time>2012-11-04T09:05:46Z</time>
      </trkpt>
      <trkpt lat="47.26906" lon="-0.14413">
        <ele>69.4</ele>
        <time>2012-11-04T09:05:47Z</time>
      </trkpt>
      <trkpt lat="47.26904" lon="-0.14417">
        <ele>69.5</ele>
        <time>2012-11-04T09:05:48Z</time>
      </trkpt>
      <trkpt lat="47.26904" lon="-0.14419">
        <ele>69.4</ele>
        <time>2012-11-04T09:05:49Z</time>
      </trkpt>
      <trkpt lat="47.26901" lon="-0.14422">
        <ele>69.5</ele>
        <time>2012-11-04T09:05:50Z</time>
      </trkpt>
      <trkpt lat="47.26899" lon="-0.14427">
        <ele>69.4</ele>
        <time>2012-11-04T09:05:51Z</time>
      </trkpt>
      <trkpt lat="47.26889" lon="-0.1445">
        <ele>69</ele>
        <time>2012-11-04T09:05:55Z</time>
      </trkpt>
      <trkpt lat="47.26888" lon="-0.14456">
        <ele>69.1</ele>
        <time>2012-11-04T09:05:56Z</time>
      </trkpt>
      <trkpt lat="47.26882" lon="-0.14482">
        <ele>69.2</ele>
        <time>2012-11-04T09:06:00Z</time>
      </trkpt>
      <trkpt lat="47.26878" lon="-0.14488">
        <ele>69.4</ele>
        <time>2012-11-04T09:06:01Z</time>
      </trkpt>
      <trkpt lat="47.26875" lon="-0.14492">
        <ele>69.5</ele>
        <time>2012-11-04T09:06:02Z</time>
      </trkpt>
      <trkpt lat="47.26871" lon="-0.14496">
        <ele>69.6</ele>
        <time>2012-11-04T09:06:03Z</time>
      </trkpt>
      <trkpt lat="47.26868" lon="-0.14499">
        <ele>69.8</ele>
        <time>2012-11-04T09:06:04Z</time>
      </trkpt>
      <trkpt lat="47.26857" lon="-0.14527">
        <ele>70.1</ele>
        <time>2012-11-04T09:06:09Z</time>
      </trkpt>
      <trkpt lat="47.26856" lon="-0.14532">
        <ele>70.2</ele>
        <time>2012-11-04T09:06:10Z</time>
      </trkpt>
      <trkpt lat="47.26857" lon="-0.14536">
        <ele>70.1</ele>
        <time>2012-11-04T09:06:11Z</time>
      </trkpt>
      <trkpt lat="47.26858" lon="-0.1454">
        <ele>70.1</ele>
        <time>2012-11-04T09:06:12Z</time>
      </trkpt>
      <trkpt lat="47.2686" lon="-0.14546">
        <ele>70</ele>
        <time>2012-11-04T09:06:13Z</time>
      </trkpt>
      <trkpt lat="47.26862" lon="-0.1455">
        <ele>70</ele>
        <time>2012-11-04T09:06:14Z</time>
      </trkpt>
      <trkpt lat="47.26865" lon="-0.14553">
        <ele>69.9</ele>
        <time>2012-11-04T09:06:15Z</time>
      </trkpt>
      <trkpt lat="47.26868" lon="-0.14557">
        <ele>69.8</ele>
        <time>2012-11-04T09:06:16Z</time>
      </trkpt>
      <trkpt lat="47.26888" lon="-0.1459">
        <ele>69</ele>
        <time>2012-11-04T09:06:23Z</time>
      </trkpt>
      <trkpt lat="47.26893" lon="-0.146">
        <ele>69</ele>
        <time>2012-11-04T09:06:26Z</time>
      </trkpt>
      <trkpt lat="47.26893" lon="-0.14602">
        <ele>69</ele>
        <time>2012-11-04T09:06:27Z</time>
      </trkpt>
      <trkpt lat="47.2689" lon="-0.1461">
        <ele>69</ele>
        <time>2012-11-04T09:06:29Z</time>
      </trkpt>
      <trkpt lat="47.26889" lon="-0.14612">
        <ele>69</ele>
        <time>2012-11-04T09:06:30Z</time>
      </trkpt>
      <trkpt lat="47.26887" lon="-0.14613">
        <ele>69.1</ele>
        <time>2012-11-04T09:06:31Z</time>
      </trkpt>
      <trkpt lat="47.26883" lon="-0.14615">
        <ele>69.3</ele>
        <time>2012-11-04T09:06:34Z</time>
      </trkpt>
      <trkpt lat="47.26879" lon="-0.14616">
        <ele>69.5</ele>
        <time>2012-11-04T09:06:37Z</time>
      </trkpt>
      <trkpt lat="47.26877" lon="-0.14616">
        <ele>69.5</ele>
        <time>2012-11-04T09:06:38Z</time>
      </trkpt>
      <trkpt lat="47.26875" lon="-0.14617">
        <ele>69.6</ele>
        <time>2012-11-04T09:06:39Z</time>
      </trkpt>
      <trkpt lat="47.26873" lon="-0.14617">
        <ele>69.7</ele>
        <time>2012-11-04T09:06:40Z</time>
      </trkpt>
      <trkpt lat="47.26871" lon="-0.14617">
        <ele>69.7</ele>
        <time>2012-11-04T09:06:41Z</time>
      </trkpt>
      <trkpt lat="47.26869" lon="-0.14616">
        <ele>69.8</ele>
        <time>2012-11-04T09:06:42Z</time>
      </trkpt>
      <trkpt lat="47.26859" lon="-0.14619">
        <ele>70.1</ele>
        <time>2012-11-04T09:06:46Z</time>
      </trkpt>
      <trkpt lat="47.26845" lon="-0.1463">
        <ele>70.6</ele>
        <time>2012-11-04T09:06:52Z</time>
      </trkpt>
      <trkpt lat="47.26828" lon="-0.14642">
        <ele>71.4</ele>
        <time>2012-11-04T09:06:58Z</time>
      </trkpt>
      <trkpt lat="47.26816" lon="-0.14649">
        <ele>72.2</ele>
        <time>2012-11-04T09:07:03Z</time>
      </trkpt>
      <trkpt lat="47.26805" lon="-0.1466">
        <ele>73</ele>
        <time>2012-11-04T09:07:08Z</time>
      </trkpt>
      <trkpt lat="47.268" lon="-0.14668">
        <ele>73.4</ele>
        <time>2012-11-04T09:07:11Z</time>
      </trkpt>
      <trkpt lat="47.26799" lon="-0.14675">
        <ele>73.5</ele>
        <time>2012-11-04T09:07:13Z</time>
      </trkpt>
      <trkpt lat="47.26799" lon="-0.14678">
        <ele>73.5</ele>
        <time>2012-11-04T09:07:14Z</time>
      </trkpt>
      <trkpt lat="47.26799" lon="-0.14682">
        <ele>73.5</ele>
        <time>2012-11-04T09:07:15Z</time>
      </trkpt>
      <trkpt lat="47.26799" lon="-0.14685">
        <ele>73.5</ele>
        <time>2012-11-04T09:07:16Z</time>
      </trkpt>
      <trkpt lat="47.26799" lon="-0.14689">
        <ele>73.5</ele>
        <time>2012-11-04T09:07:17Z</time>
      </trkpt>
      <trkpt lat="47.26798" lon="-0.14704">
        <ele>73.9</ele>
        <time>2012-11-04T09:07:22Z</time>
      </trkpt>
      <trkpt lat="47.26795" lon="-0.14725">
        <ele>74.8</ele>
        <time>2012-11-04T09:07:29Z</time>
      </trkpt>
      <trkpt lat="47.26799" lon="-0.14738">
        <ele>74.5</ele>
        <time>2012-11-04T09:07:34Z</time>
      </trkpt>
      <trkpt lat="47.26799" lon="-0.14767">
        <ele>75.1</ele>
        <time>2012-11-04T09:07:41Z</time>
      </trkpt>
      <trkpt lat="47.26801" lon="-0.14782">
        <ele>75.5</ele>
        <time>2012-11-04T09:07:45Z</time>
      </trkpt>
      <trkpt lat="47.26802" lon="-0.148">
        <ele>76.1</ele>
        <time>2012-11-04T09:07:49Z</time>
      </trkpt>
      <trkpt lat="47.26808" lon="-0.14819">
        <ele>75.8</ele>
        <time>2012-11-04T09:07:53Z</time>
      </trkpt>
      <trkpt lat="47.26812" lon="-0.14836">
        <ele>75.6</ele>
        <time>2012-11-04T09:07:57Z</time>
      </trkpt>
      <trkpt lat="47.26812" lon="-0.14843">
        <ele>75.9</ele>
        <time>2012-11-04T09:07:59Z</time>
      </trkpt>
      <trkpt lat="47.26816" lon="-0.14854">
        <ele>76</ele>
        <time>2012-11-04T09:08:04Z</time>
      </trkpt>
      <trkpt lat="47.26817" lon="-0.14856">
        <ele>76</ele>
        <time>2012-11-04T09:08:05Z</time>
      </trkpt>
      <trkpt lat="47.26824" lon="-0.14871">
        <ele>75.8</ele>
        <time>2012-11-04T09:08:10Z</time>
      </trkpt>
      <trkpt lat="47.26831" lon="-0.14891">
        <ele>75.3</ele>
        <time>2012-11-04T09:08:16Z</time>
      </trkpt>
      <trkpt lat="47.26834" lon="-0.14897">
        <ele>75.3</ele>
        <time>2012-11-04T09:08:18Z</time>
      </trkpt>
      <trkpt lat="47.26835" lon="-0.14903">
        <ele>75.4</ele>
        <time>2012-11-04T09:08:20Z</time>
      </trkpt>
      <trkpt lat="47.2684" lon="-0.1493">
        <ele>75.5</ele>
        <time>2012-11-04T09:08:26Z</time>
      </trkpt>
      <trkpt lat="47.26836" lon="-0.14963">
        <ele>75.8</ele>
        <time>2012-11-04T09:08:34Z</time>
      </trkpt>
      <trkpt lat="47.26835" lon="-0.14967">
        <ele>75.9</ele>
        <time>2012-11-04T09:08:35Z</time>
      </trkpt>
      <trkpt lat="47.2683" lon="-0.14995">
        <ele>76.2</ele>
        <time>2012-11-04T09:08:42Z</time>
      </trkpt>
      <trkpt lat="47.2683" lon="-0.15018">
        <ele>76.2</ele>
        <time>2012-11-04T09:08:47Z</time>
      </trkpt>
      <trkpt lat="47.26829" lon="-0.15042">
        <ele>76.3</ele>
        <time>2012-11-04T09:08:52Z</time>
      </trkpt>
      <trkpt lat="47.26824" lon="-0.15052">
        <ele>76.7</ele>
        <time>2012-11-04T09:08:56Z</time>
      </trkpt>
      <trkpt lat="47.2682" lon="-0.15066">
        <ele>77</ele>
        <time>2012-11-04T09:09:01Z</time>
      </trkpt>
      <trkpt lat="47.26815" lon="-0.15074">
        <ele>77.3</ele>
        <time>2012-11-04T09:09:07Z</time>
      </trkpt>
      <trkpt lat="47.26814" lon="-0.15074">
        <ele>77.4</ele>
        <time>2012-11-04T09:09:08Z</time>
      </trkpt>
      <trkpt lat="47.26806" lon="-0.15078">
        <ele>78</ele>
        <time>2012-11-04T09:09:12Z</time>
      </trkpt>
      <trkpt lat="47.26787" lon="-0.15095">
        <ele>79.3</ele>
        <time>2012-11-04T09:09:19Z</time>
      </trkpt>
      <trkpt lat="47.2677" lon="-0.15096">
        <ele>80.3</ele>
        <time>2012-11-04T09:09:25Z</time>
      </trkpt>
      <trkpt lat="47.26758" lon="-0.15099">
        <ele>80.7</ele>
        <time>2012-11-04T09:09:29Z</time>
      </trkpt>
      <trkpt lat="47.26748" lon="-0.15125">
        <ele>81.1</ele>
        <time>2012-11-04T09:09:37Z</time>
      </trkpt>
      <trkpt lat="47.26744" lon="-0.15146">
        <ele>81.4</ele>
        <time>2012-11-04T09:09:42Z</time>
      </trkpt>
      <trkpt lat="47.26743" lon="-0.15151">
        <ele>81.5</ele>
        <time>2012-11-04T09:09:44Z</time>
      </trkpt>
      <trkpt lat="47.26745" lon="-0.15154">
        <ele>81.4</ele>
        <time>2012-11-04T09:09:46Z</time>
      </trkpt>
      <trkpt lat="47.26748" lon="-0.15159">
        <ele>81.1</ele>
        <time>2012-11-04T09:09:49Z</time>
      </trkpt>
      <trkpt lat="47.26752" lon="-0.15181">
        <ele>81.4</ele>
        <time>2012-11-04T09:09:54Z</time>
      </trkpt>
      <trkpt lat="47.26755" lon="-0.15189">
        <ele>81.5</ele>
        <time>2012-11-04T09:09:56Z</time>
      </trkpt>
      <trkpt lat="47.26763" lon="-0.15198">
        <ele>81.1</ele>
        <time>2012-11-04T09:10:01Z</time>
      </trkpt>
      <trkpt lat="47.26773" lon="-0.15216">
        <ele>80.3</ele>
        <time>2012-11-04T09:10:06Z</time>
      </trkpt>
      <trkpt lat="47.26782" lon="-0.15239">
        <ele>80.4</ele>
        <time>2012-11-04T09:10:11Z</time>
      </trkpt>
      <trkpt lat="47.26787" lon="-0.1525">
        <ele>80.3</ele>
        <time>2012-11-04T09:10:14Z</time>
      </trkpt>
      <trkpt lat="47.268" lon="-0.15277">
        <ele>80.2</ele>
        <time>2012-11-04T09:10:22Z</time>
      </trkpt>
      <trkpt lat="47.26802" lon="-0.1528">
        <ele>80.1</ele>
        <time>2012-11-04T09:10:24Z</time>
      </trkpt>
      <trkpt lat="47.26797" lon="-0.15291">
        <ele>80.5</ele>
        <time>2012-11-04T09:10:28Z</time>
      </trkpt>
      <trkpt lat="47.26792" lon="-0.15307">
        <ele>81</ele>
        <time>2012-11-04T09:10:34Z</time>
      </trkpt>
      <trkpt lat="47.26792" lon="-0.15309">
        <ele>81</ele>
        <time>2012-11-04T09:10:35Z</time>
      </trkpt>
      <trkpt lat="47.26779" lon="-0.15325">
        <ele>81.9</ele>
        <time>2012-11-04T09:10:43Z</time>
      </trkpt>
      <trkpt lat="47.26769" lon="-0.15328">
        <ele>82.3</ele>
        <time>2012-11-04T09:10:48Z</time>
      </trkpt>
      <trkpt lat="47.26763" lon="-0.1533">
        <ele>82.5</ele>
        <time>2012-11-04T09:10:50Z</time>
      </trkpt>
      <trkpt lat="47.26749" lon="-0.15344">
        <ele>83</ele>
        <time>2012-11-04T09:10:56Z</time>
      </trkpt>
      <trkpt lat="47.26749" lon="-0.15346">
        <ele>83.1</ele>
        <time>2012-11-04T09:10:57Z</time>
      </trkpt>
      <trkpt lat="47.26739" lon="-0.15358">
        <ele>83.7</ele>
        <time>2012-11-04T09:11:04Z</time>
      </trkpt>
      <trkpt lat="47.26737" lon="-0.15367">
        <ele>83.9</ele>
        <time>2012-11-04T09:11:08Z</time>
      </trkpt>
      <trkpt lat="47.26718" lon="-0.15358">
        <ele>85.1</ele>
        <time>2012-11-04T09:11:14Z</time>
      </trkpt>
      <trkpt lat="47.26711" lon="-0.15346">
        <ele>85.1</ele>
        <time>2012-11-04T09:11:19Z</time>
      </trkpt>
      <trkpt lat="47.26709" lon="-0.15345">
        <ele>85.2</ele>
        <time>2012-11-04T09:11:20Z</time>
      </trkpt>
      <trkpt lat="47.26699" lon="-0.15334">
        <ele>85.7</ele>
        <time>2012-11-04T09:11:28Z</time>
      </trkpt>
      <trkpt lat="47.26698" lon="-0.15333">
        <ele>85.7</ele>
        <time>2012-11-04T09:11:29Z</time>
      </trkpt>
      <trkpt lat="47.26687" lon="-0.15331">
        <ele>86.2</ele>
        <time>2012-11-04T09:11:35Z</time>
      </trkpt>
      <trkpt lat="47.26684" lon="-0.15342">
        <ele>86.4</ele>
        <time>2012-11-04T09:11:41Z</time>
      </trkpt>
      <trkpt lat="47.26664" lon="-0.15346">
        <ele>87</ele>
        <time>2012-11-04T09:11:50Z</time>
      </trkpt>
      <trkpt lat="47.2666" lon="-0.15356">
        <ele>87</ele>
        <time>2012-11-04T09:11:56Z</time>
      </trkpt>
      <trkpt lat="47.26661" lon="-0.15359">
        <ele>87</ele>
        <time>2012-11-04T09:11:57Z</time>
      </trkpt>
      <trkpt lat="47.26661" lon="-0.15367">
        <ele>87</ele>
        <time>2012-11-04T09:11:59Z</time>
      </trkpt>
      <trkpt lat="47.26659" lon="-0.15397">
        <ele>87</ele>
        <time>2012-11-04T09:12:07Z</time>
      </trkpt>
      <trkpt lat="47.2666" lon="-0.15427">
        <ele>87</ele>
        <time>2012-11-04T09:12:13Z</time>
      </trkpt>
      <trkpt lat="47.26661" lon="-0.15431">
        <ele>87</ele>
        <time>2012-11-04T09:12:14Z</time>
      </trkpt>
      <trkpt lat="47.26663" lon="-0.15469">
        <ele>87</ele>
        <time>2012-11-04T09:12:22Z</time>
      </trkpt>
      <trkpt lat="47.26663" lon="-0.15487">
        <ele>87</ele>
        <time>2012-11-04T09:12:26Z</time>
      </trkpt>
      <trkpt lat="47.26668" lon="-0.1552">
        <ele>87</ele>
        <time>2012-11-04T09:12:33Z</time>
      </trkpt>
      <trkpt lat="47.26669" lon="-0.15556">
        <ele>87</ele>
        <time>2012-11-04T09:12:40Z</time>
      </trkpt>
      <trkpt lat="47.26674" lon="-0.15584">
        <ele>87</ele>
        <time>2012-11-04T09:12:45Z</time>
      </trkpt>
      <trkpt lat="47.26684" lon="-0.15609">
        <ele>87</ele>
        <time>2012-11-04T09:12:50Z</time>
      </trkpt>
      <trkpt lat="47.26693" lon="-0.15643">
        <ele>87</ele>
        <time>2012-11-04T09:12:57Z</time>
      </trkpt>
      <trkpt lat="47.26695" lon="-0.1566">
        <ele>87</ele>
        <time>2012-11-04T09:13:01Z</time>
      </trkpt>
      <trkpt lat="47.267" lon="-0.1568">
        <ele>86.8</ele>
        <time>2012-11-04T09:13:06Z</time>
      </trkpt>
      <trkpt lat="47.26699" lon="-0.15704">
        <ele>86.8</ele>
        <time>2012-11-04T09:13:11Z</time>
      </trkpt>
      <trkpt lat="47.26701" lon="-0.15722">
        <ele>86.8</ele>
        <time>2012-11-04T09:13:15Z</time>
      </trkpt>
      <trkpt lat="47.26701" lon="-0.15731">
        <ele>86.5</ele>
        <time>2012-11-04T09:13:17Z</time>
      </trkpt>
      <trkpt lat="47.26697" lon="-0.15776">
        <ele>86</ele>
        <time>2012-11-04T09:13:25Z</time>
      </trkpt>
      <trkpt lat="47.26694" lon="-0.15802">
        <ele>86</ele>
        <time>2012-11-04T09:13:30Z</time>
      </trkpt>
      <trkpt lat="47.26702" lon="-0.15829">
        <ele>86</ele>
        <time>2012-11-04T09:13:36Z</time>
      </trkpt>
      <trkpt lat="47.26704" lon="-0.15857">
        <ele>86</ele>
        <time>2012-11-04T09:13:41Z</time>
      </trkpt>
      <trkpt lat="47.26707" lon="-0.15894">
        <ele>86</ele>
        <time>2012-11-04T09:13:47Z</time>
      </trkpt>
      <trkpt lat="47.26704" lon="-0.15951">
        <ele>86</ele>
        <time>2012-11-04T09:13:55Z</time>
      </trkpt>
      <trkpt lat="47.26703" lon="-0.15958">
        <ele>86</ele>
        <time>2012-11-04T09:13:56Z</time>
      </trkpt>
      <trkpt lat="47.26701" lon="-0.15965">
        <ele>86</ele>
        <time>2012-11-04T09:13:57Z</time>
      </trkpt>
      <trkpt lat="47.26698" lon="-0.15971">
        <ele>86</ele>
        <time>2012-11-04T09:13:58Z</time>
      </trkpt>
      <trkpt lat="47.26696" lon="-0.15976">
        <ele>85.9</ele>
        <time>2012-11-04T09:13:59Z</time>
      </trkpt>
      <trkpt lat="47.26693" lon="-0.15981">
        <ele>85.6</ele>
        <time>2012-11-04T09:14:00Z</time>
      </trkpt>
      <trkpt lat="47.26686" lon="-0.1599">
        <ele>85.1</ele>
        <time>2012-11-04T09:14:02Z</time>
      </trkpt>
      <trkpt lat="47.26682" lon="-0.15994">
        <ele>84.8</ele>
        <time>2012-11-04T09:14:03Z</time>
      </trkpt>
      <trkpt lat="47.26678" lon="-0.15997">
        <ele>84.5</ele>
        <time>2012-11-04T09:14:04Z</time>
      </trkpt>
      <trkpt lat="47.26673" lon="-0.16001">
        <ele>84.2</ele>
        <time>2012-11-04T09:14:05Z</time>
      </trkpt>
      <trkpt lat="47.26669" lon="-0.16005">
        <ele>83.9</ele>
        <time>2012-11-04T09:14:06Z</time>
      </trkpt>
      <trkpt lat="47.2666" lon="-0.16012">
        <ele>83.1</ele>
        <time>2012-11-04T09:14:08Z</time>
      </trkpt>
      <trkpt lat="47.26656" lon="-0.16015">
        <ele>82.7</ele>
        <time>2012-11-04T09:14:09Z</time>
      </trkpt>
      <trkpt lat="47.26637" lon="-0.16027">
        <ele>80.8</ele>
        <time>2012-11-04T09:14:15Z</time>
      </trkpt>
      <trkpt lat="47.26631" lon="-0.16034">
        <ele>79.9</ele>
        <time>2012-11-04T09:14:17Z</time>
      </trkpt>
      <trkpt lat="47.26614" lon="-0.16063">
        <ele>77.3</ele>
        <time>2012-11-04T09:14:24Z</time>
      </trkpt>
      <trkpt lat="47.26605" lon="-0.16099">
        <ele>76.6</ele>
        <time>2012-11-04T09:14:30Z</time>
      </trkpt>
      <trkpt lat="47.26604" lon="-0.16104">
        <ele>76.5</ele>
        <time>2012-11-04T09:14:31Z</time>
      </trkpt>
      <trkpt lat="47.26602" lon="-0.16109">
        <ele>76.3</ele>
        <time>2012-11-04T09:14:32Z</time>
      </trkpt>
      <trkpt lat="47.26599" lon="-0.16114">
        <ele>76.1</ele>
        <time>2012-11-04T09:14:33Z</time>
      </trkpt>
      <trkpt lat="47.26597" lon="-0.16121">
        <ele>75.8</ele>
        <time>2012-11-04T09:14:34Z</time>
      </trkpt>
      <trkpt lat="47.26595" lon="-0.16127">
        <ele>75.6</ele>
        <time>2012-11-04T09:14:35Z</time>
      </trkpt>
      <trkpt lat="47.26592" lon="-0.16133">
        <ele>75.4</ele>
        <time>2012-11-04T09:14:36Z</time>
      </trkpt>
      <trkpt lat="47.2659" lon="-0.16139">
        <ele>75.2</ele>
        <time>2012-11-04T09:14:37Z</time>
      </trkpt>
      <trkpt lat="47.26587" lon="-0.16144">
        <ele>75</ele>
        <time>2012-11-04T09:14:38Z</time>
      </trkpt>
      <trkpt lat="47.26585" lon="-0.1615">
        <ele>74.7</ele>
        <time>2012-11-04T09:14:39Z</time>
      </trkpt>
      <trkpt lat="47.26578" lon="-0.16166">
        <ele>73.8</ele>
        <time>2012-11-04T09:14:42Z</time>
      </trkpt>
      <trkpt lat="47.2656" lon="-0.16199">
        <ele>72.3</ele>
        <time>2012-11-04T09:14:48Z</time>
      </trkpt>
      <trkpt lat="47.26544" lon="-0.16227">
        <ele>71.6</ele>
        <time>2012-11-04T09:14:53Z</time>
      </trkpt>
      <trkpt lat="47.26535" lon="-0.16238">
        <ele>71.3</ele>
        <time>2012-11-04T09:14:55Z</time>
      </trkpt>
      <trkpt lat="47.2653" lon="-0.16243">
        <ele>71.1</ele>
        <time>2012-11-04T09:14:56Z</time>
      </trkpt>
      <trkpt lat="47.26519" lon="-0.1625">
        <ele>70.7</ele>
        <time>2012-11-04T09:14:58Z</time>
      </trkpt>
      <trkpt lat="47.265" lon="-0.1626">
        <ele>70</ele>
        <time>2012-11-04T09:15:02Z</time>
      </trkpt>
      <trkpt lat="47.26483" lon="-0.16273">
        <ele>69.4</ele>
        <time>2012-11-04T09:15:06Z</time>
      </trkpt>
      <trkpt lat="47.2648" lon="-0.16277">
        <ele>69.3</ele>
        <time>2012-11-04T09:15:07Z</time>
      </trkpt>
      <trkpt lat="47.26475" lon="-0.16287">
        <ele>69.1</ele>
        <time>2012-11-04T09:15:10Z</time>
      </trkpt>
      <trkpt lat="47.26476" lon="-0.1629">
        <ele>69.1</ele>
        <time>2012-11-04T09:15:11Z</time>
      </trkpt>
      <trkpt lat="47.26477" lon="-0.16293">
        <ele>69.2</ele>
        <time>2012-11-04T09:15:12Z</time>
      </trkpt>
      <trkpt lat="47.2648" lon="-0.16303">
        <ele>69.3</ele>
        <time>2012-11-04T09:15:14Z</time>
      </trkpt>
      <trkpt lat="47.26481" lon="-0.1631">
        <ele>69.2</ele>
        <time>2012-11-04T09:15:15Z</time>
      </trkpt>
      <trkpt lat="47.26482" lon="-0.16317">
        <ele>68.9</ele>
        <time>2012-11-04T09:15:16Z</time>
      </trkpt>
      <trkpt lat="47.26497" lon="-0.16378">
        <ele>68.8</ele>
        <time>2012-11-04T09:15:24Z</time>
      </trkpt>
      <trkpt lat="47.26516" lon="-0.16448">
        <ele>68.5</ele>
        <time>2012-11-04T09:15:33Z</time>
      </trkpt>
      <trkpt lat="47.26536" lon="-0.16521">
        <ele>68.3</ele>
        <time>2012-11-04T09:15:43Z</time>
      </trkpt>
      <trkpt lat="47.26544" lon="-0.16554">
        <ele>68.6</ele>
        <time>2012-11-04T09:15:49Z</time>
      </trkpt>
      <trkpt lat="47.26546" lon="-0.16561">
        <ele>68.5</ele>
        <time>2012-11-04T09:15:54Z</time>
      </trkpt>
      <trkpt lat="47.26545" lon="-0.16562">
        <ele>68.5</ele>
        <time>2012-11-04T09:16:03Z</time>
      </trkpt>
      <trkpt lat="47.26545" lon="-0.16569">
        <ele>68.3</ele>
        <time>2012-11-04T09:16:12Z</time>
      </trkpt>
      <trkpt lat="47.26545" lon="-0.16568">
        <ele>68.3</ele>
        <time>2012-11-04T09:18:33Z</time>
      </trkpt>
      <trkpt lat="47.26544" lon="-0.16569">
        <ele>68.3</ele>
        <time>2012-11-04T09:21:35Z</time>
      </trkpt>
      <trkpt lat="47.26546" lon="-0.16561">
        <ele>68.5</ele>
        <time>2012-11-04T09:21:43Z</time>
      </trkpt>
      <trkpt lat="47.26547" lon="-0.16561">
        <ele>68.6</ele>
        <time>2012-11-04T09:22:19Z</time>
      </trkpt>
      <trkpt lat="47.26549" lon="-0.16561">
        <ele>68.6</ele>
        <time>2012-11-04T09:22:20Z</time>
      </trkpt>
      <trkpt lat="47.26551" lon="-0.1656">
        <ele>68.7</ele>
        <time>2012-11-04T09:22:21Z</time>
      </trkpt>
      <trkpt lat="47.26553" lon="-0.1656">
        <ele>68.8</ele>
        <time>2012-11-04T09:22:22Z</time>
      </trkpt>
      <trkpt lat="47.26567" lon="-0.16554">
        <ele>69</ele>
        <time>2012-11-04T09:22:27Z</time>
      </trkpt>
      <trkpt lat="47.26589" lon="-0.16542">
        <ele>69.2</ele>
        <time>2012-11-04T09:22:34Z</time>
      </trkpt>
      <trkpt lat="47.2662" lon="-0.16525">
        <ele>70.3</ele>
        <time>2012-11-04T09:22:43Z</time>
      </trkpt>
      <trkpt lat="47.26644" lon="-0.16516">
        <ele>71.2</ele>
        <time>2012-11-04T09:22:50Z</time>
      </trkpt>
      <trkpt lat="47.26656" lon="-0.16502">
        <ele>71.6</ele>
        <time>2012-11-04T09:22:55Z</time>
      </trkpt>
      <trkpt lat="47.26661" lon="-0.16484">
        <ele>72.3</ele>
        <time>2012-11-04T09:23:01Z</time>
      </trkpt>
      <trkpt lat="47.26663" lon="-0.16481">
        <ele>72.5</ele>
        <time>2012-11-04T09:23:02Z</time>
      </trkpt>
      <trkpt lat="47.26665" lon="-0.16479">
        <ele>72.7</ele>
        <time>2012-11-04T09:23:03Z</time>
      </trkpt>
      <trkpt lat="47.26667" lon="-0.16476">
        <ele>72.9</ele>
        <time>2012-11-04T09:23:04Z</time>
      </trkpt>
      <trkpt lat="47.26668" lon="-0.16474">
        <ele>73</ele>
        <time>2012-11-04T09:23:05Z</time>
      </trkpt>
      <trkpt lat="47.2667" lon="-0.16473">
        <ele>73.2</ele>
        <time>2012-11-04T09:23:06Z</time>
      </trkpt>
      <trkpt lat="47.26672" lon="-0.16471">
        <ele>73.4</ele>
        <time>2012-11-04T09:23:07Z</time>
      </trkpt>
      <trkpt lat="47.26684" lon="-0.16459">
        <ele>74.5</ele>
        <time>2012-11-04T09:23:14Z</time>
      </trkpt>
      <trkpt lat="47.26692" lon="-0.16457">
        <ele>75.3</ele>
        <time>2012-11-04T09:23:18Z</time>
      </trkpt>
      <trkpt lat="47.26707" lon="-0.1645">
        <ele>76.8</ele>
        <time>2012-11-04T09:23:25Z</time>
      </trkpt>
      <trkpt lat="47.26713" lon="-0.16449">
        <ele>77.3</ele>
        <time>2012-11-04T09:23:28Z</time>
      </trkpt>
      <trkpt lat="47.26715" lon="-0.16448">
        <ele>77.4</ele>
        <time>2012-11-04T09:23:29Z</time>
      </trkpt>
      <trkpt lat="47.26717" lon="-0.16447">
        <ele>77.6</ele>
        <time>2012-11-04T09:23:30Z</time>
      </trkpt>
      <trkpt lat="47.26718" lon="-0.16447">
        <ele>77.7</ele>
        <time>2012-11-04T09:23:31Z</time>
      </trkpt>
      <trkpt lat="47.2672" lon="-0.16446">
        <ele>77.8</ele>
        <time>2012-11-04T09:23:32Z</time>
      </trkpt>
      <trkpt lat="47.26722" lon="-0.16444">
        <ele>78</ele>
        <time>2012-11-04T09:23:33Z</time>
      </trkpt>
      <trkpt lat="47.26733" lon="-0.16443">
        <ele>79.6</ele>
        <time>2012-11-04T09:23:39Z</time>
      </trkpt>
      <trkpt lat="47.26736" lon="-0.16442">
        <ele>80</ele>
        <time>2012-11-04T09:23:41Z</time>
      </trkpt>
      <trkpt lat="47.26738" lon="-0.16442">
        <ele>80.3</ele>
        <time>2012-11-04T09:23:42Z</time>
      </trkpt>
      <trkpt lat="47.26739" lon="-0.16442">
        <ele>80.5</ele>
        <time>2012-11-04T09:23:43Z</time>
      </trkpt>
      <trkpt lat="47.26749" lon="-0.16442">
        <ele>81.9</ele>
        <time>2012-11-04T09:23:49Z</time>
      </trkpt>
      <trkpt lat="47.2676" lon="-0.16443">
        <ele>82.7</ele>
        <time>2012-11-04T09:23:55Z</time>
      </trkpt>
      <trkpt lat="47.26762" lon="-0.16444">
        <ele>82.9</ele>
        <time>2012-11-04T09:23:56Z</time>
      </trkpt>
      <trkpt lat="47.26764" lon="-0.16444">
        <ele>83</ele>
        <time>2012-11-04T09:23:57Z</time>
      </trkpt>
      <trkpt lat="47.26765" lon="-0.16445">
        <ele>83.1</ele>
        <time>2012-11-04T09:23:58Z</time>
      </trkpt>
      <trkpt lat="47.26767" lon="-0.16445">
        <ele>83.2</ele>
        <time>2012-11-04T09:23:59Z</time>
      </trkpt>
      <trkpt lat="47.26769" lon="-0.16447">
        <ele>83.4</ele>
        <time>2012-11-04T09:24:00Z</time>
      </trkpt>
      <trkpt lat="47.2677" lon="-0.16448">
        <ele>83.5</ele>
        <time>2012-11-04T09:24:01Z</time>
      </trkpt>
      <trkpt lat="47.26772" lon="-0.16449">
        <ele>83.7</ele>
        <time>2012-11-04T09:24:02Z</time>
      </trkpt>
      <trkpt lat="47.26774" lon="-0.1645">
        <ele>83.9</ele>
        <time>2012-11-04T09:24:03Z</time>
      </trkpt>
      <trkpt lat="47.26775" lon="-0.16451">
        <ele>84</ele>
        <time>2012-11-04T09:24:04Z</time>
      </trkpt>
      <trkpt lat="47.26788" lon="-0.16459">
        <ele>84.9</ele>
        <time>2012-11-04T09:24:11Z</time>
      </trkpt>
      <trkpt lat="47.268" lon="-0.16459">
        <ele>85.3</ele>
        <time>2012-11-04T09:24:17Z</time>
      </trkpt>
      <trkpt lat="47.26813" lon="-0.1646">
        <ele>85.7</ele>
        <time>2012-11-04T09:24:23Z</time>
      </trkpt>
      <trkpt lat="47.26826" lon="-0.16462">
        <ele>85.9</ele>
        <time>2012-11-04T09:24:28Z</time>
      </trkpt>
      <trkpt lat="47.26839" lon="-0.16469">
        <ele>86</ele>
        <time>2012-11-04T09:24:33Z</time>
      </trkpt>
      <trkpt lat="47.26862" lon="-0.16473">
        <ele>86</ele>
        <time>2012-11-04T09:24:38Z</time>
      </trkpt>
      <trkpt lat="47.26881" lon="-0.16477">
        <ele>85.3</ele>
        <time>2012-11-04T09:24:43Z</time>
      </trkpt>
      <trkpt lat="47.269" lon="-0.1648">
        <ele>84.7</ele>
        <time>2012-11-04T09:24:48Z</time>
      </trkpt>
      <trkpt lat="47.26912" lon="-0.16483">
        <ele>84.5</ele>
        <time>2012-11-04T09:24:52Z</time>
      </trkpt>
      <trkpt lat="47.26915" lon="-0.16483">
        <ele>84.4</ele>
        <time>2012-11-04T09:24:53Z</time>
      </trkpt>
      <trkpt lat="47.26933" lon="-0.16481">
        <ele>84.3</ele>
        <time>2012-11-04T09:24:58Z</time>
      </trkpt>
      <trkpt lat="47.26955" lon="-0.1647">
        <ele>84.3</ele>
        <time>2012-11-04T09:25:04Z</time>
      </trkpt>
      <trkpt lat="47.26974" lon="-0.16457">
        <ele>84.5</ele>
        <time>2012-11-04T09:25:10Z</time>
      </trkpt>
      <trkpt lat="47.26992" lon="-0.16442">
        <ele>84.7</ele>
        <time>2012-11-04T09:25:16Z</time>
      </trkpt>
      <trkpt lat="47.27015" lon="-0.16431">
        <ele>85.3</ele>
        <time>2012-11-04T09:25:23Z</time>
      </trkpt>
      <trkpt lat="47.27029" lon="-0.16422">
        <ele>85.2</ele>
        <time>2012-11-04T09:25:28Z</time>
      </trkpt>
      <trkpt lat="47.27043" lon="-0.1641">
        <ele>85.3</ele>
        <time>2012-11-04T09:25:33Z</time>
      </trkpt>
      <trkpt lat="47.27075" lon="-0.16392">
        <ele>85.7</ele>
        <time>2012-11-04T09:25:41Z</time>
      </trkpt>
      <trkpt lat="47.2709" lon="-0.16386">
        <ele>85.9</ele>
        <time>2012-11-04T09:25:46Z</time>
      </trkpt>
      <trkpt lat="47.27092" lon="-0.16384">
        <ele>85.9</ele>
        <time>2012-11-04T09:25:48Z</time>
      </trkpt>
      <trkpt lat="47.27093" lon="-0.16381">
        <ele>85.8</ele>
        <time>2012-11-04T09:25:49Z</time>
      </trkpt>
      <trkpt lat="47.27095" lon="-0.16379">
        <ele>85.8</ele>
        <time>2012-11-04T09:25:50Z</time>
      </trkpt>
      <trkpt lat="47.27098" lon="-0.16377">
        <ele>85.8</ele>
        <time>2012-11-04T09:25:51Z</time>
      </trkpt>
      <trkpt lat="47.271" lon="-0.16375">
        <ele>85.8</ele>
        <time>2012-11-04T09:25:52Z</time>
      </trkpt>
      <trkpt lat="47.27102" lon="-0.16372">
        <ele>85.8</ele>
        <time>2012-11-04T09:25:53Z</time>
      </trkpt>
      <trkpt lat="47.27116" lon="-0.16357">
        <ele>85.9</ele>
        <time>2012-11-04T09:25:58Z</time>
      </trkpt>
      <trkpt lat="47.27132" lon="-0.16338">
        <ele>85.8</ele>
        <time>2012-11-04T09:26:04Z</time>
      </trkpt>
      <trkpt lat="47.27147" lon="-0.16324">
        <ele>85.8</ele>
        <time>2012-11-04T09:26:09Z</time>
      </trkpt>
      <trkpt lat="47.2715" lon="-0.16321">
        <ele>85.7</ele>
        <time>2012-11-04T09:26:10Z</time>
      </trkpt>
      <trkpt lat="47.27155" lon="-0.16318">
        <ele>85.8</ele>
        <time>2012-11-04T09:26:11Z</time>
      </trkpt>
      <trkpt lat="47.27159" lon="-0.16316">
        <ele>85.8</ele>
        <time>2012-11-04T09:26:12Z</time>
      </trkpt>
      <trkpt lat="47.27163" lon="-0.16314">
        <ele>85.9</ele>
        <time>2012-11-04T09:26:13Z</time>
      </trkpt>
      <trkpt lat="47.27167" lon="-0.16312">
        <ele>86</ele>
        <time>2012-11-04T09:26:14Z</time>
      </trkpt>
      <trkpt lat="47.27189" lon="-0.16302">
        <ele>86</ele>
        <time>2012-11-04T09:26:20Z</time>
      </trkpt>
      <trkpt lat="47.2721" lon="-0.16293">
        <ele>86.6</ele>
        <time>2012-11-04T09:26:26Z</time>
      </trkpt>
      <trkpt lat="47.27239" lon="-0.1628">
        <ele>87</ele>
        <time>2012-11-04T09:26:33Z</time>
      </trkpt>
      <trkpt lat="47.2726" lon="-0.16264">
        <ele>87.7</ele>
        <time>2012-11-04T09:26:39Z</time>
      </trkpt>
      <trkpt lat="47.2727" lon="-0.16253">
        <ele>88</ele>
        <time>2012-11-04T09:26:43Z</time>
      </trkpt>
      <trkpt lat="47.27289" lon="-0.16241">
        <ele>88.4</ele>
        <time>2012-11-04T09:26:49Z</time>
      </trkpt>
      <trkpt lat="47.273" lon="-0.1624">
        <ele>88.8</ele>
        <time>2012-11-04T09:26:52Z</time>
      </trkpt>
      <trkpt lat="47.27303" lon="-0.1624">
        <ele>88.9</ele>
        <time>2012-11-04T09:26:53Z</time>
      </trkpt>
      <trkpt lat="47.27305" lon="-0.1624">
        <ele>89</ele>
        <time>2012-11-04T09:26:54Z</time>
      </trkpt>
      <trkpt lat="47.27308" lon="-0.16239">
        <ele>89</ele>
        <time>2012-11-04T09:26:55Z</time>
      </trkpt>
      <trkpt lat="47.27311" lon="-0.16237">
        <ele>89</ele>
        <time>2012-11-04T09:26:56Z</time>
      </trkpt>
      <trkpt lat="47.27315" lon="-0.16237">
        <ele>89</ele>
        <time>2012-11-04T09:26:57Z</time>
      </trkpt>
      <trkpt lat="47.27331" lon="-0.16231">
        <ele>89</ele>
        <time>2012-11-04T09:27:02Z</time>
      </trkpt>
      <trkpt lat="47.27353" lon="-0.16218">
        <ele>89.7</ele>
        <time>2012-11-04T09:27:08Z</time>
      </trkpt>
      <trkpt lat="47.27376" lon="-0.16205">
        <ele>90</ele>
        <time>2012-11-04T09:27:15Z</time>
      </trkpt>
      <trkpt lat="47.27406" lon="-0.16187">
        <ele>90</ele>
        <time>2012-11-04T09:27:24Z</time>
      </trkpt>
      <trkpt lat="47.27441" lon="-0.16163">
        <ele>90</ele>
        <time>2012-11-04T09:27:34Z</time>
      </trkpt>
      <trkpt lat="47.2747" lon="-0.16143">
        <ele>90</ele>
        <time>2012-11-04T09:27:42Z</time>
      </trkpt>
      <trkpt lat="47.27481" lon="-0.16135">
        <ele>90.3</ele>
        <time>2012-11-04T09:27:45Z</time>
      </trkpt>
      <trkpt lat="47.27493" lon="-0.16128">
        <ele>90.7</ele>
        <time>2012-11-04T09:27:48Z</time>
      </trkpt>
      <trkpt lat="47.27524" lon="-0.16106">
        <ele>91</ele>
        <time>2012-11-04T09:27:56Z</time>
      </trkpt>
      <trkpt lat="47.2756" lon="-0.16073">
        <ele>91.9</ele>
        <time>2012-11-04T09:28:06Z</time>
      </trkpt>
      <trkpt lat="47.27584" lon="-0.16045">
        <ele>91.4</ele>
        <time>2012-11-04T09:28:14Z</time>
      </trkpt>
      <trkpt lat="47.27587" lon="-0.16041">
        <ele>91.6</ele>
        <time>2012-11-04T09:28:15Z</time>
      </trkpt>
      <trkpt lat="47.27591" lon="-0.16038">
        <ele>91.7</ele>
        <time>2012-11-04T09:28:16Z</time>
      </trkpt>
      <trkpt lat="47.27609" lon="-0.16024">
        <ele>91.9</ele>
        <time>2012-11-04T09:28:22Z</time>
      </trkpt>
      <trkpt lat="47.27625" lon="-0.1601">
        <ele>91.4</ele>
        <time>2012-11-04T09:28:28Z</time>
      </trkpt>
      <trkpt lat="47.27639" lon="-0.16">
        <ele>91</ele>
        <time>2012-11-04T09:28:34Z</time>
      </trkpt>
      <trkpt lat="47.27652" lon="-0.15993">
        <ele>91.6</ele>
        <time>2012-11-04T09:28:40Z</time>
      </trkpt>
      <trkpt lat="47.27668" lon="-0.15985">
        <ele>92</ele>
        <time>2012-11-04T09:28:46Z</time>
      </trkpt>
      <trkpt lat="47.27685" lon="-0.15983">
        <ele>92</ele>
        <time>2012-11-04T09:28:52Z</time>
      </trkpt>
      <trkpt lat="47.27711" lon="-0.15986">
        <ele>91.7</ele>
        <time>2012-11-04T09:28:59Z</time>
      </trkpt>
      <trkpt lat="47.27719" lon="-0.15987">
        <ele>91.6</ele>
        <time>2012-11-04T09:29:01Z</time>
      </trkpt>
      <trkpt lat="47.27724" lon="-0.15985">
        <ele>91.5</ele>
        <time>2012-11-04T09:29:02Z</time>
      </trkpt>
      <trkpt lat="47.27729" lon="-0.15984">
        <ele>91.4</ele>
        <time>2012-11-04T09:29:03Z</time>
      </trkpt>
      <trkpt lat="47.27734" lon="-0.15981">
        <ele>91.3</ele>
        <time>2012-11-04T09:29:04Z</time>
      </trkpt>
      <trkpt lat="47.27739" lon="-0.15978">
        <ele>91.2</ele>
        <time>2012-11-04T09:29:05Z</time>
      </trkpt>
      <trkpt lat="47.27744" lon="-0.15975">
        <ele>91.1</ele>
        <time>2012-11-04T09:29:06Z</time>
      </trkpt>
      <trkpt lat="47.27783" lon="-0.15945">
        <ele>91</ele>
        <time>2012-11-04T09:29:15Z</time>
      </trkpt>
      <trkpt lat="47.27814" lon="-0.15918">
        <ele>90.3</ele>
        <time>2012-11-04T09:29:23Z</time>
      </trkpt>
      <trkpt lat="47.27836" lon="-0.15902">
        <ele>90.4</ele>
        <time>2012-11-04T09:29:29Z</time>
      </trkpt>
      <trkpt lat="47.2784" lon="-0.15899">
        <ele>90.3</ele>
        <time>2012-11-04T09:29:30Z</time>
      </trkpt>
      <trkpt lat="47.27843" lon="-0.15897">
        <ele>90.2</ele>
        <time>2012-11-04T09:29:31Z</time>
      </trkpt>
      <trkpt lat="47.27847" lon="-0.15894">
        <ele>90.1</ele>
        <time>2012-11-04T09:29:32Z</time>
      </trkpt>
      <trkpt lat="47.27851" lon="-0.15891">
        <ele>90</ele>
        <time>2012-11-04T09:29:33Z</time>
      </trkpt>
      <trkpt lat="47.27855" lon="-0.15888">
        <ele>90</ele>
        <time>2012-11-04T09:29:34Z</time>
      </trkpt>
      <trkpt lat="47.27862" lon="-0.15881">
        <ele>90</ele>
        <time>2012-11-04T09:29:36Z</time>
      </trkpt>
      <trkpt lat="47.27874" lon="-0.1587">
        <ele>90</ele>
        <time>2012-11-04T09:29:39Z</time>
      </trkpt>
      <trkpt lat="47.27878" lon="-0.15866">
        <ele>90</ele>
        <time>2012-11-04T09:29:40Z</time>
      </trkpt>
      <trkpt lat="47.27908" lon="-0.1584">
        <ele>90</ele>
        <time>2012-11-04T09:29:47Z</time>
      </trkpt>
      <trkpt lat="47.27924" lon="-0.15827">
        <ele>90</ele>
        <time>2012-11-04T09:29:50Z</time>
      </trkpt>
      <trkpt lat="47.27928" lon="-0.15823">
        <ele>90</ele>
        <time>2012-11-04T09:29:51Z</time>
      </trkpt>
      <trkpt lat="47.27934" lon="-0.15819">
        <ele>90</ele>
        <time>2012-11-04T09:29:52Z</time>
      </trkpt>
      <trkpt lat="47.27958" lon="-0.15798">
        <ele>90</ele>
        <time>2012-11-04T09:29:58Z</time>
      </trkpt>
      <trkpt lat="47.27965" lon="-0.15793">
        <ele>90</ele>
        <time>2012-11-04T09:30:00Z</time>
      </trkpt>
      <trkpt lat="47.27969" lon="-0.15794">
        <ele>90</ele>
        <time>2012-11-04T09:30:01Z</time>
      </trkpt>
      <trkpt lat="47.27973" lon="-0.15795">
        <ele>90</ele>
        <time>2012-11-04T09:30:02Z</time>
      </trkpt>
      <trkpt lat="47.27987" lon="-0.15806">
        <ele>89.5</ele>
        <time>2012-11-04T09:30:08Z</time>
      </trkpt>
      <trkpt lat="47.27992" lon="-0.15811">
        <ele>89.3</ele>
        <time>2012-11-04T09:30:11Z</time>
      </trkpt>
      <trkpt lat="47.27993" lon="-0.15812">
        <ele>89.3</ele>
        <time>2012-11-04T09:30:12Z</time>
      </trkpt>
      <trkpt lat="47.27994" lon="-0.15814">
        <ele>89.2</ele>
        <time>2012-11-04T09:30:13Z</time>
      </trkpt>
      <trkpt lat="47.27998" lon="-0.15819">
        <ele>89.1</ele>
        <time>2012-11-04T09:30:16Z</time>
      </trkpt>
      <trkpt lat="47.27999" lon="-0.15821">
        <ele>89</ele>
        <time>2012-11-04T09:30:17Z</time>
      </trkpt>
      <trkpt lat="47.28" lon="-0.15823">
        <ele>89</ele>
        <time>2012-11-04T09:30:18Z</time>
      </trkpt>
      <trkpt lat="47.28001" lon="-0.15827">
        <ele>89</ele>
        <time>2012-11-04T09:30:19Z</time>
      </trkpt>
      <trkpt lat="47.28002" lon="-0.1583">
        <ele>89</ele>
        <time>2012-11-04T09:30:20Z</time>
      </trkpt>
      <trkpt lat="47.28003" lon="-0.15833">
        <ele>89</ele>
        <time>2012-11-04T09:30:21Z</time>
      </trkpt>
      <trkpt lat="47.28004" lon="-0.15836">
        <ele>89</ele>
        <time>2012-11-04T09:30:22Z</time>
      </trkpt>
      <trkpt lat="47.28004" lon="-0.15838">
        <ele>89</ele>
        <time>2012-11-04T09:30:23Z</time>
      </trkpt>
      <trkpt lat="47.28006" lon="-0.15841">
        <ele>89</ele>
        <time>2012-11-04T09:30:24Z</time>
      </trkpt>
      <trkpt lat="47.28007" lon="-0.15844">
        <ele>89</ele>
        <time>2012-11-04T09:30:25Z</time>
      </trkpt>
      <trkpt lat="47.28012" lon="-0.15857">
        <ele>89</ele>
        <time>2012-11-04T09:30:30Z</time>
      </trkpt>
      <trkpt lat="47.28016" lon="-0.15872">
        <ele>89.4</ele>
        <time>2012-11-04T09:30:35Z</time>
      </trkpt>
      <trkpt lat="47.28016" lon="-0.15875">
        <ele>89.5</ele>
        <time>2012-11-04T09:30:36Z</time>
      </trkpt>
      <trkpt lat="47.28017" lon="-0.15879">
        <ele>89.6</ele>
        <time>2012-11-04T09:30:37Z</time>
      </trkpt>
      <trkpt lat="47.28018" lon="-0.15883">
        <ele>89.8</ele>
        <time>2012-11-04T09:30:38Z</time>
      </trkpt>
      <trkpt lat="47.28018" lon="-0.15887">
        <ele>89.9</ele>
        <time>2012-11-04T09:30:39Z</time>
      </trkpt>
      <trkpt lat="47.28019" lon="-0.1589">
        <ele>90</ele>
        <time>2012-11-04T09:30:40Z</time>
      </trkpt>
      <trkpt lat="47.2802" lon="-0.15893">
        <ele>90</ele>
        <time>2012-11-04T09:30:41Z</time>
      </trkpt>
      <trkpt lat="47.2802" lon="-0.15896">
        <ele>90</ele>
        <time>2012-11-04T09:30:42Z</time>
      </trkpt>
      <trkpt lat="47.2802" lon="-0.159">
        <ele>90</ele>
        <time>2012-11-04T09:30:43Z</time>
      </trkpt>
      <trkpt lat="47.2802" lon="-0.15904">
        <ele>90</ele>
        <time>2012-11-04T09:30:44Z</time>
      </trkpt>
      <trkpt lat="47.2802" lon="-0.15907">
        <ele>90</ele>
        <time>2012-11-04T09:30:45Z</time>
      </trkpt>
      <trkpt lat="47.2802" lon="-0.1591">
        <ele>90</ele>
        <time>2012-11-04T09:30:46Z</time>
      </trkpt>
      <trkpt lat="47.2802" lon="-0.15912">
        <ele>90</ele>
        <time>2012-11-04T09:30:47Z</time>
      </trkpt>
      <trkpt lat="47.28021" lon="-0.15916">
        <ele>90</ele>
        <time>2012-11-04T09:30:48Z</time>
      </trkpt>
      <trkpt lat="47.2802" lon="-0.1592">
        <ele>90</ele>
        <time>2012-11-04T09:30:49Z</time>
      </trkpt>
      <trkpt lat="47.2802" lon="-0.15923">
        <ele>90</ele>
        <time>2012-11-04T09:30:50Z</time>
      </trkpt>
      <trkpt lat="47.2802" lon="-0.15927">
        <ele>90</ele>
        <time>2012-11-04T09:30:51Z</time>
      </trkpt>
      <trkpt lat="47.28025" lon="-0.15946">
        <ele>90</ele>
        <time>2012-11-04T09:30:57Z</time>
      </trkpt>
      <trkpt lat="47.28026" lon="-0.15953">
        <ele>90</ele>
        <time>2012-11-04T09:30:59Z</time>
      </trkpt>
      <trkpt lat="47.28026" lon="-0.15958">
        <ele>90</ele>
        <time>2012-11-04T09:31:01Z</time>
      </trkpt>
      <trkpt lat="47.28027" lon="-0.15962">
        <ele>90</ele>
        <time>2012-11-04T09:31:02Z</time>
      </trkpt>
      <trkpt lat="47.28028" lon="-0.15966">
        <ele>90</ele>
        <time>2012-11-04T09:31:03Z</time>
      </trkpt>
      <trkpt lat="47.28029" lon="-0.15971">
        <ele>90</ele>
        <time>2012-11-04T09:31:04Z</time>
      </trkpt>
      <trkpt lat="47.2803" lon="-0.15976">
        <ele>89.9</ele>
        <time>2012-11-04T09:31:05Z</time>
      </trkpt>
      <trkpt lat="47.28031" lon="-0.1598">
        <ele>89.9</ele>
        <time>2012-11-04T09:31:06Z</time>
      </trkpt>
      <trkpt lat="47.28032" lon="-0.15984">
        <ele>89.9</ele>
        <time>2012-11-04T09:31:07Z</time>
      </trkpt>
      <trkpt lat="47.28034" lon="-0.15987">
        <ele>89.9</ele>
        <time>2012-11-04T09:31:08Z</time>
      </trkpt>
      <trkpt lat="47.28035" lon="-0.15991">
        <ele>89.9</ele>
        <time>2012-11-04T09:31:09Z</time>
      </trkpt>
      <trkpt lat="47.28037" lon="-0.15996">
        <ele>90</ele>
        <time>2012-11-04T09:31:10Z</time>
      </trkpt>
      <trkpt lat="47.28039" lon="-0.16">
        <ele>90</ele>
        <time>2012-11-04T09:31:11Z</time>
      </trkpt>
      <trkpt lat="47.28042" lon="-0.16004">
        <ele>90</ele>
        <time>2012-11-04T09:31:12Z</time>
      </trkpt>
      <trkpt lat="47.28044" lon="-0.16006">
        <ele>90</ele>
        <time>2012-11-04T09:31:13Z</time>
      </trkpt>
      <trkpt lat="47.28046" lon="-0.1601">
        <ele>90</ele>
        <time>2012-11-04T09:31:14Z</time>
      </trkpt>
      <trkpt lat="47.28048" lon="-0.16013">
        <ele>90</ele>
        <time>2012-11-04T09:31:15Z</time>
      </trkpt>
      <trkpt lat="47.28049" lon="-0.16014">
        <ele>90</ele>
        <time>2012-11-04T09:31:16Z</time>
      </trkpt>
      <trkpt lat="47.2805" lon="-0.16016">
        <ele>90</ele>
        <time>2012-11-04T09:31:17Z</time>
      </trkpt>
      <trkpt lat="47.28052" lon="-0.16018">
        <ele>90</ele>
        <time>2012-11-04T09:31:18Z</time>
      </trkpt>
      <trkpt lat="47.28053" lon="-0.16023">
        <ele>90</ele>
        <time>2012-11-04T09:31:19Z</time>
      </trkpt>
      <trkpt lat="47.28055" lon="-0.16026">
        <ele>90</ele>
        <time>2012-11-04T09:31:20Z</time>
      </trkpt>
      <trkpt lat="47.28056" lon="-0.1603">
        <ele>90</ele>
        <time>2012-11-04T09:31:21Z</time>
      </trkpt>
      <trkpt lat="47.28059" lon="-0.16035">
        <ele>89.9</ele>
        <time>2012-11-04T09:31:28Z</time>
      </trkpt>
      <trkpt lat="47.2806" lon="-0.16042">
        <ele>89.9</ele>
        <time>2012-11-04T09:31:42Z</time>
      </trkpt>
      <trkpt lat="47.28062" lon="-0.16044">
        <ele>89.9</ele>
        <time>2012-11-04T09:31:54Z</time>
      </trkpt>
      <trkpt lat="47.28063" lon="-0.16047">
        <ele>89.9</ele>
        <time>2012-11-04T09:32:03Z</time>
      </trkpt>
      <trkpt lat="47.28064" lon="-0.16048">
        <ele>89.9</ele>
        <time>2012-11-04T09:32:09Z</time>
      </trkpt>
      <trkpt lat="47.28065" lon="-0.16049">
        <ele>89.9</ele>
        <time>2012-11-04T09:32:10Z</time>
      </trkpt>
      <trkpt lat="47.28076" lon="-0.16057">
        <ele>90</ele>
        <time>2012-11-04T09:32:15Z</time>
      </trkpt>
      <trkpt lat="47.2809" lon="-0.16077">
        <ele>89.9</ele>
        <time>2012-11-04T09:32:22Z</time>
      </trkpt>
      <trkpt lat="47.28096" lon="-0.16084">
        <ele>90</ele>
        <time>2012-11-04T09:32:25Z</time>
      </trkpt>
      <trkpt lat="47.28105" lon="-0.16092">
        <ele>90</ele>
        <time>2012-11-04T09:32:30Z</time>
      </trkpt>
      <trkpt lat="47.28107" lon="-0.16099">
        <ele>90</ele>
        <time>2012-11-04T09:32:31Z</time>
      </trkpt>
      <trkpt lat="47.2811" lon="-0.16103">
        <ele>90</ele>
        <time>2012-11-04T09:32:32Z</time>
      </trkpt>
      <trkpt lat="47.28125" lon="-0.16128">
        <ele>90</ele>
        <time>2012-11-04T09:32:38Z</time>
      </trkpt>
      <trkpt lat="47.28141" lon="-0.16148">
        <ele>90</ele>
        <time>2012-11-04T09:32:44Z</time>
      </trkpt>
      <trkpt lat="47.28153" lon="-0.16171">
        <ele>90</ele>
        <time>2012-11-04T09:32:49Z</time>
      </trkpt>
      <trkpt lat="47.28166" lon="-0.16192">
        <ele>90</ele>
        <time>2012-11-04T09:32:56Z</time>
      </trkpt>
      <trkpt lat="47.28175" lon="-0.1621">
        <ele>90</ele>
        <time>2012-11-04T09:33:01Z</time>
      </trkpt>
      <trkpt lat="47.28186" lon="-0.16228">
        <ele>90</ele>
        <time>2012-11-04T09:33:06Z</time>
      </trkpt>
      <trkpt lat="47.28187" lon="-0.16231">
        <ele>90</ele>
        <time>2012-11-04T09:33:07Z</time>
      </trkpt>
      <trkpt lat="47.28188" lon="-0.16234">
        <ele>90</ele>
        <time>2012-11-04T09:33:08Z</time>
      </trkpt>
      <trkpt lat="47.2819" lon="-0.16238">
        <ele>90</ele>
        <time>2012-11-04T09:33:09Z</time>
      </trkpt>
      <trkpt lat="47.28192" lon="-0.16241">
        <ele>90</ele>
        <time>2012-11-04T09:33:10Z</time>
      </trkpt>
      <trkpt lat="47.28194" lon="-0.16244">
        <ele>90</ele>
        <time>2012-11-04T09:33:11Z</time>
      </trkpt>
      <trkpt lat="47.28195" lon="-0.16247">
        <ele>90</ele>
        <time>2012-11-04T09:33:12Z</time>
      </trkpt>
      <trkpt lat="47.28197" lon="-0.1625">
        <ele>89.9</ele>
        <time>2012-11-04T09:33:13Z</time>
      </trkpt>
      <trkpt lat="47.28199" lon="-0.16254">
        <ele>89.8</ele>
        <time>2012-11-04T09:33:14Z</time>
      </trkpt>
      <trkpt lat="47.28201" lon="-0.16259">
        <ele>89.8</ele>
        <time>2012-11-04T09:33:15Z</time>
      </trkpt>
      <trkpt lat="47.28202" lon="-0.16264">
        <ele>89.7</ele>
        <time>2012-11-04T09:33:16Z</time>
      </trkpt>
      <trkpt lat="47.28203" lon="-0.16267">
        <ele>89.7</ele>
        <time>2012-11-04T09:33:17Z</time>
      </trkpt>
      <trkpt lat="47.28205" lon="-0.1627">
        <ele>89.6</ele>
        <time>2012-11-04T09:33:18Z</time>
      </trkpt>
      <trkpt lat="47.28207" lon="-0.16273">
        <ele>89.5</ele>
        <time>2012-11-04T09:33:19Z</time>
      </trkpt>
      <trkpt lat="47.28209" lon="-0.16276">
        <ele>89.5</ele>
        <time>2012-11-04T09:33:20Z</time>
      </trkpt>
      <trkpt lat="47.28211" lon="-0.1628">
        <ele>89.4</ele>
        <time>2012-11-04T09:33:21Z</time>
      </trkpt>
      <trkpt lat="47.28213" lon="-0.16284">
        <ele>89.3</ele>
        <time>2012-11-04T09:33:22Z</time>
      </trkpt>
      <trkpt lat="47.28215" lon="-0.16286">
        <ele>89.3</ele>
        <time>2012-11-04T09:33:23Z</time>
      </trkpt>
      <trkpt lat="47.28217" lon="-0.1629">
        <ele>89.2</ele>
        <time>2012-11-04T09:33:24Z</time>
      </trkpt>
      <trkpt lat="47.28219" lon="-0.16295">
        <ele>89.1</ele>
        <time>2012-11-04T09:33:25Z</time>
      </trkpt>
      <trkpt lat="47.2822" lon="-0.163">
        <ele>89.1</ele>
        <time>2012-11-04T09:33:26Z</time>
      </trkpt>
      <trkpt lat="47.28221" lon="-0.16305">
        <ele>89</ele>
        <time>2012-11-04T09:33:27Z</time>
      </trkpt>
      <trkpt lat="47.28223" lon="-0.1631">
        <ele>89.2</ele>
        <time>2012-11-04T09:33:28Z</time>
      </trkpt>
      <trkpt lat="47.28232" lon="-0.16337">
        <ele>89.7</ele>
        <time>2012-11-04T09:33:34Z</time>
      </trkpt>
      <trkpt lat="47.28242" lon="-0.16358">
        <ele>89.9</ele>
        <time>2012-11-04T09:33:40Z</time>
      </trkpt>
      <trkpt lat="47.28243" lon="-0.16362">
        <ele>90</ele>
        <time>2012-11-04T09:33:41Z</time>
      </trkpt>
      <trkpt lat="47.28245" lon="-0.16367">
        <ele>90</ele>
        <time>2012-11-04T09:33:42Z</time>
      </trkpt>
      <trkpt lat="47.28246" lon="-0.16371">
        <ele>90</ele>
        <time>2012-11-04T09:33:43Z</time>
      </trkpt>
      <trkpt lat="47.28248" lon="-0.16375">
        <ele>90</ele>
        <time>2012-11-04T09:33:44Z</time>
      </trkpt>
      <trkpt lat="47.28249" lon="-0.16378">
        <ele>90</ele>
        <time>2012-11-04T09:33:45Z</time>
      </trkpt>
      <trkpt lat="47.28263" lon="-0.1639">
        <ele>89.5</ele>
        <time>2012-11-04T09:33:51Z</time>
      </trkpt>
      <trkpt lat="47.28277" lon="-0.16405">
        <ele>89</ele>
        <time>2012-11-04T09:33:57Z</time>
      </trkpt>
      <trkpt lat="47.28298" lon="-0.16421">
        <ele>89</ele>
        <time>2012-11-04T09:34:05Z</time>
      </trkpt>
      <trkpt lat="47.28314" lon="-0.16443">
        <ele>89</ele>
        <time>2012-11-04T09:34:11Z</time>
      </trkpt>
      <trkpt lat="47.28315" lon="-0.16446">
        <ele>89</ele>
        <time>2012-11-04T09:34:12Z</time>
      </trkpt>
      <trkpt lat="47.28317" lon="-0.16448">
        <ele>89.1</ele>
        <time>2012-11-04T09:34:13Z</time>
      </trkpt>
      <trkpt lat="47.28318" lon="-0.1645">
        <ele>89.1</ele>
        <time>2012-11-04T09:34:14Z</time>
      </trkpt>
      <trkpt lat="47.2832" lon="-0.16449">
        <ele>89.1</ele>
        <time>2012-11-04T09:34:15Z</time>
      </trkpt>
      <trkpt lat="47.28327" lon="-0.16446">
        <ele>89</ele>
        <time>2012-11-04T09:34:19Z</time>
      </trkpt>
      <trkpt lat="47.28339" lon="-0.16443">
        <ele>89</ele>
        <time>2012-11-04T09:34:26Z</time>
      </trkpt>
      <trkpt lat="47.28349" lon="-0.1644">
        <ele>89</ele>
        <time>2012-11-04T09:34:31Z</time>
      </trkpt>
      <trkpt lat="47.28352" lon="-0.16437">
        <ele>89</ele>
        <time>2012-11-04T09:34:33Z</time>
      </trkpt>
      <trkpt lat="47.28353" lon="-0.16436">
        <ele>89</ele>
        <time>2012-11-04T09:34:34Z</time>
      </trkpt>
      <trkpt lat="47.28356" lon="-0.16434">
        <ele>89</ele>
        <time>2012-11-04T09:34:35Z</time>
      </trkpt>
      <trkpt lat="47.28359" lon="-0.16431">
        <ele>89</ele>
        <time>2012-11-04T09:34:36Z</time>
      </trkpt>
      <trkpt lat="47.28361" lon="-0.16428">
        <ele>89</ele>
        <time>2012-11-04T09:34:37Z</time>
      </trkpt>
      <trkpt lat="47.28363" lon="-0.16426">
        <ele>89</ele>
        <time>2012-11-04T09:34:38Z</time>
      </trkpt>
      <trkpt lat="47.28365" lon="-0.16426">
        <ele>89</ele>
        <time>2012-11-04T09:34:39Z</time>
      </trkpt>
      <trkpt lat="47.28367" lon="-0.16424">
        <ele>89</ele>
        <time>2012-11-04T09:34:40Z</time>
      </trkpt>
      <trkpt lat="47.28369" lon="-0.16423">
        <ele>89</ele>
        <time>2012-11-04T09:34:41Z</time>
      </trkpt>
      <trkpt lat="47.28371" lon="-0.16421">
        <ele>89</ele>
        <time>2012-11-04T09:34:42Z</time>
      </trkpt>
      <trkpt lat="47.28372" lon="-0.1642">
        <ele>89</ele>
        <time>2012-11-04T09:34:43Z</time>
      </trkpt>
      <trkpt lat="47.28377" lon="-0.16419">
        <ele>89</ele>
        <time>2012-11-04T09:34:50Z</time>
      </trkpt>
      <trkpt lat="47.28376" lon="-0.16418">
        <ele>89</ele>
        <time>2012-11-04T09:35:01Z</time>
      </trkpt>
      <trkpt lat="47.28378" lon="-0.16413">
        <ele>89</ele>
        <time>2012-11-04T09:35:12Z</time>
      </trkpt>
      <trkpt lat="47.28388" lon="-0.16404">
        <ele>89</ele>
        <time>2012-11-04T09:35:18Z</time>
      </trkpt>
      <trkpt lat="47.28394" lon="-0.16398">
        <ele>89</ele>
        <time>2012-11-04T09:35:21Z</time>
      </trkpt>
      <trkpt lat="47.28396" lon="-0.16396">
        <ele>89</ele>
        <time>2012-11-04T09:35:22Z</time>
      </trkpt>
      <trkpt lat="47.28397" lon="-0.16394">
        <ele>89</ele>
        <time>2012-11-04T09:35:23Z</time>
      </trkpt>
      <trkpt lat="47.28399" lon="-0.16392">
        <ele>89</ele>
        <time>2012-11-04T09:35:24Z</time>
      </trkpt>
      <trkpt lat="47.28403" lon="-0.16387">
        <ele>89</ele>
        <time>2012-11-04T09:35:28Z</time>
      </trkpt>
      <trkpt lat="47.28408" lon="-0.1638">
        <ele>89</ele>
        <time>2012-11-04T09:35:33Z</time>
      </trkpt>
      <trkpt lat="47.28412" lon="-0.16374">
        <ele>89</ele>
        <time>2012-11-04T09:35:38Z</time>
      </trkpt>
      <trkpt lat="47.28418" lon="-0.16367">
        <ele>89</ele>
        <time>2012-11-04T09:35:43Z</time>
      </trkpt>
      <trkpt lat="47.28432" lon="-0.16355">
        <ele>89</ele>
        <time>2012-11-04T09:35:49Z</time>
      </trkpt>
      <trkpt lat="47.28445" lon="-0.16341">
        <ele>89</ele>
        <time>2012-11-04T09:35:55Z</time>
      </trkpt>
      <trkpt lat="47.2846" lon="-0.16325">
        <ele>89.4</ele>
        <time>2012-11-04T09:36:01Z</time>
      </trkpt>
      <trkpt lat="47.28471" lon="-0.16308">
        <ele>89.1</ele>
        <time>2012-11-04T09:36:07Z</time>
      </trkpt>
      <trkpt lat="47.28483" lon="-0.16289">
        <ele>89.4</ele>
        <time>2012-11-04T09:36:12Z</time>
      </trkpt>
      <trkpt lat="47.28502" lon="-0.1627">
        <ele>89.7</ele>
        <time>2012-11-04T09:36:17Z</time>
      </trkpt>
      <trkpt lat="47.28521" lon="-0.16241">
        <ele>89</ele>
        <time>2012-11-04T09:36:23Z</time>
      </trkpt>
      <trkpt lat="47.28539" lon="-0.16213">
        <ele>89</ele>
        <time>2012-11-04T09:36:28Z</time>
      </trkpt>
      <trkpt lat="47.28551" lon="-0.16195">
        <ele>89</ele>
        <time>2012-11-04T09:36:32Z</time>
      </trkpt>
      <trkpt lat="47.28561" lon="-0.16169">
        <ele>89</ele>
        <time>2012-11-04T09:36:37Z</time>
      </trkpt>
      <trkpt lat="47.28566" lon="-0.16157">
        <ele>88.9</ele>
        <time>2012-11-04T09:36:39Z</time>
      </trkpt>
      <trkpt lat="47.2858" lon="-0.16122">
        <ele>88</ele>
        <time>2012-11-04T09:36:45Z</time>
      </trkpt>
      <trkpt lat="47.28585" lon="-0.16102">
        <ele>88</ele>
        <time>2012-11-04T09:36:49Z</time>
      </trkpt>
      <trkpt lat="47.28587" lon="-0.16097">
        <ele>88</ele>
        <time>2012-11-04T09:36:50Z</time>
      </trkpt>
      <trkpt lat="47.28588" lon="-0.16092">
        <ele>88</ele>
        <time>2012-11-04T09:36:51Z</time>
      </trkpt>
      <trkpt lat="47.28596" lon="-0.16074">
        <ele>88</ele>
        <time>2012-11-04T09:36:56Z</time>
      </trkpt>
      <trkpt lat="47.28606" lon="-0.1605">
        <ele>88</ele>
        <time>2012-11-04T09:37:01Z</time>
      </trkpt>
      <trkpt lat="47.28614" lon="-0.16027">
        <ele>87.9</ele>
        <time>2012-11-04T09:37:05Z</time>
      </trkpt>
      <trkpt lat="47.28619" lon="-0.16015">
        <ele>87.4</ele>
        <time>2012-11-04T09:37:07Z</time>
      </trkpt>
      <trkpt lat="47.28624" lon="-0.16003">
        <ele>87.1</ele>
        <time>2012-11-04T09:37:09Z</time>
      </trkpt>
      <trkpt lat="47.28626" lon="-0.15998">
        <ele>87</ele>
        <time>2012-11-04T09:37:10Z</time>
      </trkpt>
      <trkpt lat="47.28627" lon="-0.15993">
        <ele>87</ele>
        <time>2012-11-04T09:37:11Z</time>
      </trkpt>
      <trkpt lat="47.28629" lon="-0.15987">
        <ele>87</ele>
        <time>2012-11-04T09:37:12Z</time>
      </trkpt>
      <trkpt lat="47.28631" lon="-0.15982">
        <ele>87</ele>
        <time>2012-11-04T09:37:13Z</time>
      </trkpt>
      <trkpt lat="47.28634" lon="-0.15977">
        <ele>87</ele>
        <time>2012-11-04T09:37:14Z</time>
      </trkpt>
      <trkpt lat="47.28636" lon="-0.15972">
        <ele>87</ele>
        <time>2012-11-04T09:37:15Z</time>
      </trkpt>
      <trkpt lat="47.28638" lon="-0.15967">
        <ele>87</ele>
        <time>2012-11-04T09:37:16Z</time>
      </trkpt>
      <trkpt lat="47.28651" lon="-0.15937">
        <ele>86.4</ele>
        <time>2012-11-04T09:37:22Z</time>
      </trkpt>
      <trkpt lat="47.28653" lon="-0.15933">
        <ele>86.3</ele>
        <time>2012-11-04T09:37:23Z</time>
      </trkpt>
      <trkpt lat="47.28656" lon="-0.15928">
        <ele>86.2</ele>
        <time>2012-11-04T09:37:24Z</time>
      </trkpt>
      <trkpt lat="47.2866" lon="-0.15926">
        <ele>86.1</ele>
        <time>2012-11-04T09:37:25Z</time>
      </trkpt>
      <trkpt lat="47.28663" lon="-0.15925">
        <ele>86</ele>
        <time>2012-11-04T09:37:26Z</time>
      </trkpt>
      <trkpt lat="47.28667" lon="-0.15923">
        <ele>86</ele>
        <time>2012-11-04T09:37:27Z</time>
      </trkpt>
      <trkpt lat="47.28671" lon="-0.15921">
        <ele>86.2</ele>
        <time>2012-11-04T09:37:28Z</time>
      </trkpt>
      <trkpt lat="47.28674" lon="-0.1592">
        <ele>86.3</ele>
        <time>2012-11-04T09:37:29Z</time>
      </trkpt>
      <trkpt lat="47.28699" lon="-0.15917">
        <ele>87.2</ele>
        <time>2012-11-04T09:37:36Z</time>
      </trkpt>
      <trkpt lat="47.2871" lon="-0.15922">
        <ele>87.7</ele>
        <time>2012-11-04T09:37:41Z</time>
      </trkpt>
      <trkpt lat="47.28718" lon="-0.15928">
        <ele>88.2</ele>
        <time>2012-11-04T09:37:46Z</time>
      </trkpt>
      <trkpt lat="47.28737" lon="-0.15933">
        <ele>88.8</ele>
        <time>2012-11-04T09:37:51Z</time>
      </trkpt>
      <trkpt lat="47.28752" lon="-0.15935">
        <ele>89</ele>
        <time>2012-11-04T09:37:54Z</time>
      </trkpt>
      <trkpt lat="47.28758" lon="-0.15938">
        <ele>89</ele>
        <time>2012-11-04T09:37:55Z</time>
      </trkpt>
      <trkpt lat="47.28762" lon="-0.15939">
        <ele>89</ele>
        <time>2012-11-04T09:37:56Z</time>
      </trkpt>
      <trkpt lat="47.28765" lon="-0.15941">
        <ele>89</ele>
        <time>2012-11-04T09:37:57Z</time>
      </trkpt>
      <trkpt lat="47.28769" lon="-0.15944">
        <ele>89</ele>
        <time>2012-11-04T09:37:58Z</time>
      </trkpt>
      <trkpt lat="47.28773" lon="-0.15945">
        <ele>89</ele>
        <time>2012-11-04T09:37:59Z</time>
      </trkpt>
      <trkpt lat="47.28776" lon="-0.15948">
        <ele>89.1</ele>
        <time>2012-11-04T09:38:00Z</time>
      </trkpt>
      <trkpt lat="47.28798" lon="-0.15958">
        <ele>89.9</ele>
        <time>2012-11-04T09:38:06Z</time>
      </trkpt>
      <trkpt lat="47.28805" lon="-0.15962">
        <ele>90</ele>
        <time>2012-11-04T09:38:08Z</time>
      </trkpt>
      <trkpt lat="47.28808" lon="-0.15964">
        <ele>90</ele>
        <time>2012-11-04T09:38:09Z</time>
      </trkpt>
      <trkpt lat="47.28812" lon="-0.15966">
        <ele>90</ele>
        <time>2012-11-04T09:38:10Z</time>
      </trkpt>
      <trkpt lat="47.28836" lon="-0.15985">
        <ele>90</ele>
        <time>2012-11-04T09:38:16Z</time>
      </trkpt>
      <trkpt lat="47.28857" lon="-0.16002">
        <ele>90</ele>
        <time>2012-11-04T09:38:22Z</time>
      </trkpt>
      <trkpt lat="47.2886" lon="-0.16004">
        <ele>90</ele>
        <time>2012-11-04T09:38:23Z</time>
      </trkpt>
      <trkpt lat="47.28862" lon="-0.16008">
        <ele>90</ele>
        <time>2012-11-04T09:38:24Z</time>
      </trkpt>
      <trkpt lat="47.28866" lon="-0.16011">
        <ele>90</ele>
        <time>2012-11-04T09:38:25Z</time>
      </trkpt>
      <trkpt lat="47.2887" lon="-0.16015">
        <ele>90</ele>
        <time>2012-11-04T09:38:26Z</time>
      </trkpt>
      <trkpt lat="47.28873" lon="-0.16018">
        <ele>90</ele>
        <time>2012-11-04T09:38:27Z</time>
      </trkpt>
      <trkpt lat="47.28876" lon="-0.16022">
        <ele>90</ele>
        <time>2012-11-04T09:38:28Z</time>
      </trkpt>
      <trkpt lat="47.28879" lon="-0.16026">
        <ele>90</ele>
        <time>2012-11-04T09:38:29Z</time>
      </trkpt>
      <trkpt lat="47.28882" lon="-0.1603">
        <ele>90</ele>
        <time>2012-11-04T09:38:30Z</time>
      </trkpt>
      <trkpt lat="47.28885" lon="-0.16033">
        <ele>90</ele>
        <time>2012-11-04T09:38:31Z</time>
      </trkpt>
      <trkpt lat="47.289" lon="-0.1605">
        <ele>90</ele>
        <time>2012-11-04T09:38:36Z</time>
      </trkpt>
      <trkpt lat="47.28904" lon="-0.16054">
        <ele>90</ele>
        <time>2012-11-04T09:38:37Z</time>
      </trkpt>
      <trkpt lat="47.28919" lon="-0.16074">
        <ele>90</ele>
        <time>2012-11-04T09:38:42Z</time>
      </trkpt>
      <trkpt lat="47.28933" lon="-0.16093">
        <ele>90</ele>
        <time>2012-11-04T09:38:47Z</time>
      </trkpt>
      <trkpt lat="47.28936" lon="-0.16097">
        <ele>90</ele>
        <time>2012-11-04T09:38:48Z</time>
      </trkpt>
      <trkpt lat="47.28938" lon="-0.16101">
        <ele>90</ele>
        <time>2012-11-04T09:38:49Z</time>
      </trkpt>
      <trkpt lat="47.28941" lon="-0.16106">
        <ele>90</ele>
        <time>2012-11-04T09:38:50Z</time>
      </trkpt>
      <trkpt lat="47.28943" lon="-0.16111">
        <ele>90</ele>
        <time>2012-11-04T09:38:51Z</time>
      </trkpt>
      <trkpt lat="47.28946" lon="-0.16115">
        <ele>90</ele>
        <time>2012-11-04T09:38:52Z</time>
      </trkpt>
      <trkpt lat="47.28949" lon="-0.16119">
        <ele>90</ele>
        <time>2012-11-04T09:38:53Z</time>
      </trkpt>
      <trkpt lat="47.28972" lon="-0.16146">
        <ele>90.3</ele>
        <time>2012-11-04T09:38:59Z</time>
      </trkpt>
      <trkpt lat="47.28996" lon="-0.16188">
        <ele>91</ele>
        <time>2012-11-04T09:39:06Z</time>
      </trkpt>
      <trkpt lat="47.29016" lon="-0.16233">
        <ele>91</ele>
        <time>2012-11-04T09:39:13Z</time>
      </trkpt>
      <trkpt lat="47.29023" lon="-0.16246">
        <ele>91</ele>
        <time>2012-11-04T09:39:15Z</time>
      </trkpt>
      <trkpt lat="47.29027" lon="-0.16252">
        <ele>90.9</ele>
        <time>2012-11-04T09:39:16Z</time>
      </trkpt>
      <trkpt lat="47.2903" lon="-0.16258">
        <ele>90.7</ele>
        <time>2012-11-04T09:39:17Z</time>
      </trkpt>
      <trkpt lat="47.29033" lon="-0.16264">
        <ele>90.4</ele>
        <time>2012-11-04T09:39:18Z</time>
      </trkpt>
      <trkpt lat="47.29034" lon="-0.16273">
        <ele>90.1</ele>
        <time>2012-11-04T09:39:19Z</time>
      </trkpt>
      <trkpt lat="47.29039" lon="-0.16277">
        <ele>90</ele>
        <time>2012-11-04T09:39:20Z</time>
      </trkpt>
      <trkpt lat="47.29041" lon="-0.16286">
        <ele>90</ele>
        <time>2012-11-04T09:39:21Z</time>
      </trkpt>
      <trkpt lat="47.29043" lon="-0.16294">
        <ele>90</ele>
        <time>2012-11-04T09:39:22Z</time>
      </trkpt>
      <trkpt lat="47.29047" lon="-0.163">
        <ele>90</ele>
        <time>2012-11-04T09:39:23Z</time>
      </trkpt>
      <trkpt lat="47.2905" lon="-0.16309">
        <ele>90</ele>
        <time>2012-11-04T09:39:24Z</time>
      </trkpt>
      <trkpt lat="47.29055" lon="-0.16317">
        <ele>90</ele>
        <time>2012-11-04T09:39:25Z</time>
      </trkpt>
      <trkpt lat="47.29061" lon="-0.16324">
        <ele>90</ele>
        <time>2012-11-04T09:39:26Z</time>
      </trkpt>
      <trkpt lat="47.29066" lon="-0.1633">
        <ele>90</ele>
        <time>2012-11-04T09:39:27Z</time>
      </trkpt>
      <trkpt lat="47.2907" lon="-0.16337">
        <ele>90</ele>
        <time>2012-11-04T09:39:28Z</time>
      </trkpt>
      <trkpt lat="47.29074" lon="-0.16343">
        <ele>90</ele>
        <time>2012-11-04T09:39:29Z</time>
      </trkpt>
      <trkpt lat="47.29077" lon="-0.16349">
        <ele>90</ele>
        <time>2012-11-04T09:39:30Z</time>
      </trkpt>
      <trkpt lat="47.2908" lon="-0.16355">
        <ele>90</ele>
        <time>2012-11-04T09:39:31Z</time>
      </trkpt>
      <trkpt lat="47.29084" lon="-0.16361">
        <ele>90</ele>
        <time>2012-11-04T09:39:32Z</time>
      </trkpt>
      <trkpt lat="47.29087" lon="-0.16366">
        <ele>89.7</ele>
        <time>2012-11-04T09:39:33Z</time>
      </trkpt>
      <trkpt lat="47.2909" lon="-0.16372">
        <ele>89.5</ele>
        <time>2012-11-04T09:39:34Z</time>
      </trkpt>
      <trkpt lat="47.29093" lon="-0.16378">
        <ele>89.3</ele>
        <time>2012-11-04T09:39:35Z</time>
      </trkpt>
      <trkpt lat="47.29096" lon="-0.16384">
        <ele>89.1</ele>
        <time>2012-11-04T09:39:36Z</time>
      </trkpt>
      <trkpt lat="47.291" lon="-0.1639">
        <ele>89</ele>
        <time>2012-11-04T09:39:37Z</time>
      </trkpt>
      <trkpt lat="47.29102" lon="-0.16395">
        <ele>89</ele>
        <time>2012-11-04T09:39:38Z</time>
      </trkpt>
      <trkpt lat="47.29121" lon="-0.16434">
        <ele>88.6</ele>
        <time>2012-11-04T09:39:44Z</time>
      </trkpt>
      <trkpt lat="47.29125" lon="-0.1644">
        <ele>88.6</ele>
        <time>2012-11-04T09:39:45Z</time>
      </trkpt>
      <trkpt lat="47.29129" lon="-0.16446">
        <ele>88.6</ele>
        <time>2012-11-04T09:39:46Z</time>
      </trkpt>
      <trkpt lat="47.29132" lon="-0.16452">
        <ele>88.5</ele>
        <time>2012-11-04T09:39:47Z</time>
      </trkpt>
      <trkpt lat="47.29143" lon="-0.16473">
        <ele>88</ele>
        <time>2012-11-04T09:39:50Z</time>
      </trkpt>
      <trkpt lat="47.29146" lon="-0.16479">
        <ele>87.9</ele>
        <time>2012-11-04T09:39:51Z</time>
      </trkpt>
      <trkpt lat="47.29154" lon="-0.16501">
        <ele>87.4</ele>
        <time>2012-11-04T09:39:54Z</time>
      </trkpt>
      <trkpt lat="47.29156" lon="-0.16509">
        <ele>87.3</ele>
        <time>2012-11-04T09:39:55Z</time>
      </trkpt>
      <trkpt lat="47.29159" lon="-0.16515">
        <ele>87.1</ele>
        <time>2012-11-04T09:39:56Z</time>
      </trkpt>
      <trkpt lat="47.29162" lon="-0.16521">
        <ele>87</ele>
        <time>2012-11-04T09:39:57Z</time>
      </trkpt>
      <trkpt lat="47.29165" lon="-0.16528">
        <ele>87</ele>
        <time>2012-11-04T09:39:58Z</time>
      </trkpt>
      <trkpt lat="47.29171" lon="-0.16542">
        <ele>86.4</ele>
        <time>2012-11-04T09:40:00Z</time>
      </trkpt>
      <trkpt lat="47.29172" lon="-0.1655">
        <ele>86.2</ele>
        <time>2012-11-04T09:40:01Z</time>
      </trkpt>
      <trkpt lat="47.29173" lon="-0.16557">
        <ele>86</ele>
        <time>2012-11-04T09:40:02Z</time>
      </trkpt>
      <trkpt lat="47.29175" lon="-0.16564">
        <ele>85.9</ele>
        <time>2012-11-04T09:40:03Z</time>
      </trkpt>
      <trkpt lat="47.29178" lon="-0.16571">
        <ele>85.8</ele>
        <time>2012-11-04T09:40:04Z</time>
      </trkpt>
      <trkpt lat="47.29187" lon="-0.16594">
        <ele>84.9</ele>
        <time>2012-11-04T09:40:08Z</time>
      </trkpt>
      <trkpt lat="47.29194" lon="-0.16623">
        <ele>84</ele>
        <time>2012-11-04T09:40:12Z</time>
      </trkpt>
      <trkpt lat="47.29198" lon="-0.16637">
        <ele>83.9</ele>
        <time>2012-11-04T09:40:14Z</time>
      </trkpt>
      <trkpt lat="47.29199" lon="-0.16645">
        <ele>83.8</ele>
        <time>2012-11-04T09:40:15Z</time>
      </trkpt>
      <trkpt lat="47.29202" lon="-0.16666">
        <ele>83.7</ele>
        <time>2012-11-04T09:40:18Z</time>
      </trkpt>
      <trkpt lat="47.292" lon="-0.16673">
        <ele>83.8</ele>
        <time>2012-11-04T09:40:19Z</time>
      </trkpt>
      <trkpt lat="47.29199" lon="-0.16679">
        <ele>83.9</ele>
        <time>2012-11-04T09:40:20Z</time>
      </trkpt>
      <trkpt lat="47.29197" lon="-0.16685">
        <ele>84</ele>
        <time>2012-11-04T09:40:21Z</time>
      </trkpt>
      <trkpt lat="47.29193" lon="-0.1669">
        <ele>84.1</ele>
        <time>2012-11-04T09:40:22Z</time>
      </trkpt>
      <trkpt lat="47.29189" lon="-0.16696">
        <ele>84.2</ele>
        <time>2012-11-04T09:40:23Z</time>
      </trkpt>
      <trkpt lat="47.29185" lon="-0.16702">
        <ele>84.3</ele>
        <time>2012-11-04T09:40:24Z</time>
      </trkpt>
      <trkpt lat="47.29173" lon="-0.16717">
        <ele>84.8</ele>
        <time>2012-11-04T09:40:27Z</time>
      </trkpt>
      <trkpt lat="47.2917" lon="-0.16724">
        <ele>84.9</ele>
        <time>2012-11-04T09:40:28Z</time>
      </trkpt>
      <trkpt lat="47.29167" lon="-0.16731">
        <ele>85</ele>
        <time>2012-11-04T09:40:29Z</time>
      </trkpt>
      <trkpt lat="47.29163" lon="-0.16738">
        <ele>85</ele>
        <time>2012-11-04T09:40:30Z</time>
      </trkpt>
      <trkpt lat="47.29159" lon="-0.16744">
        <ele>85</ele>
        <time>2012-11-04T09:40:31Z</time>
      </trkpt>
      <trkpt lat="47.29155" lon="-0.1675">
        <ele>85</ele>
        <time>2012-11-04T09:40:32Z</time>
      </trkpt>
      <trkpt lat="47.29151" lon="-0.16756">
        <ele>85</ele>
        <time>2012-11-04T09:40:33Z</time>
      </trkpt>
      <trkpt lat="47.29143" lon="-0.16766">
        <ele>85</ele>
        <time>2012-11-04T09:40:35Z</time>
      </trkpt>
      <trkpt lat="47.29141" lon="-0.16771">
        <ele>85</ele>
        <time>2012-11-04T09:40:36Z</time>
      </trkpt>
      <trkpt lat="47.29141" lon="-0.16778">
        <ele>85</ele>
        <time>2012-11-04T09:40:37Z</time>
      </trkpt>
      <trkpt lat="47.29141" lon="-0.16784">
        <ele>85.2</ele>
        <time>2012-11-04T09:40:38Z</time>
      </trkpt>
      <trkpt lat="47.29142" lon="-0.16789">
        <ele>85.4</ele>
        <time>2012-11-04T09:40:39Z</time>
      </trkpt>
      <trkpt lat="47.29145" lon="-0.16808">
        <ele>85.8</ele>
        <time>2012-11-04T09:40:43Z</time>
      </trkpt>
      <trkpt lat="47.29147" lon="-0.16812">
        <ele>85.7</ele>
        <time>2012-11-04T09:40:44Z</time>
      </trkpt>
      <trkpt lat="47.29152" lon="-0.16821">
        <ele>85.5</ele>
        <time>2012-11-04T09:40:46Z</time>
      </trkpt>
      <trkpt lat="47.29156" lon="-0.16828">
        <ele>85.4</ele>
        <time>2012-11-04T09:40:47Z</time>
      </trkpt>
      <trkpt lat="47.29159" lon="-0.16835">
        <ele>85.3</ele>
        <time>2012-11-04T09:40:48Z</time>
      </trkpt>
      <trkpt lat="47.29161" lon="-0.16843">
        <ele>85.5</ele>
        <time>2012-11-04T09:40:49Z</time>
      </trkpt>
      <trkpt lat="47.29164" lon="-0.16851">
        <ele>85.7</ele>
        <time>2012-11-04T09:40:50Z</time>
      </trkpt>
      <trkpt lat="47.29168" lon="-0.16858">
        <ele>85.8</ele>
        <time>2012-11-04T09:40:51Z</time>
      </trkpt>
      <trkpt lat="47.29173" lon="-0.16863">
        <ele>85.8</ele>
        <time>2012-11-04T09:40:52Z</time>
      </trkpt>
      <trkpt lat="47.29177" lon="-0.16869">
        <ele>85.6</ele>
        <time>2012-11-04T09:40:53Z</time>
      </trkpt>
      <trkpt lat="47.29181" lon="-0.16874">
        <ele>85.5</ele>
        <time>2012-11-04T09:40:54Z</time>
      </trkpt>
      <trkpt lat="47.29184" lon="-0.1688">
        <ele>85.4</ele>
        <time>2012-11-04T09:40:55Z</time>
      </trkpt>
      <trkpt lat="47.29187" lon="-0.16887">
        <ele>85.3</ele>
        <time>2012-11-04T09:40:56Z</time>
      </trkpt>
      <trkpt lat="47.29189" lon="-0.16894">
        <ele>85.2</ele>
        <time>2012-11-04T09:40:57Z</time>
      </trkpt>
      <trkpt lat="47.29194" lon="-0.16907">
        <ele>85</ele>
        <time>2012-11-04T09:40:59Z</time>
      </trkpt>
      <trkpt lat="47.29197" lon="-0.16913">
        <ele>85</ele>
        <time>2012-11-04T09:41:00Z</time>
      </trkpt>
      <trkpt lat="47.292" lon="-0.1692">
        <ele>84.9</ele>
        <time>2012-11-04T09:41:01Z</time>
      </trkpt>
      <trkpt lat="47.29202" lon="-0.16927">
        <ele>84.6</ele>
        <time>2012-11-04T09:41:02Z</time>
      </trkpt>
      <trkpt lat="47.29205" lon="-0.16933">
        <ele>84.4</ele>
        <time>2012-11-04T09:41:03Z</time>
      </trkpt>
      <trkpt lat="47.29208" lon="-0.16939">
        <ele>84.2</ele>
        <time>2012-11-04T09:41:04Z</time>
      </trkpt>
      <trkpt lat="47.29209" lon="-0.16946">
        <ele>84</ele>
        <time>2012-11-04T09:41:05Z</time>
      </trkpt>
      <trkpt lat="47.2921" lon="-0.16953">
        <ele>84.1</ele>
        <time>2012-11-04T09:41:06Z</time>
      </trkpt>
      <trkpt lat="47.29212" lon="-0.1696">
        <ele>84.2</ele>
        <time>2012-11-04T09:41:07Z</time>
      </trkpt>
      <trkpt lat="47.29212" lon="-0.16969">
        <ele>84.3</ele>
        <time>2012-11-04T09:41:08Z</time>
      </trkpt>
      <trkpt lat="47.29211" lon="-0.16978">
        <ele>84.3</ele>
        <time>2012-11-04T09:41:09Z</time>
      </trkpt>
      <trkpt lat="47.2921" lon="-0.16995">
        <ele>84.1</ele>
        <time>2012-11-04T09:41:11Z</time>
      </trkpt>
      <trkpt lat="47.2921" lon="-0.17004">
        <ele>84</ele>
        <time>2012-11-04T09:41:12Z</time>
      </trkpt>
      <trkpt lat="47.2921" lon="-0.17011">
        <ele>84</ele>
        <time>2012-11-04T09:41:13Z</time>
      </trkpt>
      <trkpt lat="47.29209" lon="-0.17018">
        <ele>84</ele>
        <time>2012-11-04T09:41:14Z</time>
      </trkpt>
      <trkpt lat="47.29208" lon="-0.17025">
        <ele>84</ele>
        <time>2012-11-04T09:41:15Z</time>
      </trkpt>
      <trkpt lat="47.29207" lon="-0.17042">
        <ele>84</ele>
        <time>2012-11-04T09:41:17Z</time>
      </trkpt>
      <trkpt lat="47.29207" lon="-0.1705">
        <ele>84</ele>
        <time>2012-11-04T09:41:18Z</time>
      </trkpt>
      <trkpt lat="47.29207" lon="-0.17059">
        <ele>84</ele>
        <time>2012-11-04T09:41:19Z</time>
      </trkpt>
      <trkpt lat="47.29204" lon="-0.17102">
        <ele>84.7</ele>
        <time>2012-11-04T09:41:24Z</time>
      </trkpt>
      <trkpt lat="47.29205" lon="-0.17111">
        <ele>85</ele>
        <time>2012-11-04T09:41:25Z</time>
      </trkpt>
      <trkpt lat="47.29205" lon="-0.1712">
        <ele>85</ele>
        <time>2012-11-04T09:41:26Z</time>
      </trkpt>
      <trkpt lat="47.29208" lon="-0.17146">
        <ele>85</ele>
        <time>2012-11-04T09:41:29Z</time>
      </trkpt>
      <trkpt lat="47.29209" lon="-0.17153">
        <ele>85</ele>
        <time>2012-11-04T09:41:30Z</time>
      </trkpt>
      <trkpt lat="47.2921" lon="-0.17161">
        <ele>85</ele>
        <time>2012-11-04T09:41:31Z</time>
      </trkpt>
      <trkpt lat="47.29212" lon="-0.17176">
        <ele>84.8</ele>
        <time>2012-11-04T09:41:33Z</time>
      </trkpt>
      <trkpt lat="47.29217" lon="-0.1719">
        <ele>84.3</ele>
        <time>2012-11-04T09:41:35Z</time>
      </trkpt>
      <trkpt lat="47.29222" lon="-0.17205">
        <ele>84</ele>
        <time>2012-11-04T09:41:37Z</time>
      </trkpt>
      <trkpt lat="47.29226" lon="-0.17212">
        <ele>84</ele>
        <time>2012-11-04T09:41:38Z</time>
      </trkpt>
      <trkpt lat="47.29233" lon="-0.17238">
        <ele>83.8</ele>
        <time>2012-11-04T09:41:41Z</time>
      </trkpt>
      <trkpt lat="47.29234" lon="-0.17246">
        <ele>83.6</ele>
        <time>2012-11-04T09:41:42Z</time>
      </trkpt>
      <trkpt lat="47.29244" lon="-0.173">
        <ele>82.6</ele>
        <time>2012-11-04T09:41:48Z</time>
      </trkpt>
      <trkpt lat="47.2925" lon="-0.17333">
        <ele>82</ele>
        <time>2012-11-04T09:41:52Z</time>
      </trkpt>
      <trkpt lat="47.29252" lon="-0.17341">
        <ele>81.9</ele>
        <time>2012-11-04T09:41:53Z</time>
      </trkpt>
      <trkpt lat="47.29253" lon="-0.17349">
        <ele>81.9</ele>
        <time>2012-11-04T09:41:54Z</time>
      </trkpt>
      <trkpt lat="47.29255" lon="-0.17356">
        <ele>81.8</ele>
        <time>2012-11-04T09:41:55Z</time>
      </trkpt>
      <trkpt lat="47.29257" lon="-0.17363">
        <ele>81.8</ele>
        <time>2012-11-04T09:41:56Z</time>
      </trkpt>
      <trkpt lat="47.2926" lon="-0.17369">
        <ele>81.7</ele>
        <time>2012-11-04T09:41:57Z</time>
      </trkpt>
      <trkpt lat="47.29262" lon="-0.17376">
        <ele>81.8</ele>
        <time>2012-11-04T09:41:58Z</time>
      </trkpt>
      <trkpt lat="47.29265" lon="-0.17382">
        <ele>81.9</ele>
        <time>2012-11-04T09:41:59Z</time>
      </trkpt>
      <trkpt lat="47.29267" lon="-0.17389">
        <ele>82</ele>
        <time>2012-11-04T09:42:00Z</time>
      </trkpt>
      <trkpt lat="47.2927" lon="-0.17396">
        <ele>82.3</ele>
        <time>2012-11-04T09:42:01Z</time>
      </trkpt>
      <trkpt lat="47.29275" lon="-0.17409">
        <ele>82.8</ele>
        <time>2012-11-04T09:42:03Z</time>
      </trkpt>
      <trkpt lat="47.29277" lon="-0.17416">
        <ele>83</ele>
        <time>2012-11-04T09:42:04Z</time>
      </trkpt>
      <trkpt lat="47.29279" lon="-0.17423">
        <ele>83.2</ele>
        <time>2012-11-04T09:42:05Z</time>
      </trkpt>
      <trkpt lat="47.29281" lon="-0.17431">
        <ele>83.3</ele>
        <time>2012-11-04T09:42:06Z</time>
      </trkpt>
      <trkpt lat="47.29283" lon="-0.17438">
        <ele>83.4</ele>
        <time>2012-11-04T09:42:07Z</time>
      </trkpt>
      <trkpt lat="47.29284" lon="-0.17445">
        <ele>83.6</ele>
        <time>2012-11-04T09:42:08Z</time>
      </trkpt>
      <trkpt lat="47.29286" lon="-0.17451">
        <ele>83.5</ele>
        <time>2012-11-04T09:42:09Z</time>
      </trkpt>
      <trkpt lat="47.29287" lon="-0.17459">
        <ele>83.5</ele>
        <time>2012-11-04T09:42:10Z</time>
      </trkpt>
      <trkpt lat="47.29288" lon="-0.17465">
        <ele>83.5</ele>
        <time>2012-11-04T09:42:11Z</time>
      </trkpt>
      <trkpt lat="47.29291" lon="-0.17479">
        <ele>83.5</ele>
        <time>2012-11-04T09:42:13Z</time>
      </trkpt>
      <trkpt lat="47.29302" lon="-0.17513">
        <ele>83.1</ele>
        <time>2012-11-04T09:42:18Z</time>
      </trkpt>
      <trkpt lat="47.29305" lon="-0.1752">
        <ele>83</ele>
        <time>2012-11-04T09:42:19Z</time>
      </trkpt>
      <trkpt lat="47.29307" lon="-0.17526">
        <ele>82.9</ele>
        <time>2012-11-04T09:42:20Z</time>
      </trkpt>
      <trkpt lat="47.29309" lon="-0.17532">
        <ele>82.9</ele>
        <time>2012-11-04T09:42:21Z</time>
      </trkpt>
      <trkpt lat="47.29311" lon="-0.17539">
        <ele>82.8</ele>
        <time>2012-11-04T09:42:22Z</time>
      </trkpt>
      <trkpt lat="47.29313" lon="-0.17545">
        <ele>82.7</ele>
        <time>2012-11-04T09:42:23Z</time>
      </trkpt>
      <trkpt lat="47.29316" lon="-0.17558">
        <ele>82.7</ele>
        <time>2012-11-04T09:42:25Z</time>
      </trkpt>
      <trkpt lat="47.29318" lon="-0.17563">
        <ele>82.7</ele>
        <time>2012-11-04T09:42:26Z</time>
      </trkpt>
      <trkpt lat="47.29327" lon="-0.17588">
        <ele>82.6</ele>
        <time>2012-11-04T09:42:30Z</time>
      </trkpt>
      <trkpt lat="47.29329" lon="-0.17593">
        <ele>82.6</ele>
        <time>2012-11-04T09:42:31Z</time>
      </trkpt>
      <trkpt lat="47.29332" lon="-0.17599">
        <ele>82.6</ele>
        <time>2012-11-04T09:42:32Z</time>
      </trkpt>
      <trkpt lat="47.29334" lon="-0.17604">
        <ele>82.7</ele>
        <time>2012-11-04T09:42:33Z</time>
      </trkpt>
      <trkpt lat="47.29336" lon="-0.1761">
        <ele>82.9</ele>
        <time>2012-11-04T09:42:34Z</time>
      </trkpt>
      <trkpt lat="47.29342" lon="-0.17626">
        <ele>83.2</ele>
        <time>2012-11-04T09:42:37Z</time>
      </trkpt>
      <trkpt lat="47.29351" lon="-0.17648">
        <ele>83.4</ele>
        <time>2012-11-04T09:42:42Z</time>
      </trkpt>
      <trkpt lat="47.29355" lon="-0.1767">
        <ele>83.3</ele>
        <time>2012-11-04T09:42:48Z</time>
      </trkpt>
      <trkpt lat="47.29356" lon="-0.17673">
        <ele>83.4</ele>
        <time>2012-11-04T09:42:53Z</time>
      </trkpt>
      <trkpt lat="47.29357" lon="-0.17674">
        <ele>83.4</ele>
        <time>2012-11-04T09:44:03Z</time>
      </trkpt>
      <trkpt lat="47.29358" lon="-0.17676">
        <ele>83.4</ele>
        <time>2012-11-04T09:44:04Z</time>
      </trkpt>
      <trkpt lat="47.2936" lon="-0.17678">
        <ele>83.4</ele>
        <time>2012-11-04T09:44:05Z</time>
      </trkpt>
      <trkpt lat="47.29361" lon="-0.17681">
        <ele>83.5</ele>
        <time>2012-11-04T09:44:06Z</time>
      </trkpt>
      <trkpt lat="47.29363" lon="-0.17683">
        <ele>83.5</ele>
        <time>2012-11-04T09:44:07Z</time>
      </trkpt>
      <trkpt lat="47.29372" lon="-0.17698">
        <ele>83.3</ele>
        <time>2012-11-04T09:44:13Z</time>
      </trkpt>
      <trkpt lat="47.29382" lon="-0.17728">
        <ele>83.2</ele>
        <time>2012-11-04T09:44:19Z</time>
      </trkpt>
      <trkpt lat="47.29389" lon="-0.1775">
        <ele>83</ele>
        <time>2012-11-04T09:44:23Z</time>
      </trkpt>
      <trkpt lat="47.29392" lon="-0.17757">
        <ele>82.4</ele>
        <time>2012-11-04T09:44:24Z</time>
      </trkpt>
      <trkpt lat="47.29394" lon="-0.17764">
        <ele>82</ele>
        <time>2012-11-04T09:44:25Z</time>
      </trkpt>
      <trkpt lat="47.29397" lon="-0.17772">
        <ele>81.6</ele>
        <time>2012-11-04T09:44:26Z</time>
      </trkpt>
      <trkpt lat="47.29401" lon="-0.1778">
        <ele>81.1</ele>
        <time>2012-11-04T09:44:27Z</time>
      </trkpt>
      <trkpt lat="47.29405" lon="-0.17787">
        <ele>80.8</ele>
        <time>2012-11-04T09:44:28Z</time>
      </trkpt>
      <trkpt lat="47.29409" lon="-0.17794">
        <ele>80.6</ele>
        <time>2012-11-04T09:44:29Z</time>
      </trkpt>
      <trkpt lat="47.29418" lon="-0.17808">
        <ele>79.6</ele>
        <time>2012-11-04T09:44:31Z</time>
      </trkpt>
      <trkpt lat="47.29425" lon="-0.17825">
        <ele>77.3</ele>
        <time>2012-11-04T09:44:33Z</time>
      </trkpt>
      <trkpt lat="47.29428" lon="-0.17835">
        <ele>76.7</ele>
        <time>2012-11-04T09:44:34Z</time>
      </trkpt>
      <trkpt lat="47.29437" lon="-0.17864">
        <ele>76.7</ele>
        <time>2012-11-04T09:44:37Z</time>
      </trkpt>
      <trkpt lat="47.29447" lon="-0.17891">
        <ele>74.4</ele>
        <time>2012-11-04T09:44:40Z</time>
      </trkpt>
      <trkpt lat="47.29451" lon="-0.17899">
        <ele>73.1</ele>
        <time>2012-11-04T09:44:41Z</time>
      </trkpt>
      <trkpt lat="47.29457" lon="-0.17908">
        <ele>71.7</ele>
        <time>2012-11-04T09:44:42Z</time>
      </trkpt>
      <trkpt lat="47.29462" lon="-0.17917">
        <ele>70.7</ele>
        <time>2012-11-04T09:44:43Z</time>
      </trkpt>
      <trkpt lat="47.29468" lon="-0.17926">
        <ele>69.8</ele>
        <time>2012-11-04T09:44:44Z</time>
      </trkpt>
      <trkpt lat="47.2949" lon="-0.17954">
        <ele>66.4</ele>
        <time>2012-11-04T09:44:47Z</time>
      </trkpt>
      <trkpt lat="47.29521" lon="-0.17996">
        <ele>61</ele>
        <time>2012-11-04T09:44:51Z</time>
      </trkpt>
      <trkpt lat="47.29528" lon="-0.18007">
        <ele>59.7</ele>
        <time>2012-11-04T09:44:52Z</time>
      </trkpt>
      <trkpt lat="47.29557" lon="-0.1806">
        <ele>56.9</ele>
        <time>2012-11-04T09:44:57Z</time>
      </trkpt>
      <trkpt lat="47.29564" lon="-0.18072">
        <ele>56.4</ele>
        <time>2012-11-04T09:44:59Z</time>
      </trkpt>
      <trkpt lat="47.29586" lon="-0.18099">
        <ele>54.9</ele>
        <time>2012-11-04T09:45:05Z</time>
      </trkpt>
      <trkpt lat="47.29591" lon="-0.18104">
        <ele>54.7</ele>
        <time>2012-11-04T09:45:06Z</time>
      </trkpt>
      <trkpt lat="47.29612" lon="-0.18124">
        <ele>54.4</ele>
        <time>2012-11-04T09:45:11Z</time>
      </trkpt>
      <trkpt lat="47.29619" lon="-0.18129">
        <ele>54.5</ele>
        <time>2012-11-04T09:45:13Z</time>
      </trkpt>
      <trkpt lat="47.29635" lon="-0.18142">
        <ele>54.1</ele>
        <time>2012-11-04T09:45:18Z</time>
      </trkpt>
      <trkpt lat="47.2965" lon="-0.18161">
        <ele>54.7</ele>
        <time>2012-11-04T09:45:23Z</time>
      </trkpt>
      <trkpt lat="47.29661" lon="-0.18185">
        <ele>56.3</ele>
        <time>2012-11-04T09:45:28Z</time>
      </trkpt>
      <trkpt lat="47.29672" lon="-0.18207">
        <ele>58.7</ele>
        <time>2012-11-04T09:45:33Z</time>
      </trkpt>
      <trkpt lat="47.29674" lon="-0.18212">
        <ele>59.3</ele>
        <time>2012-11-04T09:45:34Z</time>
      </trkpt>
      <trkpt lat="47.29678" lon="-0.18225">
        <ele>60.9</ele>
        <time>2012-11-04T09:45:37Z</time>
      </trkpt>
      <trkpt lat="47.29684" lon="-0.1825">
        <ele>63.2</ele>
        <time>2012-11-04T09:45:43Z</time>
      </trkpt>
      <trkpt lat="47.29694" lon="-0.18273">
        <ele>65.6</ele>
        <time>2012-11-04T09:45:50Z</time>
      </trkpt>
      <trkpt lat="47.29706" lon="-0.18296">
        <ele>66.7</ele>
        <time>2012-11-04T09:45:57Z</time>
      </trkpt>
      <trkpt lat="47.29718" lon="-0.18307">
        <ele>67.1</ele>
        <time>2012-11-04T09:46:02Z</time>
      </trkpt>
      <trkpt lat="47.29737" lon="-0.18323">
        <ele>67.6</ele>
        <time>2012-11-04T09:46:09Z</time>
      </trkpt>
      <trkpt lat="47.29754" lon="-0.18335">
        <ele>67.9</ele>
        <time>2012-11-04T09:46:16Z</time>
      </trkpt>
      <trkpt lat="47.29758" lon="-0.18339">
        <ele>67.9</ele>
        <time>2012-11-04T09:47:20Z</time>
      </trkpt>
      <trkpt lat="47.29766" lon="-0.18344">
        <ele>67.8</ele>
        <time>2012-11-04T09:47:29Z</time>
      </trkpt>
      <trkpt lat="47.29768" lon="-0.18348">
        <ele>67.9</ele>
        <time>2012-11-04T09:47:30Z</time>
      </trkpt>
      <trkpt lat="47.2977" lon="-0.18352">
        <ele>68</ele>
        <time>2012-11-04T09:47:31Z</time>
      </trkpt>
      <trkpt lat="47.29774" lon="-0.18355">
        <ele>67.9</ele>
        <time>2012-11-04T09:47:32Z</time>
      </trkpt>
      <trkpt lat="47.29777" lon="-0.18359">
        <ele>68</ele>
        <time>2012-11-04T09:47:33Z</time>
      </trkpt>
      <trkpt lat="47.29781" lon="-0.18362">
        <ele>67.8</ele>
        <time>2012-11-04T09:47:34Z</time>
      </trkpt>
      <trkpt lat="47.29799" lon="-0.18375">
        <ele>66.6</ele>
        <time>2012-11-04T09:47:38Z</time>
      </trkpt>
      <trkpt lat="47.29809" lon="-0.1838">
        <ele>65.7</ele>
        <time>2012-11-04T09:47:40Z</time>
      </trkpt>
      <trkpt lat="47.29814" lon="-0.18384">
        <ele>65.1</ele>
        <time>2012-11-04T09:47:41Z</time>
      </trkpt>
      <trkpt lat="47.29818" lon="-0.18388">
        <ele>64.7</ele>
        <time>2012-11-04T09:47:42Z</time>
      </trkpt>
      <trkpt lat="47.29823" lon="-0.18393">
        <ele>64.1</ele>
        <time>2012-11-04T09:47:43Z</time>
      </trkpt>
      <trkpt lat="47.29829" lon="-0.18398">
        <ele>63.5</ele>
        <time>2012-11-04T09:47:44Z</time>
      </trkpt>
      <trkpt lat="47.29835" lon="-0.18403">
        <ele>62.9</ele>
        <time>2012-11-04T09:47:45Z</time>
      </trkpt>
      <trkpt lat="47.29841" lon="-0.18407">
        <ele>62.4</ele>
        <time>2012-11-04T09:47:46Z</time>
      </trkpt>
      <trkpt lat="47.29847" lon="-0.1841">
        <ele>62</ele>
        <time>2012-11-04T09:47:47Z</time>
      </trkpt>
      <trkpt lat="47.29853" lon="-0.18415">
        <ele>61.6</ele>
        <time>2012-11-04T09:47:48Z</time>
      </trkpt>
      <trkpt lat="47.29858" lon="-0.1842">
        <ele>61.2</ele>
        <time>2012-11-04T09:47:49Z</time>
      </trkpt>
      <trkpt lat="47.29864" lon="-0.18424">
        <ele>60.9</ele>
        <time>2012-11-04T09:47:50Z</time>
      </trkpt>
      <trkpt lat="47.2987" lon="-0.18426">
        <ele>60.8</ele>
        <time>2012-11-04T09:47:51Z</time>
      </trkpt>
      <trkpt lat="47.29874" lon="-0.18429">
        <ele>60.7</ele>
        <time>2012-11-04T09:47:52Z</time>
      </trkpt>
      <trkpt lat="47.29887" lon="-0.1843">
        <ele>60.5</ele>
        <time>2012-11-04T09:47:57Z</time>
      </trkpt>
      <trkpt lat="47.29915" lon="-0.18418">
        <ele>61.9</ele>
        <time>2012-11-04T09:48:03Z</time>
      </trkpt>
      <trkpt lat="47.2994" lon="-0.1841">
        <ele>63.2</ele>
        <time>2012-11-04T09:48:09Z</time>
      </trkpt>
      <trkpt lat="47.29956" lon="-0.18403">
        <ele>64.5</ele>
        <time>2012-11-04T09:48:14Z</time>
      </trkpt>
      <trkpt lat="47.2997" lon="-0.18399">
        <ele>65.8</ele>
        <time>2012-11-04T09:48:19Z</time>
      </trkpt>
      <trkpt lat="47.29994" lon="-0.18393">
        <ele>68.3</ele>
        <time>2012-11-04T09:48:26Z</time>
      </trkpt>
      <trkpt lat="47.29997" lon="-0.18393">
        <ele>68.7</ele>
        <time>2012-11-04T09:48:27Z</time>
      </trkpt>
      <trkpt lat="47.30001" lon="-0.18394">
        <ele>69.3</ele>
        <time>2012-11-04T09:48:28Z</time>
      </trkpt>
      <trkpt lat="47.30015" lon="-0.18399">
        <ele>71.3</ele>
        <time>2012-11-04T09:48:33Z</time>
      </trkpt>
      <trkpt lat="47.30018" lon="-0.184">
        <ele>71.7</ele>
        <time>2012-11-04T09:48:34Z</time>
      </trkpt>
      <trkpt lat="47.3002" lon="-0.18402">
        <ele>72</ele>
        <time>2012-11-04T09:48:35Z</time>
      </trkpt>
      <trkpt lat="47.30022" lon="-0.18405">
        <ele>72.3</ele>
        <time>2012-11-04T09:48:36Z</time>
      </trkpt>
      <trkpt lat="47.30024" lon="-0.18407">
        <ele>72.5</ele>
        <time>2012-11-04T09:48:37Z</time>
      </trkpt>
      <trkpt lat="47.30027" lon="-0.1841">
        <ele>72.9</ele>
        <time>2012-11-04T09:48:38Z</time>
      </trkpt>
      <trkpt lat="47.30029" lon="-0.18412">
        <ele>73.1</ele>
        <time>2012-11-04T09:48:39Z</time>
      </trkpt>
      <trkpt lat="47.30032" lon="-0.18415">
        <ele>73.3</ele>
        <time>2012-11-04T09:48:40Z</time>
      </trkpt>
      <trkpt lat="47.30034" lon="-0.18417">
        <ele>73.5</ele>
        <time>2012-11-04T09:48:41Z</time>
      </trkpt>
      <trkpt lat="47.30036" lon="-0.18419">
        <ele>73.7</ele>
        <time>2012-11-04T09:48:42Z</time>
      </trkpt>
      <trkpt lat="47.30039" lon="-0.18422">
        <ele>73.9</ele>
        <time>2012-11-04T09:48:43Z</time>
      </trkpt>
      <trkpt lat="47.30041" lon="-0.18425">
        <ele>74.1</ele>
        <time>2012-11-04T09:48:44Z</time>
      </trkpt>
      <trkpt lat="47.30042" lon="-0.18427">
        <ele>74.2</ele>
        <time>2012-11-04T09:48:45Z</time>
      </trkpt>
      <trkpt lat="47.30045" lon="-0.1843">
        <ele>74.4</ele>
        <time>2012-11-04T09:48:46Z</time>
      </trkpt>
      <trkpt lat="47.30048" lon="-0.18433">
        <ele>74.6</ele>
        <time>2012-11-04T09:48:47Z</time>
      </trkpt>
      <trkpt lat="47.3005" lon="-0.18436">
        <ele>74.7</ele>
        <time>2012-11-04T09:48:48Z</time>
      </trkpt>
      <trkpt lat="47.30053" lon="-0.18439">
        <ele>74.9</ele>
        <time>2012-11-04T09:48:49Z</time>
      </trkpt>
      <trkpt lat="47.30069" lon="-0.18449">
        <ele>74.6</ele>
        <time>2012-11-04T09:48:54Z</time>
      </trkpt>
      <trkpt lat="47.30094" lon="-0.1847">
        <ele>74.6</ele>
        <time>2012-11-04T09:49:01Z</time>
      </trkpt>
      <trkpt lat="47.30098" lon="-0.18473">
        <ele>74.5</ele>
        <time>2012-11-04T09:49:02Z</time>
      </trkpt>
      <trkpt lat="47.30102" lon="-0.18477">
        <ele>74.4</ele>
        <time>2012-11-04T09:49:03Z</time>
      </trkpt>
      <trkpt lat="47.30104" lon="-0.18479">
        <ele>74.4</ele>
        <time>2012-11-04T09:49:04Z</time>
      </trkpt>
      <trkpt lat="47.30106" lon="-0.18482">
        <ele>74.5</ele>
        <time>2012-11-04T09:49:05Z</time>
      </trkpt>
      <trkpt lat="47.30121" lon="-0.18495">
        <ele>74.5</ele>
        <time>2012-11-04T09:49:10Z</time>
      </trkpt>
      <trkpt lat="47.3014" lon="-0.18512">
        <ele>74.4</ele>
        <time>2012-11-04T09:49:16Z</time>
      </trkpt>
      <trkpt lat="47.30156" lon="-0.18521">
        <ele>73.7</ele>
        <time>2012-11-04T09:49:21Z</time>
      </trkpt>
      <trkpt lat="47.30179" lon="-0.18537">
        <ele>72.9</ele>
        <time>2012-11-04T09:49:28Z</time>
      </trkpt>
      <trkpt lat="47.30209" lon="-0.18558">
        <ele>72.6</ele>
        <time>2012-11-04T09:49:36Z</time>
      </trkpt>
      <trkpt lat="47.30239" lon="-0.18571">
        <ele>72.8</ele>
        <time>2012-11-04T09:49:44Z</time>
      </trkpt>
      <trkpt lat="47.30246" lon="-0.18574">
        <ele>73</ele>
        <time>2012-11-04T09:49:46Z</time>
      </trkpt>
      <trkpt lat="47.30271" lon="-0.18583">
        <ele>73</ele>
        <time>2012-11-04T09:49:52Z</time>
      </trkpt>
      <trkpt lat="47.30282" lon="-0.18587">
        <ele>73.1</ele>
        <time>2012-11-04T09:49:55Z</time>
      </trkpt>
      <trkpt lat="47.30286" lon="-0.18589">
        <ele>73.1</ele>
        <time>2012-11-04T09:49:56Z</time>
      </trkpt>
      <trkpt lat="47.30308" lon="-0.18603">
        <ele>72.6</ele>
        <time>2012-11-04T09:50:02Z</time>
      </trkpt>
      <trkpt lat="47.30332" lon="-0.18624">
        <ele>73</ele>
        <time>2012-11-04T09:50:09Z</time>
      </trkpt>
      <trkpt lat="47.30352" lon="-0.18643">
        <ele>72.9</ele>
        <time>2012-11-04T09:50:14Z</time>
      </trkpt>
      <trkpt lat="47.30376" lon="-0.18665">
        <ele>72.8</ele>
        <time>2012-11-04T09:50:21Z</time>
      </trkpt>
      <trkpt lat="47.30407" lon="-0.18689">
        <ele>72.8</ele>
        <time>2012-11-04T09:50:30Z</time>
      </trkpt>
      <trkpt lat="47.30435" lon="-0.1871">
        <ele>74.2</ele>
        <time>2012-11-04T09:50:39Z</time>
      </trkpt>
      <trkpt lat="47.30455" lon="-0.18727">
        <ele>75.4</ele>
        <time>2012-11-04T09:50:47Z</time>
      </trkpt>
      <trkpt lat="47.30472" lon="-0.18747">
        <ele>76.9</ele>
        <time>2012-11-04T09:50:55Z</time>
      </trkpt>
      <trkpt lat="47.30493" lon="-0.1877">
        <ele>79.2</ele>
        <time>2012-11-04T09:51:05Z</time>
      </trkpt>
      <trkpt lat="47.30508" lon="-0.18783">
        <ele>80.6</ele>
        <time>2012-11-04T09:51:12Z</time>
      </trkpt>
      <trkpt lat="47.30521" lon="-0.18794">
        <ele>81.5</ele>
        <time>2012-11-04T09:51:19Z</time>
      </trkpt>
      <trkpt lat="47.30535" lon="-0.188">
        <ele>82.5</ele>
        <time>2012-11-04T09:51:26Z</time>
      </trkpt>
      <trkpt lat="47.30558" lon="-0.18807">
        <ele>84.1</ele>
        <time>2012-11-04T09:51:35Z</time>
      </trkpt>
      <trkpt lat="47.3058" lon="-0.18809">
        <ele>84.9</ele>
        <time>2012-11-04T09:51:43Z</time>
      </trkpt>
      <trkpt lat="47.30606" lon="-0.18814">
        <ele>85.8</ele>
        <time>2012-11-04T09:51:51Z</time>
      </trkpt>
      <trkpt lat="47.30642" lon="-0.18822">
        <ele>87</ele>
        <time>2012-11-04T09:52:01Z</time>
      </trkpt>
      <trkpt lat="47.30678" lon="-0.1883">
        <ele>87</ele>
        <time>2012-11-04T09:52:10Z</time>
      </trkpt>
      <trkpt lat="47.30717" lon="-0.18839">
        <ele>87</ele>
        <time>2012-11-04T09:52:18Z</time>
      </trkpt>
      <trkpt lat="47.30766" lon="-0.1885">
        <ele>86</ele>
        <time>2012-11-04T09:52:27Z</time>
      </trkpt>
      <trkpt lat="47.3082" lon="-0.18863">
        <ele>85.4</ele>
        <time>2012-11-04T09:52:36Z</time>
      </trkpt>
      <trkpt lat="47.30876" lon="-0.18875">
        <ele>84.5</ele>
        <time>2012-11-04T09:52:45Z</time>
      </trkpt>
      <trkpt lat="47.30901" lon="-0.1888">
        <ele>83.6</ele>
        <time>2012-11-04T09:52:49Z</time>
      </trkpt>
      <trkpt lat="47.30907" lon="-0.18883">
        <ele>83.3</ele>
        <time>2012-11-04T09:52:50Z</time>
      </trkpt>
      <trkpt lat="47.30912" lon="-0.18889">
        <ele>83.2</ele>
        <time>2012-11-04T09:52:51Z</time>
      </trkpt>
      <trkpt lat="47.30915" lon="-0.18897">
        <ele>83.1</ele>
        <time>2012-11-04T09:52:52Z</time>
      </trkpt>
      <trkpt lat="47.30916" lon="-0.18905">
        <ele>83</ele>
        <time>2012-11-04T09:52:53Z</time>
      </trkpt>
      <trkpt lat="47.30917" lon="-0.18914">
        <ele>83</ele>
        <time>2012-11-04T09:52:54Z</time>
      </trkpt>
      <trkpt lat="47.30917" lon="-0.18923">
        <ele>83</ele>
        <time>2012-11-04T09:52:55Z</time>
      </trkpt>
      <trkpt lat="47.30919" lon="-0.19003">
        <ele>83</ele>
        <time>2012-11-04T09:53:04Z</time>
      </trkpt>
      <trkpt lat="47.30927" lon="-0.19064">
        <ele>83.6</ele>
        <time>2012-11-04T09:53:11Z</time>
      </trkpt>
      <trkpt lat="47.30941" lon="-0.19154">
        <ele>83.6</ele>
        <time>2012-11-04T09:53:22Z</time>
      </trkpt>
      <trkpt lat="47.30947" lon="-0.19191">
        <ele>83.9</ele>
        <time>2012-11-04T09:53:27Z</time>
      </trkpt>
      <trkpt lat="47.30951" lon="-0.19197">
        <ele>83.8</ele>
        <time>2012-11-04T09:53:28Z</time>
      </trkpt>
      <trkpt lat="47.30956" lon="-0.192">
        <ele>83.6</ele>
        <time>2012-11-04T09:53:29Z</time>
      </trkpt>
      <trkpt lat="47.30961" lon="-0.19199">
        <ele>83.4</ele>
        <time>2012-11-04T09:53:30Z</time>
      </trkpt>
      <trkpt lat="47.30967" lon="-0.19196">
        <ele>83.2</ele>
        <time>2012-11-04T09:53:31Z</time>
      </trkpt>
      <trkpt lat="47.30972" lon="-0.19191">
        <ele>83</ele>
        <time>2012-11-04T09:53:32Z</time>
      </trkpt>
      <trkpt lat="47.30977" lon="-0.19187">
        <ele>82.8</ele>
        <time>2012-11-04T09:53:33Z</time>
      </trkpt>
      <trkpt lat="47.30983" lon="-0.19183">
        <ele>82.6</ele>
        <time>2012-11-04T09:53:34Z</time>
      </trkpt>
      <trkpt lat="47.30988" lon="-0.1918">
        <ele>82.4</ele>
        <time>2012-11-04T09:53:35Z</time>
      </trkpt>
      <trkpt lat="47.30995" lon="-0.19178">
        <ele>82.2</ele>
        <time>2012-11-04T09:53:36Z</time>
      </trkpt>
      <trkpt lat="47.31001" lon="-0.19177">
        <ele>82</ele>
        <time>2012-11-04T09:53:37Z</time>
      </trkpt>
      <trkpt lat="47.31048" lon="-0.19168">
        <ele>80.3</ele>
        <time>2012-11-04T09:53:45Z</time>
      </trkpt>
      <trkpt lat="47.31101" lon="-0.19155">
        <ele>79.2</ele>
        <time>2012-11-04T09:53:54Z</time>
      </trkpt>
      <trkpt lat="47.31148" lon="-0.19145">
        <ele>78</ele>
        <time>2012-11-04T09:54:02Z</time>
      </trkpt>
      <trkpt lat="47.31199" lon="-0.1914">
        <ele>78</ele>
        <time>2012-11-04T09:54:11Z</time>
      </trkpt>
      <trkpt lat="47.31243" lon="-0.19131">
        <ele>78.2</ele>
        <time>2012-11-04T09:54:19Z</time>
      </trkpt>
      <trkpt lat="47.31254" lon="-0.19127">
        <ele>78.2</ele>
        <time>2012-11-04T09:54:21Z</time>
      </trkpt>
      <trkpt lat="47.31298" lon="-0.19105">
        <ele>74.5</ele>
        <time>2012-11-04T09:54:28Z</time>
      </trkpt>
      <trkpt lat="47.31347" lon="-0.19082">
        <ele>72.5</ele>
        <time>2012-11-04T09:54:35Z</time>
      </trkpt>
      <trkpt lat="47.31354" lon="-0.19081">
        <ele>72.2</ele>
        <time>2012-11-04T09:54:36Z</time>
      </trkpt>
      <trkpt lat="47.31361" lon="-0.19081">
        <ele>71.9</ele>
        <time>2012-11-04T09:54:37Z</time>
      </trkpt>
      <trkpt lat="47.31403" lon="-0.19079">
        <ele>69.5</ele>
        <time>2012-11-04T09:54:43Z</time>
      </trkpt>
      <trkpt lat="47.3141" lon="-0.19076">
        <ele>69.2</ele>
        <time>2012-11-04T09:54:44Z</time>
      </trkpt>
      <trkpt lat="47.3144" lon="-0.19057">
        <ele>69</ele>
        <time>2012-11-04T09:54:49Z</time>
      </trkpt>
      <trkpt lat="47.31483" lon="-0.19021">
        <ele>68</ele>
        <time>2012-11-04T09:54:57Z</time>
      </trkpt>
      <trkpt lat="47.31489" lon="-0.19017">
        <ele>68</ele>
        <time>2012-11-04T09:54:58Z</time>
      </trkpt>
      <trkpt lat="47.31529" lon="-0.19001">
        <ele>68</ele>
        <time>2012-11-04T09:55:05Z</time>
      </trkpt>
      <trkpt lat="47.3154" lon="-0.18997">
        <ele>67.9</ele>
        <time>2012-11-04T09:55:07Z</time>
      </trkpt>
      <trkpt lat="47.31573" lon="-0.18984">
        <ele>67.4</ele>
        <time>2012-11-04T09:55:14Z</time>
      </trkpt>
      <trkpt lat="47.31577" lon="-0.18981">
        <ele>67.2</ele>
        <time>2012-11-04T09:55:15Z</time>
      </trkpt>
      <trkpt lat="47.3159" lon="-0.18967">
        <ele>67</ele>
        <time>2012-11-04T09:55:19Z</time>
      </trkpt>
      <trkpt lat="47.31594" lon="-0.18966">
        <ele>67</ele>
        <time>2012-11-04T09:55:20Z</time>
      </trkpt>
      <trkpt lat="47.31598" lon="-0.18968">
        <ele>67</ele>
        <time>2012-11-04T09:55:21Z</time>
      </trkpt>
      <trkpt lat="47.31601" lon="-0.18972">
        <ele>67</ele>
        <time>2012-11-04T09:55:22Z</time>
      </trkpt>
      <trkpt lat="47.31603" lon="-0.18976">
        <ele>67</ele>
        <time>2012-11-04T09:55:23Z</time>
      </trkpt>
      <trkpt lat="47.31605" lon="-0.18981">
        <ele>67</ele>
        <time>2012-11-04T09:55:24Z</time>
      </trkpt>
      <trkpt lat="47.31619" lon="-0.19023">
        <ele>65.9</ele>
        <time>2012-11-04T09:55:33Z</time>
      </trkpt>
      <trkpt lat="47.31635" lon="-0.1907">
        <ele>65.5</ele>
        <time>2012-11-04T09:55:42Z</time>
      </trkpt>
      <trkpt lat="47.31637" lon="-0.19076">
        <ele>65.7</ele>
        <time>2012-11-04T09:55:43Z</time>
      </trkpt>
      <trkpt lat="47.31639" lon="-0.19082">
        <ele>65.9</ele>
        <time>2012-11-04T09:55:44Z</time>
      </trkpt>
      <trkpt lat="47.31647" lon="-0.19114">
        <ele>65.1</ele>
        <time>2012-11-04T09:55:49Z</time>
      </trkpt>
      <trkpt lat="47.31648" lon="-0.19121">
        <ele>65.4</ele>
        <time>2012-11-04T09:55:50Z</time>
      </trkpt>
      <trkpt lat="47.31649" lon="-0.19128">
        <ele>65.6</ele>
        <time>2012-11-04T09:55:51Z</time>
      </trkpt>
      <trkpt lat="47.31651" lon="-0.19134">
        <ele>65.8</ele>
        <time>2012-11-04T09:55:52Z</time>
      </trkpt>
      <trkpt lat="47.31652" lon="-0.19141">
        <ele>66</ele>
        <time>2012-11-04T09:55:53Z</time>
      </trkpt>
      <trkpt lat="47.31659" lon="-0.19174">
        <ele>67</ele>
        <time>2012-11-04T09:55:58Z</time>
      </trkpt>
      <trkpt lat="47.31666" lon="-0.19204">
        <ele>68</ele>
        <time>2012-11-04T09:56:03Z</time>
      </trkpt>
      <trkpt lat="47.31678" lon="-0.19254">
        <ele>69.6</ele>
        <time>2012-11-04T09:56:11Z</time>
      </trkpt>
      <trkpt lat="47.31699" lon="-0.1931">
        <ele>71.2</ele>
        <time>2012-11-04T09:56:21Z</time>
      </trkpt>
      <trkpt lat="47.31707" lon="-0.19333">
        <ele>71.9</ele>
        <time>2012-11-04T09:56:25Z</time>
      </trkpt>
      <trkpt lat="47.31729" lon="-0.19387">
        <ele>73.2</ele>
        <time>2012-11-04T09:56:35Z</time>
      </trkpt>
      <trkpt lat="47.31753" lon="-0.19435">
        <ele>74</ele>
        <time>2012-11-04T09:56:44Z</time>
      </trkpt>
      <trkpt lat="47.31758" lon="-0.19446">
        <ele>74</ele>
        <time>2012-11-04T09:56:46Z</time>
      </trkpt>
      <trkpt lat="47.31761" lon="-0.19451">
        <ele>74</ele>
        <time>2012-11-04T09:56:47Z</time>
      </trkpt>
      <trkpt lat="47.31794" lon="-0.19515">
        <ele>74.2</ele>
        <time>2012-11-04T09:56:58Z</time>
      </trkpt>
      <trkpt lat="47.31822" lon="-0.1957">
        <ele>74.4</ele>
        <time>2012-11-04T09:57:07Z</time>
      </trkpt>
      <trkpt lat="47.31838" lon="-0.19607">
        <ele>74</ele>
        <time>2012-11-04T09:57:14Z</time>
      </trkpt>
      <trkpt lat="47.31847" lon="-0.1963">
        <ele>74</ele>
        <time>2012-11-04T09:57:19Z</time>
      </trkpt>
      <trkpt lat="47.31863" lon="-0.19675">
        <ele>74.3</ele>
        <time>2012-11-04T09:57:26Z</time>
      </trkpt>
      <trkpt lat="47.3187" lon="-0.19692">
        <ele>74.9</ele>
        <time>2012-11-04T09:57:29Z</time>
      </trkpt>
      <trkpt lat="47.31889" lon="-0.19735">
        <ele>75.9</ele>
        <time>2012-11-04T09:57:37Z</time>
      </trkpt>
      <trkpt lat="47.31901" lon="-0.1978">
        <ele>78</ele>
        <time>2012-11-04T09:57:46Z</time>
      </trkpt>
      <trkpt lat="47.31912" lon="-0.19831">
        <ele>77.8</ele>
        <time>2012-11-04T09:57:55Z</time>
      </trkpt>
      <trkpt lat="47.31928" lon="-0.19876">
        <ele>78.2</ele>
        <time>2012-11-04T09:58:03Z</time>
      </trkpt>
      <trkpt lat="47.31938" lon="-0.19907">
        <ele>78.8</ele>
        <time>2012-11-04T09:58:10Z</time>
      </trkpt>
      <trkpt lat="47.31937" lon="-0.1991">
        <ele>78.7</ele>
        <time>2012-11-04T09:58:11Z</time>
      </trkpt>
      <trkpt lat="47.31936" lon="-0.19912">
        <ele>78.7</ele>
        <time>2012-11-04T09:58:12Z</time>
      </trkpt>
      <trkpt lat="47.31933" lon="-0.19915">
        <ele>78.6</ele>
        <time>2012-11-04T09:58:13Z</time>
      </trkpt>
      <trkpt lat="47.3193" lon="-0.19917">
        <ele>78.5</ele>
        <time>2012-11-04T09:58:14Z</time>
      </trkpt>
      <trkpt lat="47.31915" lon="-0.19924">
        <ele>78.2</ele>
        <time>2012-11-04T09:58:20Z</time>
      </trkpt>
      <trkpt lat="47.31903" lon="-0.19932">
        <ele>78.1</ele>
        <time>2012-11-04T09:58:26Z</time>
      </trkpt>
      <trkpt lat="47.31897" lon="-0.19945">
        <ele>78.3</ele>
        <time>2012-11-04T09:58:31Z</time>
      </trkpt>
      <trkpt lat="47.31897" lon="-0.19949">
        <ele>78.3</ele>
        <time>2012-11-04T09:58:32Z</time>
      </trkpt>
      <trkpt lat="47.31898" lon="-0.19953">
        <ele>78.3</ele>
        <time>2012-11-04T09:58:33Z</time>
      </trkpt>
      <trkpt lat="47.31899" lon="-0.19957">
        <ele>78.4</ele>
        <time>2012-11-04T09:58:34Z</time>
      </trkpt>
      <trkpt lat="47.319" lon="-0.19961">
        <ele>78.4</ele>
        <time>2012-11-04T09:58:35Z</time>
      </trkpt>
      <trkpt lat="47.319" lon="-0.19966">
        <ele>78.4</ele>
        <time>2012-11-04T09:58:36Z</time>
      </trkpt>
      <trkpt lat="47.3191" lon="-0.20004">
        <ele>78.7</ele>
        <time>2012-11-04T09:58:44Z</time>
      </trkpt>
      <trkpt lat="47.31915" lon="-0.20041">
        <ele>78</ele>
        <time>2012-11-04T09:58:51Z</time>
      </trkpt>
      <trkpt lat="47.31913" lon="-0.20045">
        <ele>78</ele>
        <time>2012-11-04T09:58:52Z</time>
      </trkpt>
      <trkpt lat="47.3191" lon="-0.20048">
        <ele>78</ele>
        <time>2012-11-04T09:58:53Z</time>
      </trkpt>
      <trkpt lat="47.31907" lon="-0.20051">
        <ele>78</ele>
        <time>2012-11-04T09:58:54Z</time>
      </trkpt>
      <trkpt lat="47.31903" lon="-0.20052">
        <ele>78</ele>
        <time>2012-11-04T09:58:55Z</time>
      </trkpt>
      <trkpt lat="47.31899" lon="-0.20054">
        <ele>78</ele>
        <time>2012-11-04T09:58:56Z</time>
      </trkpt>
      <trkpt lat="47.31895" lon="-0.20056">
        <ele>78</ele>
        <time>2012-11-04T09:58:57Z</time>
      </trkpt>
      <trkpt lat="47.3187" lon="-0.20069">
        <ele>77.3</ele>
        <time>2012-11-04T09:59:03Z</time>
      </trkpt>
      <trkpt lat="47.31834" lon="-0.2009">
        <ele>77</ele>
        <time>2012-11-04T09:59:11Z</time>
      </trkpt>
      <trkpt lat="47.3183" lon="-0.20093">
        <ele>77</ele>
        <time>2012-11-04T09:59:12Z</time>
      </trkpt>
      <trkpt lat="47.31825" lon="-0.20096">
        <ele>77</ele>
        <time>2012-11-04T09:59:13Z</time>
      </trkpt>
      <trkpt lat="47.31796" lon="-0.20114">
        <ele>76.9</ele>
        <time>2012-11-04T09:59:20Z</time>
      </trkpt>
      <trkpt lat="47.31792" lon="-0.20116">
        <ele>76.9</ele>
        <time>2012-11-04T09:59:21Z</time>
      </trkpt>
      <trkpt lat="47.31757" lon="-0.20138">
        <ele>77.7</ele>
        <time>2012-11-04T09:59:30Z</time>
      </trkpt>
      <trkpt lat="47.31755" lon="-0.20141">
        <ele>77.8</ele>
        <time>2012-11-04T09:59:31Z</time>
      </trkpt>
      <trkpt lat="47.31754" lon="-0.20145">
        <ele>77.9</ele>
        <time>2012-11-04T09:59:32Z</time>
      </trkpt>
      <trkpt lat="47.31755" lon="-0.20149">
        <ele>77.8</ele>
        <time>2012-11-04T09:59:33Z</time>
      </trkpt>
      <trkpt lat="47.31756" lon="-0.20153">
        <ele>77.8</ele>
        <time>2012-11-04T09:59:34Z</time>
      </trkpt>
      <trkpt lat="47.31759" lon="-0.20158">
        <ele>77.7</ele>
        <time>2012-11-04T09:59:35Z</time>
      </trkpt>
      <trkpt lat="47.31762" lon="-0.20162">
        <ele>77.6</ele>
        <time>2012-11-04T09:59:36Z</time>
      </trkpt>
      <trkpt lat="47.31764" lon="-0.20167">
        <ele>77.5</ele>
        <time>2012-11-04T09:59:37Z</time>
      </trkpt>
      <trkpt lat="47.31766" lon="-0.20172">
        <ele>77.4</ele>
        <time>2012-11-04T09:59:38Z</time>
      </trkpt>
      <trkpt lat="47.31768" lon="-0.20182">
        <ele>77.4</ele>
        <time>2012-11-04T09:59:40Z</time>
      </trkpt>
      <trkpt lat="47.31767" lon="-0.20186">
        <ele>77.4</ele>
        <time>2012-11-04T09:59:41Z</time>
      </trkpt>
      <trkpt lat="47.31765" lon="-0.20189">
        <ele>77.5</ele>
        <time>2012-11-04T09:59:42Z</time>
      </trkpt>
      <trkpt lat="47.31762" lon="-0.20192">
        <ele>77.6</ele>
        <time>2012-11-04T09:59:43Z</time>
      </trkpt>
      <trkpt lat="47.31759" lon="-0.20193">
        <ele>77.7</ele>
        <time>2012-11-04T09:59:44Z</time>
      </trkpt>
      <trkpt lat="47.31756" lon="-0.20195">
        <ele>77.8</ele>
        <time>2012-11-04T09:59:45Z</time>
      </trkpt>
      <trkpt lat="47.31752" lon="-0.20197">
        <ele>77.9</ele>
        <time>2012-11-04T09:59:46Z</time>
      </trkpt>
      <trkpt lat="47.31729" lon="-0.20211">
        <ele>78.8</ele>
        <time>2012-11-04T09:59:53Z</time>
      </trkpt>
      <trkpt lat="47.31708" lon="-0.20224">
        <ele>79.5</ele>
        <time>2012-11-04T10:00:00Z</time>
      </trkpt>
      <trkpt lat="47.31691" lon="-0.20224">
        <ele>80.2</ele>
        <time>2012-11-04T10:00:06Z</time>
      </trkpt>
      <trkpt lat="47.31684" lon="-0.20204">
        <ele>81.2</ele>
        <time>2012-11-04T10:00:11Z</time>
      </trkpt>
      <trkpt lat="47.31681" lon="-0.20191">
        <ele>81.5</ele>
        <time>2012-11-04T10:00:16Z</time>
      </trkpt>
      <trkpt lat="47.31678" lon="-0.20189">
        <ele>81.6</ele>
        <time>2012-11-04T10:00:21Z</time>
      </trkpt>
      <trkpt lat="47.31677" lon="-0.2019">
        <ele>81.6</ele>
        <time>2012-11-04T10:00:27Z</time>
      </trkpt>
      <trkpt lat="47.31677" lon="-0.20193">
        <ele>81.6</ele>
        <time>2012-11-04T10:01:09Z</time>
      </trkpt>
      <trkpt lat="47.31677" lon="-0.20195">
        <ele>81.6</ele>
        <time>2012-11-04T10:01:15Z</time>
      </trkpt>
      <trkpt lat="47.31677" lon="-0.20196">
        <ele>81.6</ele>
        <time>2012-11-04T10:01:16Z</time>
      </trkpt>
      <trkpt lat="47.31677" lon="-0.202">
        <ele>81.6</ele>
        <time>2012-11-04T10:01:17Z</time>
      </trkpt>
      <trkpt lat="47.31677" lon="-0.20203">
        <ele>81.5</ele>
        <time>2012-11-04T10:01:18Z</time>
      </trkpt>
      <trkpt lat="47.31678" lon="-0.20207">
        <ele>81.4</ele>
        <time>2012-11-04T10:01:19Z</time>
      </trkpt>
      <trkpt lat="47.31678" lon="-0.20211">
        <ele>81.3</ele>
        <time>2012-11-04T10:01:20Z</time>
      </trkpt>
      <trkpt lat="47.31677" lon="-0.20216">
        <ele>81.3</ele>
        <time>2012-11-04T10:01:21Z</time>
      </trkpt>
      <trkpt lat="47.31676" lon="-0.20222">
        <ele>81.3</ele>
        <time>2012-11-04T10:01:22Z</time>
      </trkpt>
      <trkpt lat="47.31674" lon="-0.20229">
        <ele>81.5</ele>
        <time>2012-11-04T10:01:23Z</time>
      </trkpt>
      <trkpt lat="47.31672" lon="-0.20235">
        <ele>81.6</ele>
        <time>2012-11-04T10:01:24Z</time>
      </trkpt>
      <trkpt lat="47.31663" lon="-0.20263">
        <ele>81.6</ele>
        <time>2012-11-04T10:01:29Z</time>
      </trkpt>
      <trkpt lat="47.3166" lon="-0.20269">
        <ele>81.5</ele>
        <time>2012-11-04T10:01:30Z</time>
      </trkpt>
      <trkpt lat="47.31647" lon="-0.20302">
        <ele>81.7</ele>
        <time>2012-11-04T10:01:35Z</time>
      </trkpt>
      <trkpt lat="47.31645" lon="-0.20308">
        <ele>81.7</ele>
        <time>2012-11-04T10:01:36Z</time>
      </trkpt>
      <trkpt lat="47.31641" lon="-0.20313">
        <ele>81.7</ele>
        <time>2012-11-04T10:01:37Z</time>
      </trkpt>
      <trkpt lat="47.31638" lon="-0.20319">
        <ele>81.5</ele>
        <time>2012-11-04T10:01:38Z</time>
      </trkpt>
      <trkpt lat="47.31636" lon="-0.20324">
        <ele>81.4</ele>
        <time>2012-11-04T10:01:39Z</time>
      </trkpt>
      <trkpt lat="47.31633" lon="-0.2033">
        <ele>81.3</ele>
        <time>2012-11-04T10:01:40Z</time>
      </trkpt>
      <trkpt lat="47.31627" lon="-0.20342">
        <ele>81.4</ele>
        <time>2012-11-04T10:01:42Z</time>
      </trkpt>
      <trkpt lat="47.3162" lon="-0.20361">
        <ele>81.7</ele>
        <time>2012-11-04T10:01:45Z</time>
      </trkpt>
      <trkpt lat="47.31619" lon="-0.20367">
        <ele>81.5</ele>
        <time>2012-11-04T10:01:46Z</time>
      </trkpt>
      <trkpt lat="47.31617" lon="-0.2038">
        <ele>81.1</ele>
        <time>2012-11-04T10:01:48Z</time>
      </trkpt>
      <trkpt lat="47.31615" lon="-0.20387">
        <ele>80.9</ele>
        <time>2012-11-04T10:01:49Z</time>
      </trkpt>
      <trkpt lat="47.3161" lon="-0.20408">
        <ele>80.3</ele>
        <time>2012-11-04T10:01:52Z</time>
      </trkpt>
      <trkpt lat="47.31608" lon="-0.20415">
        <ele>80.2</ele>
        <time>2012-11-04T10:01:53Z</time>
      </trkpt>
      <trkpt lat="47.31606" lon="-0.20421">
        <ele>80</ele>
        <time>2012-11-04T10:01:54Z</time>
      </trkpt>
      <trkpt lat="47.31604" lon="-0.20428">
        <ele>79.8</ele>
        <time>2012-11-04T10:01:55Z</time>
      </trkpt>
      <trkpt lat="47.31602" lon="-0.20434">
        <ele>79.7</ele>
        <time>2012-11-04T10:01:56Z</time>
      </trkpt>
      <trkpt lat="47.316" lon="-0.20438">
        <ele>79.6</ele>
        <time>2012-11-04T10:01:57Z</time>
      </trkpt>
      <trkpt lat="47.31598" lon="-0.20443">
        <ele>79.5</ele>
        <time>2012-11-04T10:01:58Z</time>
      </trkpt>
      <trkpt lat="47.31596" lon="-0.20448">
        <ele>79.3</ele>
        <time>2012-11-04T10:01:59Z</time>
      </trkpt>
      <trkpt lat="47.31594" lon="-0.20454">
        <ele>78.9</ele>
        <time>2012-11-04T10:02:00Z</time>
      </trkpt>
      <trkpt lat="47.31583" lon="-0.20482">
        <ele>78</ele>
        <time>2012-11-04T10:02:05Z</time>
      </trkpt>
      <trkpt lat="47.31582" lon="-0.20504">
        <ele>78</ele>
        <time>2012-11-04T10:02:10Z</time>
      </trkpt>
      <trkpt lat="47.31581" lon="-0.20511">
        <ele>78.1</ele>
        <time>2012-11-04T10:02:11Z</time>
      </trkpt>
      <trkpt lat="47.3158" lon="-0.20518">
        <ele>78.1</ele>
        <time>2012-11-04T10:02:12Z</time>
      </trkpt>
      <trkpt lat="47.31578" lon="-0.20526">
        <ele>78.2</ele>
        <time>2012-11-04T10:02:13Z</time>
      </trkpt>
      <trkpt lat="47.31575" lon="-0.20534">
        <ele>78.1</ele>
        <time>2012-11-04T10:02:14Z</time>
      </trkpt>
      <trkpt lat="47.31574" lon="-0.20541">
        <ele>77.9</ele>
        <time>2012-11-04T10:02:15Z</time>
      </trkpt>
      <trkpt lat="47.31567" lon="-0.20569">
        <ele>77.6</ele>
        <time>2012-11-04T10:02:19Z</time>
      </trkpt>
      <trkpt lat="47.31565" lon="-0.20576">
        <ele>77.7</ele>
        <time>2012-11-04T10:02:20Z</time>
      </trkpt>
      <trkpt lat="47.31564" lon="-0.20583">
        <ele>77.7</ele>
        <time>2012-11-04T10:02:21Z</time>
      </trkpt>
      <trkpt lat="47.31562" lon="-0.20589">
        <ele>77.8</ele>
        <time>2012-11-04T10:02:22Z</time>
      </trkpt>
      <trkpt lat="47.3156" lon="-0.20595">
        <ele>77.8</ele>
        <time>2012-11-04T10:02:23Z</time>
      </trkpt>
      <trkpt lat="47.31558" lon="-0.20601">
        <ele>77.9</ele>
        <time>2012-11-04T10:02:24Z</time>
      </trkpt>
      <trkpt lat="47.31556" lon="-0.20608">
        <ele>78</ele>
        <time>2012-11-04T10:02:25Z</time>
      </trkpt>
      <trkpt lat="47.31548" lon="-0.20625">
        <ele>78.3</ele>
        <time>2012-11-04T10:02:28Z</time>
      </trkpt>
      <trkpt lat="47.31546" lon="-0.20631">
        <ele>78.3</ele>
        <time>2012-11-04T10:02:29Z</time>
      </trkpt>
      <trkpt lat="47.31532" lon="-0.20665">
        <ele>78.8</ele>
        <time>2012-11-04T10:02:35Z</time>
      </trkpt>
      <trkpt lat="47.31524" lon="-0.20682">
        <ele>78.5</ele>
        <time>2012-11-04T10:02:38Z</time>
      </trkpt>
      <trkpt lat="47.31523" lon="-0.20688">
        <ele>78.4</ele>
        <time>2012-11-04T10:02:39Z</time>
      </trkpt>
      <trkpt lat="47.31522" lon="-0.20694">
        <ele>78.2</ele>
        <time>2012-11-04T10:02:40Z</time>
      </trkpt>
      <trkpt lat="47.31507" lon="-0.2073">
        <ele>78.5</ele>
        <time>2012-11-04T10:02:46Z</time>
      </trkpt>
      <trkpt lat="47.31498" lon="-0.20755">
        <ele>77.9</ele>
        <time>2012-11-04T10:02:50Z</time>
      </trkpt>
      <trkpt lat="47.31496" lon="-0.20762">
        <ele>77.7</ele>
        <time>2012-11-04T10:02:51Z</time>
      </trkpt>
      <trkpt lat="47.31492" lon="-0.20782">
        <ele>77.2</ele>
        <time>2012-11-04T10:02:54Z</time>
      </trkpt>
      <trkpt lat="47.31491" lon="-0.20789">
        <ele>77.2</ele>
        <time>2012-11-04T10:02:55Z</time>
      </trkpt>
      <trkpt lat="47.31487" lon="-0.20826">
        <ele>77</ele>
        <time>2012-11-04T10:03:00Z</time>
      </trkpt>
      <trkpt lat="47.31485" lon="-0.20834">
        <ele>77</ele>
        <time>2012-11-04T10:03:01Z</time>
      </trkpt>
      <trkpt lat="47.31483" lon="-0.20842">
        <ele>77</ele>
        <time>2012-11-04T10:03:02Z</time>
      </trkpt>
      <trkpt lat="47.31472" lon="-0.20881">
        <ele>77.7</ele>
        <time>2012-11-04T10:03:08Z</time>
      </trkpt>
      <trkpt lat="47.31468" lon="-0.20885">
        <ele>77.9</ele>
        <time>2012-11-04T10:03:09Z</time>
      </trkpt>
      <trkpt lat="47.31464" lon="-0.20887">
        <ele>78</ele>
        <time>2012-11-04T10:03:10Z</time>
      </trkpt>
      <trkpt lat="47.31431" lon="-0.20902">
        <ele>78.7</ele>
        <time>2012-11-04T10:03:18Z</time>
      </trkpt>
      <trkpt lat="47.31404" lon="-0.20921">
        <ele>79.5</ele>
        <time>2012-11-04T10:03:26Z</time>
      </trkpt>
      <trkpt lat="47.31385" lon="-0.20937">
        <ele>80</ele>
        <time>2012-11-04T10:03:32Z</time>
      </trkpt>
      <trkpt lat="47.31361" lon="-0.20954">
        <ele>80</ele>
        <time>2012-11-04T10:03:40Z</time>
      </trkpt>
      <trkpt lat="47.31327" lon="-0.20976">
        <ele>81.2</ele>
        <time>2012-11-04T10:03:51Z</time>
      </trkpt>
      <trkpt lat="47.3131" lon="-0.20989">
        <ele>81.8</ele>
        <time>2012-11-04T10:03:57Z</time>
      </trkpt>
      <trkpt lat="47.31296" lon="-0.21008">
        <ele>82.2</ele>
        <time>2012-11-04T10:04:03Z</time>
      </trkpt>
      <trkpt lat="47.31281" lon="-0.21029">
        <ele>82</ele>
        <time>2012-11-04T10:04:10Z</time>
      </trkpt>
      <trkpt lat="47.31259" lon="-0.21043">
        <ele>82.9</ele>
        <time>2012-11-04T10:04:17Z</time>
      </trkpt>
      <trkpt lat="47.31233" lon="-0.21056">
        <ele>83.6</ele>
        <time>2012-11-04T10:04:25Z</time>
      </trkpt>
      <trkpt lat="47.31207" lon="-0.2107">
        <ele>84.5</ele>
        <time>2012-11-04T10:04:34Z</time>
      </trkpt>
      <trkpt lat="47.31199" lon="-0.21076">
        <ele>84.8</ele>
        <time>2012-11-04T10:04:37Z</time>
      </trkpt>
      <trkpt lat="47.31176" lon="-0.21089">
        <ele>85</ele>
        <time>2012-11-04T10:04:44Z</time>
      </trkpt>
      <trkpt lat="47.31165" lon="-0.21095">
        <ele>85</ele>
        <time>2012-11-04T10:04:47Z</time>
      </trkpt>
      <trkpt lat="47.31163" lon="-0.21098">
        <ele>85.1</ele>
        <time>2012-11-04T10:04:48Z</time>
      </trkpt>
      <trkpt lat="47.31162" lon="-0.21103">
        <ele>85</ele>
        <time>2012-11-04T10:04:49Z</time>
      </trkpt>
      <trkpt lat="47.31162" lon="-0.21107">
        <ele>85</ele>
        <time>2012-11-04T10:04:50Z</time>
      </trkpt>
      <trkpt lat="47.31163" lon="-0.21111">
        <ele>85</ele>
        <time>2012-11-04T10:04:51Z</time>
      </trkpt>
      <trkpt lat="47.31169" lon="-0.21145">
        <ele>84.8</ele>
        <time>2012-11-04T10:04:57Z</time>
      </trkpt>
      <trkpt lat="47.31183" lon="-0.21199">
        <ele>84</ele>
        <time>2012-11-04T10:05:05Z</time>
      </trkpt>
      <trkpt lat="47.31193" lon="-0.21251">
        <ele>83.1</ele>
        <time>2012-11-04T10:05:12Z</time>
      </trkpt>
      <trkpt lat="47.31212" lon="-0.21297">
        <ele>83</ele>
        <time>2012-11-04T10:05:19Z</time>
      </trkpt>
      <trkpt lat="47.31218" lon="-0.21317">
        <ele>83</ele>
        <time>2012-11-04T10:05:22Z</time>
      </trkpt>
      <trkpt lat="47.31219" lon="-0.21323">
        <ele>83</ele>
        <time>2012-11-04T10:05:23Z</time>
      </trkpt>
      <trkpt lat="47.31234" lon="-0.21382">
        <ele>83</ele>
        <time>2012-11-04T10:05:32Z</time>
      </trkpt>
      <trkpt lat="47.31249" lon="-0.21439">
        <ele>83</ele>
        <time>2012-11-04T10:05:41Z</time>
      </trkpt>
      <trkpt lat="47.31265" lon="-0.21501">
        <ele>83</ele>
        <time>2012-11-04T10:05:51Z</time>
      </trkpt>
      <trkpt lat="47.31279" lon="-0.21555">
        <ele>83.9</ele>
        <time>2012-11-04T10:06:00Z</time>
      </trkpt>
      <trkpt lat="47.31287" lon="-0.21584">
        <ele>83.3</ele>
        <time>2012-11-04T10:06:05Z</time>
      </trkpt>
      <trkpt lat="47.31288" lon="-0.2159">
        <ele>83.4</ele>
        <time>2012-11-04T10:06:06Z</time>
      </trkpt>
      <trkpt lat="47.31289" lon="-0.21596">
        <ele>83.4</ele>
        <time>2012-11-04T10:06:07Z</time>
      </trkpt>
      <trkpt lat="47.31297" lon="-0.21635">
        <ele>83.1</ele>
        <time>2012-11-04T10:06:14Z</time>
      </trkpt>
      <trkpt lat="47.31298" lon="-0.21638">
        <ele>83</ele>
        <time>2012-11-04T10:06:15Z</time>
      </trkpt>
      <trkpt lat="47.313" lon="-0.2164">
        <ele>83</ele>
        <time>2012-11-04T10:06:16Z</time>
      </trkpt>
      <trkpt lat="47.31303" lon="-0.21638">
        <ele>83</ele>
        <time>2012-11-04T10:06:17Z</time>
      </trkpt>
      <trkpt lat="47.31306" lon="-0.21636">
        <ele>83.1</ele>
        <time>2012-11-04T10:06:18Z</time>
      </trkpt>
      <trkpt lat="47.31309" lon="-0.21632">
        <ele>83.3</ele>
        <time>2012-11-04T10:06:19Z</time>
      </trkpt>
      <trkpt lat="47.31313" lon="-0.2163">
        <ele>83.5</ele>
        <time>2012-11-04T10:06:20Z</time>
      </trkpt>
      <trkpt lat="47.31319" lon="-0.21626">
        <ele>83.7</ele>
        <time>2012-11-04T10:06:21Z</time>
      </trkpt>
      <trkpt lat="47.31349" lon="-0.21603">
        <ele>84</ele>
        <time>2012-11-04T10:06:27Z</time>
      </trkpt>
      <trkpt lat="47.31393" lon="-0.21577">
        <ele>84</ele>
        <time>2012-11-04T10:06:36Z</time>
      </trkpt>
      <trkpt lat="47.31397" lon="-0.21578">
        <ele>84</ele>
        <time>2012-11-04T10:06:37Z</time>
      </trkpt>
      <trkpt lat="47.31401" lon="-0.21583">
        <ele>84</ele>
        <time>2012-11-04T10:06:38Z</time>
      </trkpt>
      <trkpt lat="47.31403" lon="-0.21588">
        <ele>84</ele>
        <time>2012-11-04T10:06:39Z</time>
      </trkpt>
      <trkpt lat="47.31403" lon="-0.21595">
        <ele>84</ele>
        <time>2012-11-04T10:06:40Z</time>
      </trkpt>
      <trkpt lat="47.31403" lon="-0.21601">
        <ele>84</ele>
        <time>2012-11-04T10:06:41Z</time>
      </trkpt>
      <trkpt lat="47.31404" lon="-0.21607">
        <ele>84</ele>
        <time>2012-11-04T10:06:42Z</time>
      </trkpt>
      <trkpt lat="47.31404" lon="-0.21613">
        <ele>84</ele>
        <time>2012-11-04T10:06:43Z</time>
      </trkpt>
      <trkpt lat="47.31406" lon="-0.21619">
        <ele>84</ele>
        <time>2012-11-04T10:06:44Z</time>
      </trkpt>
      <trkpt lat="47.31409" lon="-0.21625">
        <ele>84</ele>
        <time>2012-11-04T10:06:45Z</time>
      </trkpt>
      <trkpt lat="47.31412" lon="-0.21631">
        <ele>84</ele>
        <time>2012-11-04T10:06:46Z</time>
      </trkpt>
      <trkpt lat="47.31415" lon="-0.21636">
        <ele>84</ele>
        <time>2012-11-04T10:06:47Z</time>
      </trkpt>
      <trkpt lat="47.31418" lon="-0.21642">
        <ele>84</ele>
        <time>2012-11-04T10:06:48Z</time>
      </trkpt>
      <trkpt lat="47.31421" lon="-0.21649">
        <ele>84</ele>
        <time>2012-11-04T10:06:49Z</time>
      </trkpt>
      <trkpt lat="47.31423" lon="-0.21654">
        <ele>84</ele>
        <time>2012-11-04T10:06:50Z</time>
      </trkpt>
      <trkpt lat="47.31425" lon="-0.2166">
        <ele>84</ele>
        <time>2012-11-04T10:06:51Z</time>
      </trkpt>
      <trkpt lat="47.31428" lon="-0.21665">
        <ele>84</ele>
        <time>2012-11-04T10:06:52Z</time>
      </trkpt>
      <trkpt lat="47.3143" lon="-0.21669">
        <ele>84</ele>
        <time>2012-11-04T10:06:53Z</time>
      </trkpt>
      <trkpt lat="47.31433" lon="-0.21674">
        <ele>84</ele>
        <time>2012-11-04T10:06:54Z</time>
      </trkpt>
      <trkpt lat="47.31437" lon="-0.21677">
        <ele>84</ele>
        <time>2012-11-04T10:06:55Z</time>
      </trkpt>
      <trkpt lat="47.31441" lon="-0.21679">
        <ele>84</ele>
        <time>2012-11-04T10:06:56Z</time>
      </trkpt>
      <trkpt lat="47.3146" lon="-0.21679">
        <ele>84</ele>
        <time>2012-11-04T10:07:01Z</time>
      </trkpt>
      <trkpt lat="47.31472" lon="-0.21681">
        <ele>84</ele>
        <time>2012-11-04T10:07:04Z</time>
      </trkpt>
      <trkpt lat="47.31476" lon="-0.21683">
        <ele>83.9</ele>
        <time>2012-11-04T10:07:05Z</time>
      </trkpt>
      <trkpt lat="47.3149" lon="-0.21688">
        <ele>83.9</ele>
        <time>2012-11-04T10:07:08Z</time>
      </trkpt>
      <trkpt lat="47.31494" lon="-0.21692">
        <ele>83.9</ele>
        <time>2012-11-04T10:07:09Z</time>
      </trkpt>
      <trkpt lat="47.31498" lon="-0.21695">
        <ele>84</ele>
        <time>2012-11-04T10:07:10Z</time>
      </trkpt>
      <trkpt lat="47.31502" lon="-0.21699">
        <ele>83.9</ele>
        <time>2012-11-04T10:07:11Z</time>
      </trkpt>
      <trkpt lat="47.31506" lon="-0.21703">
        <ele>83.9</ele>
        <time>2012-11-04T10:07:12Z</time>
      </trkpt>
      <trkpt lat="47.3151" lon="-0.21706">
        <ele>83.8</ele>
        <time>2012-11-04T10:07:13Z</time>
      </trkpt>
      <trkpt lat="47.31531" lon="-0.2172">
        <ele>83.8</ele>
        <time>2012-11-04T10:07:18Z</time>
      </trkpt>
      <trkpt lat="47.31535" lon="-0.21722">
        <ele>83.7</ele>
        <time>2012-11-04T10:07:19Z</time>
      </trkpt>
      <trkpt lat="47.31539" lon="-0.21726">
        <ele>83.6</ele>
        <time>2012-11-04T10:07:20Z</time>
      </trkpt>
      <trkpt lat="47.31543" lon="-0.21729">
        <ele>83.5</ele>
        <time>2012-11-04T10:07:21Z</time>
      </trkpt>
      <trkpt lat="47.31547" lon="-0.21732">
        <ele>83.3</ele>
        <time>2012-11-04T10:07:22Z</time>
      </trkpt>
      <trkpt lat="47.31552" lon="-0.21735">
        <ele>83.1</ele>
        <time>2012-11-04T10:07:23Z</time>
      </trkpt>
      <trkpt lat="47.31568" lon="-0.21747">
        <ele>83</ele>
        <time>2012-11-04T10:07:27Z</time>
      </trkpt>
      <trkpt lat="47.31589" lon="-0.21759">
        <ele>83</ele>
        <time>2012-11-04T10:07:34Z</time>
      </trkpt>
      <trkpt lat="47.31592" lon="-0.21757">
        <ele>83</ele>
        <time>2012-11-04T10:07:35Z</time>
      </trkpt>
      <trkpt lat="47.31594" lon="-0.21754">
        <ele>83</ele>
        <time>2012-11-04T10:07:36Z</time>
      </trkpt>
      <trkpt lat="47.31611" lon="-0.21742">
        <ele>83</ele>
        <time>2012-11-04T10:07:41Z</time>
      </trkpt>
      <trkpt lat="47.31616" lon="-0.21743">
        <ele>83</ele>
        <time>2012-11-04T10:07:42Z</time>
      </trkpt>
      <trkpt lat="47.3162" lon="-0.21745">
        <ele>83</ele>
        <time>2012-11-04T10:07:43Z</time>
      </trkpt>
      <trkpt lat="47.31625" lon="-0.21748">
        <ele>83</ele>
        <time>2012-11-04T10:07:44Z</time>
      </trkpt>
      <trkpt lat="47.31629" lon="-0.21752">
        <ele>83</ele>
        <time>2012-11-04T10:07:45Z</time>
      </trkpt>
      <trkpt lat="47.31633" lon="-0.21756">
        <ele>83.2</ele>
        <time>2012-11-04T10:07:46Z</time>
      </trkpt>
      <trkpt lat="47.31652" lon="-0.21775">
        <ele>83.5</ele>
        <time>2012-11-04T10:07:51Z</time>
      </trkpt>
      <trkpt lat="47.31656" lon="-0.21778">
        <ele>83.4</ele>
        <time>2012-11-04T10:07:52Z</time>
      </trkpt>
      <trkpt lat="47.3166" lon="-0.21782">
        <ele>83.2</ele>
        <time>2012-11-04T10:07:53Z</time>
      </trkpt>
      <trkpt lat="47.31663" lon="-0.21787">
        <ele>83.1</ele>
        <time>2012-11-04T10:07:54Z</time>
      </trkpt>
      <trkpt lat="47.31666" lon="-0.21792">
        <ele>83</ele>
        <time>2012-11-04T10:07:55Z</time>
      </trkpt>
      <trkpt lat="47.31669" lon="-0.21796">
        <ele>83</ele>
        <time>2012-11-04T10:07:56Z</time>
      </trkpt>
      <trkpt lat="47.31673" lon="-0.218">
        <ele>83</ele>
        <time>2012-11-04T10:07:57Z</time>
      </trkpt>
      <trkpt lat="47.31683" lon="-0.21812">
        <ele>83</ele>
        <time>2012-11-04T10:08:00Z</time>
      </trkpt>
      <trkpt lat="47.31687" lon="-0.21816">
        <ele>83</ele>
        <time>2012-11-04T10:08:01Z</time>
      </trkpt>
      <trkpt lat="47.31691" lon="-0.21818">
        <ele>83</ele>
        <time>2012-11-04T10:08:02Z</time>
      </trkpt>
      <trkpt lat="47.31695" lon="-0.2182">
        <ele>83</ele>
        <time>2012-11-04T10:08:03Z</time>
      </trkpt>
      <trkpt lat="47.31698" lon="-0.21822">
        <ele>83</ele>
        <time>2012-11-04T10:08:04Z</time>
      </trkpt>
      <trkpt lat="47.3172" lon="-0.21833">
        <ele>83</ele>
        <time>2012-11-04T10:08:10Z</time>
      </trkpt>
      <trkpt lat="47.31724" lon="-0.21836">
        <ele>83</ele>
        <time>2012-11-04T10:08:11Z</time>
      </trkpt>
      <trkpt lat="47.31728" lon="-0.21839">
        <ele>83</ele>
        <time>2012-11-04T10:08:12Z</time>
      </trkpt>
      <trkpt lat="47.31731" lon="-0.21842">
        <ele>83</ele>
        <time>2012-11-04T10:08:13Z</time>
      </trkpt>
      <trkpt lat="47.31739" lon="-0.21847">
        <ele>83</ele>
        <time>2012-11-04T10:08:15Z</time>
      </trkpt>
      <trkpt lat="47.31756" lon="-0.21856">
        <ele>83</ele>
        <time>2012-11-04T10:08:19Z</time>
      </trkpt>
      <trkpt lat="47.3176" lon="-0.21857">
        <ele>83</ele>
        <time>2012-11-04T10:08:20Z</time>
      </trkpt>
      <trkpt lat="47.31786" lon="-0.21864">
        <ele>82.7</ele>
        <time>2012-11-04T10:08:26Z</time>
      </trkpt>
      <trkpt lat="47.31798" lon="-0.21874">
        <ele>82.3</ele>
        <time>2012-11-04T10:08:30Z</time>
      </trkpt>
      <trkpt lat="47.31801" lon="-0.21876">
        <ele>82.2</ele>
        <time>2012-11-04T10:08:31Z</time>
      </trkpt>
      <trkpt lat="47.31824" lon="-0.21879">
        <ele>81.6</ele>
        <time>2012-11-04T10:08:36Z</time>
      </trkpt>
      <trkpt lat="47.31844" lon="-0.21878">
        <ele>81.2</ele>
        <time>2012-11-04T10:08:41Z</time>
      </trkpt>
      <trkpt lat="47.31853" lon="-0.21879">
        <ele>81.1</ele>
        <time>2012-11-04T10:08:43Z</time>
      </trkpt>
      <trkpt lat="47.31857" lon="-0.21879">
        <ele>81.1</ele>
        <time>2012-11-04T10:08:44Z</time>
      </trkpt>
      <trkpt lat="47.3186" lon="-0.21879">
        <ele>81</ele>
        <time>2012-11-04T10:08:45Z</time>
      </trkpt>
      <trkpt lat="47.31863" lon="-0.21879">
        <ele>81</ele>
        <time>2012-11-04T10:08:46Z</time>
      </trkpt>
      <trkpt lat="47.31866" lon="-0.21879">
        <ele>80.9</ele>
        <time>2012-11-04T10:08:47Z</time>
      </trkpt>
      <trkpt lat="47.3187" lon="-0.2188">
        <ele>80.8</ele>
        <time>2012-11-04T10:08:48Z</time>
      </trkpt>
      <trkpt lat="47.31874" lon="-0.21882">
        <ele>80.7</ele>
        <time>2012-11-04T10:08:49Z</time>
      </trkpt>
      <trkpt lat="47.31879" lon="-0.21885">
        <ele>80.4</ele>
        <time>2012-11-04T10:08:50Z</time>
      </trkpt>
      <trkpt lat="47.31882" lon="-0.21888">
        <ele>80.3</ele>
        <time>2012-11-04T10:08:51Z</time>
      </trkpt>
      <trkpt lat="47.31887" lon="-0.2189">
        <ele>80.1</ele>
        <time>2012-11-04T10:08:52Z</time>
      </trkpt>
      <trkpt lat="47.31891" lon="-0.21892">
        <ele>80</ele>
        <time>2012-11-04T10:08:53Z</time>
      </trkpt>
      <trkpt lat="47.31895" lon="-0.21895">
        <ele>80</ele>
        <time>2012-11-04T10:08:54Z</time>
      </trkpt>
      <trkpt lat="47.31926" lon="-0.21908">
        <ele>79.5</ele>
        <time>2012-11-04T10:09:01Z</time>
      </trkpt>
      <trkpt lat="47.31953" lon="-0.21904">
        <ele>80</ele>
        <time>2012-11-04T10:09:08Z</time>
      </trkpt>
      <trkpt lat="47.31962" lon="-0.21906">
        <ele>80</ele>
        <time>2012-11-04T10:09:10Z</time>
      </trkpt>
      <trkpt lat="47.31966" lon="-0.21907">
        <ele>80</ele>
        <time>2012-11-04T10:09:11Z</time>
      </trkpt>
      <trkpt lat="47.31983" lon="-0.2191">
        <ele>80</ele>
        <time>2012-11-04T10:09:15Z</time>
      </trkpt>
      <trkpt lat="47.31986" lon="-0.21908">
        <ele>80</ele>
        <time>2012-11-04T10:09:16Z</time>
      </trkpt>
      <trkpt lat="47.31988" lon="-0.21905">
        <ele>80</ele>
        <time>2012-11-04T10:09:17Z</time>
      </trkpt>
      <trkpt lat="47.31999" lon="-0.21896">
        <ele>80</ele>
        <time>2012-11-04T10:09:20Z</time>
      </trkpt>
      <trkpt lat="47.32002" lon="-0.21896">
        <ele>80</ele>
        <time>2012-11-04T10:09:21Z</time>
      </trkpt>
      <trkpt lat="47.32005" lon="-0.21897">
        <ele>80</ele>
        <time>2012-11-04T10:09:22Z</time>
      </trkpt>
      <trkpt lat="47.32022" lon="-0.21905">
        <ele>80</ele>
        <time>2012-11-04T10:09:26Z</time>
      </trkpt>
      <trkpt lat="47.32025" lon="-0.21906">
        <ele>80</ele>
        <time>2012-11-04T10:09:27Z</time>
      </trkpt>
      <trkpt lat="47.32041" lon="-0.21913">
        <ele>80</ele>
        <time>2012-11-04T10:09:32Z</time>
      </trkpt>
      <trkpt lat="47.32057" lon="-0.21908">
        <ele>80</ele>
        <time>2012-11-04T10:09:37Z</time>
      </trkpt>
      <trkpt lat="47.3206" lon="-0.2191">
        <ele>80</ele>
        <time>2012-11-04T10:09:38Z</time>
      </trkpt>
      <trkpt lat="47.32062" lon="-0.21911">
        <ele>80</ele>
        <time>2012-11-04T10:09:39Z</time>
      </trkpt>
      <trkpt lat="47.32064" lon="-0.21912">
        <ele>80</ele>
        <time>2012-11-04T10:09:40Z</time>
      </trkpt>
      <trkpt lat="47.32067" lon="-0.21915">
        <ele>80</ele>
        <time>2012-11-04T10:09:41Z</time>
      </trkpt>
      <trkpt lat="47.32069" lon="-0.21917">
        <ele>80</ele>
        <time>2012-11-04T10:09:42Z</time>
      </trkpt>
      <trkpt lat="47.32071" lon="-0.21919">
        <ele>80</ele>
        <time>2012-11-04T10:09:43Z</time>
      </trkpt>
      <trkpt lat="47.32073" lon="-0.21922">
        <ele>79.9</ele>
        <time>2012-11-04T10:09:44Z</time>
      </trkpt>
      <trkpt lat="47.32076" lon="-0.21924">
        <ele>79.8</ele>
        <time>2012-11-04T10:09:45Z</time>
      </trkpt>
      <trkpt lat="47.32078" lon="-0.21926">
        <ele>79.7</ele>
        <time>2012-11-04T10:09:46Z</time>
      </trkpt>
      <trkpt lat="47.32081" lon="-0.21926">
        <ele>79.7</ele>
        <time>2012-11-04T10:09:47Z</time>
      </trkpt>
      <trkpt lat="47.32088" lon="-0.21929">
        <ele>79.6</ele>
        <time>2012-11-04T10:09:51Z</time>
      </trkpt>
      <trkpt lat="47.32091" lon="-0.21929">
        <ele>79.6</ele>
        <time>2012-11-04T10:09:53Z</time>
      </trkpt>
      <trkpt lat="47.32094" lon="-0.21929">
        <ele>79.6</ele>
        <time>2012-11-04T10:09:55Z</time>
      </trkpt>
      <trkpt lat="47.32097" lon="-0.2193">
        <ele>79.5</ele>
        <time>2012-11-04T10:09:56Z</time>
      </trkpt>
      <trkpt lat="47.321" lon="-0.2193">
        <ele>79.5</ele>
        <time>2012-11-04T10:09:57Z</time>
      </trkpt>
      <trkpt lat="47.32103" lon="-0.21931">
        <ele>79.5</ele>
        <time>2012-11-04T10:09:58Z</time>
      </trkpt>
      <trkpt lat="47.32106" lon="-0.21931">
        <ele>79.5</ele>
        <time>2012-11-04T10:09:59Z</time>
      </trkpt>
      <trkpt lat="47.32132" lon="-0.21935">
        <ele>79.3</ele>
        <time>2012-11-04T10:10:06Z</time>
      </trkpt>
      <trkpt lat="47.32145" lon="-0.21936">
        <ele>79.2</ele>
        <time>2012-11-04T10:10:10Z</time>
      </trkpt>
      <trkpt lat="47.32162" lon="-0.2194">
        <ele>79</ele>
        <time>2012-11-04T10:10:15Z</time>
      </trkpt>
      <trkpt lat="47.32185" lon="-0.21944">
        <ele>79</ele>
        <time>2012-11-04T10:10:22Z</time>
      </trkpt>
      <trkpt lat="47.32203" lon="-0.21945">
        <ele>78.7</ele>
        <time>2012-11-04T10:10:28Z</time>
      </trkpt>
      <trkpt lat="47.32215" lon="-0.21933">
        <ele>78.6</ele>
        <time>2012-11-04T10:10:33Z</time>
      </trkpt>
      <trkpt lat="47.32226" lon="-0.21919">
        <ele>78.9</ele>
        <time>2012-11-04T10:10:39Z</time>
      </trkpt>
      <trkpt lat="47.3224" lon="-0.21898">
        <ele>79</ele>
        <time>2012-11-04T10:10:46Z</time>
      </trkpt>
      <trkpt lat="47.32253" lon="-0.21886">
        <ele>79.1</ele>
        <time>2012-11-04T10:10:52Z</time>
      </trkpt>
      <trkpt lat="47.32263" lon="-0.21879">
        <ele>79.4</ele>
        <time>2012-11-04T10:10:57Z</time>
      </trkpt>
      <trkpt lat="47.32272" lon="-0.21878">
        <ele>79.4</ele>
        <time>2012-11-04T10:11:01Z</time>
      </trkpt>
      <trkpt lat="47.32286" lon="-0.21874">
        <ele>79.4</ele>
        <time>2012-11-04T10:11:07Z</time>
      </trkpt>
      <trkpt lat="47.32288" lon="-0.21875">
        <ele>79.3</ele>
        <time>2012-11-04T10:11:08Z</time>
      </trkpt>
      <trkpt lat="47.32288" lon="-0.21877">
        <ele>79.3</ele>
        <time>2012-11-04T10:11:09Z</time>
      </trkpt>
      <trkpt lat="47.32289" lon="-0.21877">
        <ele>79.3</ele>
        <time>2012-11-04T10:11:14Z</time>
      </trkpt>
      <trkpt lat="47.3229" lon="-0.21878">
        <ele>79.2</ele>
        <time>2012-11-04T10:14:18Z</time>
      </trkpt>
      <trkpt lat="47.32289" lon="-0.2188">
        <ele>79.2</ele>
        <time>2012-11-04T10:14:19Z</time>
      </trkpt>
      <trkpt lat="47.32289" lon="-0.21883">
        <ele>79.1</ele>
        <time>2012-11-04T10:14:20Z</time>
      </trkpt>
      <trkpt lat="47.32288" lon="-0.21886">
        <ele>79.1</ele>
        <time>2012-11-04T10:14:21Z</time>
      </trkpt>
      <trkpt lat="47.32288" lon="-0.21888">
        <ele>79</ele>
        <time>2012-11-04T10:14:22Z</time>
      </trkpt>
      <trkpt lat="47.32288" lon="-0.21891">
        <ele>78.9</ele>
        <time>2012-11-04T10:14:23Z</time>
      </trkpt>
      <trkpt lat="47.32287" lon="-0.21895">
        <ele>78.8</ele>
        <time>2012-11-04T10:14:24Z</time>
      </trkpt>
      <trkpt lat="47.32287" lon="-0.21898">
        <ele>78.7</ele>
        <time>2012-11-04T10:14:25Z</time>
      </trkpt>
      <trkpt lat="47.32287" lon="-0.21901">
        <ele>78.6</ele>
        <time>2012-11-04T10:14:26Z</time>
      </trkpt>
      <trkpt lat="47.32284" lon="-0.2193">
        <ele>77.5</ele>
        <time>2012-11-04T10:14:32Z</time>
      </trkpt>
      <trkpt lat="47.32282" lon="-0.21965">
        <ele>76.3</ele>
        <time>2012-11-04T10:14:39Z</time>
      </trkpt>
      <trkpt lat="47.32287" lon="-0.21996">
        <ele>74.9</ele>
        <time>2012-11-04T10:14:45Z</time>
      </trkpt>
      <trkpt lat="47.32289" lon="-0.22007">
        <ele>74.3</ele>
        <time>2012-11-04T10:14:47Z</time>
      </trkpt>
      <trkpt lat="47.32292" lon="-0.22022">
        <ele>73.7</ele>
        <time>2012-11-04T10:14:49Z</time>
      </trkpt>
      <trkpt lat="47.32292" lon="-0.22028">
        <ele>73.5</ele>
        <time>2012-11-04T10:14:50Z</time>
      </trkpt>
      <trkpt lat="47.32293" lon="-0.22034">
        <ele>73.2</ele>
        <time>2012-11-04T10:14:51Z</time>
      </trkpt>
      <trkpt lat="47.32303" lon="-0.22068">
        <ele>71.6</ele>
        <time>2012-11-04T10:14:56Z</time>
      </trkpt>
      <trkpt lat="47.32307" lon="-0.22084">
        <ele>70.9</ele>
        <time>2012-11-04T10:14:58Z</time>
      </trkpt>
      <trkpt lat="47.32309" lon="-0.22092">
        <ele>70.6</ele>
        <time>2012-11-04T10:14:59Z</time>
      </trkpt>
      <trkpt lat="47.32312" lon="-0.221">
        <ele>70.2</ele>
        <time>2012-11-04T10:15:00Z</time>
      </trkpt>
      <trkpt lat="47.32319" lon="-0.22116">
        <ele>69.3</ele>
        <time>2012-11-04T10:15:02Z</time>
      </trkpt>
      <trkpt lat="47.32323" lon="-0.22124">
        <ele>68.9</ele>
        <time>2012-11-04T10:15:03Z</time>
      </trkpt>
      <trkpt lat="47.32328" lon="-0.2213">
        <ele>68.5</ele>
        <time>2012-11-04T10:15:04Z</time>
      </trkpt>
      <trkpt lat="47.32334" lon="-0.22135">
        <ele>68.1</ele>
        <time>2012-11-04T10:15:05Z</time>
      </trkpt>
      <trkpt lat="47.3234" lon="-0.22139">
        <ele>67.8</ele>
        <time>2012-11-04T10:15:06Z</time>
      </trkpt>
      <trkpt lat="47.32346" lon="-0.22143">
        <ele>67.5</ele>
        <time>2012-11-04T10:15:07Z</time>
      </trkpt>
      <trkpt lat="47.32371" lon="-0.22152">
        <ele>66.8</ele>
        <time>2012-11-04T10:15:11Z</time>
      </trkpt>
      <trkpt lat="47.32404" lon="-0.22168">
        <ele>66</ele>
        <time>2012-11-04T10:15:17Z</time>
      </trkpt>
      <trkpt lat="47.32415" lon="-0.22174">
        <ele>65.7</ele>
        <time>2012-11-04T10:15:19Z</time>
      </trkpt>
      <trkpt lat="47.3242" lon="-0.22177">
        <ele>65.7</ele>
        <time>2012-11-04T10:15:20Z</time>
      </trkpt>
      <trkpt lat="47.32425" lon="-0.22179">
        <ele>65.9</ele>
        <time>2012-11-04T10:15:21Z</time>
      </trkpt>
      <trkpt lat="47.3243" lon="-0.22181">
        <ele>66</ele>
        <time>2012-11-04T10:15:22Z</time>
      </trkpt>
      <trkpt lat="47.32435" lon="-0.22182">
        <ele>66.1</ele>
        <time>2012-11-04T10:15:23Z</time>
      </trkpt>
      <trkpt lat="47.3244" lon="-0.22184">
        <ele>66.2</ele>
        <time>2012-11-04T10:15:24Z</time>
      </trkpt>
      <trkpt lat="47.32455" lon="-0.2219">
        <ele>66.2</ele>
        <time>2012-11-04T10:15:28Z</time>
      </trkpt>
      <trkpt lat="47.32456" lon="-0.2219">
        <ele>66.2</ele>
        <time>2012-11-04T10:15:29Z</time>
      </trkpt>
      <trkpt lat="47.32457" lon="-0.22189">
        <ele>66.2</ele>
        <time>2012-11-04T10:15:33Z</time>
      </trkpt>
      <trkpt lat="47.32457" lon="-0.22187">
        <ele>66.3</ele>
        <time>2012-11-04T10:15:38Z</time>
      </trkpt>
      <trkpt lat="47.32458" lon="-0.22184">
        <ele>66.4</ele>
        <time>2012-11-04T10:15:39Z</time>
      </trkpt>
      <trkpt lat="47.32458" lon="-0.22181">
        <ele>66.5</ele>
        <time>2012-11-04T10:15:40Z</time>
      </trkpt>
      <trkpt lat="47.32458" lon="-0.22178">
        <ele>66.6</ele>
        <time>2012-11-04T10:15:41Z</time>
      </trkpt>
      <trkpt lat="47.32458" lon="-0.22175">
        <ele>66.7</ele>
        <time>2012-11-04T10:15:42Z</time>
      </trkpt>
      <trkpt lat="47.32459" lon="-0.22172">
        <ele>66.8</ele>
        <time>2012-11-04T10:15:43Z</time>
      </trkpt>
      <trkpt lat="47.32459" lon="-0.22168">
        <ele>67</ele>
        <time>2012-11-04T10:15:44Z</time>
      </trkpt>
      <trkpt lat="47.32459" lon="-0.22165">
        <ele>67.1</ele>
        <time>2012-11-04T10:15:45Z</time>
      </trkpt>
      <trkpt lat="47.3246" lon="-0.22146">
        <ele>67.7</ele>
        <time>2012-11-04T10:15:51Z</time>
      </trkpt>
      <trkpt lat="47.32459" lon="-0.22131">
        <ele>68.6</ele>
        <time>2012-11-04T10:15:56Z</time>
      </trkpt>
      <trkpt lat="47.32458" lon="-0.22128">
        <ele>68.8</ele>
        <time>2012-11-04T10:15:57Z</time>
      </trkpt>
      <trkpt lat="47.32458" lon="-0.22124">
        <ele>69.1</ele>
        <time>2012-11-04T10:15:58Z</time>
      </trkpt>
      <trkpt lat="47.32459" lon="-0.22121">
        <ele>69.3</ele>
        <time>2012-11-04T10:15:59Z</time>
      </trkpt>
      <trkpt lat="47.32459" lon="-0.22117">
        <ele>69.6</ele>
        <time>2012-11-04T10:16:00Z</time>
      </trkpt>
      <trkpt lat="47.32459" lon="-0.22113">
        <ele>69.9</ele>
        <time>2012-11-04T10:16:01Z</time>
      </trkpt>
      <trkpt lat="47.3246" lon="-0.22109">
        <ele>70.2</ele>
        <time>2012-11-04T10:16:02Z</time>
      </trkpt>
      <trkpt lat="47.32459" lon="-0.22094">
        <ele>71.8</ele>
        <time>2012-11-04T10:16:08Z</time>
      </trkpt>
      <trkpt lat="47.32458" lon="-0.22092">
        <ele>72.1</ele>
        <time>2012-11-04T10:16:09Z</time>
      </trkpt>
      <trkpt lat="47.32458" lon="-0.22087">
        <ele>72.6</ele>
        <time>2012-11-04T10:16:11Z</time>
      </trkpt>
      <trkpt lat="47.32459" lon="-0.22074">
        <ele>74</ele>
        <time>2012-11-04T10:16:16Z</time>
      </trkpt>
      <trkpt lat="47.32459" lon="-0.22072">
        <ele>74.2</ele>
        <time>2012-11-04T10:16:17Z</time>
      </trkpt>
      <trkpt lat="47.32459" lon="-0.22069">
        <ele>74.5</ele>
        <time>2012-11-04T10:16:18Z</time>
      </trkpt>
      <trkpt lat="47.32458" lon="-0.22057">
        <ele>75.8</ele>
        <time>2012-11-04T10:16:23Z</time>
      </trkpt>
      <trkpt lat="47.32458" lon="-0.22054">
        <ele>76.1</ele>
        <time>2012-11-04T10:16:24Z</time>
      </trkpt>
      <trkpt lat="47.32461" lon="-0.22038">
        <ele>77.3</ele>
        <time>2012-11-04T10:16:30Z</time>
      </trkpt>
      <trkpt lat="47.32461" lon="-0.22036">
        <ele>77.4</ele>
        <time>2012-11-04T10:16:31Z</time>
      </trkpt>
      <trkpt lat="47.32461" lon="-0.22034">
        <ele>77.6</ele>
        <time>2012-11-04T10:16:32Z</time>
      </trkpt>
      <trkpt lat="47.3246" lon="-0.22031">
        <ele>77.8</ele>
        <time>2012-11-04T10:16:33Z</time>
      </trkpt>
      <trkpt lat="47.3246" lon="-0.22028">
        <ele>78</ele>
        <time>2012-11-04T10:16:34Z</time>
      </trkpt>
      <trkpt lat="47.3246" lon="-0.22025">
        <ele>78.1</ele>
        <time>2012-11-04T10:16:35Z</time>
      </trkpt>
      <trkpt lat="47.32461" lon="-0.22021">
        <ele>78.2</ele>
        <time>2012-11-04T10:16:36Z</time>
      </trkpt>
      <trkpt lat="47.32461" lon="-0.22018">
        <ele>78.4</ele>
        <time>2012-11-04T10:16:37Z</time>
      </trkpt>
      <trkpt lat="47.32461" lon="-0.22015">
        <ele>78.5</ele>
        <time>2012-11-04T10:16:38Z</time>
      </trkpt>
      <trkpt lat="47.32462" lon="-0.21992">
        <ele>79</ele>
        <time>2012-11-04T10:16:46Z</time>
      </trkpt>
      <trkpt lat="47.32465" lon="-0.21973">
        <ele>79</ele>
        <time>2012-11-04T10:16:53Z</time>
      </trkpt>
      <trkpt lat="47.32469" lon="-0.2195">
        <ele>79.8</ele>
        <time>2012-11-04T10:17:01Z</time>
      </trkpt>
      <trkpt lat="47.32475" lon="-0.21926">
        <ele>80</ele>
        <time>2012-11-04T10:17:09Z</time>
      </trkpt>
      <trkpt lat="47.32481" lon="-0.21899">
        <ele>80</ele>
        <time>2012-11-04T10:17:17Z</time>
      </trkpt>
      <trkpt lat="47.32486" lon="-0.21868">
        <ele>80</ele>
        <time>2012-11-04T10:17:27Z</time>
      </trkpt>
      <trkpt lat="47.32489" lon="-0.21858">
        <ele>80</ele>
        <time>2012-11-04T10:17:32Z</time>
      </trkpt>
      <trkpt lat="47.325" lon="-0.21841">
        <ele>80</ele>
        <time>2012-11-04T10:17:38Z</time>
      </trkpt>
      <trkpt lat="47.32514" lon="-0.21816">
        <ele>79.4</ele>
        <time>2012-11-04T10:17:46Z</time>
      </trkpt>
      <trkpt lat="47.32516" lon="-0.21814">
        <ele>79.3</ele>
        <time>2012-11-04T10:17:47Z</time>
      </trkpt>
      <trkpt lat="47.32519" lon="-0.21813">
        <ele>79.3</ele>
        <time>2012-11-04T10:17:48Z</time>
      </trkpt>
      <trkpt lat="47.32521" lon="-0.21812">
        <ele>79.2</ele>
        <time>2012-11-04T10:17:49Z</time>
      </trkpt>
      <trkpt lat="47.32523" lon="-0.2181">
        <ele>79.2</ele>
        <time>2012-11-04T10:17:50Z</time>
      </trkpt>
      <trkpt lat="47.32525" lon="-0.21809">
        <ele>79.1</ele>
        <time>2012-11-04T10:17:51Z</time>
      </trkpt>
      <trkpt lat="47.32546" lon="-0.21789">
        <ele>79</ele>
        <time>2012-11-04T10:17:58Z</time>
      </trkpt>
      <trkpt lat="47.32559" lon="-0.21773">
        <ele>79</ele>
        <time>2012-11-04T10:18:04Z</time>
      </trkpt>
      <trkpt lat="47.3257" lon="-0.21758">
        <ele>78.6</ele>
        <time>2012-11-04T10:18:09Z</time>
      </trkpt>
      <trkpt lat="47.3258" lon="-0.2174">
        <ele>78.1</ele>
        <time>2012-11-04T10:18:15Z</time>
      </trkpt>
      <trkpt lat="47.32594" lon="-0.21727">
        <ele>78</ele>
        <time>2012-11-04T10:18:21Z</time>
      </trkpt>
      <trkpt lat="47.32595" lon="-0.21724">
        <ele>78</ele>
        <time>2012-11-04T10:18:22Z</time>
      </trkpt>
      <trkpt lat="47.32597" lon="-0.21721">
        <ele>78</ele>
        <time>2012-11-04T10:18:24Z</time>
      </trkpt>
      <trkpt lat="47.32599" lon="-0.2172">
        <ele>78</ele>
        <time>2012-11-04T10:18:25Z</time>
      </trkpt>
      <trkpt lat="47.32602" lon="-0.21719">
        <ele>78</ele>
        <time>2012-11-04T10:18:26Z</time>
      </trkpt>
      <trkpt lat="47.32604" lon="-0.21717">
        <ele>78</ele>
        <time>2012-11-04T10:18:27Z</time>
      </trkpt>
      <trkpt lat="47.32606" lon="-0.21715">
        <ele>78</ele>
        <time>2012-11-04T10:18:28Z</time>
      </trkpt>
      <trkpt lat="47.32609" lon="-0.21713">
        <ele>78</ele>
        <time>2012-11-04T10:18:29Z</time>
      </trkpt>
      <trkpt lat="47.32612" lon="-0.21712">
        <ele>78</ele>
        <time>2012-11-04T10:18:30Z</time>
      </trkpt>
      <trkpt lat="47.32613" lon="-0.21712">
        <ele>78</ele>
        <time>2012-11-04T10:18:31Z</time>
      </trkpt>
      <trkpt lat="47.32628" lon="-0.21714">
        <ele>78</ele>
        <time>2012-11-04T10:18:36Z</time>
      </trkpt>
      <trkpt lat="47.32641" lon="-0.21717">
        <ele>77.9</ele>
        <time>2012-11-04T10:18:41Z</time>
      </trkpt>
      <trkpt lat="47.32643" lon="-0.21716">
        <ele>77.9</ele>
        <time>2012-11-04T10:18:42Z</time>
      </trkpt>
      <trkpt lat="47.32645" lon="-0.21716">
        <ele>77.8</ele>
        <time>2012-11-04T10:18:43Z</time>
      </trkpt>
      <trkpt lat="47.32647" lon="-0.21716">
        <ele>77.7</ele>
        <time>2012-11-04T10:18:44Z</time>
      </trkpt>
      <trkpt lat="47.32648" lon="-0.21717">
        <ele>77.7</ele>
        <time>2012-11-04T10:18:45Z</time>
      </trkpt>
      <trkpt lat="47.3265" lon="-0.21718">
        <ele>77.6</ele>
        <time>2012-11-04T10:18:46Z</time>
      </trkpt>
      <trkpt lat="47.32652" lon="-0.21719">
        <ele>77.5</ele>
        <time>2012-11-04T10:18:47Z</time>
      </trkpt>
      <trkpt lat="47.32654" lon="-0.2172">
        <ele>77.5</ele>
        <time>2012-11-04T10:18:48Z</time>
      </trkpt>
      <trkpt lat="47.32658" lon="-0.21721">
        <ele>77.3</ele>
        <time>2012-11-04T10:18:49Z</time>
      </trkpt>
      <trkpt lat="47.32661" lon="-0.21722">
        <ele>77.2</ele>
        <time>2012-11-04T10:18:50Z</time>
      </trkpt>
      <trkpt lat="47.32663" lon="-0.21721">
        <ele>77.1</ele>
        <time>2012-11-04T10:18:51Z</time>
      </trkpt>
      <trkpt lat="47.32666" lon="-0.21719">
        <ele>77</ele>
        <time>2012-11-04T10:18:52Z</time>
      </trkpt>
      <trkpt lat="47.3268" lon="-0.21707">
        <ele>76.5</ele>
        <time>2012-11-04T10:18:58Z</time>
      </trkpt>
      <trkpt lat="47.32692" lon="-0.21695">
        <ele>76.1</ele>
        <time>2012-11-04T10:19:03Z</time>
      </trkpt>
      <trkpt lat="47.32698" lon="-0.21685">
        <ele>76</ele>
        <time>2012-11-04T10:19:07Z</time>
      </trkpt>
      <trkpt lat="47.32716" lon="-0.21678">
        <ele>76</ele>
        <time>2012-11-04T10:19:11Z</time>
      </trkpt>
      <trkpt lat="47.32721" lon="-0.21676">
        <ele>76</ele>
        <time>2012-11-04T10:19:12Z</time>
      </trkpt>
      <trkpt lat="47.32726" lon="-0.21673">
        <ele>76</ele>
        <time>2012-11-04T10:19:13Z</time>
      </trkpt>
      <trkpt lat="47.32755" lon="-0.21653">
        <ele>75.2</ele>
        <time>2012-11-04T10:19:19Z</time>
      </trkpt>
      <trkpt lat="47.3276" lon="-0.2165">
        <ele>74.9</ele>
        <time>2012-11-04T10:19:20Z</time>
      </trkpt>
      <trkpt lat="47.32769" lon="-0.21644">
        <ele>74.4</ele>
        <time>2012-11-04T10:19:22Z</time>
      </trkpt>
      <trkpt lat="47.32773" lon="-0.2164">
        <ele>74.2</ele>
        <time>2012-11-04T10:19:23Z</time>
      </trkpt>
      <trkpt lat="47.32777" lon="-0.21636">
        <ele>74.1</ele>
        <time>2012-11-04T10:19:24Z</time>
      </trkpt>
      <trkpt lat="47.3278" lon="-0.21632">
        <ele>74.2</ele>
        <time>2012-11-04T10:19:25Z</time>
      </trkpt>
      <trkpt lat="47.32784" lon="-0.21628">
        <ele>74.3</ele>
        <time>2012-11-04T10:19:26Z</time>
      </trkpt>
      <trkpt lat="47.32788" lon="-0.21624">
        <ele>74.3</ele>
        <time>2012-11-04T10:19:27Z</time>
      </trkpt>
      <trkpt lat="47.32799" lon="-0.21619">
        <ele>74.2</ele>
        <time>2012-11-04T10:19:30Z</time>
      </trkpt>
      <trkpt lat="47.32803" lon="-0.21621">
        <ele>74.1</ele>
        <time>2012-11-04T10:19:31Z</time>
      </trkpt>
      <trkpt lat="47.32806" lon="-0.21624">
        <ele>74</ele>
        <time>2012-11-04T10:19:32Z</time>
      </trkpt>
      <trkpt lat="47.3281" lon="-0.21627">
        <ele>73.8</ele>
        <time>2012-11-04T10:19:33Z</time>
      </trkpt>
      <trkpt lat="47.32814" lon="-0.21627">
        <ele>73.7</ele>
        <time>2012-11-04T10:19:34Z</time>
      </trkpt>
      <trkpt lat="47.32818" lon="-0.21627">
        <ele>73.6</ele>
        <time>2012-11-04T10:19:35Z</time>
      </trkpt>
      <trkpt lat="47.3282" lon="-0.21625">
        <ele>73.5</ele>
        <time>2012-11-04T10:19:36Z</time>
      </trkpt>
      <trkpt lat="47.32822" lon="-0.21623">
        <ele>73.4</ele>
        <time>2012-11-04T10:19:37Z</time>
      </trkpt>
      <trkpt lat="47.32824" lon="-0.2162">
        <ele>73.3</ele>
        <time>2012-11-04T10:19:38Z</time>
      </trkpt>
      <trkpt lat="47.32826" lon="-0.21618">
        <ele>73.3</ele>
        <time>2012-11-04T10:19:39Z</time>
      </trkpt>
      <trkpt lat="47.32828" lon="-0.21616">
        <ele>73.2</ele>
        <time>2012-11-04T10:19:40Z</time>
      </trkpt>
      <trkpt lat="47.32831" lon="-0.21613">
        <ele>73.1</ele>
        <time>2012-11-04T10:19:41Z</time>
      </trkpt>
      <trkpt lat="47.32834" lon="-0.2161">
        <ele>73</ele>
        <time>2012-11-04T10:19:42Z</time>
      </trkpt>
      <trkpt lat="47.32837" lon="-0.21608">
        <ele>72.9</ele>
        <time>2012-11-04T10:19:43Z</time>
      </trkpt>
      <trkpt lat="47.32847" lon="-0.21597">
        <ele>72.8</ele>
        <time>2012-11-04T10:19:47Z</time>
      </trkpt>
      <trkpt lat="47.32849" lon="-0.21597">
        <ele>72.7</ele>
        <time>2012-11-04T10:19:48Z</time>
      </trkpt>
      <trkpt lat="47.32851" lon="-0.216">
        <ele>72.6</ele>
        <time>2012-11-04T10:19:49Z</time>
      </trkpt>
      <trkpt lat="47.32853" lon="-0.21603">
        <ele>72.5</ele>
        <time>2012-11-04T10:19:50Z</time>
      </trkpt>
      <trkpt lat="47.32854" lon="-0.21606">
        <ele>72.4</ele>
        <time>2012-11-04T10:19:51Z</time>
      </trkpt>
      <trkpt lat="47.32865" lon="-0.21627">
        <ele>72.5</ele>
        <time>2012-11-04T10:19:56Z</time>
      </trkpt>
      <trkpt lat="47.32868" lon="-0.21631">
        <ele>72.5</ele>
        <time>2012-11-04T10:19:57Z</time>
      </trkpt>
      <trkpt lat="47.32879" lon="-0.21664">
        <ele>72.4</ele>
        <time>2012-11-04T10:20:03Z</time>
      </trkpt>
      <trkpt lat="47.32886" lon="-0.21679">
        <ele>72.1</ele>
        <time>2012-11-04T10:20:06Z</time>
      </trkpt>
      <trkpt lat="47.32887" lon="-0.21685">
        <ele>72.1</ele>
        <time>2012-11-04T10:20:07Z</time>
      </trkpt>
      <trkpt lat="47.32889" lon="-0.2169">
        <ele>72</ele>
        <time>2012-11-04T10:20:08Z</time>
      </trkpt>
      <trkpt lat="47.32891" lon="-0.21695">
        <ele>71.9</ele>
        <time>2012-11-04T10:20:09Z</time>
      </trkpt>
      <trkpt lat="47.32893" lon="-0.21701">
        <ele>71.9</ele>
        <time>2012-11-04T10:20:10Z</time>
      </trkpt>
      <trkpt lat="47.32893" lon="-0.21707">
        <ele>71.9</ele>
        <time>2012-11-04T10:20:11Z</time>
      </trkpt>
      <trkpt lat="47.32893" lon="-0.21716">
        <ele>71.9</ele>
        <time>2012-11-04T10:20:12Z</time>
      </trkpt>
      <trkpt lat="47.32894" lon="-0.21723">
        <ele>71.8</ele>
        <time>2012-11-04T10:20:13Z</time>
      </trkpt>
      <trkpt lat="47.32896" lon="-0.2173">
        <ele>71.7</ele>
        <time>2012-11-04T10:20:14Z</time>
      </trkpt>
      <trkpt lat="47.32898" lon="-0.21736">
        <ele>71.7</ele>
        <time>2012-11-04T10:20:15Z</time>
      </trkpt>
      <trkpt lat="47.329" lon="-0.21742">
        <ele>71.6</ele>
        <time>2012-11-04T10:20:16Z</time>
      </trkpt>
      <trkpt lat="47.32902" lon="-0.21748">
        <ele>71.5</ele>
        <time>2012-11-04T10:20:17Z</time>
      </trkpt>
      <trkpt lat="47.32904" lon="-0.21755">
        <ele>71.5</ele>
        <time>2012-11-04T10:20:18Z</time>
      </trkpt>
      <trkpt lat="47.32906" lon="-0.21761">
        <ele>71.4</ele>
        <time>2012-11-04T10:20:19Z</time>
      </trkpt>
      <trkpt lat="47.32907" lon="-0.21768">
        <ele>71.3</ele>
        <time>2012-11-04T10:20:20Z</time>
      </trkpt>
      <trkpt lat="47.32908" lon="-0.21774">
        <ele>71.3</ele>
        <time>2012-11-04T10:20:21Z</time>
      </trkpt>
      <trkpt lat="47.3291" lon="-0.2178">
        <ele>71.2</ele>
        <time>2012-11-04T10:20:22Z</time>
      </trkpt>
      <trkpt lat="47.32911" lon="-0.21786">
        <ele>71.2</ele>
        <time>2012-11-04T10:20:23Z</time>
      </trkpt>
      <trkpt lat="47.32913" lon="-0.21793">
        <ele>71.1</ele>
        <time>2012-11-04T10:20:24Z</time>
      </trkpt>
      <trkpt lat="47.32916" lon="-0.21799">
        <ele>71</ele>
        <time>2012-11-04T10:20:25Z</time>
      </trkpt>
      <trkpt lat="47.32918" lon="-0.21805">
        <ele>71</ele>
        <time>2012-11-04T10:20:26Z</time>
      </trkpt>
      <trkpt lat="47.3292" lon="-0.21812">
        <ele>70.9</ele>
        <time>2012-11-04T10:20:27Z</time>
      </trkpt>
      <trkpt lat="47.32922" lon="-0.21819">
        <ele>70.8</ele>
        <time>2012-11-04T10:20:28Z</time>
      </trkpt>
      <trkpt lat="47.32926" lon="-0.21831">
        <ele>70.7</ele>
        <time>2012-11-04T10:20:30Z</time>
      </trkpt>
      <trkpt lat="47.32927" lon="-0.21838">
        <ele>70.6</ele>
        <time>2012-11-04T10:20:31Z</time>
      </trkpt>
      <trkpt lat="47.3293" lon="-0.21852">
        <ele>70.5</ele>
        <time>2012-11-04T10:20:33Z</time>
      </trkpt>
      <trkpt lat="47.32931" lon="-0.21859">
        <ele>70.5</ele>
        <time>2012-11-04T10:20:34Z</time>
      </trkpt>
      <trkpt lat="47.32932" lon="-0.21875">
        <ele>70.4</ele>
        <time>2012-11-04T10:20:36Z</time>
      </trkpt>
      <trkpt lat="47.32934" lon="-0.21883">
        <ele>70.4</ele>
        <time>2012-11-04T10:20:37Z</time>
      </trkpt>
      <trkpt lat="47.32935" lon="-0.21892">
        <ele>70.3</ele>
        <time>2012-11-04T10:20:38Z</time>
      </trkpt>
      <trkpt lat="47.32937" lon="-0.219">
        <ele>70.3</ele>
        <time>2012-11-04T10:20:39Z</time>
      </trkpt>
      <trkpt lat="47.32938" lon="-0.21907">
        <ele>70.2</ele>
        <time>2012-11-04T10:20:40Z</time>
      </trkpt>
      <trkpt lat="47.32945" lon="-0.21938">
        <ele>70.8</ele>
        <time>2012-11-04T10:20:45Z</time>
      </trkpt>
      <trkpt lat="47.32945" lon="-0.21942">
        <ele>70.9</ele>
        <time>2012-11-04T10:20:46Z</time>
      </trkpt>
      <trkpt lat="47.32945" lon="-0.21945">
        <ele>71</ele>
        <time>2012-11-04T10:20:47Z</time>
      </trkpt>
      <trkpt lat="47.32945" lon="-0.21948">
        <ele>71</ele>
        <time>2012-11-04T10:20:48Z</time>
      </trkpt>
      <trkpt lat="47.32945" lon="-0.21952">
        <ele>71</ele>
        <time>2012-11-04T10:20:49Z</time>
      </trkpt>
      <trkpt lat="47.32945" lon="-0.21956">
        <ele>71</ele>
        <time>2012-11-04T10:20:50Z</time>
      </trkpt>
      <trkpt lat="47.32948" lon="-0.21971">
        <ele>70.9</ele>
        <time>2012-11-04T10:20:54Z</time>
      </trkpt>
      <trkpt lat="47.32949" lon="-0.2199">
        <ele>71.4</ele>
        <time>2012-11-04T10:20:58Z</time>
      </trkpt>
      <trkpt lat="47.32947" lon="-0.21995">
        <ele>71.7</ele>
        <time>2012-11-04T10:20:59Z</time>
      </trkpt>
      <trkpt lat="47.32945" lon="-0.22004">
        <ele>72</ele>
        <time>2012-11-04T10:21:01Z</time>
      </trkpt>
      <trkpt lat="47.32945" lon="-0.2201">
        <ele>72</ele>
        <time>2012-11-04T10:21:02Z</time>
      </trkpt>
      <trkpt lat="47.32945" lon="-0.22016">
        <ele>72</ele>
        <time>2012-11-04T10:21:03Z</time>
      </trkpt>
      <trkpt lat="47.32951" lon="-0.22041">
        <ele>71.5</ele>
        <time>2012-11-04T10:21:08Z</time>
      </trkpt>
      <trkpt lat="47.32953" lon="-0.22047">
        <ele>71.4</ele>
        <time>2012-11-04T10:21:11Z</time>
      </trkpt>
      <trkpt lat="47.32942" lon="-0.22053">
        <ele>72.1</ele>
        <time>2012-11-04T10:21:17Z</time>
      </trkpt>
      <trkpt lat="47.3294" lon="-0.22055">
        <ele>72.2</ele>
        <time>2012-11-04T10:21:18Z</time>
      </trkpt>
      <trkpt lat="47.32933" lon="-0.22078">
        <ele>72.1</ele>
        <time>2012-11-04T10:21:24Z</time>
      </trkpt>
      <trkpt lat="47.3292" lon="-0.2208">
        <ele>72.1</ele>
        <time>2012-11-04T10:21:28Z</time>
      </trkpt>
      <trkpt lat="47.32904" lon="-0.22083">
        <ele>72</ele>
        <time>2012-11-04T10:21:32Z</time>
      </trkpt>
      <trkpt lat="47.32893" lon="-0.22083">
        <ele>72</ele>
        <time>2012-11-04T10:21:35Z</time>
      </trkpt>
      <trkpt lat="47.32882" lon="-0.22099">
        <ele>71.2</ele>
        <time>2012-11-04T10:21:41Z</time>
      </trkpt>
      <trkpt lat="47.32874" lon="-0.22117">
        <ele>70.4</ele>
        <time>2012-11-04T10:21:46Z</time>
      </trkpt>
      <trkpt lat="47.32871" lon="-0.2212">
        <ele>70.2</ele>
        <time>2012-11-04T10:21:47Z</time>
      </trkpt>
      <trkpt lat="47.3286" lon="-0.22122">
        <ele>70</ele>
        <time>2012-11-04T10:21:50Z</time>
      </trkpt>
      <trkpt lat="47.32844" lon="-0.22113">
        <ele>70</ele>
        <time>2012-11-04T10:21:56Z</time>
      </trkpt>
      <trkpt lat="47.32836" lon="-0.22123">
        <ele>69.6</ele>
        <time>2012-11-04T10:22:01Z</time>
      </trkpt>
      <trkpt lat="47.32837" lon="-0.22138">
        <ele>69.2</ele>
        <time>2012-11-04T10:22:05Z</time>
      </trkpt>
      <trkpt lat="47.32839" lon="-0.22149">
        <ele>68.8</ele>
        <time>2012-11-04T10:22:07Z</time>
      </trkpt>
      <trkpt lat="47.32841" lon="-0.22155">
        <ele>68.7</ele>
        <time>2012-11-04T10:22:08Z</time>
      </trkpt>
      <trkpt lat="47.32843" lon="-0.22161">
        <ele>68.6</ele>
        <time>2012-11-04T10:22:09Z</time>
      </trkpt>
      <trkpt lat="47.32845" lon="-0.22166">
        <ele>68.4</ele>
        <time>2012-11-04T10:22:10Z</time>
      </trkpt>
      <trkpt lat="47.32855" lon="-0.22195">
        <ele>67.2</ele>
        <time>2012-11-04T10:22:15Z</time>
      </trkpt>
      <trkpt lat="47.32857" lon="-0.22201">
        <ele>67.1</ele>
        <time>2012-11-04T10:22:16Z</time>
      </trkpt>
      <trkpt lat="47.32869" lon="-0.22223">
        <ele>67</ele>
        <time>2012-11-04T10:22:21Z</time>
      </trkpt>
      <trkpt lat="47.3287" lon="-0.22227">
        <ele>66.9</ele>
        <time>2012-11-04T10:22:22Z</time>
      </trkpt>
      <trkpt lat="47.32878" lon="-0.2225">
        <ele>66.6</ele>
        <time>2012-11-04T10:22:28Z</time>
      </trkpt>
      <trkpt lat="47.32879" lon="-0.22253">
        <ele>66.6</ele>
        <time>2012-11-04T10:22:29Z</time>
      </trkpt>
      <trkpt lat="47.32881" lon="-0.22256">
        <ele>66.6</ele>
        <time>2012-11-04T10:22:30Z</time>
      </trkpt>
      <trkpt lat="47.32883" lon="-0.2226">
        <ele>66.5</ele>
        <time>2012-11-04T10:22:31Z</time>
      </trkpt>
      <trkpt lat="47.32885" lon="-0.22264">
        <ele>66.4</ele>
        <time>2012-11-04T10:22:32Z</time>
      </trkpt>
      <trkpt lat="47.32887" lon="-0.22268">
        <ele>66.3</ele>
        <time>2012-11-04T10:22:33Z</time>
      </trkpt>
      <trkpt lat="47.32889" lon="-0.22272">
        <ele>66.2</ele>
        <time>2012-11-04T10:22:34Z</time>
      </trkpt>
      <trkpt lat="47.32891" lon="-0.22277">
        <ele>66.1</ele>
        <time>2012-11-04T10:22:35Z</time>
      </trkpt>
      <trkpt lat="47.32902" lon="-0.22303">
        <ele>65.6</ele>
        <time>2012-11-04T10:22:40Z</time>
      </trkpt>
      <trkpt lat="47.32907" lon="-0.22315">
        <ele>65.2</ele>
        <time>2012-11-04T10:22:42Z</time>
      </trkpt>
      <trkpt lat="47.32914" lon="-0.22338">
        <ele>64.1</ele>
        <time>2012-11-04T10:22:46Z</time>
      </trkpt>
      <trkpt lat="47.32916" lon="-0.22342">
        <ele>64</ele>
        <time>2012-11-04T10:22:47Z</time>
      </trkpt>
      <trkpt lat="47.32919" lon="-0.22347">
        <ele>64</ele>
        <time>2012-11-04T10:22:48Z</time>
      </trkpt>
      <trkpt lat="47.32921" lon="-0.22351">
        <ele>64.1</ele>
        <time>2012-11-04T10:22:49Z</time>
      </trkpt>
      <trkpt lat="47.32922" lon="-0.22356">
        <ele>64</ele>
        <time>2012-11-04T10:22:50Z</time>
      </trkpt>
      <trkpt lat="47.32922" lon="-0.2236">
        <ele>64</ele>
        <time>2012-11-04T10:22:51Z</time>
      </trkpt>
      <trkpt lat="47.3292" lon="-0.22363">
        <ele>64</ele>
        <time>2012-11-04T10:22:52Z</time>
      </trkpt>
      <trkpt lat="47.32918" lon="-0.22366">
        <ele>64</ele>
        <time>2012-11-04T10:22:53Z</time>
      </trkpt>
      <trkpt lat="47.32917" lon="-0.22369">
        <ele>64</ele>
        <time>2012-11-04T10:22:54Z</time>
      </trkpt>
      <trkpt lat="47.32915" lon="-0.22372">
        <ele>64.1</ele>
        <time>2012-11-04T10:22:55Z</time>
      </trkpt>
      <trkpt lat="47.32913" lon="-0.22375">
        <ele>64.1</ele>
        <time>2012-11-04T10:22:56Z</time>
      </trkpt>
      <trkpt lat="47.32897" lon="-0.22391">
        <ele>64.7</ele>
        <time>2012-11-04T10:23:01Z</time>
      </trkpt>
      <trkpt lat="47.3288" lon="-0.22406">
        <ele>65.3</ele>
        <time>2012-11-04T10:23:06Z</time>
      </trkpt>
      <trkpt lat="47.32864" lon="-0.2242">
        <ele>65.8</ele>
        <time>2012-11-04T10:23:11Z</time>
      </trkpt>
      <trkpt lat="47.32848" lon="-0.22421">
        <ele>65.9</ele>
        <time>2012-11-04T10:23:15Z</time>
      </trkpt>
      <trkpt lat="47.32841" lon="-0.22412">
        <ele>66.1</ele>
        <time>2012-11-04T10:23:18Z</time>
      </trkpt>
      <trkpt lat="47.32839" lon="-0.22408">
        <ele>66.2</ele>
        <time>2012-11-04T10:23:19Z</time>
      </trkpt>
      <trkpt lat="47.32838" lon="-0.22405">
        <ele>66.3</ele>
        <time>2012-11-04T10:23:20Z</time>
      </trkpt>
      <trkpt lat="47.32836" lon="-0.22401">
        <ele>66.5</ele>
        <time>2012-11-04T10:23:21Z</time>
      </trkpt>
      <trkpt lat="47.32834" lon="-0.22398">
        <ele>66.7</ele>
        <time>2012-11-04T10:23:22Z</time>
      </trkpt>
      <trkpt lat="47.32832" lon="-0.22394">
        <ele>66.8</ele>
        <time>2012-11-04T10:23:23Z</time>
      </trkpt>
      <trkpt lat="47.3283" lon="-0.2239">
        <ele>66.8</ele>
        <time>2012-11-04T10:23:24Z</time>
      </trkpt>
      <trkpt lat="47.32828" lon="-0.22386">
        <ele>66.8</ele>
        <time>2012-11-04T10:23:25Z</time>
      </trkpt>
      <trkpt lat="47.32827" lon="-0.22382">
        <ele>66.8</ele>
        <time>2012-11-04T10:23:26Z</time>
      </trkpt>
      <trkpt lat="47.32825" lon="-0.22378">
        <ele>66.7</ele>
        <time>2012-11-04T10:23:27Z</time>
      </trkpt>
      <trkpt lat="47.32822" lon="-0.22375">
        <ele>66.6</ele>
        <time>2012-11-04T10:23:28Z</time>
      </trkpt>
      <trkpt lat="47.3282" lon="-0.22371">
        <ele>66.5</ele>
        <time>2012-11-04T10:23:29Z</time>
      </trkpt>
      <trkpt lat="47.32818" lon="-0.22365">
        <ele>66.4</ele>
        <time>2012-11-04T10:23:30Z</time>
      </trkpt>
      <trkpt lat="47.32815" lon="-0.22358">
        <ele>66.3</ele>
        <time>2012-11-04T10:23:31Z</time>
      </trkpt>
      <trkpt lat="47.32812" lon="-0.22352">
        <ele>66.2</ele>
        <time>2012-11-04T10:23:32Z</time>
      </trkpt>
      <trkpt lat="47.32809" lon="-0.22346">
        <ele>66.1</ele>
        <time>2012-11-04T10:23:33Z</time>
      </trkpt>
      <trkpt lat="47.32807" lon="-0.2234">
        <ele>66</ele>
        <time>2012-11-04T10:23:34Z</time>
      </trkpt>
      <trkpt lat="47.32798" lon="-0.22319">
        <ele>66</ele>
        <time>2012-11-04T10:23:38Z</time>
      </trkpt>
      <trkpt lat="47.32795" lon="-0.22314">
        <ele>66</ele>
        <time>2012-11-04T10:23:39Z</time>
      </trkpt>
      <trkpt lat="47.32783" lon="-0.22291">
        <ele>66.4</ele>
        <time>2012-11-04T10:23:44Z</time>
      </trkpt>
      <trkpt lat="47.32777" lon="-0.2228">
        <ele>67</ele>
        <time>2012-11-04T10:23:46Z</time>
      </trkpt>
      <trkpt lat="47.32774" lon="-0.22276">
        <ele>67.2</ele>
        <time>2012-11-04T10:23:47Z</time>
      </trkpt>
      <trkpt lat="47.32772" lon="-0.2227">
        <ele>67.5</ele>
        <time>2012-11-04T10:23:48Z</time>
      </trkpt>
      <trkpt lat="47.3277" lon="-0.22264">
        <ele>67.8</ele>
        <time>2012-11-04T10:23:49Z</time>
      </trkpt>
      <trkpt lat="47.32767" lon="-0.22259">
        <ele>68.1</ele>
        <time>2012-11-04T10:23:50Z</time>
      </trkpt>
      <trkpt lat="47.32765" lon="-0.22253">
        <ele>68.4</ele>
        <time>2012-11-04T10:23:51Z</time>
      </trkpt>
      <trkpt lat="47.32763" lon="-0.22248">
        <ele>68.5</ele>
        <time>2012-11-04T10:23:52Z</time>
      </trkpt>
      <trkpt lat="47.3276" lon="-0.22243">
        <ele>68.6</ele>
        <time>2012-11-04T10:23:53Z</time>
      </trkpt>
      <trkpt lat="47.32757" lon="-0.22238">
        <ele>68.7</ele>
        <time>2012-11-04T10:23:54Z</time>
      </trkpt>
      <trkpt lat="47.32755" lon="-0.22233">
        <ele>68.8</ele>
        <time>2012-11-04T10:23:55Z</time>
      </trkpt>
      <trkpt lat="47.32746" lon="-0.22207">
        <ele>69.8</ele>
        <time>2012-11-04T10:24:00Z</time>
      </trkpt>
      <trkpt lat="47.32746" lon="-0.22201">
        <ele>70</ele>
        <time>2012-11-04T10:24:01Z</time>
      </trkpt>
      <trkpt lat="47.32747" lon="-0.22195">
        <ele>70.2</ele>
        <time>2012-11-04T10:24:02Z</time>
      </trkpt>
      <trkpt lat="47.32749" lon="-0.22191">
        <ele>70.2</ele>
        <time>2012-11-04T10:24:03Z</time>
      </trkpt>
      <trkpt lat="47.32751" lon="-0.22186">
        <ele>70.3</ele>
        <time>2012-11-04T10:24:04Z</time>
      </trkpt>
      <trkpt lat="47.32753" lon="-0.22182">
        <ele>70.3</ele>
        <time>2012-11-04T10:24:05Z</time>
      </trkpt>
      <trkpt lat="47.32755" lon="-0.22178">
        <ele>70.4</ele>
        <time>2012-11-04T10:24:06Z</time>
      </trkpt>
      <trkpt lat="47.32757" lon="-0.22173">
        <ele>70.5</ele>
        <time>2012-11-04T10:24:07Z</time>
      </trkpt>
      <trkpt lat="47.3276" lon="-0.22168">
        <ele>70.6</ele>
        <time>2012-11-04T10:24:08Z</time>
      </trkpt>
      <trkpt lat="47.32765" lon="-0.2216">
        <ele>70.6</ele>
        <time>2012-11-04T10:24:10Z</time>
      </trkpt>
      <trkpt lat="47.32778" lon="-0.22135">
        <ele>70.1</ele>
        <time>2012-11-04T10:24:15Z</time>
      </trkpt>
      <trkpt lat="47.32792" lon="-0.22115">
        <ele>70.3</ele>
        <time>2012-11-04T10:24:19Z</time>
      </trkpt>
      <trkpt lat="47.32795" lon="-0.22111">
        <ele>70.4</ele>
        <time>2012-11-04T10:24:20Z</time>
      </trkpt>
      <trkpt lat="47.32806" lon="-0.22096">
        <ele>70</ele>
        <time>2012-11-04T10:24:24Z</time>
      </trkpt>
      <trkpt lat="47.32806" lon="-0.22094">
        <ele>70</ele>
        <time>2012-11-04T10:24:25Z</time>
      </trkpt>
      <trkpt lat="47.32806" lon="-0.22092">
        <ele>70</ele>
        <time>2012-11-04T10:24:26Z</time>
      </trkpt>
      <trkpt lat="47.32805" lon="-0.22089">
        <ele>70</ele>
        <time>2012-11-04T10:24:27Z</time>
      </trkpt>
      <trkpt lat="47.32805" lon="-0.22086">
        <ele>70</ele>
        <time>2012-11-04T10:24:28Z</time>
      </trkpt>
      <trkpt lat="47.32804" lon="-0.22083">
        <ele>70.1</ele>
        <time>2012-11-04T10:24:29Z</time>
      </trkpt>
      <trkpt lat="47.32803" lon="-0.2208">
        <ele>70.3</ele>
        <time>2012-11-04T10:24:30Z</time>
      </trkpt>
      <trkpt lat="47.32802" lon="-0.22076">
        <ele>70.5</ele>
        <time>2012-11-04T10:24:31Z</time>
      </trkpt>
      <trkpt lat="47.32801" lon="-0.22072">
        <ele>70.7</ele>
        <time>2012-11-04T10:24:32Z</time>
      </trkpt>
      <trkpt lat="47.32798" lon="-0.22062">
        <ele>71.1</ele>
        <time>2012-11-04T10:24:34Z</time>
      </trkpt>
      <trkpt lat="47.32787" lon="-0.22034">
        <ele>72.4</ele>
        <time>2012-11-04T10:24:41Z</time>
      </trkpt>
      <trkpt lat="47.32784" lon="-0.22027">
        <ele>72.8</ele>
        <time>2012-11-04T10:24:43Z</time>
      </trkpt>
      <trkpt lat="47.32781" lon="-0.22023">
        <ele>73.1</ele>
        <time>2012-11-04T10:24:44Z</time>
      </trkpt>
      <trkpt lat="47.32779" lon="-0.22019">
        <ele>73.3</ele>
        <time>2012-11-04T10:24:45Z</time>
      </trkpt>
      <trkpt lat="47.32774" lon="-0.22002">
        <ele>74.1</ele>
        <time>2012-11-04T10:24:49Z</time>
      </trkpt>
      <trkpt lat="47.32772" lon="-0.21999">
        <ele>74.2</ele>
        <time>2012-11-04T10:24:50Z</time>
      </trkpt>
      <trkpt lat="47.32771" lon="-0.21994">
        <ele>74.5</ele>
        <time>2012-11-04T10:24:51Z</time>
      </trkpt>
      <trkpt lat="47.32769" lon="-0.2199">
        <ele>74.7</ele>
        <time>2012-11-04T10:24:52Z</time>
      </trkpt>
      <trkpt lat="47.32768" lon="-0.21986">
        <ele>74.9</ele>
        <time>2012-11-04T10:24:53Z</time>
      </trkpt>
      <trkpt lat="47.32766" lon="-0.21983">
        <ele>75</ele>
        <time>2012-11-04T10:24:54Z</time>
      </trkpt>
      <trkpt lat="47.32764" lon="-0.21979">
        <ele>75.3</ele>
        <time>2012-11-04T10:24:55Z</time>
      </trkpt>
      <trkpt lat="47.32762" lon="-0.21975">
        <ele>75.5</ele>
        <time>2012-11-04T10:24:56Z</time>
      </trkpt>
      <trkpt lat="47.32759" lon="-0.21972">
        <ele>75.7</ele>
        <time>2012-11-04T10:24:57Z</time>
      </trkpt>
      <trkpt lat="47.32757" lon="-0.2197">
        <ele>75.8</ele>
        <time>2012-11-04T10:24:58Z</time>
      </trkpt>
      <trkpt lat="47.32754" lon="-0.21968">
        <ele>76</ele>
        <time>2012-11-04T10:24:59Z</time>
      </trkpt>
      <trkpt lat="47.32752" lon="-0.21968">
        <ele>76.1</ele>
        <time>2012-11-04T10:25:00Z</time>
      </trkpt>
      <trkpt lat="47.32749" lon="-0.21968">
        <ele>76.2</ele>
        <time>2012-11-04T10:25:01Z</time>
      </trkpt>
      <trkpt lat="47.32747" lon="-0.21969">
        <ele>76.2</ele>
        <time>2012-11-04T10:25:02Z</time>
      </trkpt>
      <trkpt lat="47.32745" lon="-0.21971">
        <ele>76.2</ele>
        <time>2012-11-04T10:25:03Z</time>
      </trkpt>
      <trkpt lat="47.32743" lon="-0.21973">
        <ele>76.2</ele>
        <time>2012-11-04T10:25:04Z</time>
      </trkpt>
      <trkpt lat="47.32742" lon="-0.21976">
        <ele>76.2</ele>
        <time>2012-11-04T10:25:05Z</time>
      </trkpt>
      <trkpt lat="47.32741" lon="-0.21979">
        <ele>76.2</ele>
        <time>2012-11-04T10:25:06Z</time>
      </trkpt>
      <trkpt lat="47.32732" lon="-0.22002">
        <ele>76.3</ele>
        <time>2012-11-04T10:25:11Z</time>
      </trkpt>
      <trkpt lat="47.3273" lon="-0.22008">
        <ele>76.4</ele>
        <time>2012-11-04T10:25:12Z</time>
      </trkpt>
      <trkpt lat="47.32727" lon="-0.22019">
        <ele>76.7</ele>
        <time>2012-11-04T10:25:14Z</time>
      </trkpt>
      <trkpt lat="47.32724" lon="-0.22031">
        <ele>76.9</ele>
        <time>2012-11-04T10:25:16Z</time>
      </trkpt>
      <trkpt lat="47.32713" lon="-0.22073">
        <ele>76.9</ele>
        <time>2012-11-04T10:25:22Z</time>
      </trkpt>
      <trkpt lat="47.32707" lon="-0.22086">
        <ele>77</ele>
        <time>2012-11-04T10:25:24Z</time>
      </trkpt>
      <trkpt lat="47.32705" lon="-0.22092">
        <ele>76.9</ele>
        <time>2012-11-04T10:25:25Z</time>
      </trkpt>
      <trkpt lat="47.32703" lon="-0.22098">
        <ele>76.9</ele>
        <time>2012-11-04T10:25:26Z</time>
      </trkpt>
      <trkpt lat="47.32701" lon="-0.22105">
        <ele>76.7</ele>
        <time>2012-11-04T10:25:27Z</time>
      </trkpt>
      <trkpt lat="47.327" lon="-0.2211">
        <ele>76.6</ele>
        <time>2012-11-04T10:25:28Z</time>
      </trkpt>
      <trkpt lat="47.32698" lon="-0.22117">
        <ele>76.5</ele>
        <time>2012-11-04T10:25:29Z</time>
      </trkpt>
      <trkpt lat="47.32697" lon="-0.22123">
        <ele>76.4</ele>
        <time>2012-11-04T10:25:30Z</time>
      </trkpt>
      <trkpt lat="47.32696" lon="-0.22131">
        <ele>76.2</ele>
        <time>2012-11-04T10:25:31Z</time>
      </trkpt>
      <trkpt lat="47.32694" lon="-0.22139">
        <ele>76</ele>
        <time>2012-11-04T10:25:32Z</time>
      </trkpt>
      <trkpt lat="47.32693" lon="-0.22148">
        <ele>75.4</ele>
        <time>2012-11-04T10:25:33Z</time>
      </trkpt>
      <trkpt lat="47.32691" lon="-0.22157">
        <ele>74.8</ele>
        <time>2012-11-04T10:25:34Z</time>
      </trkpt>
      <trkpt lat="47.32686" lon="-0.22205">
        <ele>72.2</ele>
        <time>2012-11-04T10:25:39Z</time>
      </trkpt>
      <trkpt lat="47.32685" lon="-0.22214">
        <ele>71.6</ele>
        <time>2012-11-04T10:25:40Z</time>
      </trkpt>
      <trkpt lat="47.32683" lon="-0.22221">
        <ele>71.1</ele>
        <time>2012-11-04T10:25:41Z</time>
      </trkpt>
      <trkpt lat="47.3268" lon="-0.22228">
        <ele>70.8</ele>
        <time>2012-11-04T10:25:42Z</time>
      </trkpt>
      <trkpt lat="47.32675" lon="-0.22233">
        <ele>70.6</ele>
        <time>2012-11-04T10:25:43Z</time>
      </trkpt>
      <trkpt lat="47.32671" lon="-0.22236">
        <ele>70.5</ele>
        <time>2012-11-04T10:25:44Z</time>
      </trkpt>
      <trkpt lat="47.32662" lon="-0.2224">
        <ele>70.2</ele>
        <time>2012-11-04T10:25:46Z</time>
      </trkpt>
      <trkpt lat="47.32658" lon="-0.22241">
        <ele>70</ele>
        <time>2012-11-04T10:25:47Z</time>
      </trkpt>
      <trkpt lat="47.32653" lon="-0.22241">
        <ele>69.8</ele>
        <time>2012-11-04T10:25:48Z</time>
      </trkpt>
      <trkpt lat="47.32648" lon="-0.22242">
        <ele>69.6</ele>
        <time>2012-11-04T10:25:49Z</time>
      </trkpt>
      <trkpt lat="47.32644" lon="-0.22243">
        <ele>69.4</ele>
        <time>2012-11-04T10:25:50Z</time>
      </trkpt>
      <trkpt lat="47.32634" lon="-0.22245">
        <ele>69</ele>
        <time>2012-11-04T10:25:54Z</time>
      </trkpt>
      <trkpt lat="47.32624" lon="-0.22245">
        <ele>68.6</ele>
        <time>2012-11-04T10:25:58Z</time>
      </trkpt>
      <trkpt lat="47.32623" lon="-0.22244">
        <ele>68.6</ele>
        <time>2012-11-04T10:25:59Z</time>
      </trkpt>
      <trkpt lat="47.3262" lon="-0.22244">
        <ele>68.5</ele>
        <time>2012-11-04T10:26:05Z</time>
      </trkpt>
      <trkpt lat="47.32618" lon="-0.22242">
        <ele>68.5</ele>
        <time>2012-11-04T10:26:10Z</time>
      </trkpt>
      <trkpt lat="47.32617" lon="-0.22241">
        <ele>68.5</ele>
        <time>2012-11-04T10:26:28Z</time>
      </trkpt>
      <trkpt lat="47.32616" lon="-0.2224">
        <ele>68.5</ele>
        <time>2012-11-04T10:26:29Z</time>
      </trkpt>
      <trkpt lat="47.32614" lon="-0.2224">
        <ele>68.5</ele>
        <time>2012-11-04T10:26:30Z</time>
      </trkpt>
      <trkpt lat="47.32611" lon="-0.2224">
        <ele>68.4</ele>
        <time>2012-11-04T10:26:31Z</time>
      </trkpt>
      <trkpt lat="47.32608" lon="-0.2224">
        <ele>68.3</ele>
        <time>2012-11-04T10:26:32Z</time>
      </trkpt>
      <trkpt lat="47.32606" lon="-0.2224">
        <ele>68.3</ele>
        <time>2012-11-04T10:26:33Z</time>
      </trkpt>
      <trkpt lat="47.32602" lon="-0.2224">
        <ele>68.2</ele>
        <time>2012-11-04T10:26:34Z</time>
      </trkpt>
      <trkpt lat="47.32589" lon="-0.22239">
        <ele>68.1</ele>
        <time>2012-11-04T10:26:37Z</time>
      </trkpt>
      <trkpt lat="47.32552" lon="-0.22231">
        <ele>67.6</ele>
        <time>2012-11-04T10:26:43Z</time>
      </trkpt>
      <trkpt lat="47.32546" lon="-0.22229">
        <ele>67.4</ele>
        <time>2012-11-04T10:26:44Z</time>
      </trkpt>
      <trkpt lat="47.3254" lon="-0.22227">
        <ele>67.3</ele>
        <time>2012-11-04T10:26:45Z</time>
      </trkpt>
      <trkpt lat="47.32534" lon="-0.22226">
        <ele>67.1</ele>
        <time>2012-11-04T10:26:46Z</time>
      </trkpt>
      <trkpt lat="47.32529" lon="-0.22224">
        <ele>67</ele>
        <time>2012-11-04T10:26:47Z</time>
      </trkpt>
      <trkpt lat="47.32512" lon="-0.22222">
        <ele>66.4</ele>
        <time>2012-11-04T10:26:51Z</time>
      </trkpt>
      <trkpt lat="47.32509" lon="-0.22225">
        <ele>66.2</ele>
        <time>2012-11-04T10:26:52Z</time>
      </trkpt>
      <trkpt lat="47.32508" lon="-0.22229">
        <ele>66</ele>
        <time>2012-11-04T10:26:53Z</time>
      </trkpt>
      <trkpt lat="47.32509" lon="-0.22238">
        <ele>65.8</ele>
        <time>2012-11-04T10:26:55Z</time>
      </trkpt>
      <trkpt lat="47.32509" lon="-0.22243">
        <ele>65.6</ele>
        <time>2012-11-04T10:26:56Z</time>
      </trkpt>
      <trkpt lat="47.32511" lon="-0.22248">
        <ele>65.5</ele>
        <time>2012-11-04T10:26:57Z</time>
      </trkpt>
      <trkpt lat="47.32513" lon="-0.22254">
        <ele>65.5</ele>
        <time>2012-11-04T10:26:58Z</time>
      </trkpt>
      <trkpt lat="47.32515" lon="-0.2226">
        <ele>65.5</ele>
        <time>2012-11-04T10:26:59Z</time>
      </trkpt>
      <trkpt lat="47.32517" lon="-0.22265">
        <ele>65.6</ele>
        <time>2012-11-04T10:27:00Z</time>
      </trkpt>
      <trkpt lat="47.3252" lon="-0.2227">
        <ele>65.7</ele>
        <time>2012-11-04T10:27:01Z</time>
      </trkpt>
      <trkpt lat="47.32522" lon="-0.22276">
        <ele>65.8</ele>
        <time>2012-11-04T10:27:02Z</time>
      </trkpt>
      <trkpt lat="47.32527" lon="-0.22285">
        <ele>65.7</ele>
        <time>2012-11-04T10:27:04Z</time>
      </trkpt>
      <trkpt lat="47.3253" lon="-0.2229">
        <ele>65.6</ele>
        <time>2012-11-04T10:27:05Z</time>
      </trkpt>
      <trkpt lat="47.32532" lon="-0.22296">
        <ele>65.4</ele>
        <time>2012-11-04T10:27:06Z</time>
      </trkpt>
      <trkpt lat="47.32536" lon="-0.2231">
        <ele>65.1</ele>
        <time>2012-11-04T10:27:08Z</time>
      </trkpt>
      <trkpt lat="47.32539" lon="-0.22317">
        <ele>65</ele>
        <time>2012-11-04T10:27:09Z</time>
      </trkpt>
      <trkpt lat="47.32547" lon="-0.22339">
        <ele>64.7</ele>
        <time>2012-11-04T10:27:13Z</time>
      </trkpt>
      <trkpt lat="47.3255" lon="-0.22345">
        <ele>64.8</ele>
        <time>2012-11-04T10:27:14Z</time>
      </trkpt>
      <trkpt lat="47.32553" lon="-0.2235">
        <ele>64.9</ele>
        <time>2012-11-04T10:27:15Z</time>
      </trkpt>
      <trkpt lat="47.32554" lon="-0.22355">
        <ele>64.9</ele>
        <time>2012-11-04T10:27:16Z</time>
      </trkpt>
      <trkpt lat="47.32556" lon="-0.2236">
        <ele>65</ele>
        <time>2012-11-04T10:27:17Z</time>
      </trkpt>
      <trkpt lat="47.32572" lon="-0.22389">
        <ele>65.6</ele>
        <time>2012-11-04T10:27:23Z</time>
      </trkpt>
      <trkpt lat="47.32589" lon="-0.22423">
        <ele>66.2</ele>
        <time>2012-11-04T10:27:30Z</time>
      </trkpt>
      <trkpt lat="47.32589" lon="-0.22429">
        <ele>66.2</ele>
        <time>2012-11-04T10:27:31Z</time>
      </trkpt>
      <trkpt lat="47.32583" lon="-0.22464">
        <ele>66.7</ele>
        <time>2012-11-04T10:27:37Z</time>
      </trkpt>
      <trkpt lat="47.32575" lon="-0.22492">
        <ele>66.5</ele>
        <time>2012-11-04T10:27:43Z</time>
      </trkpt>
      <trkpt lat="47.32573" lon="-0.22497">
        <ele>66.3</ele>
        <time>2012-11-04T10:27:44Z</time>
      </trkpt>
      <trkpt lat="47.32571" lon="-0.22502">
        <ele>66</ele>
        <time>2012-11-04T10:27:45Z</time>
      </trkpt>
      <trkpt lat="47.32569" lon="-0.22508">
        <ele>65.7</ele>
        <time>2012-11-04T10:27:46Z</time>
      </trkpt>
      <trkpt lat="47.3256" lon="-0.22527">
        <ele>64.3</ele>
        <time>2012-11-04T10:27:49Z</time>
      </trkpt>
      <trkpt lat="47.32543" lon="-0.22562">
        <ele>64</ele>
        <time>2012-11-04T10:27:54Z</time>
      </trkpt>
      <trkpt lat="47.32524" lon="-0.22598">
        <ele>63.5</ele>
        <time>2012-11-04T10:27:59Z</time>
      </trkpt>
      <trkpt lat="47.32513" lon="-0.22619">
        <ele>63.5</ele>
        <time>2012-11-04T10:28:02Z</time>
      </trkpt>
      <trkpt lat="47.32495" lon="-0.2266">
        <ele>63.2</ele>
        <time>2012-11-04T10:28:08Z</time>
      </trkpt>
      <trkpt lat="47.32471" lon="-0.22717">
        <ele>63.2</ele>
        <time>2012-11-04T10:28:16Z</time>
      </trkpt>
      <trkpt lat="47.32443" lon="-0.22775">
        <ele>63.9</ele>
        <time>2012-11-04T10:28:25Z</time>
      </trkpt>
      <trkpt lat="47.32428" lon="-0.22809">
        <ele>63.7</ele>
        <time>2012-11-04T10:28:31Z</time>
      </trkpt>
      <trkpt lat="47.32426" lon="-0.22815">
        <ele>64</ele>
        <time>2012-11-04T10:28:32Z</time>
      </trkpt>
      <trkpt lat="47.32414" lon="-0.22863">
        <ele>65.1</ele>
        <time>2012-11-04T10:28:40Z</time>
      </trkpt>
      <trkpt lat="47.32408" lon="-0.2289">
        <ele>65.3</ele>
        <time>2012-11-04T10:28:45Z</time>
      </trkpt>
      <trkpt lat="47.32404" lon="-0.22905">
        <ele>64.9</ele>
        <time>2012-11-04T10:28:50Z</time>
      </trkpt>
      <trkpt lat="47.32403" lon="-0.22908">
        <ele>64.8</ele>
        <time>2012-11-04T10:28:56Z</time>
      </trkpt>
      <trkpt lat="47.32404" lon="-0.22911">
        <ele>64.7</ele>
        <time>2012-11-04T10:29:04Z</time>
      </trkpt>
      <trkpt lat="47.32404" lon="-0.2291">
        <ele>64.7</ele>
        <time>2012-11-04T10:29:10Z</time>
      </trkpt>
      <trkpt lat="47.32404" lon="-0.22908">
        <ele>64.8</ele>
        <time>2012-11-04T10:29:16Z</time>
      </trkpt>
      <trkpt lat="47.32402" lon="-0.22908">
        <ele>64.8</ele>
        <time>2012-11-04T10:32:45Z</time>
      </trkpt>
    </trkseg>
  </trk>
</gpx>